# Wetter Temperatur Luftdruck Luftfeuchtigkeit Sichtweite Windgeschwindigkeit Windrichtung Zeit
1 Clear 15 1019 63 10000 2.6 90 21:42 28.01.2020
2 Clear 15 1019 63 10000 2.6 90 21:23 28.01.2020
3 Clear 15 1019 63 10000 2.6 90 21:23 28.01.2020
4 Clear 17 1020 55 10000 3.1 110 20:58 28.01.2020
5 Clear 17 1020 55 10000 3.1 110 20:40 28.01.2020
6 Clear 17 1020 55 10000 3.1 110 20:21 28.01.2020
7 Clear 17 1020 52 10000 1.5 40 19:39 28.01.2020
8 Clear 17 1020 52 10000 1.5 40 19:20 28.01.2020
9 Clear 18 1020 56 10000 2.1 350 18:58 28.01.2020
10 Clear 17 1020 56 10000 2.1 350 18:40 28.01.2020
11 Clear 18 1020 56 10000 2.1 350 18:21 28.01.2020
12 Clear 18 1020 56 10000 2.1 350 18:21 28.01.2020
13 Clear 18 1019 56 10000 3.6 350 17:57 28.01.2020
14 Clear 19 1019 56 10000 3.6 350 17:37 28.01.2020
15 Clear 19 1019 56 10000 3.6 350 17:19 28.01.2020
16 Clear 19 1019 56 10000 4.1 350 16:54 28.01.2020
17 Clear 19 1019 56 10000 4.1 350 16:36 28.01.2020
18 Clear 19 1019 56 10000 4.1 350 16:18 28.01.2020
19 Clear 20 1019 46 10000 4.1 350 15:41 28.01.2020
20 Clear 20 1019 46 10000 4.1 350 15:19 28.01.2020
21 Clear 20 1019 46 10000 4.1 350 15:19 28.01.2020
22 Clear 21 1018 46 10000 6.2 330 14:46 28.01.2020
23 Clear 21 1018 46 10000 6.2 330 14:20 28.01.2020
24 Clear 22 1018 43 10000 5.7 350 13:58 28.01.2020
25 Clear 22 1018 43 10000 5.7 350 13:39 28.01.2020
26 Clear 22 1018 43 10000 5.7 350 13:20 28.01.2020
27 Clear 22 1018 37 10000 5.1 340 12:42 28.01.2020
28 Clear 22 1018 37 10000 5.1 340 12:23 28.01.2020
29 Clear 23 1019 28 10000 2.6 120 11:48 28.01.2020
30 Clear 23 1019 28 10000 2.6 120 11:23 28.01.2020
31 Clear 22 1020 28 10000 1 0 10:58 28.01.2020
32 Clear 22 1020 28 10000 1 0 10:39 28.01.2020
33 Clear 22 1020 28 10000 1 0 10:20 28.01.2020
34 Clear 21 1021 37 10000 1.5 0 09:43 28.01.2020
35 Clear 20 1021 37 10000 1.5 0 09:21 28.01.2020
36 Clear 20 1022 49 10000 2.6 170 08:57 28.01.2020
37 Clear 19 1022 49 10000 2.6 170 08:39 28.01.2020
38 Clear 19 1022 49 10000 2.6 170 08:18 28.01.2020
39 Clear 17 1022 63 10000 3.1 180 07:37 28.01.2020
40 Clear 17 1022 63 10000 3.1 180 07:37 28.01.2020
41 Clear 15 1022 72 10000 3.1 170 06:50 28.01.2020
42 Clear 15 1022 72 10000 3.1 170 06:26 28.01.2020
43 Clear 13 1021 76 10000 1.5 170 05:54 28.01.2020
44 Clear 13 1021 76 10000 1.5 170 05:26 28.01.2020
45 Clouds 13 1019 76 10000 1 0 03:59 28.01.2020
46 Clouds 13 1019 76 10000 1.5 140 02:58 28.01.2020
47 Clouds 13 1019 76 10000 1.5 140 02:25 28.01.2020
48 Clouds 14 1019 72 10000 2.1 160 01:57 28.01.2020
49 Clouds 14 1019 72 10000 2.1 160 01:23 28.01.2020
50 Clouds 14 1019 72 10000 1.5 170 00:45 28.01.2020
51 Clouds 14 1019 72 10000 1.5 170 00:24 28.01.2020
52 Clouds 15 1019 72 10000 2.1 160 23:48 27.01.2020
53 Clouds 15 1019 72 10000 2.1 160 23:29 27.01.2020
54 Clouds 16 1019 55 10000 1.5 220 22:54 27.01.2020
55 Clouds 16 1019 55 10000 1.5 220 22:36 27.01.2020
56 Clouds 16 1019 55 10000 1.5 220 22:18 27.01.2020
57 Clouds 16 1019 55 10000 2.1 260 21:40 27.01.2020
58 Clouds 16 1019 55 10000 2.1 260 21:19 27.01.2020
59 Clouds 17 1020 45 10000 2.6 270 20:59 27.01.2020
60 Clouds 17 1020 45 10000 2.6 270 20:40 27.01.2020
61 Clouds 17 1020 45 10000 2.6 270 20:21 27.01.2020
62 Clouds 18 1020 52 10000 3.1 270 19:58 27.01.2020
63 Clouds 18 1020 52 10000 3.1 270 19:40 27.01.2020
64 Clouds 18 1020 52 10000 3.1 270 19:21 27.01.2020
65 Clouds 18 1020 48 10000 3.6 280 18:55 27.01.2020
66 Clouds 18 1020 48 10000 3.6 280 18:37 27.01.2020
67 Clouds 18 1020 48 10000 3.6 280 18:19 27.01.2020
68 Clear 18 1019 52 0 4.47 250 17:39 27.01.2020
69 Clouds 19 1019 45 10000 5.1 300 17:19 27.01.2020
70 Clouds 19 1019 45 10000 5.1 300 16:57 27.01.2020
71 Clouds 19 1019 45 10000 5.1 300 16:39 27.01.2020
72 Clouds 19 1019 45 10000 5.1 300 16:21 27.01.2020
73 Clear 19 1019 49 10000 6.2 280 15:54 27.01.2020
74 Clear 19 1019 49 10000 6.2 280 15:36 27.01.2020
75 Clear 19 1019 49 10000 6.2 280 15:18 27.01.2020
76 Clouds 20 1018 46 10000 6.7 300 14:40 27.01.2020
77 Clouds 20 1018 46 10000 6.7 300 14:21 27.01.2020
78 Clouds 20 1018 49 10000 8.2 310 13:54 27.01.2020
79 Clouds 20 1018 49 10000 8.2 310 13:36 27.01.2020
80 Clouds 20 1018 49 10000 8.2 310 13:18 27.01.2020
81 Clouds 21 1018 52 10000 7.2 280 12:41 27.01.2020
82 Clouds 21 1018 52 10000 7.2 280 12:22 27.01.2020
83 Clouds 21 1019 52 10000 8.2 300 11:43 27.01.2020
84 Clouds 21 1019 52 10000 8.2 300 11:23 27.01.2020
85 Clouds 21 1020 43 10000 4.6 290 10:57 27.01.2020
86 Clouds 21 1020 43 10000 4.6 290 10:57 27.01.2020
87 Clouds 21 1020 43 10000 4.6 290 10:39 27.01.2020
88 Clouds 21 1020 43 10000 4.6 290 10:20 27.01.2020
89 Clouds 21 1020 46 10000 5.1 300 09:40 27.01.2020
90 Clouds 21 1020 46 10000 5.1 300 09:19 27.01.2020
91 Clear 20 1021 63 10000 3.1 200 09:19 27.01.2020
92 Clear 20 1021 63 10000 3.1 200 08:57 27.01.2020
93 Clear 19 1021 63 10000 3.1 200 08:39 27.01.2020
94 Clear 19 1021 63 10000 3.1 200 08:19 27.01.2020
95 Clouds 18 1021 67 10000 2.6 190 07:47 27.01.2020
96 Clouds 18 1021 67 10000 2.6 190 07:47 27.01.2020
97 Clouds 18 1021 67 10000 2.6 190 07:29 27.01.2020
98 Clouds 16 1021 67 10000 3.1 170 06:38 27.01.2020
99 Clouds 14 1020 76 10000 3.6 200 05:51 27.01.2020
100 Clouds 14 1020 76 10000 3.6 200 05:18 27.01.2020
101 Clouds 13 1019 76 10000 2.6 180 03:35 27.01.2020
102 Clouds 15 1018 63 10000 2.6 150 01:56 27.01.2020
103 Clouds 15 1018 63 10000 2.6 150 01:27 27.01.2020
104 Clouds 16 1018 48 10000 4.1 320 00:42 27.01.2020
105 Clouds 16 1018 48 10000 4.1 320 00:22 27.01.2020
106 Clouds 16 1018 52 10000 4.1 320 23:46 26.01.2020
107 Clouds 16 1018 52 10000 4.1 320 23:27 26.01.2020
108 Clouds 17 1018 45 10000 5.1 320 22:59 26.01.2020
109 Clouds 17 1018 45 10000 5.1 320 22:39 26.01.2020
110 Clouds 17 1018 45 10000 5.1 320 22:20 26.01.2020
111 Clouds 17 1018 45 10000 6.2 320 21:58 26.01.2020
112 Clouds 17 1018 45 10000 6.2 320 21:39 26.01.2020
113 Clouds 17 1018 45 10000 6.2 320 21:21 26.01.2020
114 Clouds 17 1018 45 10000 6.2 320 21:21 26.01.2020
115 Clouds 18 1019 48 10000 6.2 310 20:58 26.01.2020
116 Clouds 18 1019 48 10000 6.2 310 20:38 26.01.2020
117 Clouds 18 1019 48 10000 6.2 310 20:19 26.01.2020
118 Clouds 17 1019 52 10000 8.2 300 19:58 26.01.2020
119 Clouds 17 1019 52 10000 8.2 300 19:38 26.01.2020
120 Clouds 17 1019 52 10000 8.2 300 19:38 26.01.2020
121 Clouds 18 1019 52 10000 8.2 300 19:20 26.01.2020
122 Clouds 17 1018 52 10000 8.2 300 18:56 26.01.2020
123 Clouds 17 1018 52 10000 8.2 300 18:38 26.01.2020
124 Clouds 17 1018 52 10000 8.2 300 18:20 26.01.2020
125 Clouds 17 1018 55 10000 8.2 300 17:55 26.01.2020
126 Clouds 17 1018 55 10000 8.2 300 17:36 26.01.2020
127 Clouds 17 1018 55 10000 8.2 300 17:18 26.01.2020
128 Clouds 17 1018 55 10000 8.2 290 16:56 26.01.2020
129 Clouds 17 1018 55 10000 8.2 290 16:56 26.01.2020
130 Clouds 17 1018 67 10000 5.1 270 16:37 26.01.2020
131 Clouds 16 1018 67 10000 5.1 270 16:18 26.01.2020
132 Rain 18 1020 45 0 9.39 280 15:43 26.01.2020
133 Rain 18 1020 45 0 9.39 280 15:21 26.01.2020
134 Rain 18 1020 45 0 9.39 280 14:56 26.01.2020
135 Rain 18 1020 45 0 9.39 280 14:38 26.01.2020
136 Rain 18 1020 45 0 9.39 280 14:18 26.01.2020
137 Rain 18 1020 45 0 9.39 280 13:39 26.01.2020
138 Rain 18 1020 45 0 9.39 280 13:18 26.01.2020
139 Rain 18 1020 45 0 9.39 280 12:54 26.01.2020
140 Rain 18 1020 45 0 9.39 280 12:36 26.01.2020
141 Rain 18 1020 45 0 9.39 280 12:18 26.01.2020
142 Rain 18 1020 45 0 9.39 280 11:56 26.01.2020
143 Dust 19 1020 45 4000 9.8 280 11:36 26.01.2020
144 Clouds 19 1018 37 10000 8.2 270 11:18 26.01.2020
145 Clouds 19 1018 37 10000 8.2 270 10:39 26.01.2020
146 Clouds 19 1018 37 10000 8.2 270 10:21 26.01.2020
147 Clouds 19 1019 42 10000 8.2 270 09:59 26.01.2020
148 Clouds 19 1019 42 10000 8.2 270 09:41 26.01.2020
149 Clouds 19 1019 42 10000 8.2 270 09:22 26.01.2020
150 Clouds 20 1019 49 10000 9.3 280 08:55 26.01.2020
151 Clouds 20 1019 49 10000 9.3 280 08:37 26.01.2020
152 Clouds 20 1019 49 10000 9.3 280 08:18 26.01.2020
153 Clouds 20 1019 46 10000 6.7 0 07:45 26.01.2020
154 Clouds 19 1019 49 10000 8.2 280 07:22 26.01.2020
155 Clouds 19 1019 56 10000 7.2 280 06:32 26.01.2020
156 Clouds 18 1018 52 10000 5.1 280 05:37 26.01.2020
157 Clouds 17 1018 56 10000 5.7 280 04:58 26.01.2020
158 Clouds 16 1017 63 10000 2.6 230 03:22 26.01.2020
159 Clear 16 1017 72 10000 1.5 230 01:59 26.01.2020
160 Clear 16 1017 72 10000 1.5 230 01:39 26.01.2020
161 Clear 16 1017 72 10000 1.5 230 01:19 26.01.2020
162 Clear 16 1017 72 10000 1.5 200 00:39 26.01.2020
163 Clear 17 1017 72 10000 1.5 200 00:20 26.01.2020
164 Clear 20 1018 46 0 3.13 278 23:38 25.01.2020
165 Clear 20 1018 46 0 3.13 278 23:19 25.01.2020
166 Clear 20 1018 46 0 3.13 278 22:43 25.01.2020
167 Clear 20 1018 46 0 3.13 278 22:20 25.01.2020
168 Clear 20 1018 46 0 3.13 278 21:58 25.01.2020
169 Clear 20 1018 46 0 3.13 278 21:39 25.01.2020
170 Clear 20 1018 46 0 3.13 278 21:21 25.01.2020
171 Clear 20 1018 46 0 3.13 278 20:45 25.01.2020
172 Clear 20 1017 52 0 4.93 272 20:26 25.01.2020
173 Clear 20 1017 52 0 4.93 272 20:26 25.01.2020
174 Clear 20 1018 46 0 3.13 278 19:57 25.01.2020
175 Clear 20 1018 43 0 2.24 310 19:38 25.01.2020
176 Clear 20 1018 43 0 2.24 310 19:19 25.01.2020
177 Clear 21 1018 43 0 2.24 310 19:19 25.01.2020
178 Clear 21 1018 43 0 2.24 310 18:56 25.01.2020
179 Clear 21 1018 43 0 2.24 310 18:37 25.01.2020
180 Clear 20 1018 43 0 2.24 310 18:18 25.01.2020
181 Clear 21 1018 43 0 2.24 310 17:39 25.01.2020
182 Clear 22 1018 43 0 2.24 310 17:19 25.01.2020
183 Clear 20 1018 48 0 3.39 303 16:56 25.01.2020
184 Clear 22 1018 43 0 2.24 310 16:38 25.01.2020
185 Clear 22 1018 43 0 2.24 310 16:19 25.01.2020
186 Clear 22 1018 43 0 2.24 310 15:42 25.01.2020
187 Clear 22 1018 43 0 2.24 310 15:24 25.01.2020
188 Clear 22 1018 43 0 2.24 310 14:47 25.01.2020
189 Clear 22 1018 43 0 2.24 310 14:20 25.01.2020
190 Clear 22 1018 43 0 2.24 310 13:58 25.01.2020
191 Clear 22 1018 43 0 2.24 310 13:39 25.01.2020
192 Clear 22 1018 43 0 2.24 310 13:20 25.01.2020
193 Clear 22 1018 43 0 2.24 310 12:43 25.01.2020
194 Clear 23 1018 38 10000 4.1 320 12:21 25.01.2020
195 Clear 23 1018 38 10000 4.1 320 11:45 25.01.2020
196 Clear 22 1018 38 10000 4.1 320 11:21 25.01.2020
197 Clear 22 1019 53 10000 4.1 350 10:57 25.01.2020
198 Clear 22 1019 53 10000 4.1 350 10:39 25.01.2020
199 Clear 22 1019 53 10000 4.1 350 10:20 25.01.2020
200 Clear 21 1020 53 10000 3.6 350 09:41 25.01.2020
201 Clear 21 1020 53 10000 3.6 350 09:22 25.01.2020
202 Clouds 21 1021 56 10000 3.1 20 08:44 25.01.2020
203 Clouds 20 1021 56 10000 3.1 20 08:21 25.01.2020
204 Clear 19 1021 64 10000 2.6 170 07:43 25.01.2020
205 Clear 17 1021 68 10000 2.1 150 06:51 25.01.2020
206 Clear 17 1021 68 10000 2.1 150 06:27 25.01.2020
207 Clear 15 1020 77 10000 2.6 170 05:45 25.01.2020
208 Clear 14 1019 77 10000 2.1 190 04:26 25.01.2020
209 Clear 14 1019 77 10000 1.5 180 03:50 25.01.2020
210 Clear 15 1018 77 10000 1 0 02:53 25.01.2020
211 Clear 15 1018 68 10000 1.5 270 01:59 25.01.2020
212 Clear 15 1018 68 10000 1.5 270 01:59 25.01.2020
213 Clear 15 1018 68 10000 1.5 270 01:37 25.01.2020
214 Clear 15 1018 68 10000 1.5 270 01:37 25.01.2020
215 Clear 17 1019 68 10000 2.1 0 00:42 25.01.2020
216 Clear 17 1019 68 10000 2.1 0 00:23 25.01.2020
217 Clear 16 1019 72 10000 1 0 23:57 24.01.2020
218 Clear 16 1019 72 10000 1 0 23:38 24.01.2020
219 Clear 16 1019 72 10000 1 0 23:38 24.01.2020
220 Clear 16 1019 72 10000 1 0 23:38 24.01.2020
221 Clear 16 1019 72 10000 1 0 23:19 24.01.2020
222 Clear 17 1019 72 10000 2.1 190 22:42 24.01.2020
223 Clear 17 1019 72 10000 2.1 190 22:23 24.01.2020
224 Clear 17 1019 63 10000 2.6 260 21:41 24.01.2020
225 Clear 18 1019 63 10000 2.6 260 21:20 24.01.2020
226 Clear 18 1019 63 10000 2.1 250 20:55 24.01.2020
227 Clear 18 1019 63 10000 2.1 250 20:37 24.01.2020
228 Clouds 18 1019 63 10000 2.1 250 20:18 24.01.2020
229 Clouds 18 1019 63 10000 2.1 250 19:55 24.01.2020
230 Clouds 18 1019 63 10000 2.1 250 19:37 24.01.2020
231 Clouds 18 1019 63 10000 2.1 250 19:19 24.01.2020
232 Clouds 18 1019 63 10000 2.1 250 19:19 24.01.2020
233 Clouds 19 1019 64 10000 3.1 260 18:42 24.01.2020
234 Clouds 19 1019 64 10000 3.1 260 18:22 24.01.2020
235 Clouds 19 1019 64 10000 2.6 260 17:45 24.01.2020
236 Clouds 19 1019 64 10000 2.6 260 17:22 24.01.2020
237 Clouds 19 1018 64 10000 3.1 280 16:57 24.01.2020
238 Clouds 19 1018 64 10000 3.1 280 16:38 24.01.2020
239 Clouds 19 1018 64 10000 3.1 280 16:19 24.01.2020
240 Clouds 20 1017 64 10000 4.1 300 15:41 24.01.2020
241 Clouds 20 1017 64 10000 4.1 300 15:21 24.01.2020
242 Clouds 20 1018 60 10000 4.1 290 14:42 24.01.2020
243 Clouds 20 1018 60 10000 4.1 290 14:24 24.01.2020
244 Clouds 20 1017 60 10000 5.7 300 13:59 24.01.2020
245 Clouds 20 1017 60 10000 5.7 300 13:40 24.01.2020
246 Clouds 20 1017 60 10000 5.7 300 13:21 24.01.2020
247 Clouds 21 1017 64 10000 5.1 310 12:42 24.01.2020
248 Clouds 21 1017 64 10000 5.1 310 12:20 24.01.2020
249 Clouds 21 1018 60 10000 5.1 280 11:44 24.01.2020
250 Clouds 21 1018 60 10000 5.1 280 11:19 24.01.2020
251 Clouds 21 1019 60 10000 7.2 300 10:44 24.01.2020
252 Clouds 21 1019 60 10000 7.2 300 10:23 24.01.2020
253 Clouds 21 1019 64 10000 4.1 290 10:00 24.01.2020
254 Clouds 21 1019 64 10000 4.1 290 09:40 24.01.2020
255 Clouds 21 1019 64 10000 4.1 290 09:22 24.01.2020
256 Clouds 21 1019 64 10000 2.6 270 08:41 24.01.2020
257 Clouds 21 1019 64 10000 2.6 270 08:20 24.01.2020
258 Clouds 20 1019 64 10000 5.1 280 07:53 24.01.2020
259 Clouds 20 1019 64 10000 5.1 280 07:35 24.01.2020
260 Clouds 20 1019 72 10000 4.1 260 06:52 24.01.2020
261 Clouds 20 1019 72 10000 4.1 260 06:33 24.01.2020
262 Clouds 20 1018 68 10000 4.1 260 05:59 24.01.2020
263 Clouds 20 1018 68 10000 4.1 260 05:18 24.01.2020
264 Clouds 20 1016 73 10000 4.1 280 02:54 24.01.2020
265 Clouds 20 1016 73 10000 4.1 280 02:26 24.01.2020
266 Drizzle 20 1016 73 10000 4.6 290 01:49 24.01.2020
267 Drizzle 20 1016 73 10000 4.6 290 01:31 24.01.2020
268 Clouds 21 1016 73 10000 5.1 320 00:26 24.01.2020
269 Clouds 21 1016 77 10000 5.1 320 23:51 23.01.2020
270 Clouds 21 1016 77 10000 5.1 320 23:31 23.01.2020
271 Clouds 20 1017 73 10000 3.1 330 22:59 23.01.2020
272 Clouds 20 1017 73 10000 3.1 330 22:38 23.01.2020
273 Clouds 20 1017 73 10000 3.1 330 22:38 23.01.2020
274 Clouds 20 1017 73 10000 3.1 330 22:19 23.01.2020
275 Clouds 21 1017 73 10000 4.6 340 21:57 23.01.2020
276 Clouds 21 1017 73 10000 4.6 340 21:39 23.01.2020
277 Clouds 21 1017 73 10000 4.6 340 21:20 23.01.2020
278 Clouds 21 1017 73 10000 6.2 330 20:58 23.01.2020
279 Clouds 21 1017 73 10000 6.2 330 20:38 23.01.2020
280 Clouds 21 1017 73 10000 6.2 330 20:38 23.01.2020
281 Clouds 21 1017 73 10000 6.2 330 20:19 23.01.2020
282 Clouds 21 1017 73 10000 6.2 330 20:19 23.01.2020
283 Clouds 21 1017 78 10000 5.7 340 19:56 23.01.2020
284 Clouds 21 1017 78 10000 5.7 340 19:38 23.01.2020
285 Clouds 21 1017 78 10000 5.7 340 19:19 23.01.2020
286 Clouds 22 1017 78 10000 6.2 330 18:42 23.01.2020
287 Clouds 22 1017 78 10000 6.2 330 18:21 23.01.2020
288 Clouds 22 1017 78 10000 6.2 330 18:21 23.01.2020
289 Clouds 22 1016 64 10000 6.7 310 17:58 23.01.2020
290 Clouds 22 1016 64 10000 6.7 310 17:40 23.01.2020
291 Clouds 22 1016 64 10000 6.7 310 17:20 23.01.2020
292 Clouds 22 1015 69 9000 6.2 310 16:56 23.01.2020
293 Clouds 22 1015 69 9000 6.2 310 16:36 23.01.2020
294 Clouds 22 1015 69 9000 6.2 310 16:18 23.01.2020
295 Dust 24 1015 69 5000 4.6 290 15:54 23.01.2020
296 Clouds 24 1015 64 4500 6.2 300 15:36 23.01.2020
297 Clouds 24 1015 64 4500 6.2 300 15:18 23.01.2020
298 Clouds 24 1015 64 4500 6.2 300 15:18 23.01.2020
299 Clouds 25 1014 61 6000 5.1 290 14:54 23.01.2020
300 Clouds 25 1014 61 6000 5.1 290 14:36 23.01.2020
301 Clouds 25 1014 61 6000 5.1 290 14:18 23.01.2020
302 Dust 27 1014 39 5000 4.6 220 13:39 23.01.2020
303 Dust 27 1014 39 5000 4.6 220 13:39 23.01.2020
304 Dust 27 1014 39 5000 4.6 220 13:20 23.01.2020
305 Clouds 27 1014 42 6000 6.2 220 12:47 23.01.2020
306 Clouds 27 1014 42 6000 6.2 220 12:25 23.01.2020
307 Clouds 26 1015 50 7000 5.1 220 11:59 23.01.2020
308 Clouds 26 1015 50 7000 5.1 220 11:39 23.01.2020
309 Clouds 26 1015 50 7000 5.1 220 11:19 23.01.2020
310 Clouds 25 1016 50 8000 4.6 210 10:45 23.01.2020
311 Clouds 25 1016 50 8000 4.6 210 10:23 23.01.2020
312 Clouds 25 1017 53 10000 5.7 200 09:59 23.01.2020
313 Clouds 25 1017 53 10000 5.7 200 09:38 23.01.2020
314 Clouds 25 1017 53 10000 5.7 200 09:20 23.01.2020
315 Clouds 24 1018 57 10000 4.6 200 08:41 23.01.2020
316 Rain 24 1018 57 10000 4.6 200 08:22 23.01.2020
317 Rain 22 1018 64 10000 5.7 180 07:45 23.01.2020
318 Rain 22 1018 64 10000 5.7 180 07:26 23.01.2020
319 Rain 21 1018 68 10000 4.1 160 06:54 23.01.2020
320 Rain 21 1018 68 10000 4.1 160 06:23 23.01.2020
321 Rain 20 1018 68 10000 3.1 140 05:58 23.01.2020
322 Rain 20 1017 68 10000 3.1 170 04:24 23.01.2020
323 Rain 20 1015 56 10000 5.1 180 02:35 23.01.2020
324 Clear 20 1015 56 10000 7.2 140 01:41 23.01.2020
325 Clear 19 1016 68 10000 6.2 130 00:28 23.01.2020
326 Clear 18 1016 68 10000 5.7 120 23:48 22.01.2020
327 Clear 18 1016 68 10000 5.7 120 23:30 22.01.2020
328 Clear 19 1016 64 10000 4.6 110 22:59 22.01.2020
329 Clear 19 1016 64 10000 4.6 110 22:41 22.01.2020
330 Clear 19 1016 64 10000 4.6 110 22:23 22.01.2020
331 Clear 19 1017 64 10000 3.1 110 21:41 22.01.2020
332 Clear 19 1017 64 10000 3.1 110 21:22 22.01.2020
333 Clear 19 1017 64 10000 2.6 90 20:58 22.01.2020
334 Clear 19 1017 64 10000 2.6 90 20:39 22.01.2020
335 Clear 19 1017 64 10000 2.6 90 20:21 22.01.2020
336 Clear 20 1017 64 10000 2.6 60 19:57 22.01.2020
337 Clear 20 1017 64 10000 2.6 60 19:38 22.01.2020
338 Clear 20 1017 64 10000 2.6 60 19:19 22.01.2020
339 Clear 20 1017 68 10000 2.1 20 18:56 22.01.2020
340 Clear 20 1017 68 10000 2.1 20 18:38 22.01.2020
341 Clear 20 1017 68 10000 2.1 20 18:19 22.01.2020
342 Clear 21 1017 64 10000 3.6 30 17:54 22.01.2020
343 Clear 21 1017 64 10000 3.6 30 17:36 22.01.2020
344 Clear 21 1017 64 10000 3.6 30 17:18 22.01.2020
345 Clear 21 1017 64 10000 3.6 30 17:18 22.01.2020
346 Clear 22 1016 60 10000 3.6 20 16:43 22.01.2020
347 Clear 22 1016 60 10000 3.6 20 16:22 22.01.2020
348 Clear 23 1015 56 10000 3.6 10 15:58 22.01.2020
349 Clear 23 1015 56 10000 3.6 10 15:39 22.01.2020
350 Clear 23 1015 56 10000 3.6 10 15:21 22.01.2020
351 Clear 24 1015 53 10000 4.6 10 14:54 22.01.2020
352 Clear 24 1015 53 10000 4.6 10 14:36 22.01.2020
353 Clear 25 1015 50 10000 5.7 350 14:18 22.01.2020
354 Clear 25 1015 50 10000 5.7 350 13:38 22.01.2020
355 Clear 25 1015 50 10000 5.7 350 13:20 22.01.2020
356 Clear 25 1015 57 10000 6.2 330 12:58 22.01.2020
357 Clear 25 1015 57 10000 6.2 330 12:40 22.01.2020
358 Clear 26 1016 36 10000 1 0 12:20 22.01.2020
359 Clear 26 1016 36 10000 1 0 11:58 22.01.2020
360 Clear 26 1016 36 10000 1 0 11:40 22.01.2020
361 Clear 26 1016 36 10000 1 0 11:19 22.01.2020
362 Clear 26 1016 36 10000 1 0 11:19 22.01.2020
363 Clear 25 1017 41 10000 3.1 180 10:59 22.01.2020
364 Clear 25 1017 41 10000 3.1 180 10:41 22.01.2020
365 Clear 25 1017 41 10000 3.1 180 10:18 22.01.2020
366 Clear 24 1018 36 10000 3.6 150 09:42 22.01.2020
367 Clear 24 1018 36 10000 3.6 150 09:42 22.01.2020
368 Clear 24 1018 36 10000 3.6 150 09:24 22.01.2020
369 Clear 22 1019 49 10000 3.1 100 08:57 22.01.2020
370 Clear 21 1019 49 10000 3.1 100 08:38 22.01.2020
371 Clear 21 1019 49 10000 3.1 100 08:20 22.01.2020
372 Clear 20 1019 49 10000 2.6 80 07:46 22.01.2020
373 Clear 19 1019 49 10000 2.6 80 07:27 22.01.2020
374 Clear 16 1019 55 10000 2.1 80 06:38 22.01.2020
375 Clear 16 1019 55 10000 2.1 80 06:20 22.01.2020
376 Clear 14 1018 59 10000 1 0 05:21 22.01.2020
377 Clear 14 1017 63 10000 1.5 120 03:30 22.01.2020
378 Clear 14 1017 67 10000 1 190 02:50 22.01.2020
379 Clear 14 1017 59 10000 1.5 160 01:42 22.01.2020
380 Clear 15 1017 59 10000 1.5 0 00:43 22.01.2020
381 Clear 15 1017 59 10000 1.5 0 00:25 22.01.2020
382 Clear 15 1017 55 10000 1.5 160 23:38 21.01.2020
383 Clear 15 1017 55 10000 1.5 160 23:20 21.01.2020
384 Clear 16 1017 52 10000 2.6 160 22:55 21.01.2020
385 Clear 16 1017 52 10000 2.6 160 22:36 21.01.2020
386 Clear 16 1017 52 10000 2.6 160 22:36 21.01.2020
387 Clear 16 1017 52 10000 2.6 160 22:18 21.01.2020
388 Clear 17 1017 52 10000 2.6 150 21:55 21.01.2020
389 Clear 17 1017 52 10000 2.6 150 21:36 21.01.2020
390 Clear 17 1017 52 10000 2.6 150 21:18 21.01.2020
391 Clear 18 1018 52 10000 1.5 200 20:39 21.01.2020
392 Clear 18 1018 52 10000 1.5 200 20:20 21.01.2020
393 Clear 18 1018 46 10000 2.1 260 19:59 21.01.2020
394 Clear 18 1018 46 10000 2.1 260 19:40 21.01.2020
395 Clear 19 1018 46 10000 2.1 260 19:21 21.01.2020
396 Clear 20 1017 46 10000 1.5 270 18:57 21.01.2020
397 Clear 20 1017 46 10000 1.5 270 18:57 21.01.2020
398 Clear 20 1017 46 10000 1.5 270 18:39 21.01.2020
399 Clear 20 1017 46 10000 1.5 270 18:21 21.01.2020
400 Clear 20 1017 46 10000 2.6 270 17:59 21.01.2020
401 Clear 20 1017 46 10000 2.6 270 17:40 21.01.2020
402 Clear 20 1017 46 10000 2.6 270 17:18 21.01.2020
403 Clear 20 1017 46 10000 2.6 270 17:18 21.01.2020
404 Clear 20 1016 43 10000 3.1 280 16:38 21.01.2020
405 Clear 21 1016 43 10000 3.1 280 16:20 21.01.2020
406 Clear 22 1016 40 10000 4.1 280 15:59 21.01.2020
407 Clear 22 1016 40 10000 4.1 280 15:39 21.01.2020
408 Clear 22 1016 40 10000 4.1 280 15:19 21.01.2020
409 Clear 22 1016 40 10000 4.1 280 15:19 21.01.2020
410 Clear 22 1015 35 10000 4.6 280 14:40 21.01.2020
411 Clear 22 1015 35 10000 4.6 280 14:22 21.01.2020
412 Clear 23 1015 38 10000 4.6 290 13:55 21.01.2020
413 Clear 23 1015 38 10000 4.6 290 13:37 21.01.2020
414 Clear 23 1015 38 10000 4.6 290 13:18 21.01.2020
415 Clear 23 1015 40 10000 4.6 280 12:42 21.01.2020
416 Clear 23 1015 40 10000 4.6 280 12:24 21.01.2020
417 Clear 23 1015 40 10000 3.6 290 11:56 21.01.2020
418 Clear 23 1015 40 10000 3.6 290 11:38 21.01.2020
419 Clear 23 1015 40 10000 3.6 290 11:19 21.01.2020
420 Clouds 23 1016 43 10000 4.1 260 10:43 21.01.2020
421 Clouds 23 1016 43 10000 4.1 260 10:23 21.01.2020
422 Clouds 22 1017 43 10000 4.6 280 09:56 21.01.2020
423 Clouds 22 1017 43 10000 4.6 280 09:38 21.01.2020
424 Clouds 22 1017 43 10000 4.6 280 09:19 21.01.2020
425 Clouds 22 1018 49 10000 3.6 190 08:41 21.01.2020
426 Clouds 22 1018 49 10000 3.6 190 08:22 21.01.2020
427 Clouds 21 1018 60 10000 2.6 190 07:43 21.01.2020
428 Clouds 21 1018 60 10000 2.6 190 07:43 21.01.2020
429 Clouds 20 1018 60 10000 2.6 190 07:24 21.01.2020
430 Clouds 19 1017 72 10000 2.1 160 06:57 21.01.2020
431 Clouds 18 1017 72 10000 2.1 160 06:38 21.01.2020
432 Clouds 17 1017 77 8000 2.6 150 05:53 21.01.2020
433 Clouds 17 1017 77 8000 2.6 150 05:32 21.01.2020
434 Clouds 16 1016 88 8000 2.6 160 04:37 21.01.2020
435 Clear 17 1014 88 8000 2.6 190 02:27 21.01.2020
436 Clouds 18 1015 82 9000 1.5 230 01:36 21.01.2020
437 Clouds 18 1015 88 7000 1.5 180 00:41 21.01.2020
438 Clouds 18 1015 88 7000 1.5 180 00:22 21.01.2020
439 Clouds 18 1015 88 7000 2.1 220 23:41 20.01.2020
440 Clouds 18 1015 88 7000 2.1 220 23:19 20.01.2020
441 Clouds 18 1016 82 10000 3.1 200 23:00 20.01.2020
442 Clouds 18 1016 82 10000 3.1 200 22:39 20.01.2020
443 Clouds 18 1016 82 10000 3.1 200 22:21 20.01.2020
444 Clouds 19 1016 77 10000 2.6 190 21:58 20.01.2020
445 Clouds 19 1016 77 10000 2.6 190 21:38 20.01.2020
446 Clouds 19 1016 77 10000 2.6 190 21:20 20.01.2020
447 Clouds 19 1017 82 10000 2.6 220 20:58 20.01.2020
448 Clouds 19 1017 82 10000 2.6 220 20:39 20.01.2020
449 Clouds 19 1017 82 10000 2.6 220 20:19 20.01.2020
450 Clouds 19 1017 82 10000 2.6 220 20:19 20.01.2020
451 Clear 20 1017 73 10000 2.6 240 19:57 20.01.2020
452 Clear 20 1017 73 10000 2.6 240 19:38 20.01.2020
453 Clear 20 1017 73 10000 2.6 240 19:19 20.01.2020
454 Clear 20 1016 77 10000 3.6 270 18:45 20.01.2020
455 Clear 20 1016 77 10000 3.6 270 18:24 20.01.2020
456 Clear 21 1016 64 10000 2.6 270 17:59 20.01.2020
457 Clear 21 1016 64 10000 2.6 270 17:37 20.01.2020
458 Clear 21 1016 64 10000 2.6 270 17:18 20.01.2020
459 Clear 21 1016 64 10000 3.6 280 16:44 20.01.2020
460 Clear 22 1016 64 10000 3.6 280 16:25 20.01.2020
461 Clear 23 1015 53 10000 4.1 270 15:58 20.01.2020
462 Clear 23 1015 53 10000 4.1 270 15:39 20.01.2020
463 Clear 23 1015 53 10000 4.1 270 15:21 20.01.2020
464 Clear 24 1015 47 10000 5.7 280 14:44 20.01.2020
465 Clear 24 1015 47 10000 5.7 280 14:25 20.01.2020
466 Clear 25 1015 36 10000 6.7 280 13:59 20.01.2020
467 Clear 25 1015 36 10000 6.7 280 13:40 20.01.2020
468 Clear 25 1015 36 10000 6.7 280 13:22 20.01.2020
469 Clouds 26 1015 36 10000 5.1 270 12:48 20.01.2020
470 Clouds 26 1015 36 10000 5.1 270 12:29 20.01.2020
471 Clouds 26 1015 36 10000 5.1 270 12:29 20.01.2020
472 Clouds 26 1016 36 10000 5.1 290 11:59 20.01.2020
473 Clouds 26 1016 36 10000 5.1 290 11:40 20.01.2020
474 Clouds 26 1016 36 10000 5.1 290 11:22 20.01.2020
475 Clear 26 1016 39 10000 5.1 290 10:57 20.01.2020
476 Clear 26 1017 36 10000 5.1 250 10:39 20.01.2020
477 Clear 26 1017 36 10000 5.1 250 10:19 20.01.2020
478 Clear 25 1017 41 10000 4.6 240 10:19 20.01.2020
479 Clear 25 1017 41 10000 4.6 240 10:19 20.01.2020
480 Clear 25 1017 41 10000 4.6 240 09:41 20.01.2020
481 Clear 25 1017 41 10000 4.6 240 09:21 20.01.2020
482 Clear 23 1018 46 10000 3.6 210 08:49 20.01.2020
483 Clear 23 1018 46 10000 3.6 210 08:30 20.01.2020
484 Clear 21 1018 52 10000 3.1 180 07:53 20.01.2020
485 Clear 20 1018 52 10000 3.1 180 07:30 20.01.2020
486 Clear 19 1018 63 10000 2.1 180 06:59 20.01.2020
487 Clear 18 1018 63 10000 2.1 180 06:30 20.01.2020
488 Clear 16 1017 77 10000 2.1 150 05:44 20.01.2020
489 Clear 16 1017 77 10000 2.1 150 05:25 20.01.2020
490 Clear 16 1017 72 10000 1.5 120 04:49 20.01.2020
491 Clear 15 1016 72 10000 1 150 02:59 20.01.2020
492 Clear 15 1016 72 10000 1 150 02:59 20.01.2020
493 Clear 16 1016 68 10000 1 0 01:57 20.01.2020
494 Clear 16 1016 68 10000 1 0 01:37 20.01.2020
495 Clear 16 1016 63 10000 2.1 120 00:45 20.01.2020
496 Clear 16 1016 63 10000 2.1 120 00:25 20.01.2020
497 Clear 16 1016 63 10000 2.1 110 23:40 19.01.2020
498 Clear 16 1016 63 10000 2.1 110 23:20 19.01.2020
499 Clear 16 1017 55 10000 2.6 100 22:57 19.01.2020
500 Clear 16 1017 55 10000 2.6 100 22:39 19.01.2020
501 Clear 16 1017 55 10000 2.6 100 22:21 19.01.2020
502 Clear 16 1017 55 10000 2.6 100 22:21 19.01.2020
503 Clear 17 1017 56 10000 2.6 100 21:57 19.01.2020
504 Clear 17 1017 56 10000 2.6 100 21:57 19.01.2020
505 Clear 17 1017 56 10000 2.6 100 21:39 19.01.2020
506 Clear 17 1017 56 10000 2.6 100 21:21 19.01.2020
507 Clear 18 1018 56 10000 2.6 110 20:58 19.01.2020
508 Clear 18 1018 56 10000 2.6 110 20:39 19.01.2020
509 Clear 18 1018 56 10000 2.6 110 20:21 19.01.2020
510 Clear 18 1018 60 10000 3.1 110 19:58 19.01.2020
511 Clear 18 1018 60 10000 3.1 110 19:39 19.01.2020
512 Clear 18 1018 60 10000 3.1 110 19:39 19.01.2020
513 Clear 18 1018 60 10000 3.1 110 19:21 19.01.2020
514 Clear 19 1018 49 10000 1 0 18:59 19.01.2020
515 Clear 19 1018 49 10000 1 0 18:41 19.01.2020
516 Clear 19 1018 49 10000 1 0 18:41 19.01.2020
517 Clear 19 1018 49 10000 1 0 18:21 19.01.2020
518 Clear 20 1017 49 10000 1.5 340 17:59 19.01.2020
519 Clear 20 1017 49 10000 1.5 340 17:40 19.01.2020
520 Clear 20 1017 49 10000 1.5 340 17:21 19.01.2020
521 Clear 21 1017 43 10000 2.6 330 16:59 19.01.2020
522 Clear 22 1017 43 10000 2.6 330 16:40 19.01.2020
523 Clear 21 1017 43 10000 2.6 330 16:40 19.01.2020
524 Clear 22 1017 43 10000 2.6 330 16:21 19.01.2020
525 Clear 22 1016 38 10000 4.6 320 15:59 19.01.2020
526 Clear 23 1016 38 10000 4.6 320 15:39 19.01.2020
527 Clear 23 1016 38 10000 4.6 320 15:20 19.01.2020
528 Clear 24 1016 33 10000 5.1 280 14:58 19.01.2020
529 Clear 24 1016 33 10000 5.1 280 14:39 19.01.2020
530 Clouds 24 1016 33 10000 5.1 280 14:18 19.01.2020
531 Clouds 26 1016 31 10000 5.1 280 13:58 19.01.2020
532 Clouds 26 1016 31 10000 5.1 280 13:38 19.01.2020
533 Clouds 26 1016 31 10000 5.1 280 13:20 19.01.2020
534 Clouds 26 1016 29 10000 4.1 280 12:55 19.01.2020
535 Clouds 26 1016 29 10000 4.1 280 12:37 19.01.2020
536 Clouds 26 1016 29 10000 4.1 280 12:37 19.01.2020
537 Clouds 26 1016 29 10000 4.1 280 12:19 19.01.2020
538 Clouds 26 1017 26 10000 3.1 260 11:42 19.01.2020
539 Clear 26 1017 26 10000 3.1 260 11:21 19.01.2020
540 Clear 25 1018 27 10000 3.6 250 10:57 19.01.2020
541 Clear 25 1018 27 10000 3.6 250 10:39 19.01.2020
542 Clear 25 1018 27 10000 3.6 250 10:19 19.01.2020
543 Clear 25 1019 33 10000 3.1 220 09:56 19.01.2020
544 Clear 25 1019 33 10000 3.1 220 09:56 19.01.2020
545 Clear 25 1019 33 10000 3.1 220 09:56 19.01.2020
546 Clear 25 1019 33 10000 3.1 220 09:56 19.01.2020
547 Clear 25 1019 33 10000 3.1 220 09:56 19.01.2020
548 Clear 25 1019 33 10000 3.1 220 09:37 19.01.2020
549 Clear 25 1019 33 10000 3.1 220 09:19 19.01.2020
550 Clear 23 1019 40 10000 3.1 170 08:52 19.01.2020
551 Clear 22 1019 40 10000 3.1 170 08:30 19.01.2020
552 Clouds 20 1019 49 10000 3.1 170 07:45 19.01.2020
553 Clouds 20 1019 49 10000 3.1 170 07:26 19.01.2020
554 Clouds 17 1019 59 10000 2.6 0 06:54 19.01.2020
555 Clouds 17 1019 59 10000 2.6 0 06:21 19.01.2020
556 Clouds 14 1017 77 10000 1.5 80 03:28 19.01.2020
557 Clouds 15 1017 72 10000 1 0 02:26 19.01.2020
558 Clear 15 1017 68 10000 3.1 120 01:29 19.01.2020
559 Clouds 15 1017 68 10000 3.1 130 00:54 19.01.2020
560 Clouds 16 1017 68 10000 3.1 100 00:31 19.01.2020
561 Clouds 16 1017 68 10000 3.1 100 23:59 18.01.2020
562 Clouds 16 1017 68 10000 3.1 100 23:41 18.01.2020
563 Clear 16 1017 68 10000 3.1 100 23:23 18.01.2020
564 Clear 16 1017 68 10000 3.1 100 23:23 18.01.2020
565 Clear 16 1017 59 10000 1.5 140 22:56 18.01.2020
566 Clear 16 1017 59 10000 1.5 140 22:38 18.01.2020
567 Clear 16 1017 59 10000 1.5 140 22:19 18.01.2020
568 Clear 17 1018 59 10000 1 0 21:57 18.01.2020
569 Clear 17 1018 59 10000 1 0 21:38 18.01.2020
570 Clear 17 1018 59 10000 1 0 21:20 18.01.2020
571 Clear 18 1018 60 10000 2.6 100 20:43 18.01.2020
572 Clouds 18 1018 60 10000 2.6 100 20:21 18.01.2020
573 Clouds 18 1018 60 10000 2.6 90 19:58 18.01.2020
574 Clouds 18 1018 60 10000 2.6 90 19:40 18.01.2020
575 Clouds 18 1018 60 10000 2.6 90 19:22 18.01.2020
576 Clouds 19 1018 56 10000 2.6 90 18:42 18.01.2020
577 Clouds 19 1018 56 10000 2.6 90 18:22 18.01.2020
578 Clouds 20 1018 53 10000 3.1 50 17:55 18.01.2020
579 Clouds 20 1018 53 10000 3.1 50 17:37 18.01.2020
580 Clouds 20 1018 53 10000 3.1 50 17:19 18.01.2020
581 Clouds 20 1018 53 10000 2.6 50 16:55 18.01.2020
582 Clouds 21 1018 53 10000 2.6 50 16:36 18.01.2020
583 Clouds 21 1018 53 10000 2.6 50 16:18 18.01.2020
584 Clouds 22 1017 46 10000 3.6 360 15:41 18.01.2020
585 Clouds 22 1017 46 10000 3.6 360 15:23 18.01.2020
586 Clouds 24 1016 44 10000 4.6 340 14:55 18.01.2020
587 Clouds 24 1016 44 10000 4.6 340 14:37 18.01.2020
588 Clouds 24 1016 44 10000 4.6 340 14:18 18.01.2020
589 Clouds 25 1016 38 10000 4.6 340 13:43 18.01.2020
590 Clouds 25 1016 38 10000 4.6 340 13:24 18.01.2020
591 Clouds 25 1016 29 10000 2.6 300 12:57 18.01.2020
592 Clouds 25 1016 29 10000 2.6 300 12:38 18.01.2020
593 Clouds 25 1016 29 10000 2.6 300 12:19 18.01.2020
594 Clouds 25 1017 29 10000 2.6 210 11:44 18.01.2020
595 Clouds 25 1017 29 10000 2.6 210 11:21 18.01.2020
596 Clouds 24 1017 31 10000 1.5 0 10:56 18.01.2020
597 Clouds 24 1017 31 10000 1.5 0 10:38 18.01.2020
598 Clouds 24 1017 31 10000 1.5 0 10:19 18.01.2020
599 Clouds 23 1019 38 10000 2.6 160 09:42 18.01.2020
600 Clouds 23 1019 38 10000 2.6 160 09:24 18.01.2020
601 Clouds 22 1020 43 10000 4.1 120 08:55 18.01.2020
602 Clouds 21 1020 43 10000 4.1 120 08:37 18.01.2020
603 Clouds 21 1020 43 10000 4.1 120 08:18 18.01.2020
604 Clouds 21 1020 43 10000 4.1 120 08:18 18.01.2020
605 Clouds 19 1020 52 10000 3.6 110 07:44 18.01.2020
606 Clouds 19 1020 52 10000 3.6 110 07:25 18.01.2020
607 Clouds 16 1020 55 10000 3.1 100 06:46 18.01.2020
608 Clouds 13 1020 67 10000 2.1 80 05:55 18.01.2020
609 Clear 12 1019 71 10000 2.1 100 04:29 18.01.2020
610 Clear 13 1018 67 10000 2.1 90 02:50 18.01.2020
611 Clouds 13 1018 63 10000 3.1 90 01:51 18.01.2020
612 Clouds 14 1018 63 10000 3.1 110 00:40 18.01.2020
613 Clouds 14 1018 63 10000 3.1 110 00:21 18.01.2020
614 Clouds 15 1019 59 10000 2.6 100 23:59 17.01.2020
615 Clouds 15 1019 59 10000 2.6 100 23:40 17.01.2020
616 Clear 15 1019 59 10000 2.6 100 23:19 17.01.2020
617 Clear 15 1019 59 10000 2.6 90 22:43 17.01.2020
618 Clear 15 1019 59 10000 2.6 90 22:21 17.01.2020
619 Clear 16 1020 55 10000 2.6 80 21:57 17.01.2020
620 Clear 16 1020 55 10000 2.6 80 21:39 17.01.2020
621 Clear 16 1020 55 10000 2.6 80 21:20 17.01.2020
622 Clear 16 1020 55 10000 3.1 90 20:55 17.01.2020
623 Clear 16 1020 55 10000 3.1 90 20:36 17.01.2020
624 Clear 16 1020 55 10000 3.1 90 20:18 17.01.2020
625 Clear 16 1020 55 10000 3.1 90 20:18 17.01.2020
626 Clear 17 1020 52 10000 3.1 70 19:54 17.01.2020
627 Clear 17 1020 52 10000 3.1 70 19:54 17.01.2020
628 Clear 17 1020 52 10000 3.1 70 19:36 17.01.2020
629 Clear 17 1020 52 10000 3.1 70 19:18 17.01.2020
630 Clear 17 1020 45 10000 3.6 60 18:44 17.01.2020
631 Clear 18 1020 45 10000 3.6 60 18:26 17.01.2020
632 Clear 18 1020 45 10000 4.6 50 17:56 17.01.2020
633 Clear 19 1020 45 10000 4.6 50 17:38 17.01.2020
634 Clear 19 1020 45 10000 4.6 50 17:19 17.01.2020
635 Clear 19 1019 46 10000 4.1 40 16:42 17.01.2020
636 Clear 20 1019 46 10000 4.1 40 16:20 17.01.2020
637 Clear 21 1019 43 10000 4.1 20 15:48 17.01.2020
638 Clear 21 1019 43 10000 4.1 20 15:27 17.01.2020
639 Clear 22 1019 43 10000 5.1 20 14:56 17.01.2020
640 Clear 22 1019 43 10000 5.1 20 14:38 17.01.2020
641 Clear 22 1019 43 10000 5.1 20 14:19 17.01.2020
642 Clear 23 1019 33 10000 3.1 70 13:39 17.01.2020
643 Clear 24 1019 33 10000 3.1 70 13:20 17.01.2020
644 Clear 23 1019 33 10000 2.6 0 12:45 17.01.2020
645 Clear 23 1019 33 10000 2.6 0 12:23 17.01.2020
646 Clear 23 1020 35 10000 3.1 90 11:41 17.01.2020
647 Clear 23 1020 35 10000 3.1 90 11:19 17.01.2020
648 Clear 22 1021 37 10000 3.6 90 10:54 17.01.2020
649 Clear 22 1021 37 10000 3.6 90 10:36 17.01.2020
650 Clear 22 1021 37 10000 3.6 90 10:18 17.01.2020
651 Clear 22 1022 40 10000 3.6 110 09:41 17.01.2020
652 Clear 21 1022 40 10000 3.6 110 09:20 17.01.2020
653 Clear 21 1023 37 10000 3.6 50 08:55 17.01.2020
654 Clear 20 1023 37 10000 3.6 50 08:36 17.01.2020
655 Clear 20 1023 37 10000 3.6 50 08:18 17.01.2020
656 Clear 18 1023 42 10000 3.6 60 07:42 17.01.2020
657 Clear 18 1023 42 10000 3.6 60 07:24 17.01.2020
658 Clear 15 1023 55 10000 2.1 80 06:43 17.01.2020
659 Clear 15 1023 55 10000 2.1 80 06:20 17.01.2020
660 Clear 13 1022 76 0 2.24 90 04:25 17.01.2020
661 Clear 13 1022 76 0 2.24 90 02:55 17.01.2020
662 Clear 13 1022 76 0 2.24 90 02:30 17.01.2020
663 Clear 13 1022 76 0 2.24 90 01:32 17.01.2020
664 Clear 13 1022 76 0 2.24 90 00:59 17.01.2020
665 Clear 13 1022 76 0 2.24 90 00:35 17.01.2020
666 Clear 14 1022 59 10000 2.1 90 23:56 16.01.2020
667 Clear 14 1022 59 10000 2.1 90 23:38 16.01.2020
668 Clear 14 1022 59 10000 2.1 90 23:19 16.01.2020
669 Clear 14 1022 59 10000 2.6 80 22:40 16.01.2020
670 Clear 14 1022 59 10000 2.6 80 22:21 16.01.2020
671 Clear 14 1022 59 10000 2.6 100 21:57 16.01.2020
672 Clear 15 1022 59 10000 2.6 100 21:37 16.01.2020
673 Clear 15 1022 59 10000 2.6 100 21:19 16.01.2020
674 Clear 15 1023 55 10000 2.1 90 20:56 16.01.2020
675 Clear 15 1023 55 10000 2.1 90 20:37 16.01.2020
676 Clear 16 1023 55 10000 2.1 90 20:18 16.01.2020
677 Clear 16 1023 52 10000 2.1 70 19:55 16.01.2020
678 Clear 17 1023 52 10000 2.1 70 19:36 16.01.2020
679 Clear 17 1023 52 10000 2.1 70 19:18 16.01.2020
680 Clear 17 1023 49 10000 2.1 30 18:55 16.01.2020
681 Clear 17 1023 49 10000 2.1 30 18:36 16.01.2020
682 Clear 17 1023 49 10000 2.1 30 18:18 16.01.2020
683 Clear 18 1022 45 10000 2.1 360 17:41 16.01.2020
684 Clear 18 1022 45 10000 2.1 360 17:22 16.01.2020
685 Clear 18 1022 45 10000 2.1 350 16:57 16.01.2020
686 Clear 18 1022 45 10000 2.1 350 16:38 16.01.2020
687 Clear 19 1022 45 10000 2.1 350 16:19 16.01.2020
688 Clear 19 1021 45 10000 5.1 340 15:44 16.01.2020
689 Clear 19 1021 45 10000 5.1 340 15:22 16.01.2020
690 Clear 20 1021 43 10000 5.7 340 14:56 16.01.2020
691 Clear 20 1021 43 10000 5.7 340 14:37 16.01.2020
692 Clear 20 1021 43 10000 5.7 340 14:19 16.01.2020
693 Clear 21 1021 40 10000 5.1 350 13:44 16.01.2020
694 Clear 21 1021 40 10000 5.1 350 13:25 16.01.2020
695 Clear 21 1021 33 10000 5.1 10 12:46 16.01.2020
696 Clear 21 1021 33 10000 5.1 10 12:28 16.01.2020
697 Clear 21 1021 30 10000 5.1 350 11:57 16.01.2020
698 Clear 21 1021 30 10000 5.1 350 11:39 16.01.2020
699 Clear 21 1021 30 10000 5.1 350 11:21 16.01.2020
700 Clear 21 1022 35 10000 2.1 60 10:39 16.01.2020
701 Clear 21 1022 35 10000 2.1 60 10:21 16.01.2020
702 Clear 21 1023 35 10000 2.6 70 09:58 16.01.2020
703 Clear 21 1023 35 10000 2.6 70 09:39 16.01.2020
704 Clear 21 1023 35 10000 2.6 70 09:21 16.01.2020
705 Clear 20 1024 37 10000 2.1 80 08:52 16.01.2020
706 Clear 19 1024 37 10000 2.1 80 08:34 16.01.2020
707 Clear 18 1024 45 10000 1 0 07:59 16.01.2020
708 Clear 18 1024 45 10000 1 0 07:39 16.01.2020
709 Clear 18 1024 45 10000 1 0 07:20 16.01.2020
710 Clear 16 1024 48 10000 2.1 100 06:43 16.01.2020
711 Clear 15 1024 48 10000 2.1 100 06:21 16.01.2020
712 Clear 13 1024 51 10000 1.5 0 05:45 16.01.2020
713 Clear 11 1023 66 10000 1.5 80 04:40 16.01.2020
714 Clear 11 1023 62 10000 1.5 90 03:28 16.01.2020
715 Clear 11 1022 62 10000 2.6 70 02:43 16.01.2020
716 Clear 13 1022 45 10000 3.6 90 01:24 16.01.2020
717 Clear 13 1023 48 10000 3.1 90 00:24 16.01.2020
718 Clear 13 1023 58 10000 1.5 70 23:56 15.01.2020
719 Clear 13 1023 58 10000 1.5 70 23:37 15.01.2020
720 Clear 13 1023 58 10000 1.5 70 23:18 15.01.2020
721 Clear 13 1023 55 10000 2.1 80 22:42 15.01.2020
722 Clear 13 1023 55 10000 2.1 80 22:20 15.01.2020
723 Clear 14 1023 55 10000 3.1 100 21:59 15.01.2020
724 Clear 14 1023 55 10000 3.1 100 21:40 15.01.2020
725 Clear 14 1023 55 10000 3.1 100 21:22 15.01.2020
726 Clear 14 1023 45 10000 4.1 110 20:58 15.01.2020
727 Clear 14 1023 45 10000 4.1 110 20:40 15.01.2020
728 Clear 14 1023 45 10000 4.1 110 20:22 15.01.2020
729 Clouds 15 1023 51 10000 3.6 110 19:57 15.01.2020
730 Clouds 15 1023 51 10000 3.6 110 19:38 15.01.2020
731 Clouds 15 1023 51 10000 3.6 110 19:20 15.01.2020
732 Clouds 15 1023 51 10000 3.6 110 19:20 15.01.2020
733 Clouds 16 1023 52 10000 3.1 80 18:57 15.01.2020
734 Clouds 16 1023 52 10000 3.1 80 18:57 15.01.2020
735 Clouds 16 1023 52 10000 3.1 80 18:38 15.01.2020
736 Clouds 16 1023 52 10000 3.1 80 18:20 15.01.2020
737 Clouds 16 1023 52 10000 3.1 70 17:58 15.01.2020
738 Clouds 17 1023 52 10000 3.1 70 17:40 15.01.2020
739 Clouds 17 1023 52 10000 3.1 70 17:21 15.01.2020
740 Clouds 17 1023 45 10000 4.1 40 16:55 15.01.2020
741 Clouds 17 1023 45 10000 4.1 40 16:55 15.01.2020
742 Clouds 17 1023 45 10000 4.1 40 16:36 15.01.2020
743 Clouds 17 1023 45 10000 4.1 40 16:18 15.01.2020
744 Clouds 18 1022 42 10000 4.6 50 15:42 15.01.2020
745 Clouds 19 1022 42 10000 4.6 50 15:20 15.01.2020
746 Clouds 19 1021 45 10000 3.1 0 14:45 15.01.2020
747 Clouds 19 1021 45 10000 3.1 0 14:23 15.01.2020
748 Clouds 20 1021 42 10000 5.1 40 13:58 15.01.2020
749 Clouds 20 1020 37 10000 4.1 80 13:40 15.01.2020
750 Clouds 20 1020 37 10000 4.1 80 13:40 15.01.2020
751 Clouds 20 1020 37 10000 4.1 80 13:22 15.01.2020
752 Clouds 20 1020 37 10000 5.1 0 12:55 15.01.2020
753 Clouds 20 1020 37 10000 5.1 0 12:55 15.01.2020
754 Clouds 20 1020 37 10000 4.6 60 12:37 15.01.2020
755 Clouds 20 1020 37 10000 4.6 60 12:18 15.01.2020
756 Clouds 20 1020 40 10000 5.1 60 11:38 15.01.2020
757 Clouds 20 1021 49 10000 4.1 60 11:20 15.01.2020
758 Clouds 20 1021 49 10000 4.1 60 10:48 15.01.2020
759 Clouds 19 1021 49 10000 4.1 60 10:29 15.01.2020
760 Clouds 19 1021 52 10000 6.2 90 09:59 15.01.2020
761 Clouds 18 1021 52 10000 6.2 90 09:41 15.01.2020
762 Clouds 18 1021 52 10000 6.2 90 09:21 15.01.2020
763 Clouds 18 1022 55 10000 6.2 110 08:44 15.01.2020
764 Clouds 18 1022 55 10000 6.2 110 08:44 15.01.2020
765 Clouds 18 1022 55 10000 6.2 110 08:26 15.01.2020
766 Clouds 17 1022 67 10000 4.1 130 07:54 15.01.2020
767 Clouds 16 1022 67 10000 4.1 130 07:33 15.01.2020
768 Clouds 15 1021 72 10000 3.1 110 06:54 15.01.2020
769 Clouds 15 1021 72 10000 3.1 110 06:28 15.01.2020
770 Clouds 13 1019 82 10000 1 0 04:57 15.01.2020
771 Clouds 14 1019 87 10000 5.1 80 03:20 15.01.2020
772 Rain 13 1017 93 8000 2.6 110 01:48 15.01.2020
773 Rain 13 1017 93 8000 2.6 110 01:21 15.01.2020
774 Rain 14 1017 87 6000 3.6 360 00:37 15.01.2020
775 Rain 14 1017 87 6000 3.6 360 00:19 15.01.2020
776 Rain 14 1017 82 7000 6.7 350 23:46 14.01.2020
777 Rain 14 1017 93 4500 3.1 0 23:24 14.01.2020
778 Rain 14 1017 82 4000 6.2 290 22:57 14.01.2020
779 Clouds 14 1016 87 10000 1.5 40 22:39 14.01.2020
780 Clouds 15 1016 87 10000 1.5 40 22:18 14.01.2020
781 Rain 15 1017 82 8000 6.7 300 21:56 14.01.2020
782 Rain 15 1017 82 8000 6.7 300 21:37 14.01.2020
783 Rain 15 1017 82 8000 6.7 300 21:19 14.01.2020
784 Rain 16 1017 77 4000 5.1 280 20:42 14.01.2020
785 Clouds 17 1017 48 10000 3.6 250 20:22 14.01.2020
786 Clouds 17 1017 48 10000 3.6 250 19:57 14.01.2020
787 Clouds 17 1017 48 10000 3.6 250 19:57 14.01.2020
788 Clouds 17 1017 48 10000 3.6 250 19:38 14.01.2020
789 Clouds 18 1017 48 10000 3.6 250 19:20 14.01.2020
790 Clouds 18 1016 45 10000 4.6 230 18:59 14.01.2020
791 Rain 18 1017 52 0 5.36 250 18:40 14.01.2020
792 Clouds 18 1017 42 10000 6.2 270 18:19 14.01.2020
793 Clouds 18 1017 42 10000 6.2 270 17:39 14.01.2020
794 Clouds 19 1017 42 10000 6.2 270 17:20 14.01.2020
795 Clouds 19 1016 49 10000 7.2 280 16:59 14.01.2020
796 Clouds 19 1016 49 10000 7.2 280 16:41 14.01.2020
797 Clouds 19 1016 49 10000 7.2 280 16:21 14.01.2020
798 Clouds 19 1016 52 10000 6.2 270 15:55 14.01.2020
799 Clouds 19 1016 52 10000 6.2 270 15:37 14.01.2020
800 Clouds 19 1016 52 10000 6.2 270 15:18 14.01.2020
801 Clouds 20 1015 52 10000 4.6 280 14:43 14.01.2020
802 Clouds 20 1015 52 10000 4.6 280 14:20 14.01.2020
803 Rain 20 1015 56 10000 5.1 270 13:43 14.01.2020
804 Rain 20 1015 56 10000 5.1 270 13:20 14.01.2020
805 Clouds 20 1015 52 10000 4.1 260 12:59 14.01.2020
806 Clouds 20 1015 52 10000 4.1 260 12:40 14.01.2020
807 Clouds 20 1015 52 10000 4.1 260 12:20 14.01.2020
808 Clouds 20 1015 52 10000 4.1 260 12:20 14.01.2020
809 Clouds 20 1015 52 10000 4.1 260 12:20 14.01.2020
810 Clouds 20 1015 52 10000 4.1 260 12:20 14.01.2020
811 Clouds 20 1016 49 10000 5.7 260 11:43 14.01.2020
812 Clouds 20 1016 49 10000 5.7 260 11:23 14.01.2020
813 Clouds 20 1016 46 10000 6.7 270 10:59 14.01.2020
814 Clouds 20 1016 46 10000 6.7 270 10:39 14.01.2020
815 Clouds 20 1016 46 10000 6.7 270 10:20 14.01.2020
816 Clouds 20 1017 46 10000 6.7 250 09:57 14.01.2020
817 Clouds 20 1017 46 10000 6.7 250 09:39 14.01.2020
818 Clouds 20 1017 46 10000 6.7 250 09:20 14.01.2020
819 Clouds 20 1018 43 10000 6.2 270 08:46 14.01.2020
820 Clouds 24 1018 43 10000 6.2 270 08:24 14.01.2020
821 Clouds 23 1018 45 10000 6.2 280 07:53 14.01.2020
822 Clouds 23 1018 45 10000 6.2 280 07:31 14.01.2020
823 Clear 21 1000 26 6000 4.1 200 06:51 14.01.2020
824 Clouds 23 1017 52 10000 6.7 270 06:27 14.01.2020
825 Clouds 15 1017 72 10000 2.6 200 05:25 14.01.2020
826 Clouds 15 1016 67 10000 2.6 230 03:51 14.01.2020
827 Clouds 15 1016 77 10000 2.6 190 02:42 14.01.2020
828 Clouds 15 1016 72 10000 2.6 170 01:53 14.01.2020
829 Clouds 15 1016 72 10000 1.5 190 00:49 14.01.2020
830 Clouds 15 1016 72 10000 1.5 190 00:28 14.01.2020
831 Clouds 16 1016 67 10000 1.5 180 23:54 13.01.2020
832 Clouds 16 1016 67 10000 1.5 180 23:54 13.01.2020
833 Clouds 16 1016 67 10000 1.5 180 23:36 13.01.2020
834 Clouds 16 1016 67 10000 1.5 180 23:18 13.01.2020
835 Clouds 17 1017 63 10000 3.6 190 22:41 13.01.2020
836 Clouds 17 1017 63 10000 3.6 190 22:21 13.01.2020
837 Clouds 17 1017 63 10000 1.5 180 21:56 13.01.2020
838 Clouds 17 1017 63 10000 1.5 180 21:37 13.01.2020
839 Clouds 17 1017 63 10000 1.5 180 21:18 13.01.2020
840 Clouds 17 1017 52 10000 4.6 320 20:57 13.01.2020
841 Clouds 17 1017 52 10000 4.6 320 20:38 13.01.2020
842 Clouds 17 1017 52 10000 4.6 320 20:20 13.01.2020
843 Clouds 17 1018 49 10000 2.6 260 19:58 13.01.2020
844 Clouds 17 1018 49 10000 2.6 260 19:39 13.01.2020
845 Clouds 18 1018 49 10000 2.6 260 19:19 13.01.2020
846 Clouds 18 1018 49 10000 3.1 270 18:56 13.01.2020
847 Clouds 18 1018 49 10000 3.1 270 18:37 13.01.2020
848 Clouds 18 1018 49 10000 3.1 270 18:37 13.01.2020
849 Clouds 18 1018 49 10000 3.1 270 18:18 13.01.2020
850 Clouds 18 1017 52 10000 3.1 270 17:40 13.01.2020
851 Clouds 19 1017 52 10000 3.1 270 17:22 13.01.2020
852 Clouds 19 1017 52 10000 3.1 270 17:22 13.01.2020
853 Clouds 19 1017 49 10000 4.6 290 16:56 13.01.2020
854 Clear 21 1017 46 0 4.92 270 16:38 13.01.2020
855 Clear 21 1017 46 0 4.92 270 16:19 13.01.2020
856 Clear 21 1017 46 0 4.92 270 15:43 13.01.2020
857 Clear 21 1017 46 0 4.92 270 15:23 13.01.2020
858 Clear 21 1017 46 0 4.92 270 14:57 13.01.2020
859 Clear 21 1017 46 0 4.92 270 14:37 13.01.2020
860 Clear 21 1017 46 0 4.92 270 14:19 13.01.2020
861 Clear 21 1017 46 0 4.92 270 13:41 13.01.2020
862 Clear 21 1017 46 0 4.92 270 13:23 13.01.2020
863 Clear 21 1017 46 0 4.92 270 12:59 13.01.2020
864 Clear 21 1017 46 0 4.92 270 12:40 13.01.2020
865 Clouds 21 1017 43 10000 5.7 320 12:22 13.01.2020
866 Clouds 21 1017 43 10000 5.7 320 11:57 13.01.2020
867 Clouds 21 1017 43 10000 5.7 320 11:37 13.01.2020
868 Clouds 21 1017 43 10000 5.7 320 11:18 13.01.2020
869 Clouds 21 1018 52 10000 6.2 290 10:55 13.01.2020
870 Clouds 20 1018 43 10000 3.6 280 10:36 13.01.2020
871 Clouds 20 1018 43 10000 3.6 280 10:18 13.01.2020
872 Clouds 20 1019 56 10000 3.1 210 09:42 13.01.2020
873 Clouds 20 1019 56 10000 3.1 210 09:23 13.01.2020
874 Clouds 18 1020 63 10000 3.6 170 08:44 13.01.2020
875 Clouds 18 1020 63 10000 3.6 170 08:22 13.01.2020
876 Clouds 17 1020 63 10000 3.6 180 07:59 13.01.2020
877 Clouds 17 1020 63 10000 3.6 180 07:59 13.01.2020
878 Clouds 17 1020 63 10000 3.6 180 07:40 13.01.2020
879 Clouds 15 1020 67 10000 3.1 170 07:18 13.01.2020
880 -273 0 0 0 0 0 06:37 13.01.2020
881 Clouds 14 1020 67 10000 3.1 170 06:37 13.01.2020
882 Clouds 12 1020 76 8000 2.1 190 05:36 13.01.2020
883 Clear 12 1019 76 10000 2.1 180 04:25 13.01.2020
884 Clear 12 1018 76 10000 1.5 150 03:34 13.01.2020
885 Clear 12 1017 71 10000 2.1 160 02:49 13.01.2020
886 Clear 12 1017 71 10000 2.1 160 02:29 13.01.2020
887 Clear 12 1017 71 10000 2.1 160 02:29 13.01.2020
888 Clear 13 1017 67 10000 2.1 180 01:32 13.01.2020
889 Clear 14 1017 67 10000 1.5 200 00:43 13.01.2020
890 Clear 15 1017 67 10000 1.5 200 00:24 13.01.2020
891 Clear 15 1018 48 10000 3.1 340 23:56 12.01.2020
892 Clear 15 1018 48 10000 3.1 340 23:37 12.01.2020
893 Clear 15 1018 48 10000 3.1 340 23:19 12.01.2020
894 Clear 16 1018 42 10000 3.1 350 22:42 12.01.2020
895 Clear 16 1018 42 10000 3.1 350 22:24 12.01.2020
896 Clear 16 1018 42 10000 4.1 340 21:57 12.01.2020
897 Clear 16 1018 42 10000 4.1 340 21:39 12.01.2020
898 Clear 16 1018 42 10000 4.1 340 21:39 12.01.2020
899 Clear 16 1018 42 10000 4.1 340 21:20 12.01.2020
900 Clear 17 1018 39 10000 3.1 330 20:57 12.01.2020
901 Clear 17 1018 39 10000 3.1 330 20:39 12.01.2020
902 Clear 17 1018 39 10000 3.1 330 20:20 12.01.2020
903 Clear 17 1018 42 10000 5.1 330 19:56 12.01.2020
904 Clear 17 1018 42 10000 5.1 330 19:38 12.01.2020
905 Clear 17 1018 42 10000 5.1 330 19:38 12.01.2020
906 Clear 17 1018 42 10000 5.1 330 19:19 12.01.2020
907 Clear 17 1018 42 10000 4.6 330 18:57 12.01.2020
908 Clear 17 1018 42 10000 4.6 330 18:39 12.01.2020
909 Clear 17 1018 42 10000 4.6 330 18:21 12.01.2020
910 Clear 18 1018 42 10000 6.2 330 17:56 12.01.2020
911 Clear 18 1018 42 10000 6.2 330 17:37 12.01.2020
912 Clear 18 1018 42 10000 6.2 330 17:18 12.01.2020
913 Clear 17 1017 39 10000 6.2 310 16:54 12.01.2020
914 Clear 17 1017 39 10000 6.2 310 16:36 12.01.2020
915 Clouds 18 1017 42 10000 7.2 320 16:18 12.01.2020
916 Clouds 18 1017 42 10000 7.2 320 15:42 12.01.2020
917 Clouds 18 1017 42 10000 7.2 320 15:23 12.01.2020
918 Clouds 19 1015 42 10000 8.7 320 14:55 12.01.2020
919 Clouds 19 1015 42 10000 8.7 320 14:36 12.01.2020
920 Clouds 19 1015 42 10000 8.7 320 14:18 12.01.2020
921 Clouds 19 1015 59 10000 8.7 320 13:42 12.01.2020
922 Clouds 19 1015 59 10000 8.7 320 13:23 12.01.2020
923 Clouds 18 1015 52 10000 8.2 300 12:58 12.01.2020
924 Clouds 18 1015 52 10000 8.2 300 12:38 12.01.2020
925 Clouds 18 1015 52 10000 8.2 300 12:19 12.01.2020
926 Clouds 18 1017 72 10000 9.3 260 11:55 12.01.2020
927 Rain 18 1015 68 10000 8.7 330 11:36 12.01.2020
928 Rain 18 1015 68 10000 8.7 330 11:18 12.01.2020
929 Clouds 18 1015 67 10000 4.1 290 10:41 12.01.2020
930 Clouds 18 1015 67 10000 4.1 290 10:21 12.01.2020
931 Clouds 16 1016 52 10000 9.3 300 09:55 12.01.2020
932 Thunderstorm 16 1016 67 10000 11.3 300 09:37 12.01.2020
933 Thunderstorm 16 1016 67 10000 11.3 300 09:18 12.01.2020
934 Clouds 18 1017 56 10000 8.7 280 08:42 12.01.2020
935 Clouds 17 1017 56 10000 8.7 280 08:19 12.01.2020
936 Clouds 16 1017 72 10000 4.6 190 07:39 12.01.2020
937 Clouds 16 1017 72 10000 4.6 190 07:21 12.01.2020
938 Clouds 17 1017 55 10000 5.7 290 06:42 12.01.2020
939 Clouds 16 1017 55 10000 5.7 290 06:18 12.01.2020
940 Clouds 16 1016 55 10000 6.7 270 05:21 12.01.2020
941 Clouds 16 1014 55 10000 5.7 280 03:45 12.01.2020
942 Rain 16 1014 59 10000 6.7 270 02:59 12.01.2020
943 Thunderstorm 15 1014 67 8000 7.2 270 02:30 12.01.2020
944 Clouds 15 1014 63 10000 6.2 270 01:40 12.01.2020
945 Clouds 15 1014 63 10000 6.2 270 01:21 12.01.2020
946 Thunderstorm 16 1014 63 10000 9.3 310 00:40 12.01.2020
947 Thunderstorm 16 1014 63 10000 9.3 310 00:18 12.01.2020
948 Clouds 15 1013 52 10000 7.2 280 23:41 11.01.2020
949 Clouds 15 1013 72 10000 3.6 290 23:19 11.01.2020
950 Rain 15 1014 77 8000 7.7 300 22:57 11.01.2020
951 Thunderstorm 16 1013 72 6000 11.8 290 22:39 11.01.2020
952 Thunderstorm 16 1013 72 6000 11.8 290 22:20 11.01.2020
953 Clouds 17 1013 67 10000 4.1 220 21:54 11.01.2020
954 Rain 17 1013 52 10000 7.7 270 21:36 11.01.2020
955 Rain 17 1013 52 10000 7.7 270 21:18 11.01.2020
956 Clouds 18 1013 63 10000 3.6 250 20:40 11.01.2020
957 Clouds 18 1013 63 10000 3.6 250 20:22 11.01.2020
958 Rain 18 1013 63 8000 8.7 290 19:58 11.01.2020
959 Clouds 19 1013 52 10000 6.7 290 19:38 11.01.2020
960 Clouds 19 1013 52 10000 6.7 290 19:20 11.01.2020
961 Clouds 19 1012 56 10000 3.6 270 18:57 11.01.2020
962 Clouds 19 1012 56 10000 3.6 270 18:37 11.01.2020
963 Clouds 19 1012 56 10000 3.6 270 18:19 11.01.2020
964 Clouds 19 1012 49 10000 6.2 280 17:57 11.01.2020
965 Clouds 20 1012 49 10000 6.2 280 17:39 11.01.2020
966 Clouds 20 1012 49 10000 6.2 280 17:19 11.01.2020
967 Clouds 20 1011 49 10000 6.2 290 16:44 11.01.2020
968 Clouds 20 1011 49 10000 6.2 290 16:25 11.01.2020
969 Clouds 20 1011 52 10000 7.7 300 15:57 11.01.2020
970 Clouds 20 1011 52 10000 7.7 300 15:39 11.01.2020
971 Clouds 21 1011 52 10000 7.7 300 15:20 11.01.2020
972 Rain 21 1010 46 10000 6.7 290 14:47 11.01.2020
973 Rain 21 1010 46 10000 6.7 290 14:26 11.01.2020
974 Clouds 22 1009 46 10000 8.2 290 13:59 11.01.2020
975 Clouds 22 1009 46 10000 8.2 290 13:38 11.01.2020
976 Clouds 22 1009 46 10000 8.2 290 13:20 11.01.2020
977 Clouds 22 1009 46 10000 7.7 280 12:56 11.01.2020
978 Clouds 22 1009 46 10000 7.7 280 12:37 11.01.2020
979 Clouds 22 1009 46 10000 7.7 280 12:19 11.01.2020
980 Clouds 22 1009 53 10000 10.3 300 11:45 11.01.2020
981 Clouds 22 1009 53 10000 10.3 300 11:24 11.01.2020
982 Clouds 22 1009 50 10000 6.7 270 10:50 11.01.2020
983 Clouds 22 1009 50 10000 6.7 270 10:30 11.01.2020
984 Clouds 22 1009 53 10000 6.7 280 09:44 11.01.2020
985 Clouds 22 1009 53 10000 6.7 280 09:21 11.01.2020
986 Clouds 22 1009 53 10000 6.7 280 09:21 11.01.2020
987 Clouds 21 1010 64 10000 5.1 280 08:59 11.01.2020
988 Clouds 21 1010 64 10000 5.1 280 08:40 11.01.2020
989 Clouds 21 1010 64 10000 5.1 280 08:19 11.01.2020
990 Clouds 20 1010 94 10000 3.6 200 07:43 11.01.2020
991 Clouds 20 1010 94 10000 3.6 200 07:24 11.01.2020
992 Rain 19 1009 94 10000 3.6 220 06:43 11.01.2020
993 Rain 19 1008 93 10000 4.1 190 05:30 11.01.2020
994 Rain 18 1007 93 10000 3.6 190 04:42 11.01.2020
995 Rain 18 1007 93 10000 3.6 190 04:24 11.01.2020
996 Rain 18 1007 93 7000 6.2 200 02:48 11.01.2020
997 Rain 20 1008 100 4000 5.1 210 01:47 11.01.2020
998 Rain 20 1008 100 1300 9.8 280 01:27 11.01.2020
999 Rain 21 1007 83 3500 5.7 210 00:52 11.01.2020
1000 Rain 21 1006 78 6000 7.2 190 00:29 11.01.2020
1001 Clouds 21 1006 83 10000 4.1 180 23:59 10.01.2020
1002 Clouds 21 1006 83 10000 4.1 180 23:39 10.01.2020
1003 Clouds 20 1006 83 10000 4.1 180 23:20 10.01.2020
1004 Rain 20 1007 88 8000 3.6 170 22:41 10.01.2020
1005 Rain 19 1007 93 4000 2.1 0 22:22 10.01.2020
1006 Rain 19 1008 93 4000 2.1 160 21:59 10.01.2020
1007 Rain 19 1008 88 4000 2.1 170 21:41 10.01.2020
1008 Rain 19 1008 88 4000 2.1 170 21:20 10.01.2020
1009 Thunderstorm 19 1009 88 6000 2.6 270 20:58 10.01.2020
1010 Thunderstorm 19 1009 88 6000 2.6 270 20:40 10.01.2020
1011 Thunderstorm 19 1009 88 6000 2.6 270 20:40 10.01.2020
1012 Thunderstorm 19 1009 88 6000 2.6 270 20:22 10.01.2020
1013 Thunderstorm 20 1008 77 10000 4.1 150 19:41 10.01.2020
1014 Thunderstorm 20 1008 77 10000 4.1 150 19:21 10.01.2020
1015 Clouds 20 1009 82 10000 4.1 130 18:57 10.01.2020
1016 Clouds 20 1009 82 10000 4.1 130 18:39 10.01.2020
1017 Clouds 20 1009 82 10000 4.1 130 18:18 10.01.2020
1018 Clouds 20 1009 82 10000 3.6 150 17:56 10.01.2020
1019 Clouds 20 1009 82 10000 3.6 150 17:38 10.01.2020
1020 Clouds 20 1009 82 10000 3.6 150 17:19 10.01.2020
1021 Clouds 20 1009 82 10000 3.6 150 17:19 10.01.2020
1022 Rain 21 1010 77 8000 3.6 150 16:43 10.01.2020
1023 Rain 21 1010 77 8000 3.6 150 16:22 10.01.2020
1024 Rain 20 1009 77 8000 3.1 140 15:58 10.01.2020
1025 Rain 20 1009 77 8000 3.1 140 15:39 10.01.2020
1026 Rain 21 1009 77 8000 3.1 140 15:20 10.01.2020
1027 Thunderstorm 21 1008 60 10000 2.1 180 14:59 10.01.2020
1028 Clouds 21 1008 60 10000 4.1 170 14:41 10.01.2020
1029 Clouds 21 1008 60 10000 4.1 170 14:20 10.01.2020
1030 Rain 21 1009 64 10000 5.7 160 13:58 10.01.2020
1031 Rain 20 1009 64 10000 5.7 160 13:39 10.01.2020
1032 Rain 20 1009 64 10000 5.7 160 13:21 10.01.2020
1033 Clouds 20 1009 64 10000 5.1 170 12:57 10.01.2020
1034 Clouds 20 1009 64 10000 5.1 170 12:38 10.01.2020
1035 Clouds 20 1009 64 10000 5.1 170 12:18 10.01.2020
1036 Clouds 20 1011 64 10000 9.3 180 11:42 10.01.2020
1037 Clouds 20 1011 64 10000 9.3 180 11:22 10.01.2020
1038 Clouds 20 1011 64 10000 9.3 180 11:22 10.01.2020
1039 Clouds 20 1012 64 10000 7.7 190 10:59 10.01.2020
1040 Clouds 20 1012 64 10000 7.7 190 10:39 10.01.2020
1041 Clouds 20 1012 64 10000 7.7 190 10:21 10.01.2020
1042 Clouds 20 1013 68 10000 6.7 180 09:55 10.01.2020
1043 Clouds 20 1013 68 10000 6.7 180 09:36 10.01.2020
1044 Clouds 20 1013 68 10000 6.7 180 09:18 10.01.2020
1045 Clouds 19 1014 77 10000 6.2 180 08:40 10.01.2020
1046 Clouds 19 1014 77 10000 6.2 180 08:21 10.01.2020
1047 Rain 19 1015 82 10000 4.1 170 07:44 10.01.2020
1048 Rain 19 1015 82 10000 4.1 170 07:23 10.01.2020
1049 Clouds 19 1014 88 10000 4.1 130 06:45 10.01.2020
1050 Clouds 19 1014 88 10000 4.1 130 06:25 10.01.2020
1051 Rain 19 1013 88 10000 4.1 110 05:44 10.01.2020
1052 Rain 19 1013 82 10000 1.5 130 03:35 10.01.2020
1053 Rain 19 1012 82 10000 4.1 110 02:58 10.01.2020
1054 Rain 19 1012 82 10000 4.1 110 02:37 10.01.2020
1055 Rain 18 1013 88 10000 2.6 90 01:38 10.01.2020
1056 Rain 18 1013 93 10000 2.6 100 00:57 10.01.2020
1057 Rain 18 1013 93 10000 2.6 100 00:38 10.01.2020
1058 Rain 18 1014 88 10000 2.6 120 23:57 09.01.2020
1059 Rain 18 1014 88 10000 2.6 120 23:38 09.01.2020
1060 Rain 18 1014 88 10000 2.6 120 23:38 09.01.2020
1061 Rain 18 1014 88 10000 2.6 120 23:19 09.01.2020
1062 Rain 18 1014 88 10000 2.6 120 23:19 09.01.2020
1063 Rain 19 1013 88 10000 4.1 110 22:56 09.01.2020
1064 Rain 19 1013 88 10000 4.1 110 22:37 09.01.2020
1065 Rain 19 1013 88 10000 4.1 110 22:18 09.01.2020
1066 Rain 19 1015 72 10000 2.6 100 21:56 09.01.2020
1067 Rain 19 1015 72 10000 2.6 100 21:37 09.01.2020
1068 Rain 19 1015 72 10000 2.6 100 21:18 09.01.2020
1069 Rain 19 1015 72 10000 1.5 60 20:55 09.01.2020
1070 Rain 19 1015 72 10000 1.5 60 20:37 09.01.2020
1071 Rain 19 1015 72 8000 1.5 360 20:18 09.01.2020
1072 Rain 19 1015 72 8000 1.5 360 20:18 09.01.2020
1073 Rain 20 1015 73 10000 1.5 40 19:39 09.01.2020
1074 Rain 21 1015 64 10000 2.6 150 19:21 09.01.2020
1075 Rain 21 1015 64 10000 3.1 120 18:57 09.01.2020
1076 Rain 21 1015 64 10000 3.1 120 18:39 09.01.2020
1077 Rain 21 1015 64 10000 3.1 120 18:21 09.01.2020
1078 Rain 22 1014 53 10000 3.6 60 17:42 09.01.2020
1079 Clouds 22 1014 53 10000 3.6 60 17:20 09.01.2020
1080 Clouds 23 1014 50 10000 4.1 350 16:59 09.01.2020
1081 Clouds 23 1014 50 10000 4.1 350 16:59 09.01.2020
1082 Clouds 23 1014 50 10000 4.1 350 16:41 09.01.2020
1083 Clouds 23 1014 50 10000 4.1 350 16:21 09.01.2020
1084 Rain 23 1013 47 10000 2.6 10 15:43 09.01.2020
1085 Rain 23 1013 47 10000 2.6 10 15:23 09.01.2020
1086 Clouds 24 1013 41 10000 4.1 340 14:59 09.01.2020
1087 Clouds 24 1013 41 10000 4.1 340 14:41 09.01.2020
1088 Clear 24 1013 41 10000 4.1 340 14:19 09.01.2020
1089 Clear 26 1013 41 10000 5.1 340 13:55 09.01.2020
1090 Clear 26 1013 41 10000 5.1 340 13:37 09.01.2020
1091 Clouds 26 1013 31 10000 3.6 210 13:19 09.01.2020
1092 Clouds 26 1013 31 10000 3.6 230 12:56 09.01.2020
1093 Clouds 26 1013 31 10000 3.6 230 12:38 09.01.2020
1094 Clouds 26 1014 30 10000 3.6 250 12:18 09.01.2020
1095 Clouds 26 1014 30 10000 3.6 250 11:42 09.01.2020
1096 Clouds 26 1014 30 10000 3.6 250 11:24 09.01.2020
1097 Clear 26 1014 30 10000 3.6 250 11:24 09.01.2020
1098 Clear 26 1014 34 10000 3.1 180 10:58 09.01.2020
1099 Clear 26 1014 34 10000 3.1 180 10:39 09.01.2020
1100 Clear 26 1014 34 10000 3.1 180 10:21 09.01.2020
1101 Clear 25 1016 36 10000 5.1 210 09:45 09.01.2020
1102 Clear 25 1016 36 10000 5.1 210 09:23 09.01.2020
1103 Clear 25 1016 36 10000 5.1 210 09:23 09.01.2020
1104 Clear 24 1017 50 10000 5.1 200 08:57 09.01.2020
1105 Clear 24 1017 50 10000 5.1 200 08:38 09.01.2020
1106 Clear 24 1017 50 10000 5.1 200 08:20 09.01.2020
1107 Clear 22 1018 53 10000 3.6 190 07:46 09.01.2020
1108 Clear 22 1018 53 10000 3.6 190 07:28 09.01.2020
1109 Clear 20 1017 52 10000 3.1 190 06:40 09.01.2020
1110 Clear 20 1017 52 10000 3.1 190 06:21 09.01.2020
1111 Clear 17 1016 52 10000 3.1 170 05:51 09.01.2020
1112 Clear 17 1016 52 10000 3.1 170 05:18 09.01.2020
1113 Clear 16 1016 55 10000 3.1 160 04:38 09.01.2020
1114 Clear 16 1015 52 10000 1.5 160 03:26 09.01.2020
1115 Clear 16 1015 52 10000 1 0 02:46 09.01.2020
1116 Clear 16 1015 52 10000 1.5 160 01:41 09.01.2020
1117 Clear 17 1016 48 10000 2.1 190 00:57 09.01.2020
1118 Clear 17 1016 48 10000 2.1 190 00:37 09.01.2020
1119 Clear 17 1016 48 10000 2.1 190 00:19 09.01.2020
1120 Clear 17 1016 45 10000 2.6 190 23:39 08.01.2020
1121 Clear 17 1016 45 10000 2.6 190 23:20 08.01.2020
1122 Clear 17 1016 48 10000 4.1 130 22:40 08.01.2020
1123 Clear 17 1016 48 10000 4.1 130 22:21 08.01.2020
1124 Clear 18 1016 45 10000 5.1 130 21:58 08.01.2020
1125 Clear 18 1016 45 10000 5.1 130 21:40 08.01.2020
1126 Clear 18 1016 45 10000 5.1 130 21:20 08.01.2020
1127 Clear 18 1016 45 10000 5.7 120 20:59 08.01.2020
1128 Clear 18 1016 45 10000 5.7 120 20:41 08.01.2020
1129 Clear 18 1016 45 10000 5.7 120 20:21 08.01.2020
1130 Clear 19 1017 43 10000 3.6 100 19:58 08.01.2020
1131 Clear 19 1017 43 10000 3.6 100 19:38 08.01.2020
1132 Clear 19 1017 43 10000 3.6 100 19:19 08.01.2020
1133 Clear 21 1016 43 10000 3.6 100 18:57 08.01.2020
1134 Clear 21 1016 43 10000 3.6 100 18:38 08.01.2020
1135 Clear 21 1016 43 10000 3.6 100 18:18 08.01.2020
1136 Clear 21 1016 40 10000 5.7 120 17:56 08.01.2020
1137 Clear 21 1016 40 10000 5.7 120 17:56 08.01.2020
1138 Clear 21 1016 40 10000 5.7 120 17:37 08.01.2020
1139 Clear 21 1016 40 10000 5.7 120 17:18 08.01.2020
1140 Clear 21 1016 40 10000 5.7 120 17:18 08.01.2020
1141 Clear 23 1016 38 10000 5.7 110 16:55 08.01.2020
1142 Clear 23 1016 38 10000 5.7 110 16:37 08.01.2020
1143 Clear 23 1016 38 10000 5.7 110 16:18 08.01.2020
1144 Clear 24 1015 36 10000 5.1 110 15:42 08.01.2020
1145 Clear 24 1015 36 10000 5.1 110 15:21 08.01.2020
1146 Clear 25 1015 38 10000 5.1 100 14:57 08.01.2020
1147 Clear 25 1015 38 10000 5.1 100 14:39 08.01.2020
1148 Clear 25 1015 44 10000 5.1 360 14:20 08.01.2020
1149 Clouds 26 1014 44 10000 6.7 330 13:40 08.01.2020
1150 Clouds 26 1014 44 10000 6.7 330 13:19 08.01.2020
1151 Clouds 26 1015 28 10000 3.6 120 12:43 08.01.2020
1152 Clouds 26 1015 28 10000 3.6 120 12:20 08.01.2020
1153 Clouds 26 1015 26 10000 5.7 140 11:59 08.01.2020
1154 Clouds 26 1015 26 10000 5.7 140 11:40 08.01.2020
1155 Clouds 26 1015 26 10000 5.7 140 11:19 08.01.2020
1156 Clear 26 1015 28 10000 5.1 170 10:56 08.01.2020
1157 Clear 26 1015 28 10000 5.1 170 10:37 08.01.2020
1158 Clear 25 1017 33 10000 5.7 120 10:19 08.01.2020
1159 Clear 25 1017 33 10000 5.7 120 09:42 08.01.2020
1160 Clear 25 1017 33 10000 5.7 120 09:20 08.01.2020
1161 Clear 23 1019 41 10000 5.1 100 08:57 08.01.2020
1162 Clear 23 1019 41 10000 5.1 100 08:37 08.01.2020
1163 Clear 23 1019 41 10000 5.1 100 08:19 08.01.2020
1164 Clear 21 1019 46 10000 4.6 100 07:49 08.01.2020
1165 Clear 21 1019 46 10000 4.6 100 07:30 08.01.2020
1166 Clear 21 1019 46 10000 4.6 100 07:30 08.01.2020
1167 Clear 18 1019 49 10000 3.6 100 06:48 08.01.2020
1168 Clear 18 1019 49 10000 3.6 100 06:24 08.01.2020
1169 Clear 14 1018 55 10000 3.1 90 05:53 08.01.2020
1170 Clear 13 1018 63 10000 1 110 04:57 08.01.2020
1171 Clear 13 1018 63 10000 1 110 04:25 08.01.2020
1172 Clear 13 1017 63 10000 2.6 60 02:45 08.01.2020
1173 Clear 13 1017 63 10000 2.6 60 02:22 08.01.2020
1174 Clear 14 1017 63 10000 1.5 0 01:48 08.01.2020
1175 Clear 14 1017 63 10000 1.5 0 01:19 08.01.2020
1176 Clear 14 1017 55 10000 1.5 70 00:28 08.01.2020
1177 Clear 14 1017 55 10000 1.5 70 00:28 08.01.2020
1178 Clear 15 1018 59 10000 1 60 23:57 07.01.2020
1179 Clear 15 1018 59 10000 1 60 23:39 07.01.2020
1180 Clear 15 1018 59 10000 1 60 23:20 07.01.2020
1181 Clear 15 1018 59 10000 1 60 23:20 07.01.2020
1182 Clear 15 1018 59 10000 3.6 110 22:40 07.01.2020
1183 Clear 15 1018 59 10000 3.6 110 22:20 07.01.2020
1184 Clear 16 1018 59 10000 2.6 100 21:56 07.01.2020
1185 Clear 16 1018 59 10000 2.6 100 21:38 07.01.2020
1186 Clear 16 1018 59 10000 2.6 100 21:20 07.01.2020
1187 Clear 17 1018 49 10000 3.1 70 20:55 07.01.2020
1188 Clear 17 1018 49 10000 3.1 70 20:36 07.01.2020
1189 Clear 17 1018 49 10000 3.1 70 20:18 07.01.2020
1190 Clear 18 1018 52 10000 2.1 50 19:38 07.01.2020
1191 Clear 18 1018 52 10000 2.1 50 19:20 07.01.2020
1192 Clear 19 1019 49 10000 2.1 40 18:58 07.01.2020
1193 Clear 19 1019 49 10000 2.1 40 18:40 07.01.2020
1194 Clear 19 1019 49 10000 2.1 40 18:19 07.01.2020
1195 Clear 20 1018 49 10000 2.6 30 17:58 07.01.2020
1196 Clear 20 1018 49 10000 2.6 30 17:39 07.01.2020
1197 Clear 20 1018 49 10000 2.6 30 17:20 07.01.2020
1198 Clear 21 1018 53 10000 3.6 30 16:56 07.01.2020
1199 Clear 21 1018 53 10000 3.6 30 16:37 07.01.2020
1200 Clear 21 1018 53 10000 3.6 30 16:19 07.01.2020
1201 Clear 22 1017 53 10000 5.1 10 15:57 07.01.2020
1202 Clear 22 1017 53 10000 5.1 10 15:37 07.01.2020
1203 Clear 22 1017 53 10000 5.1 10 15:18 07.01.2020
1204 Clear 23 1017 49 10000 5.1 20 14:42 07.01.2020
1205 Clouds 23 1017 49 10000 5.1 20 14:23 07.01.2020
1206 Clear 23 1017 49 10000 5.1 20 14:23 07.01.2020
1207 Clouds 23 1017 41 10000 6.7 20 13:56 07.01.2020
1208 Clouds 23 1017 41 10000 6.7 20 13:56 07.01.2020
1209 Clouds 23 1017 41 10000 6.7 20 13:37 07.01.2020
1210 Clouds 23 1017 41 10000 6.7 20 13:18 07.01.2020
1211 Clouds 24 1017 38 10000 5.1 20 12:40 07.01.2020
1212 Clouds 24 1017 38 10000 5.1 20 12:40 07.01.2020
1213 Clouds 24 1017 38 10000 5.1 20 12:19 07.01.2020
1214 Clouds 24 1017 36 10000 3.6 350 11:44 07.01.2020
1215 Clear 24 1017 36 10000 3.6 350 11:23 07.01.2020
1216 Clear 24 1017 36 10000 3.6 350 11:23 07.01.2020
1217 Clear 23 1018 33 10000 2.6 100 10:59 07.01.2020
1218 Clear 23 1018 33 10000 2.6 100 10:40 07.01.2020
1219 Clear 23 1018 33 10000 2.6 100 10:40 07.01.2020
1220 Clear 23 1018 33 10000 2.6 100 10:22 07.01.2020
1221 Clear 23 1019 35 10000 3.1 0 09:56 07.01.2020
1222 Clear 23 1019 35 10000 3.1 0 09:37 07.01.2020
1223 Clear 23 1019 35 10000 3.1 0 09:37 07.01.2020
1224 Clear 23 1019 35 10000 3.1 0 09:19 07.01.2020
1225 Clear 22 1020 43 10000 2.1 130 08:41 07.01.2020
1226 Clear 22 1020 43 10000 2.1 130 08:41 07.01.2020
1227 Clear 22 1020 43 10000 2.1 130 08:20 07.01.2020
1228 Clear 20 1020 52 10000 1.5 170 07:49 07.01.2020
1229 Clear 20 1020 52 10000 1.5 170 07:25 07.01.2020
1230 Clear 17 1020 59 10000 2.1 180 06:52 07.01.2020
1231 Clear 17 1020 59 10000 2.1 180 06:32 07.01.2020
1232 Clear 15 1019 67 10000 2.1 160 05:42 07.01.2020
1233 Clear 14 1018 67 10000 2.1 190 03:52 07.01.2020
1234 Clear 14 1018 67 10000 2.1 190 03:25 07.01.2020
1235 Clear 15 1017 67 10000 1.5 170 02:20 07.01.2020
1236 Clear 15 1017 63 10000 2.1 170 01:45 07.01.2020
1237 Clear 15 1017 63 10000 2.1 170 01:18 07.01.2020
1238 Clouds 16 1017 63 10000 2.6 160 00:21 07.01.2020
1239 Clouds 17 1017 59 10000 2.1 140 23:58 06.01.2020
1240 Clouds 17 1017 59 10000 2.1 140 23:38 06.01.2020
1241 Clouds 17 1017 59 10000 2.1 140 23:20 06.01.2020
1242 Clouds 18 1017 49 10000 2.6 240 22:56 06.01.2020
1243 Clouds 18 1017 49 10000 2.6 240 22:37 06.01.2020
1244 Clouds 18 1017 49 10000 2.6 240 22:18 06.01.2020
1245 Clouds 19 1017 49 10000 4.6 290 21:54 06.01.2020
1246 Clouds 19 1017 49 10000 4.6 290 21:36 06.01.2020
1247 Clouds 19 1017 49 10000 4.6 290 21:18 06.01.2020
1248 Clouds 19 1018 46 10000 3.6 290 20:54 06.01.2020
1249 Clouds 19 1018 46 10000 3.6 290 20:36 06.01.2020
1250 Clouds 19 1018 46 10000 3.6 290 20:18 06.01.2020
1251 Clouds 19 1018 46 10000 3.6 290 20:18 06.01.2020
1252 Clouds 19 1018 49 10000 5.7 280 19:54 06.01.2020
1253 Clouds 19 1018 49 10000 5.7 280 19:36 06.01.2020
1254 Clouds 19 1018 49 10000 5.7 280 19:18 06.01.2020
1255 Clear 20 1017 46 10000 4.1 290 18:41 06.01.2020
1256 Clear 20 1017 46 10000 4.1 290 18:19 06.01.2020
1257 Clear 20 1017 46 10000 5.7 290 17:39 06.01.2020
1258 Clear 20 1017 46 10000 5.7 290 17:19 06.01.2020
1259 Clear 21 1017 46 10000 5.7 290 16:55 06.01.2020
1260 Clear 21 1017 46 10000 5.7 290 16:36 06.01.2020
1261 Clear 21 1017 46 10000 5.7 290 16:18 06.01.2020
1262 Clear 21 1017 46 10000 5.7 290 16:18 06.01.2020
1263 Clear 22 1016 46 10000 6.2 300 15:42 06.01.2020
1264 Clear 22 1016 46 10000 6.2 300 15:20 06.01.2020
1265 Clouds 23 1016 43 10000 6.7 290 14:59 06.01.2020
1266 Clouds 23 1016 43 10000 6.7 290 14:41 06.01.2020
1267 Clouds 23 1016 43 10000 6.7 290 14:41 06.01.2020
1268 Clouds 23 1016 43 10000 6.7 290 14:21 06.01.2020
1269 Clouds 23 1015 46 10000 7.7 320 13:58 06.01.2020
1270 Clouds 23 1015 46 10000 7.7 320 13:38 06.01.2020
1271 Clouds 23 1015 46 10000 7.7 320 13:19 06.01.2020
1272 Clouds 23 1015 44 10000 7.2 310 12:43 06.01.2020
1273 Clouds 23 1015 46 10000 6.2 300 12:21 06.01.2020
1274 Clouds 23 1015 46 10000 6.2 300 11:59 06.01.2020
1275 Clouds 23 1015 46 10000 6.2 300 11:39 06.01.2020
1276 Clouds 23 1015 46 10000 6.2 300 11:21 06.01.2020
1277 Clouds 23 1016 46 10000 5.1 310 10:57 06.01.2020
1278 Clouds 23 1016 46 10000 5.1 310 10:39 06.01.2020
1279 Clouds 23 1016 46 10000 5.1 310 10:20 06.01.2020
1280 Clouds 22 1016 46 10000 6.2 320 09:38 06.01.2020
1281 Clouds 22 1016 46 10000 6.2 320 09:19 06.01.2020
1282 Clouds 22 1017 53 10000 6.2 320 08:46 06.01.2020
1283 Clouds 22 1017 53 10000 6.2 320 08:26 06.01.2020
1284 Clouds 22 1017 56 10000 5.1 320 07:53 06.01.2020
1285 Clouds 22 1017 56 10000 5.1 320 07:32 06.01.2020
1286 Clouds 21 1017 64 10000 4.6 310 06:45 06.01.2020
1287 Clouds 21 1017 64 10000 4.6 310 06:20 06.01.2020
1288 Rain 20 1016 77 10000 5.7 320 05:45 06.01.2020
1289 Clouds 20 1015 73 10000 3.6 330 04:37 06.01.2020
1290 Clouds 20 1015 73 10000 3.6 330 04:18 06.01.2020
1291 Clouds 20 1014 73 10000 5.7 350 02:46 06.01.2020
1292 Clouds 20 1014 73 10000 5.7 350 02:23 06.01.2020
1293 Clouds 20 1013 68 10000 2.1 60 01:44 06.01.2020
1294 Clouds 20 1013 68 10000 2.1 60 01:24 06.01.2020
1295 Clouds 21 1014 77 10000 4.6 350 00:41 06.01.2020
1296 Clouds 20 1014 77 10000 4.6 350 00:21 06.01.2020
1297 Clouds 21 1013 73 10000 5.1 360 23:41 05.01.2020
1298 Clouds 21 1013 73 10000 5.1 360 23:22 05.01.2020
1299 Clouds 22 1013 64 10000 6.2 350 22:56 05.01.2020
1300 Clouds 22 1013 64 10000 6.2 350 22:38 05.01.2020
1301 Clouds 22 1013 64 10000 6.2 350 22:19 05.01.2020
1302 Clouds 23 1013 73 10000 5.7 350 21:54 05.01.2020
1303 Clouds 23 1013 73 10000 5.7 350 21:36 05.01.2020
1304 Clouds 23 1013 73 10000 5.7 350 21:18 05.01.2020
1305 Rain 23 1013 69 10000 3.1 340 20:55 05.01.2020
1306 Rain 23 1013 69 10000 3.1 340 20:55 05.01.2020
1307 Rain 23 1013 69 10000 3.1 340 20:36 05.01.2020
1308 Rain 23 1013 69 10000 3.1 340 20:18 05.01.2020
1309 Rain 23 1013 69 10000 3.6 340 19:54 05.01.2020
1310 Rain 23 1013 69 10000 3.6 340 19:54 05.01.2020
1311 Rain 23 1013 69 10000 3.6 340 19:36 05.01.2020
1312 Rain 23 1013 69 10000 3.6 340 19:18 05.01.2020
1313 Rain 23 1013 69 10000 3.6 330 18:54 05.01.2020
1314 Rain 23 1013 69 10000 3.6 330 18:36 05.01.2020
1315 Rain 23 1013 69 10000 3.6 330 18:18 05.01.2020
1316 Rain 24 1012 69 10000 3.1 350 17:39 05.01.2020
1317 Clouds 24 1012 69 10000 3.1 350 17:20 05.01.2020
1318 Clouds 24 1011 65 10000 5.1 330 16:58 05.01.2020
1319 Clouds 24 1011 65 10000 5.1 330 16:39 05.01.2020
1320 Clouds 24 1011 65 10000 5.1 330 16:20 05.01.2020
1321 Clouds 24 1011 53 8000 4.6 300 15:41 05.01.2020
1322 Clouds 24 1011 53 8000 4.6 300 15:22 05.01.2020
1323 Clouds 24 1011 53 8000 4.6 300 15:22 05.01.2020
1324 Clouds 24 1011 53 8000 4.6 300 15:22 05.01.2020
1325 Clouds 25 1010 57 8000 6.2 310 14:57 05.01.2020
1326 Clouds 25 1010 57 8000 6.2 310 14:39 05.01.2020
1327 Clouds 25 1010 57 8000 6.2 310 14:21 05.01.2020
1328 Dust 27 1010 50 5000 5.7 290 13:58 05.01.2020
1329 Dust 27 1010 50 5000 5.7 290 13:38 05.01.2020
1330 Dust 27 1010 50 5000 5.7 290 13:20 05.01.2020
1331 Dust 28 1010 42 4000 6.2 300 12:57 05.01.2020
1332 Dust 28 1010 42 4000 6.2 300 12:38 05.01.2020
1333 Dust 28 1010 42 4000 6.2 300 12:20 05.01.2020
1334 Dust 29 1010 35 3500 7.2 210 11:54 05.01.2020
1335 Dust 29 1010 35 3500 7.2 210 11:36 05.01.2020
1336 Dust 29 1010 35 3500 7.2 210 11:18 05.01.2020
1337 Dust 28 1011 42 4000 7.2 220 10:41 05.01.2020
1338 Dust 28 1011 42 4000 7.2 220 10:20 05.01.2020
1339 Dust 27 1012 44 4000 7.7 200 09:55 05.01.2020
1340 Dust 27 1012 44 4000 7.7 200 09:36 05.01.2020
1341 Dust 27 1012 44 4000 7.7 200 09:18 05.01.2020
1342 Clouds 26 1014 50 6000 6.2 210 08:44 05.01.2020
1343 Clouds 26 1014 50 6000 6.2 210 08:21 05.01.2020
1344 Clouds 24 1014 53 10000 6.7 190 07:44 05.01.2020
1345 Clouds 24 1014 53 10000 6.7 190 07:44 05.01.2020
1346 Clouds 24 1014 53 10000 6.7 190 07:26 05.01.2020
1347 Clouds 23 1014 53 10000 4.6 180 06:54 05.01.2020
1348 Clouds 21 1014 53 10000 4.1 190 05:43 05.01.2020
1349 Clouds 21 1013 53 10000 3.6 190 04:56 05.01.2020
1350 Clouds 21 1013 53 10000 3.6 190 04:19 05.01.2020
1351 Clouds 21 1013 53 10000 3.6 190 04:19 05.01.2020
1352 Clouds 20 1013 53 10000 1.5 200 03:38 05.01.2020
1353 Clouds 20 1012 49 10000 3.1 190 02:35 05.01.2020
1354 Clear 19 1012 52 10000 2.1 200 01:52 05.01.2020
1355 Clear 19 1012 52 10000 2.1 200 01:20 05.01.2020
1356 Clear 20 1012 46 10000 1.5 170 00:57 05.01.2020
1357 Clear 20 1012 46 10000 1.5 170 00:39 05.01.2020
1358 Clear 20 1012 46 10000 1.5 170 00:20 05.01.2020
1359 Clear 20 1012 49 10000 2.1 140 23:42 04.01.2020
1360 Clear 20 1012 49 10000 2.1 140 23:21 04.01.2020
1361 Clear 20 1013 49 10000 2.6 130 22:59 04.01.2020
1362 Clear 20 1013 49 10000 2.6 130 22:39 04.01.2020
1363 Clear 20 1013 49 10000 2.6 130 22:20 04.01.2020
1364 Clear 20 1014 49 10000 3.6 150 21:56 04.01.2020
1365 Clear 20 1014 49 10000 3.6 150 21:37 04.01.2020
1366 Clear 20 1014 49 10000 3.6 150 21:19 04.01.2020
1367 Clear 20 1015 56 10000 3.6 120 20:55 04.01.2020
1368 Clear 20 1015 56 10000 3.6 120 20:36 04.01.2020
1369 Clear 20 1015 56 10000 3.6 120 20:36 04.01.2020
1370 Clear 20 1015 56 10000 3.6 120 20:18 04.01.2020
1371 Clear 21 1015 53 10000 4.6 110 19:41 04.01.2020
1372 Clear 21 1015 53 10000 4.6 110 19:23 04.01.2020
1373 Clear 21 1015 53 10000 3.1 100 18:57 04.01.2020
1374 Clear 21 1015 53 10000 3.1 100 18:38 04.01.2020
1375 Clear 21 1015 53 10000 3.1 100 18:19 04.01.2020
1376 Clear 23 1015 53 10000 1.5 10 17:55 04.01.2020
1377 Clear 23 1015 53 10000 1.5 10 17:37 04.01.2020
1378 Clear 23 1015 53 10000 1.5 10 17:18 04.01.2020
1379 Clear 24 1014 50 10000 3.1 340 16:40 04.01.2020
1380 Clear 24 1014 50 10000 3.1 340 16:22 04.01.2020
1381 Clear 24 1014 50 10000 3.1 340 16:22 04.01.2020
1382 Clear 25 1014 41 10000 5.1 320 15:56 04.01.2020
1383 Clear 25 1014 41 10000 5.1 320 15:38 04.01.2020
1384 Clear 25 1014 41 10000 5.1 320 15:19 04.01.2020
1385 Clear 28 1013 28 10000 5.1 290 14:55 04.01.2020
1386 Clear 28 1013 28 10000 5.1 290 14:55 04.01.2020
1387 Clear 28 1013 28 10000 5.1 290 14:36 04.01.2020
1388 Clear 28 1013 28 10000 5.1 290 14:18 04.01.2020
1389 Clear 28 1013 30 10000 5.7 290 13:39 04.01.2020
1390 Clear 28 1013 30 10000 5.7 290 13:20 04.01.2020
1391 Clear 29 1013 28 10000 6.2 290 12:59 04.01.2020
1392 Clear 29 1013 28 10000 6.2 290 12:41 04.01.2020
1393 Clear 29 1013 28 10000 6.2 290 12:19 04.01.2020
1394 Clear 29 1013 28 10000 5.7 290 11:57 04.01.2020
1395 Clear 29 1013 28 10000 5.7 290 11:38 04.01.2020
1396 Clear 29 1014 23 10000 5.1 230 11:19 04.01.2020
1397 Clear 29 1015 28 10000 4.6 210 10:42 04.01.2020
1398 Clear 29 1015 28 10000 4.6 210 10:23 04.01.2020
1399 Clear 28 1016 30 10000 3.1 250 09:57 04.01.2020
1400 Clear 28 1016 30 10000 3.1 250 09:39 04.01.2020
1401 Clear 28 1016 30 10000 3.1 250 09:20 04.01.2020
1402 Clear 27 1017 36 10000 2.6 190 08:40 04.01.2020
1403 Clear 27 1017 36 10000 2.6 190 08:20 04.01.2020
1404 Clear 24 1017 47 10000 2.1 180 07:42 04.01.2020
1405 Clear 23 1017 47 10000 2.1 180 07:19 04.01.2020
1406 Clear 21 1017 53 10000 2.6 160 06:33 04.01.2020
1407 Clear 18 1017 56 10000 1.5 150 05:19 04.01.2020
1408 Clear 17 1016 64 10000 1 0 04:34 04.01.2020
1409 Clear 17 1015 64 10000 2.1 150 03:43 04.01.2020
1410 Clear 17 1015 64 10000 2.1 150 03:18 04.01.2020
1411 Clear 18 1015 56 10000 1.5 130 02:21 04.01.2020
1412 Clear 18 1015 52 10000 1.5 170 01:55 04.01.2020
1413 Clear 18 1015 52 10000 1.5 170 01:31 04.01.2020
1414 Clear 18 1016 56 10000 1.5 170 00:43 04.01.2020
1415 Clear 18 1016 56 10000 1.5 170 00:23 04.01.2020
1416 Clear 18 1016 53 10000 1.5 170 23:44 03.01.2020
1417 Clear 18 1016 53 10000 1.5 170 23:25 03.01.2020
1418 Clear 18 1017 53 10000 2.6 110 22:41 03.01.2020
1419 Clear 18 1017 53 10000 2.6 110 22:20 03.01.2020
1420 Clear 19 1017 53 10000 2.1 100 21:59 03.01.2020
1421 Clear 19 1017 53 10000 2.1 100 21:38 03.01.2020
1422 Clear 19 1017 53 10000 2.1 100 21:19 03.01.2020
1423 Clear 19 1018 49 10000 1.5 100 20:58 03.01.2020
1424 Clear 19 1018 49 10000 1.5 100 20:40 03.01.2020
1425 Clear 19 1018 49 10000 1.5 100 20:18 03.01.2020
1426 Clear 20 1018 49 10000 2.1 90 19:56 03.01.2020
1427 Clear 20 1018 49 10000 2.1 90 19:37 03.01.2020
1428 Clear 20 1018 49 10000 2.1 90 19:19 03.01.2020
1429 Clear 21 1018 47 10000 2.1 80 18:43 03.01.2020
1430 Clear 21 1018 47 10000 2.1 80 18:24 03.01.2020
1431 Clear 22 1018 44 10000 2.1 50 17:55 03.01.2020
1432 Clear 22 1018 44 10000 2.1 50 17:37 03.01.2020
1433 Clear 22 1018 44 10000 2.1 50 17:37 03.01.2020
1434 Clear 22 1018 44 10000 2.1 50 17:18 03.01.2020
1435 Clear 22 1018 44 10000 2.1 50 17:18 03.01.2020
1436 Clear 24 1018 36 10000 2.6 50 16:42 03.01.2020
1437 Clear 24 1018 36 10000 2.6 50 16:23 03.01.2020
1438 Clear 25 1017 41 10000 3.1 30 15:44 03.01.2020
1439 Clear 25 1017 41 10000 3.1 30 15:19 03.01.2020
1440 Clear 27 1017 39 10000 4.1 350 14:59 03.01.2020
1441 Clear 27 1017 39 10000 4.1 350 14:38 03.01.2020
1442 Clouds 27 1017 39 10000 4.1 350 14:19 03.01.2020
1443 Clouds 27 1017 34 10000 4.6 350 13:44 03.01.2020
1444 Clouds 28 1017 34 10000 4.6 350 13:24 03.01.2020
1445 Clouds 28 1016 37 10000 3.6 320 12:58 03.01.2020
1446 Clouds 28 1016 37 10000 3.6 320 12:39 03.01.2020
1447 Clouds 28 1017 37 10000 2.6 310 12:21 03.01.2020
1448 Clouds 28 1017 37 10000 2.6 310 11:44 03.01.2020
1449 Clouds 28 1017 37 10000 2.6 310 11:21 03.01.2020
1450 Clouds 28 1018 37 10000 1.5 0 10:44 03.01.2020
1451 Clouds 28 1018 37 10000 1.5 0 10:26 03.01.2020
1452 Clouds 27 1019 42 10000 2.1 100 09:58 03.01.2020
1453 Clouds 27 1019 42 10000 2.1 100 09:39 03.01.2020
1454 Clouds 27 1019 42 10000 2.1 100 09:21 03.01.2020
1455 Clouds 25 1020 50 10000 3.6 90 08:56 03.01.2020
1456 Clouds 25 1020 50 10000 3.6 90 08:38 03.01.2020
1457 Clouds 25 1020 50 10000 3.6 90 08:19 03.01.2020
1458 Clouds 23 1021 60 10000 2.1 120 07:40 03.01.2020
1459 Clouds 23 1021 60 10000 2.1 120 07:18 03.01.2020
1460 Clouds 20 1020 68 10000 1.5 130 06:49 03.01.2020
1461 Clouds 20 1020 68 10000 1.5 130 06:30 03.01.2020
1462 Clouds 17 1020 77 8000 1.5 140 05:39 03.01.2020
1463 Clouds 17 1019 77 8000 3.6 110 04:22 03.01.2020
1464 Clouds 18 1018 77 8000 1.5 130 02:56 03.01.2020
1465 Clouds 18 1018 77 8000 1.5 130 02:56 03.01.2020
1466 Clouds 18 1018 77 8000 1.5 130 02:33 03.01.2020
1467 Clouds 18 1018 73 10000 1.5 140 01:42 03.01.2020
1468 Clouds 18 1018 73 10000 1.5 140 01:42 03.01.2020
1469 Clouds 19 1018 73 10000 2.1 230 00:50 03.01.2020
1470 Clouds 19 1018 73 10000 2.1 230 00:30 03.01.2020
1471 Clouds 19 1018 73 10000 2.1 230 23:55 02.01.2020
1472 Clouds 19 1018 73 10000 2.1 230 23:37 02.01.2020
1473 Clouds 19 1018 73 10000 2.1 230 23:18 02.01.2020
1474 Clouds 21 1018 69 10000 2.1 160 22:45 02.01.2020
1475 Clouds 21 1018 69 10000 2.1 160 22:45 02.01.2020
1476 Clouds 21 1018 69 10000 2.1 160 22:21 02.01.2020
1477 Clouds 21 1019 69 10000 3.1 110 21:59 02.01.2020
1478 Clouds 21 1019 69 10000 3.1 110 21:41 02.01.2020
1479 Clouds 21 1019 69 10000 3.1 110 21:23 02.01.2020
1480 Clouds 21 1019 64 10000 2.6 110 20:58 02.01.2020
1481 Clouds 21 1019 64 10000 2.6 110 20:39 02.01.2020
1482 Clouds 21 1019 64 10000 2.6 110 20:39 02.01.2020
1483 Clouds 21 1019 64 10000 2.6 110 20:21 02.01.2020
1484 Clouds 22 1019 64 10000 2.1 10 19:55 02.01.2020
1485 Clouds 22 1019 64 10000 2.1 10 19:55 02.01.2020
1486 Clouds 22 1019 64 10000 2.1 10 19:55 02.01.2020
1487 Clouds 22 1019 64 10000 2.1 10 19:37 02.01.2020
1488 Clouds 22 1019 64 10000 2.1 10 19:19 02.01.2020
1489 Clouds 21 1019 64 10000 2.1 10 18:57 02.01.2020
1490 Clouds 21 1019 64 10000 2.1 10 18:38 02.01.2020
1491 Clouds 22 1019 64 10000 2.1 10 18:20 02.01.2020
1492 Clouds 22 1019 64 10000 2.6 350 17:56 02.01.2020
1493 Clouds 22 1019 64 10000 2.6 350 17:36 02.01.2020
1494 Clouds 22 1019 64 10000 2.6 350 17:18 02.01.2020
1495 Clouds 23 1018 64 10000 3.1 350 16:56 02.01.2020
1496 Clouds 23 1018 64 10000 3.1 350 16:38 02.01.2020
1497 Clouds 23 1018 64 10000 3.1 350 16:19 02.01.2020
1498 Clouds 24 1017 64 10000 4.1 340 15:45 02.01.2020
1499 Clouds 24 1017 64 10000 4.1 340 15:24 02.01.2020
1500 Clouds 25 1017 61 10000 4.6 310 14:58 02.01.2020
1501 Clouds 25 1017 61 10000 4.6 310 14:38 02.01.2020
1502 Clouds 25 1017 61 10000 4.6 310 14:20 02.01.2020
1503 Clouds 26 1016 57 10000 4.1 320 13:58 02.01.2020
1504 Clouds 26 1016 57 10000 4.1 320 13:40 02.01.2020
1505 Clouds 26 1016 57 10000 4.1 320 13:19 02.01.2020
1506 Clouds 26 1016 57 10000 4.1 330 12:42 02.01.2020
1507 Clouds 26 1016 54 10000 3.1 310 12:21 02.01.2020
1508 Clouds 26 1016 54 10000 3.1 310 11:42 02.01.2020
1509 Clouds 26 1016 54 10000 3.1 310 11:22 02.01.2020
1510 Clouds 26 1017 50 10000 2.1 10 10:46 02.01.2020
1511 Clouds 26 1017 50 10000 2.1 10 10:28 02.01.2020
1512 Clouds 25 1018 57 10000 1.5 0 09:58 02.01.2020
1513 Clouds 25 1018 57 10000 1.5 0 09:36 02.01.2020
1514 Clouds 24 1019 69 8000 3.1 200 08:59 02.01.2020
1515 Clouds 24 1019 69 8000 3.1 200 08:40 02.01.2020
1516 Clouds 24 1019 69 8000 3.1 200 08:21 02.01.2020
1517 Clouds 22 1019 73 8000 3.1 190 07:47 02.01.2020
1518 Clouds 22 1019 73 8000 3.1 190 07:27 02.01.2020
1519 Clouds 20 1019 68 10000 2.6 170 06:41 02.01.2020
1520 Clouds 18 1018 68 10000 3.1 200 05:42 02.01.2020
1521 Clouds 18 1017 68 10000 3.6 190 04:36 02.01.2020
1522 Clouds 18 1016 63 10000 3.1 180 03:44 02.01.2020
1523 Clouds 18 1016 59 10000 3.1 200 02:21 02.01.2020
1524 Clouds 18 1015 59 10000 2.6 190 01:57 02.01.2020
1525 Clouds 18 1015 59 10000 2.6 190 01:26 02.01.2020
1526 Clouds 18 1015 59 10000 3.6 200 00:49 02.01.2020
1527 Clouds 18 1015 59 10000 3.6 200 00:26 02.01.2020
1528 Clouds 18 1015 56 10000 2.6 200 23:43 01.01.2020
1529 Clouds 18 1015 56 10000 2.6 200 23:23 01.01.2020
1530 Clouds 19 1015 52 10000 2.6 200 22:39 01.01.2020
1531 Clouds 19 1015 52 10000 2.6 200 22:21 01.01.2020
1532 Clouds 20 1015 52 10000 2.6 200 21:58 01.01.2020
1533 Clouds 20 1015 52 10000 2.6 200 21:40 01.01.2020
1534 Clouds 20 1015 52 10000 2.6 200 21:20 01.01.2020
1535 Clouds 20 1016 49 10000 1.5 210 20:58 01.01.2020
1536 Clouds 20 1016 49 10000 1.5 210 20:38 01.01.2020
1537 Clouds 20 1016 49 10000 1.5 210 20:20 01.01.2020
1538 Clouds 21 1016 49 10000 1.5 220 19:57 01.01.2020
1539 Clouds 21 1016 49 10000 1.5 220 19:38 01.01.2020
1540 Clouds 21 1016 49 10000 1.5 220 19:20 01.01.2020
1541 Clouds 22 1015 49 10000 1.5 220 18:57 01.01.2020
1542 Clouds 22 1015 49 10000 1.5 220 18:38 01.01.2020
1543 Clouds 22 1015 49 10000 1.5 220 18:20 01.01.2020
1544 Clouds 23 1015 49 10000 1.5 240 17:57 01.01.2020
1545 Clouds 23 1015 49 10000 1.5 240 17:39 01.01.2020
1546 Clouds 23 1015 49 10000 1.5 240 17:19 01.01.2020
1547 Clouds 24 1014 44 10000 3.1 280 16:57 01.01.2020
1548 Clouds 24 1014 44 10000 3.1 280 16:37 01.01.2020
1549 Clouds 24 1014 44 10000 3.1 280 16:37 01.01.2020
1550 Clouds 24 1014 44 10000 3.1 280 16:19 01.01.2020
1551 Clouds 24 1014 44 10000 3.1 280 16:19 01.01.2020
1552 Clouds 24 1014 33 10000 3.6 280 15:54 01.01.2020
1553 Clouds 24 1014 33 10000 3.6 280 15:36 01.01.2020
1554 Clouds 24 1014 33 10000 3.6 280 15:36 01.01.2020
1555 Clouds 24 1014 33 10000 3.6 280 15:36 01.01.2020
1556 Clouds 24 1014 33 10000 3.6 280 15:18 01.01.2020
1557 Clouds 25 1013 29 10000 2.1 0 14:42 01.01.2020
1558 Clouds 25 1013 29 10000 2.1 0 14:24 01.01.2020
1559 Clouds 26 1013 29 10000 3.6 250 13:57 01.01.2020
1560 Clouds 26 1013 29 10000 3.6 250 13:38 01.01.2020
1561 Clouds 26 1013 29 10000 3.6 250 13:19 01.01.2020
1562 Clouds 26 1013 31 10000 4.6 290 12:58 01.01.2020
1563 Clouds 26 1013 31 10000 4.6 290 12:40 01.01.2020
1564 Clouds 26 1013 31 10000 4.6 290 12:19 01.01.2020
1565 Clouds 26 1013 30 10000 3.6 280 11:56 01.01.2020
1566 Clouds 26 1013 30 10000 3.6 280 11:38 01.01.2020
1567 Clouds 26 1013 30 10000 3.6 280 11:19 01.01.2020
1568 Clouds 25 1014 44 10000 4.1 240 10:54 01.01.2020
1569 Clouds 25 1014 44 10000 4.1 240 10:36 01.01.2020
1570 Clouds 25 1014 44 10000 4.1 240 10:18 01.01.2020
1571 Clouds 24 1015 57 10000 3.6 210 09:39 01.01.2020
1572 Clouds 24 1015 57 10000 3.6 210 09:19 01.01.2020
1573 Clouds 24 1015 57 10000 3.6 210 09:19 01.01.2020
1574 Clouds 22 1016 68 10000 3.6 200 08:56 01.01.2020
1575 Clouds 22 1016 68 10000 3.6 200 08:37 01.01.2020
1576 Clouds 22 1016 68 10000 3.6 200 08:19 01.01.2020
1577 Clouds 20 1016 77 7000 4.6 210 07:55 01.01.2020
1578 Clouds 20 1016 77 7000 4.6 210 07:37 01.01.2020
1579 Clouds 20 1016 77 7000 4.6 210 07:37 01.01.2020
1580 Haze 18 1016 82 5000 4.1 190 06:45 01.01.2020
1581 Haze 18 1016 82 5000 4.1 190 06:22 01.01.2020
1582 Haze 15 1015 87 3500 3.6 190 05:23 01.01.2020
1583 Clouds 16 1013 88 7000 3.1 210 03:47 01.01.2020
1584 Clouds 16 1013 88 7000 3.1 210 03:24 01.01.2020
1585 Clouds 16 1013 82 6000 3.1 190 02:57 01.01.2020
1586 Clouds 16 1013 82 6000 3.1 190 02:37 01.01.2020
1587 Clouds 18 1013 77 7000 2.6 200 01:59 01.01.2020
1588 Clouds 18 1013 77 7000 2.6 200 01:38 01.01.2020
1589 Clouds 18 1013 77 7000 2.6 200 01:20 01.01.2020
1590 Clouds 17 1013 82 9000 2.1 180 00:44 01.01.2020
1591 Clouds 18 1013 82 9000 2.1 180 00:25 01.01.2020
1592 Clouds 19 1013 73 10000 3.1 190 23:41 31.12.2019
1593 Clouds 19 1013 73 10000 3.1 190 23:22 31.12.2019
1594 Clouds 19 1013 68 10000 2.6 200 22:58 31.12.2019
1595 Clouds 19 1013 68 10000 2.6 200 22:39 31.12.2019
1596 Clouds 19 1013 68 10000 2.6 200 22:20 31.12.2019
1597 Clouds 20 1014 68 10000 2.1 190 21:58 31.12.2019
1598 Clouds 20 1014 68 10000 2.1 190 21:40 31.12.2019
1599 Clouds 20 1014 68 10000 2.1 190 21:21 31.12.2019
1600 Clouds 21 1015 56 10000 2.1 230 20:56 31.12.2019
1601 Clouds 21 1015 56 10000 2.1 230 20:37 31.12.2019
1602 Clear 21 1015 56 10000 2.1 230 20:19 31.12.2019
1603 Clear 22 1015 53 10000 3.6 260 19:54 31.12.2019
1604 Clear 22 1015 53 10000 3.6 260 19:36 31.12.2019
1605 Clear 22 1015 53 10000 3.6 260 19:18 31.12.2019
1606 Clouds 22 1015 53 10000 3.6 290 18:54 31.12.2019
1607 Clouds 22 1015 53 10000 3.6 290 18:36 31.12.2019
1608 Clouds 22 1015 53 10000 3.6 290 18:18 31.12.2019
1609 Clouds 22 1015 53 10000 3.6 290 18:18 31.12.2019
1610 Clouds 23 1015 53 10000 3.6 290 17:54 31.12.2019
1611 Clouds 23 1015 53 10000 3.6 290 17:36 31.12.2019
1612 Clouds 23 1015 53 10000 3.6 290 17:18 31.12.2019
1613 Clouds 23 1015 53 10000 5.7 300 16:54 31.12.2019
1614 Clouds 23 1015 53 10000 5.7 300 16:36 31.12.2019
1615 Clouds 23 1015 53 10000 5.7 300 16:18 31.12.2019
1616 Clouds 23 1015 53 10000 5.7 300 16:18 31.12.2019
1617 Clouds 24 1014 53 10000 5.7 290 15:54 31.12.2019
1618 Clouds 24 1014 53 10000 5.7 290 15:36 31.12.2019
1619 Clouds 24 1014 53 10000 5.7 290 15:36 31.12.2019
1620 Clouds 24 1014 53 10000 5.7 290 15:18 31.12.2019
1621 Clouds 24 1014 50 10000 5.7 280 14:54 31.12.2019
1622 Clouds 24 1014 50 10000 5.7 280 14:36 31.12.2019
1623 Clouds 24 1014 50 10000 5.7 280 14:18 31.12.2019
1624 Clouds 25 1014 47 10000 6.2 290 13:54 31.12.2019
1625 Clouds 25 1014 47 10000 6.2 290 13:36 31.12.2019
1626 Clouds 25 1014 47 10000 6.2 290 13:18 31.12.2019
1627 Clouds 25 1014 47 10000 5.7 300 12:40 31.12.2019
1628 Clouds 25 1014 47 10000 5.7 300 12:40 31.12.2019
1629 Clouds 25 1014 47 10000 5.7 300 12:20 31.12.2019
1630 Clouds 25 1015 53 10000 5.7 290 11:57 31.12.2019
1631 Clouds 25 1015 53 10000 5.7 290 11:39 31.12.2019
1632 Clouds 25 1015 53 10000 5.7 290 11:20 31.12.2019
1633 Clouds 25 1015 53 10000 4.1 270 10:58 31.12.2019
1634 Clouds 25 1015 53 10000 4.1 270 10:38 31.12.2019
1635 Clouds 25 1015 53 10000 4.1 270 10:20 31.12.2019
1636 Clouds 25 1017 53 10000 3.1 210 09:59 31.12.2019
1637 Clouds 25 1017 53 10000 3.1 210 09:39 31.12.2019
1638 Clouds 25 1017 53 10000 3.1 210 09:39 31.12.2019
1639 Clouds 25 1017 53 10000 3.1 210 09:39 31.12.2019
1640 Clouds 25 1017 53 10000 3.1 210 09:21 31.12.2019
1641 Clouds 23 1018 60 10000 2.6 170 08:57 31.12.2019
1642 Clouds 23 1018 60 10000 2.6 170 08:39 31.12.2019
1643 Clouds 23 1018 60 10000 2.6 170 08:19 31.12.2019
1644 Clouds 21 1018 68 10000 3.1 180 07:43 31.12.2019
1645 Clouds 21 1018 68 10000 3.1 180 07:21 31.12.2019
1646 Clouds 18 1018 77 8000 3.1 160 06:50 31.12.2019
1647 Clouds 17 1017 82 7000 2.1 180 05:58 31.12.2019
1648 Clear 16 1017 82 6000 2.1 170 04:30 31.12.2019
1649 Clear 16 1016 82 7000 2.1 180 03:38 31.12.2019
1650 Clear 17 1016 77 9000 1.5 160 02:55 31.12.2019
1651 Clear 17 1016 77 9000 1.5 160 02:19 31.12.2019
1652 Clear 18 1016 82 10000 1.5 170 01:48 31.12.2019
1653 Clear 18 1016 82 10000 1.5 170 01:27 31.12.2019
1654 Clear 18 1016 77 10000 1.5 0 00:46 31.12.2019
1655 Clear 18 1016 77 10000 1.5 0 00:22 31.12.2019
1656 Clear 18 1016 77 10000 1.5 200 23:56 30.12.2019
1657 Clear 18 1016 77 10000 1.5 200 23:38 30.12.2019
1658 Clear 18 1016 77 10000 1.5 200 23:20 30.12.2019
1659 Clear 18 1017 73 10000 2.1 180 22:57 30.12.2019
1660 Clear 18 1017 73 10000 2.1 180 22:38 30.12.2019
1661 Clear 18 1017 73 10000 2.1 180 22:20 30.12.2019
1662 Clouds 19 1017 56 10000 2.6 320 21:56 30.12.2019
1663 Clouds 19 1017 56 10000 2.6 320 21:38 30.12.2019
1664 Clouds 19 1017 56 10000 2.6 320 21:38 30.12.2019
1665 Clouds 19 1017 56 10000 2.6 320 21:18 30.12.2019
1666 Clouds 20 1017 56 10000 3.1 330 20:56 30.12.2019
1667 Clouds 20 1017 56 10000 3.1 330 20:56 30.12.2019
1668 Clouds 20 1017 56 10000 3.1 330 20:38 30.12.2019
1669 Clouds 20 1017 56 10000 3.1 330 20:20 30.12.2019
1670 Clouds 22 1017 50 10000 4.1 320 19:57 30.12.2019
1671 Clouds 22 1017 50 10000 4.1 320 19:37 30.12.2019
1672 Clouds 22 1017 50 10000 4.1 320 19:19 30.12.2019
1673 Clouds 21 1017 53 10000 3.6 290 18:56 30.12.2019
1674 Clouds 21 1017 53 10000 3.6 290 18:38 30.12.2019
1675 Clouds 22 1017 53 10000 3.6 290 18:20 30.12.2019
1676 Clouds 22 1017 57 10000 3.1 300 17:55 30.12.2019
1677 Clouds 22 1017 57 10000 3.1 300 17:36 30.12.2019
1678 Clouds 22 1017 57 10000 3.1 300 17:36 30.12.2019
1679 Clouds 22 1017 57 10000 3.1 300 17:18 30.12.2019
1680 Clouds 23 1017 53 10000 4.6 280 16:55 30.12.2019
1681 Clouds 23 1017 53 10000 4.6 280 16:36 30.12.2019
1682 Clouds 23 1017 53 10000 4.6 280 16:18 30.12.2019
1683 Clouds 24 1016 69 10000 4.1 280 15:54 30.12.2019
1684 Clouds 24 1016 69 10000 4.1 280 15:36 30.12.2019
1685 Clouds 24 1016 69 10000 4.1 280 15:18 30.12.2019
1686 Clouds 24 1016 61 10000 4.6 280 14:42 30.12.2019
1687 Clouds 24 1016 61 10000 4.6 280 14:19 30.12.2019
1688 Clouds 25 1016 57 10000 4.6 280 13:55 30.12.2019
1689 Clouds 25 1016 57 10000 4.6 280 13:37 30.12.2019
1690 Clouds 25 1016 57 10000 4.6 280 13:18 30.12.2019
1691 Clouds 25 1016 53 10000 4.6 320 12:42 30.12.2019
1692 Clouds 25 1016 53 10000 4.6 320 12:20 30.12.2019
1693 Clouds 26 1016 54 10000 4.1 290 11:58 30.12.2019
1694 Clouds 26 1016 54 10000 4.1 290 11:40 30.12.2019
1695 Clouds 26 1016 54 10000 4.1 290 11:19 30.12.2019
1696 Clouds 26 1017 54 10000 3.6 280 10:44 30.12.2019
1697 Clouds 26 1017 54 10000 3.6 280 10:21 30.12.2019
1698 Clouds 24 1018 64 10000 2.6 0 09:58 30.12.2019
1699 Clouds 24 1018 64 10000 2.6 0 09:39 30.12.2019
1700 Clouds 24 1018 64 10000 2.6 0 09:19 30.12.2019
1701 Clear 23 1019 73 8000 3.6 190 08:50 30.12.2019
1702 Clear 23 1019 73 8000 3.6 190 08:50 30.12.2019
1703 Clear 23 1019 73 8000 3.6 190 08:23 30.12.2019
1704 Clear 22 1020 73 6000 3.1 190 07:55 30.12.2019
1705 Clear 21 1020 73 6000 3.1 190 07:34 30.12.2019
1706 Haze 19 1019 82 5000 3.1 190 06:52 30.12.2019
1707 Haze 17 1018 88 2500 2.1 160 04:56 30.12.2019
1708 Haze 17 1017 88 4000 2.6 200 03:55 30.12.2019
1709 Haze 17 1017 88 4000 3.1 200 02:56 30.12.2019
1710 Haze 17 1017 88 4000 3.1 200 02:37 30.12.2019
1711 Haze 17 1017 88 4000 1.5 170 01:50 30.12.2019
1712 Haze 17 1017 88 4000 1.5 170 01:20 30.12.2019
1713 Haze 18 1017 88 4500 2.1 180 00:44 30.12.2019
1714 Haze 18 1017 88 4500 2.1 180 00:18 30.12.2019
1715 Haze 18 1017 82 5000 2.1 160 23:39 29.12.2019
1716 Haze 18 1017 82 5000 2.1 160 23:21 29.12.2019
1717 Clouds 19 1017 88 6000 3.6 200 22:42 29.12.2019
1718 Clouds 19 1017 88 6000 3.6 200 22:23 29.12.2019
1719 Clouds 20 1017 83 6000 3.1 190 21:59 29.12.2019
1720 Clouds 20 1017 83 6000 3.1 190 21:41 29.12.2019
1721 Clouds 20 1017 83 6000 3.1 190 21:20 29.12.2019
1722 Clouds 20 1017 83 6000 3.1 190 21:20 29.12.2019
1723 Clear 20 1017 78 7000 2.1 220 20:57 29.12.2019
1724 Clear 20 1017 78 7000 2.1 220 20:39 29.12.2019
1725 Clear 20 1017 78 7000 2.1 220 20:20 29.12.2019
1726 Clouds 20 1017 78 10000 2.1 220 19:58 29.12.2019
1727 Clouds 20 1017 78 10000 2.1 220 19:39 29.12.2019
1728 Clouds 20 1017 78 10000 2.1 220 19:20 29.12.2019
1729 Clouds 21 1017 73 10000 2.1 250 18:57 29.12.2019
1730 Clouds 21 1017 73 10000 2.1 250 18:38 29.12.2019
1731 Clouds 21 1017 73 10000 2.1 250 18:19 29.12.2019
1732 Clouds 22 1017 73 10000 2.1 260 17:57 29.12.2019
1733 Clouds 22 1017 73 10000 2.1 260 17:39 29.12.2019
1734 Clouds 22 1017 73 10000 2.1 260 17:20 29.12.2019
1735 Clouds 23 1017 73 10000 3.6 280 16:56 29.12.2019
1736 Clouds 23 1017 73 10000 3.6 280 16:37 29.12.2019
1737 Clouds 23 1017 73 10000 3.6 280 16:19 29.12.2019
1738 Clouds 23 1016 69 10000 3.6 270 15:57 29.12.2019
1739 Clouds 23 1016 69 10000 3.6 270 15:38 29.12.2019
1740 Clouds 23 1016 69 10000 3.6 270 15:19 29.12.2019
1741 Clouds 24 1016 60 10000 5.1 300 14:56 29.12.2019
1742 Clouds 24 1016 60 10000 5.1 300 14:38 29.12.2019
1743 Clouds 24 1016 60 10000 5.1 300 14:18 29.12.2019
1744 Clouds 25 1016 53 10000 5.7 330 13:57 29.12.2019
1745 Clouds 25 1016 53 10000 5.7 330 13:37 29.12.2019
1746 Clouds 25 1016 53 10000 5.7 330 13:37 29.12.2019
1747 Clouds 25 1016 53 10000 5.7 330 13:19 29.12.2019
1748 Clouds 25 1016 50 10000 4.6 320 12:45 29.12.2019
1749 Clouds 25 1016 57 10000 4.1 290 12:26 29.12.2019
1750 Clouds 25 1016 57 10000 4.1 290 11:56 29.12.2019
1751 Clouds 25 1016 57 10000 4.1 290 11:38 29.12.2019
1752 Clouds 25 1016 57 10000 4.1 290 11:38 29.12.2019
1753 Clouds 25 1016 57 10000 4.1 290 11:20 29.12.2019
1754 Clouds 25 1017 53 10000 3.6 320 10:42 29.12.2019
1755 Clouds 25 1017 53 10000 3.6 320 10:23 29.12.2019
1756 Clouds 24 1018 53 10000 3.1 280 09:57 29.12.2019
1757 Clouds 24 1018 53 10000 3.1 280 09:38 29.12.2019
1758 Clouds 24 1018 53 10000 3.1 280 09:20 29.12.2019
1759 Clear 24 1019 57 10000 2.1 260 08:47 29.12.2019
1760 Clear 24 1019 57 10000 2.1 260 08:24 29.12.2019
1761 Clear 22 1019 60 10000 2.1 190 07:55 29.12.2019
1762 Clear 22 1019 60 10000 2.1 190 07:28 29.12.2019
1763 Clear 19 1018 64 9000 2.1 0 06:55 29.12.2019
1764 Clear 19 1018 64 9000 2.1 0 06:25 29.12.2019
1765 Clear 16 1018 68 8000 2.1 170 05:51 29.12.2019
1766 Clear 15 1017 68 8000 2.1 170 04:36 29.12.2019
1767 Clear 15 1017 68 10000 2.1 160 03:54 29.12.2019
1768 Clear 15 1017 68 10000 2.1 160 03:20 29.12.2019
1769 Clear 15 1016 68 10000 1.5 190 02:20 29.12.2019
1770 Clear 15 1016 68 10000 1.5 160 01:31 29.12.2019
1771 Clear 15 1016 68 10000 1.5 160 01:31 29.12.2019
1772 Clear 16 1016 63 10000 1.5 160 00:58 29.12.2019
1773 Clear 16 1016 63 10000 1.5 160 00:40 29.12.2019
1774 Clear 16 1016 63 10000 1.5 160 00:21 29.12.2019
1775 Clear 16 1017 63 10000 1.5 150 23:43 28.12.2019
1776 Clear 17 1017 63 10000 1.5 150 23:18 28.12.2019
1777 Clear 16 1017 64 10000 2.1 160 22:39 28.12.2019
1778 Clear 16 1017 64 10000 2.1 160 22:20 28.12.2019
1779 Clear 17 1017 60 10000 2.6 90 21:58 28.12.2019
1780 Clear 17 1017 60 10000 2.6 90 21:39 28.12.2019
1781 Clear 17 1017 60 10000 2.6 90 21:21 28.12.2019
1782 Clear 17 1017 60 10000 2.6 90 21:21 28.12.2019
1783 Clear 19 1017 56 10000 2.6 350 20:57 28.12.2019
1784 Clear 19 1017 56 10000 2.6 350 20:37 28.12.2019
1785 Clear 19 1017 56 10000 2.6 350 20:19 28.12.2019
1786 Clear 19 1017 56 10000 2.1 360 19:56 28.12.2019
1787 Clear 19 1017 56 10000 2.1 360 19:38 28.12.2019
1788 Clear 19 1017 56 10000 2.1 360 19:19 28.12.2019
1789 Clear 19 1017 56 10000 2.6 350 18:56 28.12.2019
1790 Clear 19 1017 56 10000 2.6 350 18:56 28.12.2019
1791 Clear 19 1017 56 10000 2.6 350 18:38 28.12.2019
1792 Clear 19 1017 56 10000 2.6 350 18:18 28.12.2019
1793 Clear 20 1016 53 10000 2.6 340 17:43 28.12.2019
1794 Clear 20 1016 53 10000 2.6 340 17:22 28.12.2019
1795 Clear 21 1016 49 10000 3.6 340 16:59 28.12.2019
1796 Clear 21 1016 49 10000 3.6 340 16:41 28.12.2019
1797 Clear 21 1016 49 10000 3.6 340 16:23 28.12.2019
1798 Clear 22 1015 53 10000 4.1 340 15:43 28.12.2019
1799 Clear 22 1015 53 10000 4.1 340 15:23 28.12.2019
1800 Clouds 23 1015 53 10000 4.1 340 14:56 28.12.2019
1801 Clouds 23 1015 53 10000 4.1 340 14:37 28.12.2019
1802 Clouds 23 1015 53 10000 4.1 340 14:19 28.12.2019
1803 Clouds 24 1014 53 10000 6.7 320 13:42 28.12.2019
1804 Clouds 24 1014 53 10000 6.7 320 13:21 28.12.2019
1805 Clouds 24 1014 53 10000 6.7 320 13:21 28.12.2019
1806 Clouds 24 1014 50 10000 5.1 320 12:58 28.12.2019
1807 Clouds 24 1014 50 10000 5.1 320 12:40 28.12.2019
1808 Clouds 24 1014 50 10000 5.1 320 12:21 28.12.2019
1809 Clear 25 1014 44 10000 5.1 340 11:40 28.12.2019
1810 Clear 25 1014 44 10000 5.1 340 11:22 28.12.2019
1811 Clear 25 1015 38 10000 2.6 0 10:59 28.12.2019
1812 Clear 25 1015 38 10000 2.6 0 10:41 28.12.2019
1813 Clear 25 1015 38 10000 2.6 0 10:20 28.12.2019
1814 Clouds 24 1016 47 10000 2.1 270 09:55 28.12.2019
1815 Clouds 24 1016 47 10000 2.1 270 09:36 28.12.2019
1816 Clouds 24 1016 47 10000 2.1 270 09:36 28.12.2019
1817 Clouds 24 1016 47 10000 2.1 270 09:18 28.12.2019
1818 Clear 23 1017 49 10000 1.5 170 08:42 28.12.2019
1819 Clear 23 1017 49 10000 1.5 170 08:23 28.12.2019
1820 Clear 21 1017 64 10000 2.6 170 07:47 28.12.2019
1821 Clear 21 1017 64 10000 2.6 170 07:22 28.12.2019
1822 Clear 15 1017 77 6000 1.5 150 05:46 28.12.2019
1823 Clear 14 1015 72 10000 2.6 160 03:48 28.12.2019
1824 Clear 14 1015 68 10000 2.1 170 02:51 28.12.2019
1825 Clear 14 1015 68 10000 2.1 170 02:20 28.12.2019
1826 Clear 15 1015 68 10000 1.5 180 01:55 28.12.2019
1827 Clear 15 1015 68 10000 1.5 180 01:23 28.12.2019
1828 Clear 15 1016 72 10000 1 180 00:48 28.12.2019
1829 Clear 15 1016 72 10000 1 180 00:30 28.12.2019
1830 Clear 16 1016 72 10000 1 0 23:58 27.12.2019
1831 Clear 16 1016 72 10000 1 0 23:58 27.12.2019
1832 Clear 16 1016 72 10000 1 0 23:38 27.12.2019
1833 Clear 16 1016 72 10000 1 0 23:18 27.12.2019
1834 Clear 17 1016 68 10000 1.5 180 22:55 27.12.2019
1835 Clear 17 1016 68 10000 1.5 180 22:37 27.12.2019
1836 Clear 17 1016 68 10000 1.5 180 22:19 27.12.2019
1837 Clear 17 1016 64 10000 2.6 170 21:43 27.12.2019
1838 Clear 17 1016 64 10000 2.6 170 21:24 27.12.2019
1839 Clear 20 1017 60 10000 2.6 160 20:45 27.12.2019
1840 Clear 19 1017 60 10000 2.6 160 20:26 27.12.2019
1841 Clear 19 1017 60 10000 1 0 19:59 27.12.2019
1842 Clear 19 1017 60 10000 1 0 19:40 27.12.2019
1843 Clear 19 1017 60 10000 1 0 19:20 27.12.2019
1844 Clear 20 1016 56 10000 3.6 290 18:56 27.12.2019
1845 Clear 20 1016 56 10000 3.6 290 18:37 27.12.2019
1846 Clear 20 1016 56 10000 3.6 290 18:18 27.12.2019
1847 Clear 20 1016 56 10000 3.1 280 17:55 27.12.2019
1848 Clear 20 1016 56 10000 3.1 280 17:37 27.12.2019
1849 Clear 20 1016 56 10000 3.1 280 17:18 27.12.2019
1850 Clear 22 1015 53 10000 3.6 290 16:43 27.12.2019
1851 Clear 22 1015 53 10000 3.6 290 16:23 27.12.2019
1852 Clouds 22 1015 53 10000 4.1 280 15:58 27.12.2019
1853 Clouds 23 1015 53 10000 4.1 280 15:37 27.12.2019
1854 Clouds 23 1015 53 10000 4.1 280 15:19 27.12.2019
1855 Clear 24 1015 47 10000 5.1 300 14:56 27.12.2019
1856 Clear 24 1015 47 10000 5.1 300 14:38 27.12.2019
1857 Clear 24 1015 47 10000 5.1 300 14:19 27.12.2019
1858 Clear 24 1014 41 10000 3.6 290 13:47 27.12.2019
1859 Clear 24 1014 41 10000 3.6 290 13:24 27.12.2019
1860 Clear 24 1014 38 10000 4.6 280 12:56 27.12.2019
1861 Clear 24 1014 38 10000 4.6 280 12:37 27.12.2019
1862 Clear 24 1014 38 10000 4.6 280 12:18 27.12.2019
1863 Clear 25 1014 36 10000 2.6 0 11:42 27.12.2019
1864 Clear 25 1014 36 10000 2.6 0 11:20 27.12.2019
1865 Clouds 24 1015 38 10000 1 0 10:47 27.12.2019
1866 Clouds 24 1015 38 10000 1 0 10:24 27.12.2019
1867 Clouds 24 1017 36 10000 3.6 240 09:59 27.12.2019
1868 Clouds 24 1017 36 10000 3.6 240 09:39 27.12.2019
1869 Clouds 24 1017 36 10000 3.6 240 09:21 27.12.2019
1870 Clouds 23 1018 43 10000 2.1 210 08:49 27.12.2019
1871 Clouds 23 1018 43 10000 2.1 210 08:30 27.12.2019
1872 Clouds 21 1018 53 10000 1.5 180 07:48 27.12.2019
1873 Clouds 21 1018 53 10000 1.5 180 07:26 27.12.2019
1874 Clouds 19 1018 59 10000 2.1 150 06:33 27.12.2019
1875 Clear 15 1017 67 10000 1 0 04:58 27.12.2019
1876 Clear 15 1016 55 10000 1.5 160 02:49 27.12.2019
1877 Clouds 15 1016 55 10000 1 0 01:56 27.12.2019
1878 Clouds 15 1016 55 10000 1 0 01:23 27.12.2019
1879 Clouds 16 1016 59 10000 1 170 00:53 27.12.2019
1880 Clouds 16 1016 59 10000 1 170 00:34 27.12.2019
1881 Clouds 17 1017 52 10000 2.1 180 23:59 26.12.2019
1882 Clouds 17 1017 52 10000 2.1 180 23:40 26.12.2019
1883 Clouds 17 1017 52 10000 2.1 180 23:21 26.12.2019
1884 Clouds 18 1016 49 10000 2.6 180 22:43 26.12.2019
1885 Clouds 18 1016 49 10000 2.6 180 22:21 26.12.2019
1886 Clouds 18 1017 46 10000 2.6 170 21:56 26.12.2019
1887 Clouds 18 1017 46 10000 2.6 170 21:37 26.12.2019
1888 Clouds 18 1017 46 10000 2.6 170 21:19 26.12.2019
1889 Clouds 18 1017 49 10000 1.5 150 20:45 26.12.2019
1890 Clear 18 1017 49 10000 1.5 150 20:22 26.12.2019
1891 Clear 20 1017 43 10000 2.6 350 19:58 26.12.2019
1892 Clear 20 1017 43 10000 2.6 350 19:39 26.12.2019
1893 Clear 20 1017 43 10000 2.6 350 19:20 26.12.2019
1894 Clear 20 1017 43 10000 2.6 340 18:57 26.12.2019
1895 Clear 20 1017 43 10000 2.6 340 18:38 26.12.2019
1896 Clear 20 1017 43 10000 2.6 340 18:19 26.12.2019
1897 Clear 21 1017 38 10000 3.6 330 17:42 26.12.2019
1898 Clear 21 1017 38 10000 3.6 330 17:22 26.12.2019
1899 Clear 22 1016 38 10000 3.1 350 16:58 26.12.2019
1900 Clear 22 1016 38 10000 3.1 350 16:39 26.12.2019
1901 Clear 22 1016 38 10000 3.1 350 16:20 26.12.2019
1902 Clear 23 1016 38 10000 4.6 340 15:41 26.12.2019
1903 Clear 23 1016 38 10000 4.6 340 15:21 26.12.2019
1904 Clear 24 1016 31 10000 5.1 340 14:58 26.12.2019
1905 Clear 24 1016 31 10000 5.1 340 14:38 26.12.2019
1906 Clear 24 1016 31 10000 5.1 340 14:20 26.12.2019
1907 Clear 25 1016 31 10000 6.2 330 13:43 26.12.2019
1908 Clear 25 1016 31 10000 6.2 330 13:20 26.12.2019
1909 Clear 26 1016 26 10000 5.7 290 12:56 26.12.2019
1910 Clear 26 1016 26 10000 5.7 290 12:56 26.12.2019
1911 Clear 26 1016 26 10000 5.7 290 12:37 26.12.2019
1912 Clear 26 1016 26 10000 5.7 290 12:19 26.12.2019
1913 Clear 26 1016 26 10000 5.1 280 11:56 26.12.2019
1914 -273 0 0 0 0 0 11:37 26.12.2019
1915 Clear 26 1016 26 10000 5.1 280 11:37 26.12.2019
1916 Clear 26 1016 26 10000 5.1 280 11:19 26.12.2019
1917 Clear 25 1017 31 10000 3.1 270 10:41 26.12.2019
1918 Clear 25 1017 31 10000 3.1 270 10:41 26.12.2019
1919 Clear 25 1017 31 10000 3.1 270 10:18 26.12.2019
1920 Clear 25 1018 36 10000 1.5 0 09:43 26.12.2019
1921 Clear 25 1018 36 10000 1.5 0 09:25 26.12.2019
1922 Clear 23 1019 38 10000 2.1 160 08:42 26.12.2019
1923 Clear 23 1019 38 10000 2.1 160 08:24 26.12.2019
1924 Clear 22 1019 49 10000 3.6 110 07:52 26.12.2019
1925 Clear 22 1019 49 10000 3.6 110 07:26 26.12.2019
1926 Clear 17 1019 52 10000 4.1 100 06:52 26.12.2019
1927 Clear 17 1019 52 10000 4.1 100 06:31 26.12.2019
1928 Clear 14 1019 59 10000 1.5 140 05:45 26.12.2019
1929 Clear 14 1018 63 10000 1.5 90 04:48 26.12.2019
1930 Clear 14 1018 63 10000 1.5 90 04:29 26.12.2019
1931 Clear 15 1017 59 10000 1.5 150 02:54 26.12.2019
1932 Clear 15 1017 59 10000 1.5 150 02:34 26.12.2019
1933 Clear 15 1017 55 10000 1 0 01:46 26.12.2019
1934 Clear 15 1017 55 10000 1 0 01:27 26.12.2019
1935 Clear 15 1018 52 10000 3.6 100 00:48 26.12.2019
1936 Clear 15 1018 52 10000 3.6 100 00:25 26.12.2019
1937 Clear 15 1018 52 10000 3.1 110 23:58 25.12.2019
1938 Clear 15 1018 52 10000 3.1 110 23:38 25.12.2019
1939 Clear 15 1018 52 10000 3.1 110 23:20 25.12.2019
1940 Clear 16 1018 52 10000 2.1 100 22:58 25.12.2019
1941 Clear 16 1018 52 10000 2.1 100 22:38 25.12.2019
1942 Clear 16 1018 52 10000 2.1 100 22:19 25.12.2019
1943 Clear 17 1018 49 10000 2.6 80 21:57 25.12.2019
1944 Clear 17 1018 49 10000 2.6 80 21:39 25.12.2019
1945 Clear 17 1018 49 10000 2.6 80 21:19 25.12.2019
1946 Clear 19 1018 43 10000 3.1 70 20:41 25.12.2019
1947 Clear 19 1018 43 10000 3.1 70 20:23 25.12.2019
1948 Clear 19 1018 43 10000 3.1 70 20:22 25.12.2019
1949 Clear 19 1019 37 10000 3.6 90 19:59 25.12.2019
1950 Clear 19 1019 37 10000 3.6 90 19:41 25.12.2019
1951 Clear 19 1019 37 10000 3.6 90 19:22 25.12.2019
1952 Clear 20 1019 40 10000 4.1 80 18:54 25.12.2019
1953 Clear 20 1019 40 10000 4.1 80 18:36 25.12.2019
1954 Clear 20 1019 40 10000 4.1 80 18:18 25.12.2019
1955 Clear 21 1018 53 10000 4.1 50 17:40 25.12.2019
1956 Clear 21 1018 53 10000 4.1 50 17:18 25.12.2019
1957 Clear 22 1018 47 10000 3.6 40 16:55 25.12.2019
1958 Clear 22 1018 47 10000 3.6 40 16:37 25.12.2019
1959 Clear 22 1018 47 10000 3.6 40 16:18 25.12.2019
1960 Clear 23 1017 53 10000 4.1 20 15:56 25.12.2019
1961 Clear 23 1017 53 10000 4.1 20 15:37 25.12.2019
1962 Clear 23 1017 53 10000 4.1 20 15:18 25.12.2019
1963 Clear 24 1017 44 10000 4.6 10 14:56 25.12.2019
1964 Clear 24 1017 44 10000 4.6 10 14:37 25.12.2019
1965 Clear 24 1017 44 10000 4.6 10 14:18 25.12.2019
1966 Clear 25 1017 39 10000 5.7 10 13:42 25.12.2019
1967 Clear 25 1017 39 10000 5.7 10 13:21 25.12.2019
1968 Clear 26 1017 31 10000 5.1 360 12:44 25.12.2019
1969 Clear 26 1017 24 10000 2.6 120 12:23 25.12.2019
1970 Clear 26 1018 24 10000 3.1 160 11:58 25.12.2019
1971 Clear 26 1018 24 10000 3.1 160 11:40 25.12.2019
1972 Clear 26 1018 24 10000 3.1 160 11:21 25.12.2019
1973 Clear 25 1018 26 10000 2.6 120 10:41 25.12.2019
1974 Clear 25 1018 26 10000 2.6 120 10:22 25.12.2019
1975 Clear 24 1020 36 10000 3.6 80 09:59 25.12.2019
1976 Clear 24 1020 36 10000 3.6 80 09:41 25.12.2019
1977 Clear 24 1020 36 10000 3.6 80 09:23 25.12.2019
1978 Clear 23 1021 41 10000 4.1 90 08:44 25.12.2019
1979 Clear 21 1021 46 10000 3.1 90 08:24 25.12.2019
1980 Clear 21 1021 46 10000 3.1 90 07:44 25.12.2019
1981 Clear 21 1021 46 10000 3.1 90 07:23 25.12.2019
1982 Clear 18 1021 49 10000 2.1 100 06:41 25.12.2019
1983 Clear 18 1021 49 10000 2.1 100 06:21 25.12.2019
1984 Clear 14 1019 59 10000 1.5 80 04:47 25.12.2019
1985 Clear 14 1019 59 10000 1.5 80 04:25 25.12.2019
1986 Clear 13 1018 63 10000 1 80 03:52 25.12.2019
1987 Clear 13 1018 63 10000 1 80 03:32 25.12.2019
1988 Clear 14 1018 63 10000 1 0 02:32 25.12.2019
1989 Clear 15 1018 59 10000 3.1 90 01:54 25.12.2019
1990 Clear 15 1018 59 10000 3.1 90 01:24 25.12.2019
1991 Clear 15 1018 59 10000 2.1 80 00:45 25.12.2019
1992 Clear 15 1018 59 10000 2.1 80 00:26 25.12.2019
1993 Clear 16 1018 56 10000 2.6 70 23:40 24.12.2019
1994 Clear 16 1018 56 10000 2.6 70 23:21 24.12.2019
1995 Clear 17 1018 60 10000 2.6 80 22:58 24.12.2019
1996 Clear 17 1018 60 10000 2.6 80 22:37 24.12.2019
1997 Clear 17 1018 60 10000 2.6 80 22:19 24.12.2019
1998 Clear 17 1018 60 10000 2.1 70 21:41 24.12.2019
1999 Clear 17 1018 60 10000 2.1 70 21:22 24.12.2019
2000 Clear 18 1019 60 10000 1.5 70 20:43 24.12.2019
2001 Clear 18 1019 60 10000 1.5 70 20:24 24.12.2019
2002 Clear 19 1019 56 10000 2.1 60 19:57 24.12.2019
2003 Clear 19 1019 56 10000 2.1 60 19:37 24.12.2019
2004 Clear 19 1019 56 10000 2.1 60 19:18 24.12.2019
2005 Clear 20 1019 56 10000 2.6 60 18:42 24.12.2019
2006 Clear 20 1019 56 10000 2.6 60 18:19 24.12.2019
2007 Clear 20 1018 49 10000 3.1 30 17:45 24.12.2019
2008 Clear 20 1018 49 10000 3.1 30 17:23 24.12.2019
2009 Clear 21 1018 46 10000 3.1 20 16:58 24.12.2019
2010 Clear 21 1018 46 10000 3.1 20 16:58 24.12.2019
2011 Clear 21 1018 46 10000 3.1 20 16:40 24.12.2019
2012 Clear 21 1018 46 10000 3.1 20 16:22 24.12.2019
2013 Clear 22 1017 43 10000 4.1 10 15:58 24.12.2019
2014 Clear 22 1017 43 10000 4.1 10 15:38 24.12.2019
2015 Clear 22 1017 43 10000 4.1 10 15:19 24.12.2019
2016 Clear 23 1017 38 10000 5.7 340 14:58 24.12.2019
2017 Clear 23 1017 38 10000 5.7 340 14:40 24.12.2019
2018 Clear 23 1017 38 10000 5.7 340 14:22 24.12.2019
2019 Clear 24 1017 36 10000 5.7 350 13:56 24.12.2019
2020 Clear 24 1017 36 10000 5.7 350 13:38 24.12.2019
2021 Clear 24 1017 36 10000 5.7 350 13:20 24.12.2019
2022 Clouds 24 1017 36 10000 5.7 350 12:57 24.12.2019
2023 Clouds 24 1017 36 10000 5.7 350 12:38 24.12.2019
2024 Clouds 25 1018 38 10000 5.1 340 12:19 24.12.2019
2025 Clouds 25 1018 38 10000 5.1 340 11:57 24.12.2019
2026 Clouds 25 1018 38 10000 5.1 340 11:37 24.12.2019
2027 Clouds 25 1018 38 10000 5.1 340 11:19 24.12.2019
2028 Clouds 25 1018 31 10000 1.5 0 10:56 24.12.2019
2029 Clouds 25 1018 31 10000 1.5 0 10:38 24.12.2019
2030 Clouds 25 1018 31 10000 1.5 0 10:20 24.12.2019
2031 Clouds 24 1019 36 10000 2.1 30 09:56 24.12.2019
2032 Clouds 24 1019 36 10000 2.1 30 09:38 24.12.2019
2033 Clouds 23 1020 43 10000 3.1 90 09:20 24.12.2019
2034 Clouds 23 1020 43 10000 3.1 90 08:47 24.12.2019
2035 Clouds 23 1020 43 10000 3.1 90 08:24 24.12.2019
2036 Clouds 22 1021 43 10000 3.1 100 07:55 24.12.2019
2037 Clouds 22 1021 43 10000 3.1 100 07:37 24.12.2019
2038 Clouds 22 1021 43 10000 3.1 100 07:18 24.12.2019
2039 Clouds 19 1020 49 10000 3.1 100 06:39 24.12.2019
2040 Clouds 19 1020 49 10000 3.1 100 06:19 24.12.2019
2041 Clear 16 1020 52 10000 2.6 0 05:50 24.12.2019
2042 Clear 15 1020 52 10000 2.6 0 05:19 24.12.2019
2043 Clear 14 1019 67 10000 1.5 110 04:21 24.12.2019
2044 Clear 14 1018 67 10000 1.5 130 03:45 24.12.2019
2045 Clear 14 1017 63 10000 1 140 02:28 24.12.2019
2046 Clouds 15 1017 63 10000 1.5 170 01:54 24.12.2019
2047 Clouds 15 1017 63 10000 1.5 170 01:25 24.12.2019
2048 Clouds 15 1017 55 10000 2.1 150 00:56 24.12.2019
2049 Clouds 16 1017 55 10000 2.1 150 00:37 24.12.2019
2050 Clouds 16 1017 55 10000 2.1 150 00:19 24.12.2019
2051 Clouds 16 1017 55 10000 2.1 150 00:19 24.12.2019
2052 Clouds 16 1017 55 10000 1 0 23:41 23.12.2019
2053 Clouds 16 1017 55 10000 1 0 23:23 23.12.2019
2054 Clouds 17 1017 49 10000 3.6 120 22:56 23.12.2019
2055 Clouds 17 1017 49 10000 3.6 120 22:37 23.12.2019
2056 Clouds 17 1017 49 10000 3.6 120 22:37 23.12.2019
2057 Clouds 17 1017 49 10000 3.6 120 22:19 23.12.2019
2058 Clouds 18 1017 43 10000 4.1 120 21:56 23.12.2019
2059 Clouds 18 1017 43 10000 4.1 120 21:36 23.12.2019
2060 Clouds 18 1017 43 10000 4.1 120 21:36 23.12.2019
2061 Clouds 18 1017 43 10000 4.1 120 21:18 23.12.2019
2062 Clouds 18 1017 43 10000 4.1 120 21:18 23.12.2019
2063 Clouds 18 1017 46 10000 2.1 90 20:57 23.12.2019
2064 Clouds 18 1017 46 10000 2.1 90 20:39 23.12.2019
2065 Clouds 18 1017 46 10000 2.1 90 20:39 23.12.2019
2066 Clear 18 1017 46 10000 2.1 90 20:18 23.12.2019
2067 Clear 19 1017 43 10000 2.6 360 19:56 23.12.2019
2068 Clear 19 1017 43 10000 2.6 360 19:38 23.12.2019
2069 Clear 19 1017 43 10000 2.6 360 19:19 23.12.2019
2070 Clear 19 1017 46 10000 3.1 350 18:58 23.12.2019
2071 Clear 19 1017 46 10000 3.1 350 18:58 23.12.2019
2072 Clear 19 1017 46 10000 3.1 350 18:38 23.12.2019
2073 Clear 20 1017 46 10000 3.1 350 18:20 23.12.2019
2074 Clear 21 1017 40 10000 2.6 350 17:56 23.12.2019
2075 Clear 21 1017 40 10000 2.6 350 17:38 23.12.2019
2076 Clear 21 1017 40 10000 2.6 350 17:19 23.12.2019
2077 Clear 21 1017 40 10000 2.6 350 17:19 23.12.2019
2078 Clear 21 1017 40 10000 3.6 340 16:55 23.12.2019
2079 Clear 21 1017 40 10000 3.6 340 16:55 23.12.2019
2080 Clear 21 1017 40 10000 3.6 340 16:36 23.12.2019
2081 Clear 21 1017 40 10000 3.6 340 16:18 23.12.2019
2082 Clear 21 1017 40 10000 3.6 340 16:18 23.12.2019
2083 Clear 22 1016 35 10000 4.6 350 15:55 23.12.2019
2084 Clear 22 1016 35 10000 4.6 350 15:36 23.12.2019
2085 Clear 22 1016 35 10000 4.6 350 15:18 23.12.2019
2086 Clear 23 1016 36 10000 5.1 350 14:45 23.12.2019
2087 Clear 23 1016 36 10000 5.1 350 14:26 23.12.2019
2088 Clear 23 1016 36 10000 5.1 350 14:26 23.12.2019
2089 Clouds 24 1016 33 10000 5.7 340 13:59 23.12.2019
2090 Clouds 24 1016 33 10000 5.7 340 13:41 23.12.2019
2091 Clouds 24 1016 33 10000 5.7 340 13:22 23.12.2019
2092 Clouds 24 1016 31 10000 6.2 360 12:59 23.12.2019
2093 Clouds 24 1016 31 10000 6.2 360 12:40 23.12.2019
2094 Clouds 25 1016 31 10000 6.7 340 12:21 23.12.2019
2095 Clouds 25 1016 31 10000 6.7 340 11:55 23.12.2019
2096 Clouds 25 1016 31 10000 6.7 340 11:37 23.12.2019
2097 Clear 25 1016 31 10000 6.7 340 11:18 23.12.2019
2098 Clear 25 1017 29 10000 2.6 0 10:54 23.12.2019
2099 Clear 25 1017 29 10000 2.6 0 10:36 23.12.2019
2100 Clear 25 1017 29 10000 2.6 0 10:18 23.12.2019
2101 Clear 24 1018 31 10000 1.5 0 09:40 23.12.2019
2102 Clear 24 1018 31 10000 1.5 0 09:22 23.12.2019
2103 Clear 23 1019 33 10000 1.5 130 08:59 23.12.2019
2104 Clear 23 1019 33 10000 1.5 130 08:40 23.12.2019
2105 Clear 23 1019 33 10000 1.5 130 08:22 23.12.2019
2106 Clear 21 1020 37 10000 2.1 130 07:48 23.12.2019
2107 Clear 21 1020 37 10000 2.1 130 07:21 23.12.2019
2108 Clear 19 1019 40 10000 1 0 06:57 23.12.2019
2109 Clear 19 1019 40 10000 1 0 06:27 23.12.2019
2110 Clear 15 1019 45 10000 1 0 05:56 23.12.2019
2111 Clear 15 1019 45 10000 1 0 05:29 23.12.2019
2112 Clouds 14 1018 48 10000 1 210 04:39 23.12.2019
2113 Clear 14 1018 45 10000 2.6 110 03:28 23.12.2019
2114 Clear 14 1018 45 10000 2.1 110 02:43 23.12.2019
2115 Clear 14 1018 45 10000 2.1 110 02:19 23.12.2019
2116 Clear 15 1018 45 10000 2.1 100 01:44 23.12.2019
2117 Clear 15 1018 45 10000 2.1 100 01:26 23.12.2019
2118 Clear 15 1018 37 10000 2.1 70 00:44 23.12.2019
2119 Clear 15 1018 37 10000 2.1 70 00:44 23.12.2019
2120 Clear 15 1018 37 10000 2.1 70 00:24 23.12.2019
2121 Clear 15 1018 42 10000 2.1 60 23:40 22.12.2019
2122 Clear 15 1018 42 10000 2.1 60 23:22 22.12.2019
2123 Clear 17 1018 40 10000 2.6 60 22:58 22.12.2019
2124 Clear 17 1018 40 10000 2.6 60 22:40 22.12.2019
2125 Clear 17 1018 40 10000 2.6 60 22:22 22.12.2019
2126 Clear 18 1018 37 10000 2.6 60 21:58 22.12.2019
2127 Clear 18 1018 37 10000 2.6 60 21:40 22.12.2019
2128 Clear 18 1018 37 10000 2.6 60 21:21 22.12.2019
2129 Clear 18 1018 37 10000 2.6 60 21:21 22.12.2019
2130 Clear 19 1019 37 10000 2.6 80 20:58 22.12.2019
2131 Clear 19 1019 37 10000 2.6 80 20:39 22.12.2019
2132 Clear 19 1019 37 10000 2.6 80 20:19 22.12.2019
2133 Clear 19 1019 35 10000 2.6 60 19:57 22.12.2019
2134 Clear 19 1019 35 10000 2.6 60 19:38 22.12.2019
2135 Clear 19 1019 35 10000 2.6 60 19:19 22.12.2019
2136 Clear 20 1018 43 10000 3.6 60 18:42 22.12.2019
2137 Clear 20 1018 43 10000 3.6 60 18:23 22.12.2019
2138 Clear 21 1018 46 10000 4.1 50 17:56 22.12.2019
2139 Clear 21 1018 46 10000 4.1 50 17:38 22.12.2019
2140 Clear 21 1018 46 10000 4.1 50 17:19 22.12.2019
2141 Clear 22 1018 40 10000 3.6 50 16:57 22.12.2019
2142 Clear 22 1018 40 10000 3.6 50 16:38 22.12.2019
2143 Clear 22 1018 40 10000 3.6 50 16:20 22.12.2019
2144 Clear 23 1017 38 10000 4.6 30 15:56 22.12.2019
2145 Clear 23 1017 38 10000 4.6 30 15:37 22.12.2019
2146 Clear 23 1017 38 10000 4.6 30 15:19 22.12.2019
2147 Clear 24 1017 34 10000 7.2 30 14:55 22.12.2019
2148 Clear 24 1017 34 10000 7.2 30 14:36 22.12.2019
2149 Clear 24 1017 34 10000 7.2 30 14:18 22.12.2019
2150 Clear 25 1017 36 10000 5.1 10 13:55 22.12.2019
2151 Clear 25 1017 36 10000 5.1 10 13:36 22.12.2019
2152 Clear 25 1017 36 10000 5.1 10 13:18 22.12.2019
2153 Clear 25 1017 36 10000 5.1 10 13:18 22.12.2019
2154 Clear 26 1017 26 10000 2.6 80 12:55 22.12.2019
2155 Clear 26 1017 26 10000 2.6 80 12:37 22.12.2019
2156 Clear 26 1017 26 10000 2.6 80 12:18 22.12.2019
2157 Clear 26 1017 26 10000 2.6 80 12:18 22.12.2019
2158 Clouds 26 1017 26 10000 2.1 0 11:54 22.12.2019
2159 Clouds 26 1017 26 10000 2.1 0 11:36 22.12.2019
2160 Clouds 26 1017 26 10000 2.1 0 11:18 22.12.2019
2161 Clouds 26 1019 27 10000 4.1 120 10:54 22.12.2019
2162 Clouds 25 1019 27 10000 4.1 120 10:36 22.12.2019
2163 Clouds 25 1019 27 10000 4.1 120 10:18 22.12.2019
2164 Clouds 25 1020 29 10000 4.6 90 09:40 22.12.2019
2165 Clouds 25 1020 29 10000 4.6 90 09:22 22.12.2019
2166 Clouds 24 1021 31 10000 3.6 80 08:59 22.12.2019
2167 Clouds 24 1021 31 10000 3.6 80 08:38 22.12.2019
2168 Clouds 24 1021 31 10000 3.6 80 08:18 22.12.2019
2169 Clouds 24 1021 31 10000 3.6 80 08:18 22.12.2019
2170 Clouds 21 1021 35 10000 2.6 0 07:38 22.12.2019
2171 Clouds 21 1021 35 10000 2.6 0 07:20 22.12.2019
2172 Clear 18 1021 35 10000 2.6 90 06:40 22.12.2019
2173 Clear 15 1020 42 10000 1.5 80 05:54 22.12.2019
2174 Clear 15 1020 42 10000 1.5 80 05:21 22.12.2019
2175 Clear 13 1020 45 10000 1 0 04:29 22.12.2019
2176 Clear 13 1019 42 10000 2.6 90 03:52 22.12.2019
2177 Clear 14 1019 39 10000 2.6 100 02:40 22.12.2019
2178 Clear 13 1019 45 10000 1.5 100 01:42 22.12.2019
2179 Clear 13 1019 45 10000 1.5 100 01:22 22.12.2019
2180 Clear 14 1019 42 10000 2.1 90 00:45 22.12.2019
2181 Clear 14 1019 42 10000 2.1 90 00:22 22.12.2019
2182 Clear 15 1019 39 10000 2.1 70 23:55 21.12.2019
2183 Clear 14 1019 39 10000 2.1 70 23:37 21.12.2019
2184 Clear 15 1019 39 10000 2.1 70 23:18 21.12.2019
2185 Clear 16 1019 34 10000 2.6 80 22:40 21.12.2019
2186 Clear 16 1019 34 10000 2.6 80 22:40 21.12.2019
2187 Clear 16 1019 34 10000 2.6 80 22:19 21.12.2019
2188 Clear 16 1019 37 10000 2.6 80 21:57 21.12.2019
2189 Clear 16 1019 37 10000 2.6 80 21:37 21.12.2019
2190 Clear 16 1019 37 10000 2.6 80 21:19 21.12.2019
2191 Clear 16 1019 37 10000 2.6 90 20:58 21.12.2019
2192 Clear 16 1019 37 10000 2.6 90 20:39 21.12.2019
2193 Clear 16 1019 37 10000 2.6 90 20:39 21.12.2019
2194 Clear 16 1019 37 10000 2.6 90 20:21 21.12.2019
2195 Clear 18 1020 37 10000 2.6 80 19:58 21.12.2019
2196 Clear 18 1020 37 10000 2.6 80 19:40 21.12.2019
2197 Clear 18 1020 37 10000 2.6 80 19:19 21.12.2019
2198 Clear 18 1020 37 10000 2.6 80 19:19 21.12.2019
2199 Clear 19 1020 40 10000 2.1 60 18:45 21.12.2019
2200 Clear 19 1020 40 10000 2.1 60 18:24 21.12.2019
2201 Clear 20 1019 37 10000 3.6 50 17:57 21.12.2019
2202 Clear 20 1019 37 10000 3.6 50 17:57 21.12.2019
2203 Clear 20 1019 37 10000 3.6 50 17:39 21.12.2019
2204 Clear 20 1019 37 10000 3.6 50 17:21 21.12.2019
2205 Clear 21 1019 35 10000 4.1 40 16:58 21.12.2019
2206 Clear 21 1019 35 10000 4.1 40 16:40 21.12.2019
2207 Clear 21 1019 35 10000 4.1 40 16:18 21.12.2019
2208 Clear 22 1018 33 10000 5.1 20 15:57 21.12.2019
2209 Clear 22 1018 33 10000 5.1 20 15:38 21.12.2019
2210 Clear 22 1018 33 10000 5.1 20 15:19 21.12.2019
2211 Clear 23 1018 33 10000 6.2 10 14:56 21.12.2019
2212 Clear 23 1018 33 10000 6.2 10 14:37 21.12.2019
2213 Clear 23 1018 33 10000 6.2 10 14:18 21.12.2019
2214 Clear 24 1018 31 10000 6.7 10 13:55 21.12.2019
2215 Clear 24 1018 31 10000 6.7 10 13:37 21.12.2019
2216 Clear 24 1018 31 10000 6.7 10 13:18 21.12.2019
2217 Clear 24 1018 31 10000 6.2 10 12:54 21.12.2019
2218 Clear 25 1018 31 10000 6.2 10 12:36 21.12.2019
2219 Clear 25 1018 29 10000 7.7 30 12:18 21.12.2019
2220 Clear 25 1018 29 10000 7.7 30 11:41 21.12.2019
2221 Clear 25 1018 29 10000 7.7 30 11:23 21.12.2019
2222 Clear 24 1019 25 10000 3.6 70 10:54 21.12.2019
2223 Clear 24 1019 25 10000 3.6 70 10:36 21.12.2019
2224 Clear 24 1019 25 10000 3.6 70 10:18 21.12.2019
2225 Clear 24 1020 27 10000 3.6 70 09:42 21.12.2019
2226 Clear 24 1020 27 10000 3.6 70 09:20 21.12.2019
2227 Clear 24 1021 27 10000 4.6 40 08:56 21.12.2019
2228 Clear 24 1021 27 10000 4.6 40 08:37 21.12.2019
2229 Clear 24 1021 27 10000 4.6 40 08:18 21.12.2019
2230 Clouds 22 1021 31 10000 3.1 70 07:41 21.12.2019
2231 Clouds 22 1021 31 10000 3.1 70 07:21 21.12.2019
2232 Clouds 19 1021 33 10000 2.6 80 06:43 21.12.2019
2233 Clouds 19 1021 33 10000 2.6 80 06:25 21.12.2019
2234 Clouds 15 1020 42 10000 2.6 70 05:47 21.12.2019
2235 Clouds 14 1020 48 10000 1.5 90 04:58 21.12.2019
2236 Clear 14 1019 45 10000 2.1 80 03:57 21.12.2019
2237 Clear 14 1019 42 10000 2.1 60 02:51 21.12.2019
2238 Clear 15 1019 48 10000 1.5 110 01:57 21.12.2019
2239 Clear 15 1019 48 10000 1.5 110 01:27 21.12.2019
2240 Clear 15 1019 48 10000 2.1 110 00:52 21.12.2019
2241 Clear 15 1019 48 10000 2.1 110 00:32 21.12.2019
2242 Clear 16 1019 45 10000 1.5 70 23:57 20.12.2019
2243 Clear 16 1019 45 10000 1.5 70 23:37 20.12.2019
2244 Clear 16 1019 45 10000 1.5 70 23:18 20.12.2019
2245 Clear 16 1019 45 10000 2.6 90 22:40 20.12.2019
2246 Clear 16 1019 45 10000 2.6 90 22:21 20.12.2019
2247 Clear 18 1019 43 10000 3.6 80 21:57 20.12.2019
2248 Clear 18 1019 43 10000 3.6 80 21:39 20.12.2019
2249 Clear 18 1019 43 10000 3.6 80 21:19 20.12.2019
2250 Clear 19 1020 40 10000 3.6 60 20:39 20.12.2019
2251 Clear 19 1020 40 10000 3.6 60 20:19 20.12.2019
2252 Clear 20 1019 40 10000 5.7 40 19:58 20.12.2019
2253 Clear 20 1019 40 10000 5.7 40 19:40 20.12.2019
2254 Clear 20 1019 40 10000 5.7 40 19:19 20.12.2019
2255 Clear 21 1019 40 10000 5.7 20 18:42 20.12.2019
2256 Clear 21 1019 40 10000 5.7 20 18:24 20.12.2019
2257 Clear 20 1019 46 10000 3.6 20 17:59 20.12.2019
2258 Clear 20 1019 46 10000 3.6 20 17:41 20.12.2019
2259 Clear 20 1019 46 10000 3.6 20 17:21 20.12.2019
2260 Clear 21 1019 43 10000 4.6 40 16:59 20.12.2019
2261 Clear 21 1019 43 10000 4.6 40 16:39 20.12.2019
2262 Clear 21 1019 43 10000 4.6 40 16:20 20.12.2019
2263 Clear 22 1018 38 10000 6.7 40 15:56 20.12.2019
2264 Clear 22 1018 38 10000 6.7 40 15:38 20.12.2019
2265 Clear 22 1018 38 10000 6.7 40 15:19 20.12.2019
2266 Clear 22 1018 38 10000 6.7 40 15:19 20.12.2019
2267 Clear 23 1018 36 10000 5.7 30 14:54 20.12.2019
2268 Clear 24 1018 36 10000 5.7 30 14:36 20.12.2019
2269 Clear 24 1018 36 10000 5.7 30 14:18 20.12.2019
2270 Clear 24 1018 29 10000 7.2 30 13:41 20.12.2019
2271 Clear 24 1018 29 10000 7.2 30 13:20 20.12.2019
2272 Clear 24 1017 31 10000 7.7 30 12:57 20.12.2019
2273 Clear 24 1017 31 10000 7.7 30 12:38 20.12.2019
2274 Clear 24 1017 31 10000 7.7 30 12:19 20.12.2019
2275 Clear 24 1017 36 10000 8.2 40 11:58 20.12.2019
2276 Clear 24 1017 36 10000 8.2 40 11:39 20.12.2019
2277 Clear 24 1017 36 10000 8.2 40 11:19 20.12.2019
2278 Clear 24 1018 33 10000 8.7 40 10:57 20.12.2019
2279 Clear 24 1018 33 10000 8.7 40 10:57 20.12.2019
2280 Clear 24 1018 33 10000 8.7 40 10:38 20.12.2019
2281 Clear 24 1018 33 10000 8.7 40 10:20 20.12.2019
2282 Clear 24 1020 33 10000 7.7 50 09:44 20.12.2019
2283 Clear 24 1020 33 10000 7.7 50 09:22 20.12.2019
2284 Clear 23 1020 38 10000 7.7 40 08:59 20.12.2019
2285 Clear 23 1020 38 10000 7.7 40 08:41 20.12.2019
2286 Clear 23 1020 38 10000 7.7 40 08:21 20.12.2019
2287 Clear 21 1021 43 10000 7.7 50 07:58 20.12.2019
2288 Clear 21 1021 43 10000 7.7 50 07:39 20.12.2019
2289 Clear 21 1021 43 10000 7.7 50 07:18 20.12.2019
2290 Clouds 20 1021 49 10000 3.1 40 06:48 20.12.2019
2291 Clouds 20 1021 49 10000 3.1 40 06:30 20.12.2019
2292 Clouds 17 1020 63 10000 1.5 90 05:49 20.12.2019
2293 Clouds 17 1020 63 10000 1.5 90 05:49 20.12.2019
2294 Clouds 17 1020 63 10000 1.5 90 05:21 20.12.2019
2295 Clear 17 1018 63 10000 1.5 180 03:50 20.12.2019
2296 Clear 17 1018 63 10000 1.5 180 03:28 20.12.2019
2297 Clear 17 1018 63 10000 1.5 200 02:33 20.12.2019
2298 Clear 17 1018 52 10000 2.1 0 01:36 20.12.2019
2299 Clouds 19 1018 40 10000 3.1 360 00:58 20.12.2019
2300 Clouds 19 1018 40 10000 3.1 360 00:39 20.12.2019
2301 Rain 19 1018 43 10000 2.6 360 23:59 19.12.2019
2302 Rain 19 1018 43 10000 2.6 360 23:40 19.12.2019
2303 Clear 19 1018 43 10000 2.6 360 23:21 19.12.2019
2304 Clear 20 1019 43 10000 2.6 340 22:40 19.12.2019
2305 Clear 20 1019 43 10000 2.6 340 22:40 19.12.2019
2306 Clear 20 1019 43 10000 2.6 340 22:22 19.12.2019
2307 Clouds 21 1019 46 10000 3.6 310 21:59 19.12.2019
2308 Clouds 21 1019 46 10000 3.6 310 21:41 19.12.2019
2309 Clouds 21 1019 46 10000 3.6 310 21:20 19.12.2019
2310 Clear 21 1020 46 10000 4.6 320 20:58 19.12.2019
2311 Clear 21 1020 46 10000 4.6 320 20:38 19.12.2019
2312 Clear 21 1020 46 10000 4.6 320 20:20 19.12.2019
2313 Clear 22 1020 46 10000 4.1 300 19:59 19.12.2019
2314 Clear 22 1020 46 10000 4.1 300 19:59 19.12.2019
2315 Clear 22 1020 46 10000 4.1 300 19:40 19.12.2019
2316 Clear 22 1020 46 10000 4.1 300 19:20 19.12.2019
2317 Clear 22 1020 44 10000 4.1 300 18:59 19.12.2019
2318 Clear 22 1020 44 10000 4.1 300 18:40 19.12.2019
2319 Clear 22 1020 44 10000 4.1 300 18:20 19.12.2019
2320 Clear 23 1019 44 10000 5.1 320 17:56 19.12.2019
2321 Clear 23 1019 44 10000 5.1 320 17:38 19.12.2019
2322 Clear 23 1019 44 10000 5.1 320 17:18 19.12.2019
2323 Clear 23 1019 47 10000 5.1 320 16:56 19.12.2019
2324 Clear 23 1019 47 10000 5.1 320 16:56 19.12.2019
2325 Clear 23 1019 47 10000 5.1 320 16:56 19.12.2019
2326 Clear 23 1019 47 10000 5.1 320 16:38 19.12.2019
2327 Clear 23 1019 47 10000 5.1 320 16:19 19.12.2019
2328 Clear 23 1019 47 10000 5.1 320 16:19 19.12.2019
2329 Clouds 23 1018 47 10000 6.2 310 15:58 19.12.2019
2330 Clouds 23 1018 47 10000 6.2 310 15:38 19.12.2019
2331 Clouds 23 1018 47 10000 6.2 310 15:19 19.12.2019
2332 Clouds 24 1018 50 10000 5.7 310 14:57 19.12.2019
2333 Clouds 24 1018 50 10000 5.7 310 14:39 19.12.2019
2334 Clouds 24 1018 50 10000 5.7 310 14:18 19.12.2019
2335 Clouds 24 1018 47 10000 6.2 310 13:39 19.12.2019
2336 Clouds 24 1018 47 10000 6.2 310 13:20 19.12.2019
2337 Clouds 24 1018 47 10000 6.2 310 13:20 19.12.2019
2338 Clouds 25 1018 47 10000 5.7 300 12:58 19.12.2019
2339 Clouds 25 1018 47 10000 5.7 300 12:40 19.12.2019
2340 Clouds 25 1018 47 10000 5.7 300 12:19 19.12.2019
2341 Clouds 25 1018 50 10000 4.6 320 11:59 19.12.2019
2342 Clouds 25 1018 50 10000 4.6 320 11:41 19.12.2019
2343 Clouds 25 1018 50 10000 4.6 320 11:18 19.12.2019
2344 Clouds 25 1019 47 10000 5.1 310 10:59 19.12.2019
2345 Clouds 25 1019 47 10000 5.1 310 10:38 19.12.2019
2346 Clouds 25 1019 47 10000 5.1 310 10:38 19.12.2019
2347 Clouds 25 1019 47 10000 5.1 310 10:20 19.12.2019
2348 Clouds 25 1020 50 10000 5.1 320 09:56 19.12.2019
2349 Clouds 24 1020 50 10000 5.1 320 09:37 19.12.2019
2350 Clouds 24 1020 50 10000 5.1 320 09:19 19.12.2019
2351 Clouds 24 1021 53 10000 5.1 320 08:55 19.12.2019
2352 Clouds 24 1021 53 10000 5.1 320 08:36 19.12.2019
2353 Clouds 24 1021 53 10000 5.1 320 08:18 19.12.2019
2354 Clouds 24 1021 57 10000 5.1 300 07:40 19.12.2019
2355 Clouds 24 1021 57 10000 5.1 300 07:22 19.12.2019
2356 Clouds 24 1021 60 10000 5.1 320 06:54 19.12.2019
2357 Clouds 24 1021 60 10000 5.1 320 06:36 19.12.2019
2358 Clouds 23 1021 60 10000 5.7 320 06:18 19.12.2019
2359 Clouds 23 1021 60 10000 5.7 320 05:41 19.12.2019
2360 Clouds 23 1021 60 10000 5.7 320 05:18 19.12.2019
2361 Clouds 23 1019 64 10000 5.1 320 03:51 19.12.2019
2362 Clouds 23 1019 60 10000 4.6 300 02:25 19.12.2019
2363 Clouds 23 1019 64 10000 4.6 310 01:24 19.12.2019
2364 Clouds 23 1019 64 10000 4.6 290 00:55 19.12.2019
2365 Clouds 23 1019 64 10000 4.6 290 00:36 19.12.2019
2366 Clouds 23 1019 64 10000 4.6 290 00:18 19.12.2019
2367 Clouds 23 1019 69 10000 5.7 300 23:43 18.12.2019
2368 Clouds 23 1019 69 10000 5.7 300 23:43 18.12.2019
2369 Clouds 23 1019 69 10000 5.7 300 23:19 18.12.2019
2370 Clouds 23 1019 73 10000 4.6 310 22:56 18.12.2019
2371 Clouds 23 1019 73 10000 4.6 310 22:38 18.12.2019
2372 Clouds 23 1019 73 10000 4.6 310 22:20 18.12.2019
2373 Clouds 23 1019 73 10000 2.1 360 21:58 18.12.2019
2374 Clouds 23 1019 73 10000 2.1 360 21:39 18.12.2019
2375 Clouds 23 1019 73 10000 2.1 360 21:20 18.12.2019
2376 Clouds 23 1020 78 10000 1.5 0 20:56 18.12.2019
2377 Clouds 23 1020 78 10000 1.5 0 20:38 18.12.2019
2378 Clouds 23 1020 78 10000 1.5 0 20:19 18.12.2019
2379 Clouds 23 1020 73 10000 3.6 340 19:56 18.12.2019
2380 Clouds 23 1020 73 10000 3.6 340 19:37 18.12.2019
2381 Clouds 23 1020 73 10000 3.6 340 19:18 18.12.2019
2382 Clouds 23 1020 73 10000 3.6 340 19:18 18.12.2019
2383 Rain 23 1020 73 10000 3.1 350 18:45 18.12.2019
2384 Rain 23 1020 73 10000 3.1 350 18:25 18.12.2019
2385 Rain 23 1019 78 10000 3.6 330 17:57 18.12.2019
2386 Rain 24 1019 78 10000 3.6 330 17:39 18.12.2019
2387 Rain 24 1019 78 10000 3.6 330 17:39 18.12.2019
2388 Rain 24 1019 78 10000 3.6 330 17:20 18.12.2019
2389 Rain 24 1019 69 10000 3.6 350 16:58 18.12.2019
2390 Rain 24 1019 69 10000 3.6 350 16:39 18.12.2019
2391 Rain 24 1019 69 10000 3.6 350 16:20 18.12.2019
2392 Clouds 24 1018 78 10000 2.6 10 15:56 18.12.2019
2393 Clouds 24 1018 78 10000 2.6 10 15:37 18.12.2019
2394 Clouds 24 1018 78 10000 2.6 10 15:19 18.12.2019
2395 Clouds 24 1017 78 10000 5.7 330 14:43 18.12.2019
2396 Clouds 24 1017 78 10000 5.7 330 14:22 18.12.2019
2397 Rain 25 1017 69 10000 9.3 320 13:57 18.12.2019
2398 Rain 25 1017 69 10000 9.3 320 13:39 18.12.2019
2399 Rain 25 1017 69 10000 9.3 320 13:20 18.12.2019
2400 Clouds 27 1017 57 10000 7.2 280 12:59 18.12.2019
2401 Clouds 27 1017 57 10000 7.2 280 12:39 18.12.2019
2402 Clouds 27 1017 57 10000 7.2 280 12:20 18.12.2019
2403 Clouds 28 1017 57 10000 6.7 290 11:56 18.12.2019
2404 Clouds 28 1017 57 10000 6.7 290 11:38 18.12.2019
2405 Clouds 28 1017 57 10000 6.7 290 11:38 18.12.2019
2406 Clouds 28 1017 57 10000 6.7 290 11:19 18.12.2019
2407 Clouds 28 1017 48 10000 5.7 230 10:56 18.12.2019
2408 Clouds 28 1017 48 10000 5.7 230 10:56 18.12.2019
2409 Clouds 28 1017 48 10000 5.7 230 10:38 18.12.2019
2410 Clouds 28 1017 48 10000 5.7 230 10:20 18.12.2019
2411 Clouds 27 1018 54 10000 4.6 230 09:50 18.12.2019
2412 Clouds 27 1018 54 10000 4.6 230 09:50 18.12.2019
2413 Clouds 27 1018 54 10000 4.6 230 09:19 18.12.2019
2414 Clouds 26 1020 54 10000 5.1 220 08:41 18.12.2019
2415 Clouds 26 1020 54 10000 5.1 220 08:23 18.12.2019
2416 Clouds 25 1020 57 10000 5.1 210 07:55 18.12.2019
2417 Clouds 25 1020 57 10000 5.1 210 07:36 18.12.2019
2418 Clouds 25 1020 57 10000 5.1 210 07:18 18.12.2019
2419 Clouds 24 1020 60 10000 4.1 190 06:49 18.12.2019
2420 Clouds 24 1020 60 10000 4.1 190 06:22 18.12.2019
2421 Clouds 23 1019 60 10000 4.6 200 05:22 18.12.2019
2422 Clouds 23 1017 60 10000 4.6 180 03:31 18.12.2019
2423 Clouds 23 1017 73 10000 3.6 170 02:38 18.12.2019
2424 Clouds 23 1017 73 10000 3.6 170 02:20 18.12.2019
2425 Rain 22 1017 78 10000 2.6 80 01:42 18.12.2019
2426 Rain 22 1017 78 10000 2.6 80 01:23 18.12.2019
2427 Rain 22 1017 73 10000 2.1 100 00:42 18.12.2019
2428 Rain 22 1017 73 10000 2.1 100 00:23 18.12.2019
2429 Rain 22 1018 73 10000 2.1 100 23:57 17.12.2019
2430 Rain 22 1018 73 10000 2.1 100 23:39 17.12.2019
2431 Rain 22 1018 73 10000 2.1 100 23:19 17.12.2019
2432 Rain 23 1018 78 10000 3.1 90 22:56 17.12.2019
2433 Rain 23 1018 78 10000 3.1 90 22:38 17.12.2019
2434 Rain 23 1018 78 10000 3.1 90 22:19 17.12.2019
2435 Rain 23 1018 73 10000 3.1 70 21:55 17.12.2019
2436 Rain 23 1018 73 10000 3.1 70 21:37 17.12.2019
2437 Rain 23 1018 73 10000 3.1 70 21:19 17.12.2019
2438 Rain 24 1018 69 8000 3.1 70 20:57 17.12.2019
2439 Clouds 24 1018 69 8000 3.1 70 20:38 17.12.2019
2440 Rain 24 1018 69 8000 3.1 70 20:18 17.12.2019
2441 Clouds 24 1018 69 10000 3.6 70 19:56 17.12.2019
2442 Clouds 24 1018 69 10000 3.6 70 19:37 17.12.2019
2443 Clouds 24 1018 69 10000 3.6 70 19:18 17.12.2019
2444 Clouds 25 1018 65 10000 3.6 80 18:43 17.12.2019
2445 Clouds 25 1018 65 10000 3.6 80 18:43 17.12.2019
2446 Clouds 25 1018 65 10000 3.6 80 18:23 17.12.2019
2447 Clouds 26 1018 61 10000 2.6 30 17:59 17.12.2019
2448 Clouds 26 1018 61 10000 2.6 30 17:41 17.12.2019
2449 Clouds 26 1018 61 10000 2.6 30 17:41 17.12.2019
2450 Clouds 26 1018 61 10000 2.6 30 17:19 17.12.2019
2451 Clouds 26 1018 57 10000 4.1 330 16:56 17.12.2019
2452 Clouds 26 1018 57 10000 4.1 330 16:38 17.12.2019
2453 Clouds 26 1018 57 10000 4.1 330 16:37 17.12.2019
2454 Clouds 26 1018 57 10000 4.1 330 16:19 17.12.2019
2455 Clouds 27 1017 61 8000 6.2 330 15:56 17.12.2019
2456 Clouds 27 1017 61 8000 6.2 330 15:37 17.12.2019
2457 Clouds 27 1017 61 8000 6.2 330 15:19 17.12.2019
2458 Clouds 28 1016 39 8000 3.1 250 14:55 17.12.2019
2459 Clouds 28 1016 39 8000 3.1 250 14:37 17.12.2019
2460 Clouds 28 1016 39 8000 3.1 250 14:18 17.12.2019
2461 Clouds 29 1015 40 10000 3.6 220 13:55 17.12.2019
2462 Clouds 29 1015 40 10000 3.6 220 13:37 17.12.2019
2463 Clouds 29 1015 40 10000 3.6 220 13:18 17.12.2019
2464 Clouds 29 1015 37 10000 3.6 200 12:41 17.12.2019
2465 Clouds 29 1015 37 10000 3.6 200 12:19 17.12.2019
2466 Clouds 29 1015 37 10000 3.6 200 12:19 17.12.2019
2467 Clouds 29 1015 40 10000 4.6 210 11:59 17.12.2019
2468 Clouds 29 1015 40 10000 4.6 210 11:37 17.12.2019
2469 Clouds 29 1015 40 10000 4.6 210 11:19 17.12.2019
2470 Clouds 28 1016 39 10000 5.7 200 10:59 17.12.2019
2471 Clouds 28 1016 39 10000 5.7 200 10:41 17.12.2019
2472 Clouds 28 1016 39 10000 5.7 200 10:41 17.12.2019
2473 Clouds 28 1016 39 10000 5.7 200 10:22 17.12.2019
2474 Clouds 28 1017 42 7000 6.2 190 09:59 17.12.2019
2475 Clouds 28 1017 42 7000 6.2 190 09:41 17.12.2019
2476 Clouds 28 1017 42 7000 6.2 190 09:20 17.12.2019
2477 Clouds 27 1018 44 10000 6.7 190 08:56 17.12.2019
2478 Clouds 26 1018 44 10000 6.7 190 08:38 17.12.2019
2479 Clouds 26 1018 44 10000 6.7 190 08:19 17.12.2019
2480 Clouds 25 1018 50 10000 5.7 160 07:46 17.12.2019
2481 Clouds 25 1018 50 10000 5.7 160 07:26 17.12.2019
2482 Clouds 24 1018 60 10000 4.1 190 06:56 17.12.2019
2483 Clouds 24 1018 60 10000 4.1 190 06:35 17.12.2019
2484 Clouds 23 1017 57 10000 3.6 190 05:53 17.12.2019
2485 Clouds 23 1017 57 10000 3.6 190 05:35 17.12.2019
2486 Clouds 23 1016 57 10000 3.1 180 04:30 17.12.2019
2487 Clouds 24 1016 65 10000 2.6 180 02:34 17.12.2019
2488 Clouds 24 1015 65 10000 7.2 110 01:55 17.12.2019
2489 Clouds 24 1015 61 10000 6.2 110 00:58 17.12.2019
2490 Clouds 24 1015 61 10000 6.2 110 00:37 17.12.2019
2491 Clouds 24 1016 57 10000 5.7 120 00:19 17.12.2019
2492 Clouds 24 1016 57 10000 5.7 120 23:41 16.12.2019
2493 Clouds 24 1016 57 10000 5.7 120 23:19 16.12.2019
2494 Clouds 24 1015 61 10000 6.2 130 22:56 16.12.2019
2495 Clouds 24 1015 61 10000 6.2 130 22:37 16.12.2019
2496 Clouds 24 1015 61 10000 6.2 130 22:19 16.12.2019
2497 Clouds 24 1015 65 10000 6.2 120 21:55 16.12.2019
2498 Clouds 24 1015 65 10000 6.2 120 21:37 16.12.2019
2499 Clouds 24 1015 65 10000 6.2 120 21:19 16.12.2019
2500 Clouds 24 1016 78 10000 3.1 90 20:57 16.12.2019
2501 Clouds 24 1016 78 10000 3.1 90 20:37 16.12.2019
2502 Rain 24 1016 78 10000 3.1 90 20:19 16.12.2019
2503 Rain 23 1016 78 10000 3.6 70 19:55 16.12.2019
2504 Rain 23 1016 78 10000 3.6 70 19:55 16.12.2019
2505 Rain 23 1016 78 10000 3.6 70 19:36 16.12.2019
2506 Rain 23 1016 78 10000 3.6 70 19:18 16.12.2019
2507 Rain 24 1016 78 10000 4.6 60 18:55 16.12.2019
2508 Rain 24 1016 78 10000 4.6 60 18:37 16.12.2019
2509 Rain 24 1016 78 10000 4.6 60 18:37 16.12.2019
2510 Rain 24 1016 78 10000 4.6 60 18:19 16.12.2019
2511 Rain 24 1016 78 10000 5.7 50 17:57 16.12.2019
2512 Rain 24 1016 78 10000 5.7 50 17:37 16.12.2019
2513 Rain 24 1016 78 10000 5.7 50 17:19 16.12.2019
2514 Rain 24 1015 78 10000 6.7 50 16:55 16.12.2019
2515 Rain 24 1015 78 10000 6.7 50 16:37 16.12.2019
2516 Rain 24 1015 78 10000 6.7 50 16:18 16.12.2019
2517 Rain 24 1015 78 10000 6.7 50 15:55 16.12.2019
2518 Rain 24 1015 78 10000 6.7 50 15:37 16.12.2019
2519 Rain 24 1015 78 10000 6.7 50 15:19 16.12.2019
2520 Rain 25 1015 69 10000 6.2 30 14:54 16.12.2019
2521 Rain 25 1015 69 10000 6.2 30 14:36 16.12.2019
2522 Rain 25 1015 69 10000 6.2 30 14:18 16.12.2019
2523 Rain 26 1014 57 10000 6.2 30 13:38 16.12.2019
2524 Rain 26 1014 57 10000 6.2 30 13:20 16.12.2019
2525 Rain 26 1014 57 10000 6.2 20 12:59 16.12.2019
2526 Rain 26 1014 57 10000 6.2 20 12:41 16.12.2019
2527 Rain 26 1014 57 10000 6.2 20 12:20 16.12.2019
2528 Rain 27 1015 54 10000 4.6 360 11:59 16.12.2019
2529 Rain 27 1015 54 10000 4.6 360 11:41 16.12.2019
2530 Clouds 27 1015 54 10000 4.6 360 11:22 16.12.2019
2531 Clouds 27 1016 54 10000 4.1 350 10:59 16.12.2019
2532 Clouds 27 1016 54 10000 4.1 350 10:40 16.12.2019
2533 Clouds 27 1016 54 10000 4.1 350 10:21 16.12.2019
2534 Clouds 27 1016 57 10000 4.1 360 09:55 16.12.2019
2535 Clouds 27 1016 57 10000 4.1 360 09:37 16.12.2019
2536 Clouds 27 1016 57 10000 4.1 360 09:19 16.12.2019
2537 Clouds 26 1017 50 10000 2.6 0 08:39 16.12.2019
2538 Clouds 26 1017 50 10000 2.6 0 08:19 16.12.2019
2539 Clouds 24 1017 65 8000 3.6 100 07:51 16.12.2019
2540 Clouds 24 1017 65 8000 3.6 100 07:31 16.12.2019
2541 Clouds 24 1017 65 8000 3.6 100 07:31 16.12.2019
2542 Clouds 23 1017 69 7000 2.6 80 06:48 16.12.2019
2543 Clouds 22 1017 69 7000 2.6 80 06:26 16.12.2019
2544 Clouds 22 1017 69 8000 2.1 40 05:56 16.12.2019
2545 Clouds 22 1017 69 8000 2.1 40 05:35 16.12.2019
2546 Rain 22 1016 73 7000 1.5 80 04:33 16.12.2019
2547 Clouds 22 1015 78 8000 1.5 60 02:50 16.12.2019
2548 Clouds 22 1014 78 10000 4.6 130 01:45 16.12.2019
2549 Clouds 22 1015 73 10000 2.6 150 00:55 16.12.2019
2550 Clouds 22 1015 73 10000 2.6 150 00:36 16.12.2019
2551 Clouds 22 1015 73 10000 2.6 150 00:18 16.12.2019
2552 Clouds 22 1016 73 10000 1.5 50 23:40 15.12.2019
2553 Clouds 22 1016 73 10000 1.5 50 23:21 15.12.2019
2554 Clouds 22 1017 73 10000 1.5 70 22:56 15.12.2019
2555 Clouds 22 1017 73 10000 1.5 70 22:38 15.12.2019
2556 Clouds 22 1017 73 10000 1.5 70 22:18 15.12.2019
2557 Clouds 22 1017 69 10000 1.5 40 21:57 15.12.2019
2558 Clouds 22 1017 69 10000 1.5 40 21:38 15.12.2019
2559 Clouds 22 1017 69 10000 1.5 40 21:19 15.12.2019
2560 Clouds 22 1017 69 10000 2.6 20 20:56 15.12.2019
2561 Clouds 22 1017 69 10000 2.6 20 20:37 15.12.2019
2562 Clouds 22 1017 69 10000 2.6 20 20:19 15.12.2019
2563 Clouds 22 1017 69 10000 2.6 70 19:57 15.12.2019
2564 Clouds 22 1017 69 10000 2.6 70 19:39 15.12.2019
2565 Clouds 22 1017 69 10000 2.6 70 19:18 15.12.2019
2566 Clouds 22 1017 64 10000 1.5 70 18:56 15.12.2019
2567 Clouds 22 1017 64 10000 1.5 70 18:56 15.12.2019
2568 Clouds 22 1017 64 10000 1.5 70 18:38 15.12.2019
2569 Clouds 22 1017 64 10000 1.5 70 18:38 15.12.2019
2570 Clouds 22 1017 64 10000 1.5 70 18:18 15.12.2019
2571 Clouds 23 1017 65 10000 2.6 20 17:56 15.12.2019
2572 Clouds 23 1017 65 10000 2.6 20 17:37 15.12.2019
2573 Clouds 23 1017 65 10000 2.6 20 17:18 15.12.2019
2574 Clouds 23 1016 65 10000 2.1 120 16:55 15.12.2019
2575 Clouds 23 1016 65 10000 2.1 120 16:55 15.12.2019
2576 Clouds 23 1016 65 10000 2.1 120 16:37 15.12.2019
2577 Clouds 23 1016 65 10000 2.1 120 16:19 15.12.2019
2578 Clouds 24 1016 57 10000 1.5 20 15:54 15.12.2019
2579 Clouds 24 1016 57 10000 1.5 20 15:54 15.12.2019
2580 Clouds 24 1016 57 10000 1.5 20 15:36 15.12.2019
2581 Clouds 24 1016 57 10000 1.5 20 15:18 15.12.2019
2582 Clouds 25 1016 47 10000 6.2 20 14:55 15.12.2019
2583 Clouds 25 1016 47 10000 6.2 20 14:36 15.12.2019
2584 Clouds 25 1016 47 10000 6.2 20 14:18 15.12.2019
2585 Clouds 25 1016 50 10000 4.1 340 13:54 15.12.2019
2586 Clouds 25 1016 50 10000 4.1 340 13:36 15.12.2019
2587 Clouds 25 1016 50 10000 4.1 340 13:18 15.12.2019
2588 Clouds 25 1016 44 10000 1.5 120 12:55 15.12.2019
2589 Clouds 25 1016 44 10000 1.5 120 12:37 15.12.2019
2590 Clouds 25 1016 50 10000 2.6 90 12:19 15.12.2019
2591 Clouds 25 1016 50 10000 2.6 90 11:38 15.12.2019
2592 Clouds 25 1016 50 10000 2.6 90 11:19 15.12.2019
2593 Clouds 25 1017 57 10000 2.1 140 10:56 15.12.2019
2594 Clouds 25 1017 57 10000 2.1 140 10:38 15.12.2019
2595 Clouds 25 1017 57 10000 2.1 140 10:19 15.12.2019
2596 Rain 25 1017 50 8000 2.6 350 09:58 15.12.2019
2597 Rain 25 1017 50 8000 2.6 350 09:37 15.12.2019
2598 Rain 26 1019 65 4500 7.2 330 09:19 15.12.2019
2599 Clouds 25 1018 61 8000 4.6 50 08:54 15.12.2019
2600 Clouds 25 1018 61 8000 4.6 50 08:36 15.12.2019
2601 Clouds 25 1018 61 8000 4.6 50 08:18 15.12.2019
2602 Clouds 25 1018 57 9000 5.7 20 07:43 15.12.2019
2603 Clouds 24 1018 61 10000 3.6 80 07:25 15.12.2019
2604 Clouds 21 1018 73 7000 2.6 110 06:26 15.12.2019
2605 Haze 19 1017 78 5000 2.1 90 05:42 15.12.2019
2606 Haze 19 1017 78 5000 2.1 90 05:21 15.12.2019
2607 Haze 19 1017 83 4500 3.1 90 04:20 15.12.2019
2608 Clouds 19 1016 78 8000 2.6 110 02:50 15.12.2019
2609 Clouds 19 1016 78 8000 2.6 110 02:31 15.12.2019
2610 Clouds 20 1016 73 10000 2.6 100 01:40 15.12.2019
2611 Clouds 20 1016 73 10000 2.6 100 01:18 15.12.2019
2612 Clouds 19 1017 78 10000 1.5 90 00:49 15.12.2019
2613 Clouds 20 1017 78 10000 1.5 90 00:31 15.12.2019
2614 Clouds 21 1017 73 10000 1.5 90 23:41 14.12.2019
2615 Clouds 21 1017 73 10000 1.5 90 23:22 14.12.2019
2616 Clouds 21 1017 69 10000 2.6 110 22:59 14.12.2019
2617 Clouds 21 1017 69 10000 2.6 110 22:41 14.12.2019
2618 Clouds 21 1017 69 10000 2.6 110 22:22 14.12.2019
2619 Clouds 21 1017 69 10000 3.1 90 21:57 14.12.2019
2620 Clouds 21 1017 69 10000 3.1 90 21:38 14.12.2019
2621 Clouds 21 1017 69 10000 3.1 90 21:19 14.12.2019
2622 Clouds 22 1017 69 10000 2.1 70 20:58 14.12.2019
2623 Clouds 22 1017 69 10000 2.1 70 20:39 14.12.2019
2624 Clouds 22 1017 69 10000 2.1 70 20:20 14.12.2019
2625 Clouds 23 1017 61 10000 2.1 70 19:57 14.12.2019
2626 Clouds 23 1017 61 10000 2.1 70 19:57 14.12.2019
2627 Clouds 23 1017 61 10000 2.1 70 19:37 14.12.2019
2628 Clouds 23 1017 61 10000 2.1 70 19:19 14.12.2019
2629 Clouds 23 1017 61 10000 2.1 70 18:56 14.12.2019
2630 Clouds 23 1017 61 10000 2.1 70 18:37 14.12.2019
2631 Clouds 23 1017 61 10000 2.1 70 18:19 14.12.2019
2632 Clouds 23 1017 57 10000 3.1 40 17:44 14.12.2019
2633 Clear 24 1017 57 10000 3.1 40 17:24 14.12.2019
2634 Clear 24 1017 50 10000 3.1 30 16:58 14.12.2019
2635 Clear 24 1017 50 10000 3.1 30 16:39 14.12.2019
2636 Clear 24 1017 50 10000 3.1 30 16:18 14.12.2019
2637 Clear 25 1016 50 10000 2.6 350 15:43 14.12.2019
2638 Clear 25 1016 50 10000 2.6 350 15:22 14.12.2019
2639 Clear 26 1016 44 10000 3.6 350 14:59 14.12.2019
2640 Clear 26 1016 44 10000 3.6 350 14:38 14.12.2019
2641 Clear 26 1016 44 10000 3.6 350 14:19 14.12.2019
2642 Clear 28 1016 39 10000 4.6 360 13:55 14.12.2019
2643 Clear 28 1016 39 10000 4.6 360 13:37 14.12.2019
2644 Clear 28 1016 39 10000 4.6 360 13:18 14.12.2019
2645 Clear 28 1016 39 10000 4.1 330 12:54 14.12.2019
2646 Clear 28 1016 39 10000 4.1 330 12:36 14.12.2019
2647 Clear 28 1016 39 10000 4.1 330 12:18 14.12.2019
2648 Clear 28 1016 42 10000 4.1 310 11:54 14.12.2019
2649 Clear 28 1016 42 10000 4.1 310 11:36 14.12.2019
2650 Clear 28 1016 42 10000 4.1 310 11:18 14.12.2019
2651 Clear 28 1017 37 10000 2.6 250 10:55 14.12.2019
2652 Clear 28 1017 37 10000 2.6 250 10:36 14.12.2019
2653 Clear 28 1017 37 10000 2.6 250 10:18 14.12.2019
2654 Clear 28 1018 37 10000 1.5 160 09:40 14.12.2019
2655 Clear 28 1018 37 10000 1.5 160 09:20 14.12.2019
2656 Clear 27 1019 44 10000 2.1 0 08:43 14.12.2019
2657 Clear 29 1019 44 10000 2.1 0 08:20 14.12.2019
2658 Clear 28 1019 50 10000 2.6 0 07:55 14.12.2019
2659 Clear 28 1019 50 10000 2.6 0 07:36 14.12.2019
2660 Clear 28 1019 50 10000 2.6 0 07:18 14.12.2019
2661 Clear 27 1000 26 6000 4.1 200 06:39 14.12.2019
2662 Clear 23 1018 50 10000 1.5 240 06:18 14.12.2019
2663 Clear 21 1017 56 10000 1.5 150 05:20 14.12.2019
2664 Clear 21 1016 69 10000 2.1 110 02:44 14.12.2019
2665 Clouds 21 1016 69 10000 2.1 110 02:22 14.12.2019
2666 Clouds 21 1015 64 10000 2.1 80 01:37 14.12.2019
2667 Clouds 21 1015 64 10000 2.6 90 00:50 14.12.2019
2668 Clouds 21 1015 64 10000 2.6 90 00:29 14.12.2019
2669 Clouds 21 1015 64 10000 2.6 90 00:29 14.12.2019
2670 Clouds 21 1015 64 10000 2.1 90 23:57 13.12.2019
2671 Clouds 21 1015 64 10000 2.1 90 23:38 13.12.2019
2672 Clouds 21 1015 64 10000 2.1 90 23:19 13.12.2019
2673 Clouds 22 1015 69 10000 3.1 80 22:55 13.12.2019
2674 Clouds 22 1015 69 10000 3.1 80 22:36 13.12.2019
2675 Clouds 22 1015 69 10000 3.1 80 22:18 13.12.2019
2676 Clouds 22 1015 60 10000 3.1 90 21:39 13.12.2019
2677 Clouds 22 1015 60 10000 3.1 90 21:21 13.12.2019
2678 Clouds 22 1015 60 10000 3.1 60 20:54 13.12.2019
2679 Clouds 22 1015 60 10000 3.1 60 20:36 13.12.2019
2680 Clouds 22 1015 60 10000 3.1 60 20:36 13.12.2019
2681 Clouds 23 1015 60 10000 3.1 40 20:18 13.12.2019
2682 Clouds 23 1015 60 10000 3.1 40 19:42 13.12.2019
2683 Clouds 23 1015 60 10000 3.1 40 19:23 13.12.2019
2684 Clouds 23 1015 57 10000 3.1 60 18:59 13.12.2019
2685 Clouds 23 1015 57 10000 3.1 60 18:41 13.12.2019
2686 Clouds 23 1015 57 10000 3.1 60 18:19 13.12.2019
2687 Clouds 23 1015 60 10000 3.1 50 17:57 13.12.2019
2688 Clouds 23 1015 60 10000 3.1 50 17:39 13.12.2019
2689 Clouds 23 1015 60 10000 3.1 50 17:18 13.12.2019
2690 Clouds 23 1014 57 10000 3.6 50 16:54 13.12.2019
2691 Clouds 24 1014 57 10000 3.6 50 16:36 13.12.2019
2692 Clouds 24 1014 57 10000 3.6 50 16:18 13.12.2019
2693 Clouds 24 1014 57 10000 4.1 20 15:40 13.12.2019
2694 Clouds 24 1014 57 10000 4.1 20 15:20 13.12.2019
2695 Clouds 25 1013 57 10000 4.6 20 14:55 13.12.2019
2696 Clouds 25 1013 57 10000 4.6 20 14:36 13.12.2019
2697 Clear 25 1013 57 10000 4.6 20 14:18 13.12.2019
2698 Clear 26 1013 50 10000 5.7 20 13:41 13.12.2019
2699 Clear 26 1013 50 10000 5.7 20 13:21 13.12.2019
2700 Clear 27 1013 36 10000 2.1 110 12:44 13.12.2019
2701 Clear 27 1013 36 10000 2.1 110 12:24 13.12.2019
2702 Clear 27 1013 42 10000 2.1 0 11:59 13.12.2019
2703 Clear 27 1013 42 10000 2.1 0 11:41 13.12.2019
2704 Clouds 27 1013 42 10000 2.1 0 11:23 13.12.2019
2705 Clouds 26 1014 44 10000 2.1 120 10:56 13.12.2019
2706 Clouds 26 1014 44 10000 2.1 120 10:38 13.12.2019
2707 Clouds 26 1014 44 10000 2.1 120 10:19 13.12.2019
2708 Clouds 25 1015 50 10000 3.6 80 09:41 13.12.2019
2709 Clouds 25 1015 50 10000 3.6 80 09:20 13.12.2019
2710 Clouds 24 1015 53 10000 3.1 140 08:44 13.12.2019
2711 Clouds 23 1015 53 10000 3.1 140 08:25 13.12.2019
2712 Clear 22 1016 60 10000 3.6 160 07:48 13.12.2019
2713 Clear 21 1016 60 10000 3.6 160 07:24 13.12.2019
2714 Clear 20 1015 64 10000 1.5 120 06:55 13.12.2019
2715 Clear 20 1015 64 10000 1.5 120 06:29 13.12.2019
2716 Clear 17 1014 68 10000 1 0 05:51 13.12.2019
2717 Clear 17 1014 68 10000 1 0 05:30 13.12.2019
2718 Clear 17 1014 72 10000 2.1 150 04:48 13.12.2019
2719 Clear 17 1013 72 10000 2.6 160 03:49 13.12.2019
2720 Clear 17 1013 72 10000 1.5 150 02:35 13.12.2019
2721 Clouds 17 1012 72 10000 2.1 140 01:49 13.12.2019
2722 Clouds 17 1012 72 10000 2.1 140 01:19 13.12.2019
2723 Clouds 18 1013 68 10000 2.1 130 00:45 13.12.2019
2724 Clouds 18 1013 68 10000 2.1 130 00:22 13.12.2019
2725 Clouds 18 1013 68 10000 2.6 150 23:41 12.12.2019
2726 Clouds 18 1013 68 10000 2.6 150 23:22 12.12.2019
2727 Clouds 19 1013 68 10000 1.5 140 22:56 12.12.2019
2728 Clouds 19 1013 68 10000 1.5 140 22:37 12.12.2019
2729 Clouds 20 1013 64 10000 1 0 22:19 12.12.2019
2730 Clouds 20 1013 64 10000 1 0 21:55 12.12.2019
2731 Clouds 20 1013 64 10000 1 0 21:37 12.12.2019
2732 Clouds 20 1013 64 10000 1 0 21:37 12.12.2019
2733 Clouds 20 1013 64 10000 1 0 21:18 12.12.2019
2734 Clouds 20 1013 64 10000 1.5 170 20:56 12.12.2019
2735 Clouds 20 1013 64 10000 1.5 170 20:38 12.12.2019
2736 Clear 20 1013 64 10000 1.5 170 20:20 12.12.2019
2737 Clear 21 1013 57 10000 1.5 120 19:43 12.12.2019
2738 Clear 21 1013 57 10000 1.5 120 19:23 12.12.2019
2739 Clouds 22 1013 53 10000 1.5 260 18:58 12.12.2019
2740 Clouds 22 1013 53 10000 1.5 260 18:40 12.12.2019
2741 Clouds 22 1013 53 10000 1.5 260 18:21 12.12.2019
2742 Clouds 22 1013 53 10000 1.5 260 18:21 12.12.2019
2743 Clouds 23 1013 53 10000 3.6 290 17:59 12.12.2019
2744 Clouds 23 1013 53 10000 3.6 290 17:40 12.12.2019
2745 Clouds 23 1013 53 10000 3.6 290 17:21 12.12.2019
2746 Clouds 23 1012 50 10000 3.6 290 16:59 12.12.2019
2747 Clouds 24 1012 50 10000 3.6 290 16:41 12.12.2019
2748 Clouds 24 1012 50 10000 3.6 290 16:21 12.12.2019
2749 Clouds 24 1012 50 10000 4.1 300 15:58 12.12.2019
2750 Clouds 24 1012 50 10000 4.1 300 15:40 12.12.2019
2751 Clouds 24 1012 50 10000 4.1 300 15:19 12.12.2019
2752 Clouds 25 1011 50 10000 5.7 290 14:56 12.12.2019
2753 Clouds 25 1011 50 10000 5.7 290 14:36 12.12.2019
2754 Clouds 25 1011 50 10000 5.7 290 14:36 12.12.2019
2755 Clouds 25 1011 50 10000 5.7 290 14:18 12.12.2019
2756 Clouds 25 1011 47 10000 6.2 320 13:54 12.12.2019
2757 Clouds 25 1011 47 10000 6.2 320 13:36 12.12.2019
2758 Clouds 25 1011 47 10000 6.2 320 13:18 12.12.2019
2759 Clouds 26 1011 47 10000 6.2 300 12:41 12.12.2019
2760 Clouds 26 1011 47 10000 6.2 300 12:41 12.12.2019
2761 Clouds 26 1012 44 10000 6.7 300 12:22 12.12.2019
2762 Clouds 26 1012 44 10000 6.7 300 11:59 12.12.2019
2763 Clouds 26 1012 44 10000 6.7 300 11:39 12.12.2019
2764 Clouds 26 1012 44 10000 6.7 300 11:39 12.12.2019
2765 Clouds 26 1012 44 10000 6.7 300 11:21 12.12.2019
2766 Clouds 26 1012 50 10000 6.2 300 10:57 12.12.2019
2767 Clouds 26 1012 50 10000 6.2 300 10:57 12.12.2019
2768 Clouds 26 1012 50 10000 6.2 300 10:39 12.12.2019
2769 Clouds 26 1012 50 10000 6.2 300 10:21 12.12.2019
2770 Clouds 26 1013 50 10000 7.2 310 09:55 12.12.2019
2771 Clouds 26 1013 50 10000 7.2 310 09:55 12.12.2019
2772 Clouds 26 1013 50 10000 7.2 310 09:37 12.12.2019
2773 Clouds 25 1014 53 10000 6.2 290 09:19 12.12.2019
2774 Clouds 25 1014 53 10000 6.2 290 08:46 12.12.2019
2775 Clouds 25 1014 53 10000 6.2 290 08:27 12.12.2019
2776 Clouds 25 1014 53 10000 7.2 300 07:50 12.12.2019
2777 Clouds 25 1014 53 10000 7.2 300 07:27 12.12.2019
2778 Clouds 24 1013 50 10000 5.7 300 06:56 12.12.2019
2779 Clouds 24 1013 50 10000 5.7 300 06:35 12.12.2019
2780 Clouds 22 1013 57 10000 4.1 270 05:42 12.12.2019
2781 Clouds 21 1012 60 10000 5.1 290 04:55 12.12.2019
2782 Clouds 21 1012 60 10000 5.1 290 04:23 12.12.2019
2783 Clouds 20 1012 88 6000 2.1 190 02:40 12.12.2019
2784 Clouds 20 1012 88 6000 2.1 190 02:22 12.12.2019
2785 Clouds 21 1012 83 8000 3.1 220 01:54 12.12.2019
2786 Clouds 21 1012 83 8000 3.1 220 01:32 12.12.2019
2787 Clouds 20 1012 88 6000 2.1 220 00:47 12.12.2019
2788 Clouds 20 1012 88 6000 2.1 220 00:21 12.12.2019
2789 Clouds 20 1012 88 7000 2.6 220 23:45 11.12.2019
2790 Clouds 21 1012 88 7000 2.6 220 23:21 11.12.2019
2791 Clouds 21 1012 83 10000 2.1 200 22:59 11.12.2019
2792 Clouds 21 1012 83 10000 2.1 200 22:39 11.12.2019
2793 Clouds 21 1012 83 10000 2.1 200 22:20 11.12.2019
2794 Clouds 22 1012 78 10000 2.1 0 21:59 11.12.2019
2795 Clouds 22 1012 78 10000 2.1 0 21:39 11.12.2019
2796 Clouds 22 1012 78 10000 2.1 0 21:20 11.12.2019
2797 Clouds 22 1013 73 10000 2.1 270 20:57 11.12.2019
2798 Clouds 22 1013 73 10000 2.1 270 20:39 11.12.2019
2799 Clouds 22 1013 73 10000 2.1 270 20:19 11.12.2019
2800 Clouds 23 1013 78 10000 2.6 290 19:58 11.12.2019
2801 Clouds 23 1013 78 10000 2.6 290 19:40 11.12.2019
2802 Clouds 23 1013 78 10000 2.6 290 19:20 11.12.2019
2803 Clouds 23 1013 78 10000 3.6 320 18:55 11.12.2019
2804 Clouds 23 1013 78 10000 3.6 320 18:37 11.12.2019
2805 Clouds 23 1013 78 10000 3.6 320 18:37 11.12.2019
2806 Clouds 23 1013 78 10000 3.6 320 18:18 11.12.2019
2807 Clouds 23 1013 73 10000 4.1 330 17:54 11.12.2019
2808 Clouds 23 1013 73 10000 4.1 330 17:36 11.12.2019
2809 Clear 23 1013 73 10000 4.1 330 17:18 11.12.2019
2810 Clear 23 1012 73 10000 3.6 320 16:55 11.12.2019
2811 Clear 24 1012 73 10000 3.6 320 16:36 11.12.2019
2812 Clear 24 1012 73 10000 3.6 320 16:18 11.12.2019
2813 Clear 24 1012 73 10000 4.1 320 15:41 11.12.2019
2814 Clear 24 1012 73 10000 4.1 320 15:23 11.12.2019
2815 Clear 25 1012 69 10000 4.6 320 14:57 11.12.2019
2816 Clear 25 1012 69 10000 4.6 320 14:39 11.12.2019
2817 Clear 25 1012 69 10000 4.6 320 14:20 11.12.2019
2818 Clouds 26 1012 69 10000 5.1 320 13:56 11.12.2019
2819 Clouds 26 1012 69 10000 5.1 320 13:38 11.12.2019
2820 Clouds 26 1012 69 10000 5.1 320 13:19 11.12.2019
2821 Clouds 26 1012 57 10000 2.6 220 12:57 11.12.2019
2822 Clouds 26 1012 57 10000 2.6 220 12:38 11.12.2019
2823 Clouds 26 1012 57 10000 2.6 220 12:19 11.12.2019
2824 Clouds 26 1012 57 10000 2.6 220 12:19 11.12.2019
2825 Clouds 26 1012 61 10000 4.1 250 11:57 11.12.2019
2826 Clouds 26 1012 61 10000 4.1 250 11:38 11.12.2019
2827 Clouds 26 1012 61 10000 4.1 250 11:18 11.12.2019
2828 Clouds 26 1012 61 10000 4.1 250 11:18 11.12.2019
2829 Clouds 26 1013 61 10000 5.1 190 10:55 11.12.2019
2830 Clouds 25 1013 61 10000 5.1 190 10:37 11.12.2019
2831 Clouds 25 1013 61 10000 5.1 190 10:19 11.12.2019
2832 Clouds 24 1014 69 10000 5.1 180 09:41 11.12.2019
2833 Clouds 24 1014 69 10000 5.1 180 09:21 11.12.2019
2834 Clouds 22 1015 88 10000 3.1 160 08:58 11.12.2019
2835 Clouds 22 1015 88 10000 3.1 160 08:38 11.12.2019
2836 Clouds 22 1015 88 10000 3.1 160 08:19 11.12.2019
2837 Rain 20 1016 94 7000 3.6 120 07:56 11.12.2019
2838 Rain 20 1016 94 7000 3.6 120 07:38 11.12.2019
2839 Rain 20 1016 94 7000 3.6 120 07:19 11.12.2019
2840 Rain 20 1016 94 4500 1.5 0 06:44 11.12.2019
2841 Rain 20 1016 94 4500 1.5 0 06:22 11.12.2019
2842 Rain 20 1015 94 3000 5.7 70 05:41 11.12.2019
2843 Rain 20 1015 94 3000 5.7 70 05:20 11.12.2019
2844 Rain 20 1014 88 10000 8.2 50 04:28 11.12.2019
2845 Rain 22 1013 83 10000 5.1 50 02:49 11.12.2019
2846 Rain 22 1013 78 10000 7.2 30 01:25 11.12.2019
2847 Rain 23 1012 88 10000 3.6 50 00:47 11.12.2019
2848 Rain 23 1012 88 10000 3.6 50 00:22 11.12.2019
2849 Rain 23 1012 78 10000 5.1 50 23:50 10.12.2019
2850 Rain 23 1012 78 10000 5.1 50 23:30 10.12.2019
2851 Clouds 23 1013 78 10000 3.1 60 22:59 10.12.2019
2852 Clouds 23 1013 78 10000 3.1 60 22:40 10.12.2019
2853 Clouds 23 1013 78 10000 3.1 60 22:40 10.12.2019
2854 Clouds 23 1013 78 10000 3.1 60 22:40 10.12.2019
2855 Clouds 23 1013 78 10000 3.1 60 22:22 10.12.2019
2856 Clouds 23 1013 78 10000 3.6 40 21:57 10.12.2019
2857 Clouds 23 1013 78 10000 3.6 40 21:39 10.12.2019
2858 Clouds 23 1013 78 10000 3.6 40 21:21 10.12.2019
2859 Clouds 23 1013 78 10000 3.6 40 21:21 10.12.2019
2860 Clouds 23 1014 73 10000 3.6 80 20:57 10.12.2019
2861 Clouds 23 1014 73 10000 3.6 80 20:38 10.12.2019
2862 Clouds 23 1014 73 10000 3.6 80 20:38 10.12.2019
2863 Clouds 23 1014 73 10000 3.6 80 20:19 10.12.2019
2864 Clouds 23 1014 69 10000 3.6 70 19:55 10.12.2019
2865 Clouds 23 1014 69 10000 3.6 70 19:37 10.12.2019
2866 Clouds 23 1014 69 10000 3.6 70 19:19 10.12.2019
2867 Clouds 23 1015 73 10000 4.6 50 18:41 10.12.2019
2868 Clouds 23 1015 73 10000 4.6 50 18:21 10.12.2019
2869 Clouds 23 1015 78 10000 5.1 50 17:58 10.12.2019
2870 Clouds 23 1015 78 10000 5.1 50 17:40 10.12.2019
2871 Clouds 23 1015 78 10000 5.1 50 17:40 10.12.2019
2872 Clouds 23 1015 78 10000 5.1 50 17:20 10.12.2019
2873 Clouds 24 1015 78 10000 4.6 50 16:54 10.12.2019
2874 Clouds 24 1015 78 10000 4.6 50 16:36 10.12.2019
2875 Clouds 24 1015 78 10000 4.6 50 16:18 10.12.2019
2876 Clouds 24 1014 78 10000 6.2 50 15:38 10.12.2019
2877 Clouds 24 1014 78 10000 6.2 50 15:18 10.12.2019
2878 Clouds 25 1014 73 9000 6.2 30 14:56 10.12.2019
2879 Clouds 25 1014 73 9000 6.2 30 14:37 10.12.2019
2880 Rain 25 1014 73 9000 6.2 30 14:19 10.12.2019
2881 Rain 25 1014 73 10000 4.6 30 13:57 10.12.2019
2882 Rain 25 1014 73 10000 4.6 30 13:38 10.12.2019
2883 Clouds 25 1014 73 10000 4.6 30 13:19 10.12.2019
2884 Clouds 25 1014 65 8000 3.6 60 12:47 10.12.2019
2885 Clouds 25 1014 65 8000 3.6 60 12:26 10.12.2019
2886 Clouds 25 1014 73 8000 2.6 80 11:55 10.12.2019
2887 Clouds 25 1014 73 8000 2.6 80 11:36 10.12.2019
2888 Clouds 24 1014 73 8000 2.6 80 11:18 10.12.2019
2889 Rain 24 1016 73 8000 2.1 40 10:42 10.12.2019
2890 Rain 24 1016 73 8000 2.1 40 10:23 10.12.2019
2891 Rain 24 1017 78 8000 4.1 20 09:56 10.12.2019
2892 Rain 24 1017 78 8000 4.1 20 09:56 10.12.2019
2893 Rain 24 1017 78 8000 4.1 20 09:38 10.12.2019
2894 Rain 24 1017 78 8000 4.1 20 09:20 10.12.2019
2895 Rain 23 1018 83 8000 3.1 50 08:57 10.12.2019
2896 Rain 23 1018 83 8000 3.1 50 08:38 10.12.2019
2897 Rain 23 1018 83 8000 3.1 50 08:19 10.12.2019
2898 Rain 23 1018 83 8000 3.1 50 08:19 10.12.2019
2899 Rain 22 1019 83 8000 4.6 50 07:44 10.12.2019
2900 Rain 23 1019 83 8000 4.6 50 07:26 10.12.2019
2901 Rain 23 1019 83 8000 4.6 50 07:26 10.12.2019
2902 Rain 23 1018 73 7000 2.6 80 06:49 10.12.2019
2903 Rain 23 1018 73 7000 2.6 80 06:24 10.12.2019
2904 Rain 21 1016 78 10000 3.1 100 05:55 10.12.2019
2905 Rain 21 1016 78 10000 3.1 100 05:19 10.12.2019
2906 Rain 20 1015 83 10000 3.1 80 03:54 10.12.2019
2907 Rain 21 1015 73 10000 2.1 60 02:48 10.12.2019
2908 Rain 20 1015 73 10000 2.6 80 01:54 10.12.2019
2909 Rain 20 1015 73 10000 2.6 80 01:26 10.12.2019
2910 Rain 21 1015 69 10000 4.6 110 00:51 10.12.2019
2911 Rain 21 1015 69 10000 4.6 110 00:24 10.12.2019
2912 Rain 21 1016 78 10000 2.1 80 23:45 09.12.2019
2913 Rain 21 1016 78 10000 2.1 80 23:24 09.12.2019
2914 Clear 21 1016 78 10000 2.1 90 22:59 09.12.2019
2915 Clear 21 1016 78 10000 2.1 90 22:40 09.12.2019
2916 Clear 22 1016 78 10000 2.1 90 22:21 09.12.2019
2917 Clouds 22 1016 69 10000 2.6 100 21:58 09.12.2019
2918 Clouds 22 1016 69 10000 2.6 100 21:39 09.12.2019
2919 Clouds 22 1016 69 10000 2.6 100 21:19 09.12.2019
2920 Clear 23 1016 65 10000 2.6 90 20:57 09.12.2019
2921 Clear 23 1016 65 10000 2.6 90 20:39 09.12.2019
2922 Clear 23 1016 65 10000 2.6 90 20:20 09.12.2019
2923 Clear 23 1017 69 10000 2.6 0 19:56 09.12.2019
2924 Clear 23 1017 69 10000 2.6 0 19:38 09.12.2019
2925 Clear 23 1017 69 10000 2.6 0 19:38 09.12.2019
2926 Clear 23 1017 69 10000 2.6 0 19:19 09.12.2019
2927 Clear 23 1017 69 10000 2.6 0 19:19 09.12.2019
2928 Clear 23 1016 69 10000 3.1 80 18:58 09.12.2019
2929 Clear 23 1016 69 10000 3.1 80 18:39 09.12.2019
2930 Clear 23 1016 69 10000 3.1 80 18:20 09.12.2019
2931 Clear 24 1016 69 10000 3.1 50 17:58 09.12.2019
2932 Clear 24 1016 69 10000 3.1 50 17:40 09.12.2019
2933 Clear 24 1016 69 10000 3.1 50 17:21 09.12.2019
2934 Clear 24 1016 73 10000 4.1 80 16:56 09.12.2019
2935 Clear 24 1016 73 10000 4.1 80 16:56 09.12.2019
2936 Clear 24 1016 73 10000 4.1 80 16:38 09.12.2019
2937 Clear 24 1016 73 10000 4.1 80 16:20 09.12.2019
2938 Clear 25 1015 73 10000 4.6 30 15:56 09.12.2019
2939 Clear 25 1015 73 10000 4.6 30 15:56 09.12.2019
2940 Clear 25 1015 73 10000 4.6 30 15:37 09.12.2019
2941 Clear 25 1015 73 10000 4.6 30 15:19 09.12.2019
2942 Clear 26 1015 65 10000 3.6 20 14:57 09.12.2019
2943 Clear 26 1015 65 10000 3.6 20 14:39 09.12.2019
2944 Clear 26 1015 65 10000 3.6 20 14:18 09.12.2019
2945 Clear 26 1015 65 10000 4.6 350 13:40 09.12.2019
2946 Clear 26 1015 65 10000 4.6 350 13:21 09.12.2019
2947 Clouds 27 1015 61 10000 6.7 340 12:58 09.12.2019
2948 Clouds 27 1015 61 10000 6.7 340 12:58 09.12.2019
2949 Clouds 27 1015 61 10000 6.7 340 12:40 09.12.2019
2950 Clouds 27 1015 61 10000 6.7 340 12:21 09.12.2019
2951 Clouds 28 1015 54 10000 5.1 330 11:59 09.12.2019
2952 Clouds 28 1015 54 10000 5.1 330 11:40 09.12.2019
2953 Clouds 28 1015 54 10000 5.1 330 11:21 09.12.2019
2954 Clouds 28 1015 57 10000 5.7 340 10:57 09.12.2019
2955 Clouds 28 1016 51 10000 2.6 0 10:38 09.12.2019
2956 Clouds 28 1016 51 10000 2.6 0 10:19 09.12.2019
2957 Clouds 28 1016 51 10000 2.6 0 10:19 09.12.2019
2958 Clouds 27 1017 54 10000 3.1 0 09:43 09.12.2019
2959 Clouds 27 1017 54 10000 3.1 0 09:23 09.12.2019
2960 Clear 26 1018 54 10000 3.1 170 08:55 09.12.2019
2961 Clear 26 1018 54 10000 3.1 170 08:37 09.12.2019
2962 Rain 26 1018 54 10000 3.1 170 08:19 09.12.2019
2963 Rain 25 1018 65 10000 1.5 180 07:44 09.12.2019
2964 Rain 24 1018 65 10000 1.5 180 07:25 09.12.2019
2965 Rain 23 1018 69 10000 2.6 0 06:55 09.12.2019
2966 Rain 23 1018 69 10000 2.6 0 06:28 09.12.2019
2967 Rain 20 1017 78 10000 3.1 180 05:30 09.12.2019
2968 Clear 20 1016 78 10000 2.6 180 04:51 09.12.2019
2969 Clear 20 1016 78 10000 2.6 180 04:23 09.12.2019
2970 Clear 20 1016 78 10000 3.1 160 02:27 09.12.2019
2971 Clear 20 1015 73 10000 3.1 120 01:44 09.12.2019
2972 Clear 20 1015 78 10000 3.1 100 00:55 09.12.2019
2973 Clear 20 1015 78 10000 3.1 100 00:32 09.12.2019
2974 Clear 20 1016 78 10000 2.6 60 23:54 08.12.2019
2975 Clear 20 1016 78 10000 2.6 60 23:36 08.12.2019
2976 Clear 20 1016 78 10000 2.6 60 23:18 08.12.2019
2977 Clear 21 1015 73 10000 2.6 100 22:56 08.12.2019
2978 Clear 21 1015 73 10000 2.6 100 22:37 08.12.2019
2979 Clear 21 1015 73 10000 2.6 100 22:18 08.12.2019
2980 Clear 21 1016 78 10000 3.1 100 21:54 08.12.2019
2981 Clear 21 1016 78 10000 3.1 100 21:36 08.12.2019
2982 Clear 21 1016 78 10000 3.1 100 21:18 08.12.2019
2983 Clear 21 1016 73 10000 2.6 70 20:54 08.12.2019
2984 Clear 21 1016 73 10000 2.6 70 20:54 08.12.2019
2985 Clear 21 1016 73 10000 2.6 70 20:36 08.12.2019
2986 Clear 21 1016 73 10000 2.6 70 20:18 08.12.2019
2987 Clear 22 1016 73 10000 3.1 80 19:42 08.12.2019
2988 Clear 22 1016 73 10000 3.1 80 19:24 08.12.2019
2989 Clear 22 1016 73 10000 3.6 80 18:56 08.12.2019
2990 Clear 22 1016 73 10000 3.6 80 18:37 08.12.2019
2991 Clear 22 1016 73 10000 3.6 80 18:37 08.12.2019
2992 Clear 22 1016 73 10000 3.6 80 18:19 08.12.2019
2993 Clear 23 1016 65 10000 3.6 50 17:57 08.12.2019
2994 Clear 23 1016 65 10000 3.6 50 17:39 08.12.2019
2995 Clear 23 1016 65 10000 3.6 50 17:20 08.12.2019
2996 Clear 24 1015 65 10000 2.6 30 16:58 08.12.2019
2997 Clear 24 1015 65 10000 2.6 30 16:40 08.12.2019
2998 Clear 24 1015 65 10000 2.6 30 16:22 08.12.2019
2999 Clear 25 1015 61 10000 3.1 340 15:57 08.12.2019
3000 Clear 25 1015 61 10000 3.1 340 15:37 08.12.2019
3001 Clear 25 1015 61 10000 3.1 340 15:18 08.12.2019
3002 Clear 26 1014 57 10000 4.1 340 14:44 08.12.2019
3003 Clear 26 1014 57 10000 4.1 340 14:25 08.12.2019
3004 Clouds 26 1014 54 10000 4.6 350 13:59 08.12.2019
3005 Clouds 26 1014 54 10000 4.6 350 13:40 08.12.2019
3006 Clouds 26 1014 54 10000 4.6 350 13:22 08.12.2019
3007 Clouds 27 1014 51 10000 3.6 340 12:59 08.12.2019
3008 Clouds 27 1014 51 10000 3.6 340 12:39 08.12.2019
3009 Clouds 27 1014 51 10000 3.6 340 12:19 08.12.2019
3010 Clouds 27 1014 45 10000 1.5 160 11:57 08.12.2019
3011 Clouds 27 1014 45 10000 1.5 160 11:37 08.12.2019
3012 Clouds 27 1014 45 10000 1.5 160 11:19 08.12.2019
3013 Clouds 27 1015 47 10000 1.5 90 10:55 08.12.2019
3014 Clouds 27 1015 47 10000 1.5 90 10:36 08.12.2019
3015 Clouds 27 1015 47 10000 1.5 90 10:36 08.12.2019
3016 Clouds 27 1015 47 10000 1.5 90 10:18 08.12.2019
3017 Clouds 26 1016 57 10000 2.1 0 09:54 08.12.2019
3018 Clouds 26 1016 57 10000 2.1 0 09:36 08.12.2019
3019 Clouds 26 1016 57 10000 2.1 0 09:18 08.12.2019
3020 Clouds 25 1017 65 10000 3.6 110 08:41 08.12.2019
3021 Rain 24 1017 65 10000 3.6 110 08:23 08.12.2019
3022 Rain 24 1017 64 10000 3.1 110 07:49 08.12.2019
3023 Rain 23 1017 64 10000 3.1 110 07:21 08.12.2019
3024 Rain 22 1017 69 10000 3.1 100 06:59 08.12.2019
3025 Rain 22 1017 69 10000 3.1 100 06:39 08.12.2019
3026 Rain 22 1017 69 10000 3.1 100 06:19 08.12.2019
3027 Rain 21 1017 78 9000 2.6 90 05:23 08.12.2019
3028 Rain 21 1016 78 10000 1.5 80 04:23 08.12.2019
3029 Rain 21 1016 83 10000 2.6 110 03:38 08.12.2019
3030 Rain 21 1015 88 10000 4.6 120 02:42 08.12.2019
3031 Rain 21 1015 88 10000 4.6 120 02:20 08.12.2019
3032 Clouds 21 1015 83 10000 2.6 100 01:35 08.12.2019
3033 Clouds 21 1016 83 10000 3.1 100 00:52 08.12.2019
3034 Clouds 21 1016 83 10000 3.1 100 00:23 08.12.2019
3035 Clouds 21 1016 88 10000 2.1 40 23:57 07.12.2019
3036 Clouds 21 1016 88 10000 2.1 40 23:37 07.12.2019
3037 Clouds 21 1016 88 10000 2.1 40 23:18 07.12.2019
3038 Rain 22 1016 83 8000 2.6 70 22:55 07.12.2019
3039 Rain 22 1016 83 8000 2.6 70 22:36 07.12.2019
3040 Rain 22 1016 83 8000 2.6 70 22:18 07.12.2019
3041 Rain 22 1016 78 10000 2.1 50 21:55 07.12.2019
3042 Rain 22 1016 78 10000 2.1 50 21:37 07.12.2019
3043 Rain 22 1016 78 10000 2.1 50 21:18 07.12.2019
3044 Clouds 22 1017 78 10000 3.1 0 20:38 07.12.2019
3045 Clouds 22 1017 78 10000 3.1 0 20:20 07.12.2019
3046 Rain 22 1017 73 10000 2.1 0 19:57 07.12.2019
3047 Rain 22 1017 73 10000 2.1 0 19:39 07.12.2019
3048 Rain 22 1017 73 10000 2.1 0 19:21 07.12.2019
3049 Rain 24 1017 73 10000 3.6 160 18:58 07.12.2019
3050 Rain 24 1017 73 10000 3.6 160 18:58 07.12.2019
3051 Rain 24 1017 73 10000 3.6 160 18:39 07.12.2019
3052 Rain 24 1017 73 10000 3.6 160 18:18 07.12.2019
3053 Rain 24 1016 61 10000 3.1 150 17:55 07.12.2019
3054 Rain 24 1016 61 10000 3.1 150 17:37 07.12.2019
3055 Rain 24 1016 61 10000 3.1 150 17:18 07.12.2019
3056 Rain 25 1016 57 10000 5.1 170 16:55 07.12.2019
3057 Rain 25 1016 57 10000 5.1 170 16:36 07.12.2019
3058 Rain 25 1016 57 10000 5.1 170 16:18 07.12.2019
3059 Rain 26 1015 42 10000 3.1 170 15:41 07.12.2019
3060 Rain 26 1015 42 10000 3.1 170 15:22 07.12.2019
3061 Clouds 27 1015 42 9000 5.1 160 14:43 07.12.2019
3062 Clouds 27 1015 42 9000 5.1 160 14:20 07.12.2019
3063 Clouds 29 1014 28 10000 3.1 180 13:59 07.12.2019
3064 Clouds 29 1014 28 10000 3.1 180 13:40 07.12.2019
3065 Clouds 29 1014 28 10000 3.1 180 13:20 07.12.2019
3066 Clouds 29 1014 30 10000 4.1 120 12:55 07.12.2019
3067 Clouds 29 1014 30 10000 4.1 120 12:37 07.12.2019
3068 Clouds 29 1015 30 10000 4.6 130 12:18 07.12.2019
3069 Clouds 29 1015 30 10000 4.6 130 11:42 07.12.2019
3070 Clouds 29 1015 30 10000 4.6 130 11:23 07.12.2019
3071 Clear 29 1015 30 10000 3.6 140 10:58 07.12.2019
3072 Clear 29 1015 30 10000 3.6 140 10:37 07.12.2019
3073 Clear 29 1015 30 10000 3.6 140 10:18 07.12.2019
3074 Clear 29 1016 32 10000 5.7 140 09:40 07.12.2019
3075 Clear 29 1016 32 10000 5.7 140 09:21 07.12.2019
3076 Clear 29 1016 32 10000 5.7 140 09:21 07.12.2019
3077 Clear 27 1017 42 10000 7.2 120 08:46 07.12.2019
3078 Clear 27 1017 42 10000 7.2 120 08:46 07.12.2019
3079 Clear 27 1017 42 10000 7.2 120 08:25 07.12.2019
3080 Clear 26 1018 54 10000 6.2 120 07:53 07.12.2019
3081 Clear 26 1018 54 10000 6.2 120 07:53 07.12.2019
3082 Clear 25 1018 54 10000 6.2 120 07:29 07.12.2019
3083 Clear 23 1018 57 10000 5.7 120 06:53 07.12.2019
3084 Clear 23 1018 57 10000 5.7 120 06:27 07.12.2019
3085 Clear 21 1018 56 10000 5.1 110 05:49 07.12.2019
3086 Clear 19 1017 60 10000 3.1 120 04:48 07.12.2019
3087 Clear 19 1017 60 10000 3.1 120 04:48 07.12.2019
3088 Clear 19 1016 56 10000 2.6 100 03:51 07.12.2019
3089 Clear 19 1016 52 10000 2.6 90 02:23 07.12.2019
3090 Clear 19 1016 53 10000 2.6 90 01:51 07.12.2019
3091 Clear 19 1016 53 10000 2.6 90 01:25 07.12.2019
3092 Clear 19 1016 60 10000 3.6 80 00:36 07.12.2019
3093 Clear 19 1016 60 10000 3.6 80 00:18 07.12.2019
3094 Clear 19 1016 60 10000 3.6 80 00:18 07.12.2019
3095 Clear 19 1017 60 10000 3.6 70 23:42 06.12.2019
3096 Clear 20 1017 60 10000 3.6 70 23:20 06.12.2019
3097 Clear 21 1017 60 10000 2.1 60 22:39 06.12.2019
3098 Clear 21 1017 60 10000 2.1 60 22:39 06.12.2019
3099 Clear 21 1017 60 10000 2.1 60 22:21 06.12.2019
3100 Clear 21 1017 56 10000 1.5 80 21:59 06.12.2019
3101 Clear 21 1017 56 10000 1.5 80 21:41 06.12.2019
3102 Clear 21 1017 56 10000 1.5 80 21:21 06.12.2019
3103 Clear 21 1017 57 10000 2.6 80 20:59 06.12.2019
3104 Clear 21 1017 57 10000 2.6 80 20:41 06.12.2019
3105 Clear 22 1017 57 10000 2.6 80 20:20 06.12.2019
3106 Clear 22 1018 60 10000 3.6 40 19:43 06.12.2019
3107 Clear 22 1018 60 10000 3.6 40 19:24 06.12.2019
3108 Clear 23 1018 57 10000 4.1 40 18:59 06.12.2019
3109 Clear 23 1018 57 10000 4.1 40 18:40 06.12.2019
3110 Clear 23 1018 57 10000 4.1 40 18:21 06.12.2019
3111 Clear 24 1018 53 10000 4.6 50 17:58 06.12.2019
3112 Clear 24 1018 53 10000 4.6 50 17:40 06.12.2019
3113 Clear 24 1018 53 10000 4.6 50 17:22 06.12.2019
3114 Clear 24 1017 57 10000 5.7 40 16:58 06.12.2019
3115 Clear 25 1017 57 10000 5.7 40 16:38 06.12.2019
3116 Clear 25 1017 57 10000 5.7 40 16:19 06.12.2019
3117 Clouds 25 1016 54 10000 6.2 40 15:41 06.12.2019
3118 Clouds 25 1016 54 10000 6.2 40 15:22 06.12.2019
3119 Clouds 26 1016 54 10000 6.2 20 14:58 06.12.2019
3120 Clouds 26 1016 54 10000 6.2 20 14:40 06.12.2019
3121 Clouds 26 1016 54 10000 6.2 20 14:20 06.12.2019
3122 Clouds 27 1016 47 10000 7.2 20 13:46 06.12.2019
3123 Clouds 27 1016 47 10000 7.2 20 13:27 06.12.2019
3124 Clouds 27 1016 47 10000 7.2 10 12:58 06.12.2019
3125 Clouds 27 1016 47 10000 7.2 10 12:39 06.12.2019
3126 Clouds 27 1016 47 10000 7.2 10 12:21 06.12.2019
3127 Clouds 28 1016 48 10000 6.7 30 11:42 06.12.2019
3128 Clouds 27 1016 48 10000 6.7 30 11:23 06.12.2019
3129 Clouds 27 1018 45 10000 3.6 70 10:57 06.12.2019
3130 Clouds 27 1018 45 10000 3.6 70 10:38 06.12.2019
3131 Clouds 27 1018 45 10000 3.6 70 10:20 06.12.2019
3132 Clouds 27 1019 47 10000 4.1 70 09:56 06.12.2019
3133 Clouds 27 1019 47 10000 4.1 70 09:37 06.12.2019
3134 Clouds 27 1019 47 10000 4.1 70 09:19 06.12.2019
3135 Clear 26 1020 50 10000 3.6 80 08:43 06.12.2019
3136 Clear 26 1020 50 10000 3.6 80 08:25 06.12.2019
3137 Clear 24 1020 50 10000 4.6 70 07:42 06.12.2019
3138 Clear 24 1020 50 10000 4.6 70 07:22 06.12.2019
3139 Clear 22 1020 60 10000 2.6 70 06:48 06.12.2019
3140 Clear 21 1020 60 10000 2.6 70 06:25 06.12.2019
3141 Clear 19 1020 64 10000 2.1 90 05:49 06.12.2019
3142 Clear 18 1019 68 10000 3.1 70 03:50 06.12.2019
3143 Clear 19 1019 64 10000 1 0 01:46 06.12.2019
3144 Clear 19 1018 64 10000 0.5 0 00:56 06.12.2019
3145 Clear 19 1018 64 10000 0.5 0 00:24 06.12.2019
3146 Clear 20 1018 60 10000 1.5 40 23:52 05.12.2019
3147 Clear 20 1018 60 10000 1.5 40 23:21 05.12.2019
3148 Clear 20 1019 60 10000 2.1 100 22:58 05.12.2019
3149 Clear 20 1019 60 10000 2.1 100 22:39 05.12.2019
3150 Clear 20 1019 60 10000 2.1 100 22:20 05.12.2019
3151 Clear 20 1019 60 10000 2.1 110 21:58 05.12.2019
3152 Clear 20 1019 60 10000 2.1 110 21:40 05.12.2019
3153 Clear 20 1019 60 10000 2.1 110 21:21 05.12.2019
3154 Clear 21 1019 60 10000 2.6 100 20:57 05.12.2019
3155 Clear 21 1019 60 10000 2.6 100 20:38 05.12.2019
3156 Clear 21 1019 60 10000 2.6 100 20:19 05.12.2019
3157 Clear 22 1019 60 10000 2.1 100 19:43 05.12.2019
3158 Clear 22 1019 60 10000 2.1 100 19:25 05.12.2019
3159 Clear 22 1019 53 10000 1.5 10 18:59 05.12.2019
3160 Clear 22 1019 53 10000 1.5 10 18:39 05.12.2019
3161 Clear 22 1019 53 10000 1.5 10 18:20 05.12.2019
3162 Clear 23 1019 57 10000 3.1 350 17:56 05.12.2019
3163 Clear 23 1019 57 10000 3.1 350 17:37 05.12.2019
3164 Clear 23 1019 57 10000 3.1 350 17:18 05.12.2019
3165 Clear 23 1018 53 10000 4.1 320 16:54 05.12.2019
3166 Clear 23 1018 53 10000 4.1 320 16:36 05.12.2019
3167 Clear 23 1018 53 10000 4.1 320 16:18 05.12.2019
3168 Clear 25 1018 50 10000 4.6 310 15:40 05.12.2019
3169 Clear 25 1018 50 10000 4.6 310 15:21 05.12.2019
3170 Clear 25 1017 50 10000 4.6 350 14:57 05.12.2019
3171 Clear 25 1017 50 10000 4.6 350 14:39 05.12.2019
3172 Clear 25 1017 50 10000 4.6 350 14:20 05.12.2019
3173 Clear 26 1017 50 10000 6.2 310 13:59 05.12.2019
3174 Clear 26 1017 50 10000 6.2 310 13:40 05.12.2019
3175 Clouds 26 1017 50 10000 6.2 310 13:21 05.12.2019
3176 Clouds 26 1017 44 10000 5.7 310 12:59 05.12.2019
3177 Clouds 26 1017 44 10000 5.7 310 12:40 05.12.2019
3178 Clouds 26 1017 44 10000 5.7 310 12:22 05.12.2019
3179 Clouds 27 1018 39 10000 4.1 290 11:56 05.12.2019
3180 Clouds 27 1018 39 10000 4.1 290 11:37 05.12.2019
3181 Clouds 27 1018 39 10000 4.1 290 11:18 05.12.2019
3182 Clouds 26 1018 42 10000 3.1 330 10:54 05.12.2019
3183 Clouds 26 1018 42 10000 3.1 330 10:54 05.12.2019
3184 Clouds 26 1018 42 10000 3.1 330 10:36 05.12.2019
3185 Clouds 26 1018 42 10000 3.1 330 10:18 05.12.2019
3186 Clouds 26 1019 47 10000 3.6 350 09:42 05.12.2019
3187 Clouds 26 1019 47 10000 3.6 350 09:20 05.12.2019
3188 Clouds 26 1020 47 10000 3.6 350 08:57 05.12.2019
3189 Clouds 26 1020 47 10000 3.6 350 08:37 05.12.2019
3190 Clouds 26 1020 47 10000 3.6 350 08:19 05.12.2019
3191 Clouds 25 1020 57 8000 1.5 120 07:44 05.12.2019
3192 Clouds 25 1020 57 8000 1.5 120 07:24 05.12.2019
3193 Haze 23 1020 69 5000 1.5 0 06:49 05.12.2019
3194 Haze 23 1020 69 5000 1.5 0 06:24 05.12.2019
3195 Haze 20 1019 83 4000 2.1 150 05:58 05.12.2019
3196 Haze 20 1019 83 4000 2.1 150 05:38 05.12.2019
3197 Haze 20 1019 83 4000 2.1 150 05:18 05.12.2019
3198 Haze 19 1018 77 5000 1 0 03:43 05.12.2019
3199 Haze 19 1017 83 5000 1 150 02:42 05.12.2019
3200 Haze 19 1017 83 5000 1 150 02:23 05.12.2019
3201 Clear 19 1017 78 6000 1.5 140 01:51 05.12.2019
3202 Clear 19 1017 78 6000 1.5 140 01:51 05.12.2019
3203 Clear 19 1017 78 6000 1.5 140 01:24 05.12.2019
3204 Clouds 20 1017 78 6000 1.5 140 00:46 05.12.2019
3205 Clouds 20 1017 78 6000 1.5 140 00:22 05.12.2019
3206 Clouds 20 1017 78 6000 2.1 160 23:56 04.12.2019
3207 Clouds 20 1017 78 6000 2.1 160 23:37 04.12.2019
3208 Clouds 20 1017 78 6000 2.1 160 23:18 04.12.2019
3209 Rain 20 1018 73 7000 1.5 170 22:39 04.12.2019
3210 Rain 20 1018 73 7000 1.5 170 22:20 04.12.2019
3211 Rain 21 1018 73 10000 2.1 140 21:58 04.12.2019
3212 Rain 21 1018 73 10000 2.1 140 21:39 04.12.2019
3213 Rain 21 1018 73 10000 2.1 140 21:20 04.12.2019
3214 Rain 22 1018 65 10000 3.6 360 20:58 04.12.2019
3215 Rain 22 1018 65 10000 3.6 360 20:40 04.12.2019
3216 Clear 22 1018 65 10000 3.6 360 20:21 04.12.2019
3217 Clear 22 1018 65 10000 2.6 340 19:57 04.12.2019
3218 Clear 22 1018 65 10000 2.6 340 19:38 04.12.2019
3219 Clear 22 1018 65 10000 2.6 340 19:20 04.12.2019
3220 Clear 23 1018 65 10000 1.5 10 18:42 04.12.2019
3221 Clear 23 1018 65 10000 1.5 10 18:24 04.12.2019
3222 Clear 23 1018 65 10000 2.1 360 17:59 04.12.2019
3223 Clear 23 1018 65 10000 2.1 360 17:39 04.12.2019
3224 -273 0 0 0 0 0 17:39 04.12.2019
3225 Clear 23 1018 65 10000 2.1 360 17:20 04.12.2019
3226 Clear 24 1017 65 10000 2.6 350 16:56 04.12.2019
3227 Clear 24 1017 65 10000 2.6 350 16:38 04.12.2019
3228 Clear 24 1017 65 10000 2.6 350 16:19 04.12.2019
3229 Clear 24 1016 65 10000 4.1 340 15:55 04.12.2019
3230 Clear 24 1016 65 10000 4.1 340 15:37 04.12.2019
3231 Clear 24 1016 65 10000 4.1 340 15:18 04.12.2019
3232 Clear 25 1016 57 10000 4.6 340 14:43 04.12.2019
3233 Clear 25 1016 57 10000 4.6 340 14:23 04.12.2019
3234 Clear 26 1015 51 10000 4.1 330 13:57 04.12.2019
3235 Clear 26 1015 51 10000 4.1 330 13:38 04.12.2019
3236 Clear 26 1015 51 10000 4.1 330 13:19 04.12.2019
3237 Clouds 27 1015 47 10000 4.6 340 12:44 04.12.2019
3238 Clouds 27 1015 47 10000 4.6 340 12:24 04.12.2019
3239 Clear 27 1015 42 10000 4.6 340 11:55 04.12.2019
3240 Clear 27 1015 42 10000 4.6 340 11:36 04.12.2019
3241 Clear 27 1015 42 10000 4.6 340 11:18 04.12.2019
3242 Clear 28 1016 42 10000 3.6 360 10:42 04.12.2019
3243 Clear 28 1016 42 10000 3.6 360 10:22 04.12.2019
3244 Clear 28 1017 39 10000 2.1 0 09:55 04.12.2019
3245 Clear 27 1017 39 10000 2.1 0 09:36 04.12.2019
3246 Clear 27 1017 39 10000 2.1 0 09:18 04.12.2019
3247 Clear 27 1017 39 10000 2.1 0 09:18 04.12.2019
3248 Clear 26 1018 39 10000 2.1 70 08:39 04.12.2019
3249 Clear 26 1018 39 10000 2.1 70 08:19 04.12.2019
3250 Clear 24 1018 50 10000 2.1 140 07:47 04.12.2019
3251 Clear 24 1018 50 10000 2.1 140 07:47 04.12.2019
3252 Clear 24 1018 50 10000 2.1 140 07:29 04.12.2019
3253 Clear 21 1018 60 8000 1.5 130 06:34 04.12.2019
3254 Clear 18 1017 73 7000 2.1 140 05:48 04.12.2019
3255 Clear 17 1016 73 6000 1.5 90 04:58 04.12.2019
3256 Clear 18 1016 73 8000 2.1 100 03:54 04.12.2019
3257 Clear 18 1015 68 10000 1.5 130 02:38 04.12.2019
3258 Clear 19 1015 68 10000 1 0 00:50 04.12.2019
3259 Clear 19 1015 68 10000 1 0 00:23 04.12.2019
3260 Clear 19 1015 68 10000 2.1 130 23:57 03.12.2019
3261 Clear 19 1015 68 10000 2.1 130 23:38 03.12.2019
3262 Clear 19 1015 68 10000 2.1 130 23:19 03.12.2019
3263 Clear 19 1015 68 10000 2.6 110 22:40 03.12.2019
3264 Clear 19 1015 68 10000 2.6 110 22:19 03.12.2019
3265 Clear 20 1015 64 10000 2.1 90 21:58 03.12.2019
3266 Clear 20 1015 64 10000 2.1 90 21:38 03.12.2019
3267 Clear 20 1015 64 10000 2.1 90 21:38 03.12.2019
3268 Clear 20 1015 64 10000 2.1 90 21:19 03.12.2019
3269 Clear 20 1015 60 10000 2.6 100 20:57 03.12.2019
3270 Clear 20 1015 60 10000 2.6 100 20:39 03.12.2019
3271 Clear 20 1015 60 10000 2.6 100 20:18 03.12.2019
3272 Clear 22 1016 57 10000 2.6 110 19:55 03.12.2019
3273 Clear 22 1016 57 10000 2.6 110 19:37 03.12.2019
3274 Clear 22 1016 57 10000 2.6 110 19:18 03.12.2019
3275 Clear 22 1016 57 10000 2.6 110 19:18 03.12.2019
3276 Clear 22 1016 53 10000 2.6 340 18:55 03.12.2019
3277 Clear 22 1016 53 10000 2.6 340 18:37 03.12.2019
3278 Clear 22 1016 53 10000 2.6 340 18:19 03.12.2019
3279 Clear 23 1015 50 10000 3.1 340 17:40 03.12.2019
3280 Clear 23 1015 50 10000 3.1 340 17:19 03.12.2019
3281 Clear 24 1015 47 10000 4.1 330 16:59 03.12.2019
3282 Clear 24 1015 47 10000 4.1 330 16:40 03.12.2019
3283 Clear 24 1015 47 10000 4.1 330 16:21 03.12.2019
3284 Clear 25 1014 44 10000 4.6 320 15:59 03.12.2019
3285 Clear 25 1014 44 10000 4.6 320 15:39 03.12.2019
3286 Clear 25 1014 44 10000 4.6 320 15:20 03.12.2019
3287 Clear 26 1014 39 10000 4.6 320 14:56 03.12.2019
3288 Clear 26 1014 39 10000 4.6 320 14:38 03.12.2019
3289 Clear 26 1014 39 10000 4.6 320 14:18 03.12.2019
3290 Clouds 27 1013 36 10000 6.2 320 13:38 03.12.2019
3291 Clouds 27 1013 36 10000 6.2 320 13:20 03.12.2019
3292 Clouds 27 1013 32 10000 2.6 260 12:58 03.12.2019
3293 Clouds 27 1013 32 10000 2.6 260 12:37 03.12.2019
3294 Clouds 27 1013 32 10000 2.6 260 12:18 03.12.2019
3295 Clouds 27 1014 32 10000 3.1 300 11:56 03.12.2019
3296 Clouds 27 1014 32 10000 3.1 300 11:37 03.12.2019
3297 Clouds 27 1014 32 10000 3.1 300 11:19 03.12.2019
3298 Clouds 28 1014 36 10000 2.6 250 10:55 03.12.2019
3299 Clouds 28 1014 36 10000 2.6 250 10:36 03.12.2019
3300 Clouds 28 1014 36 10000 2.6 250 10:18 03.12.2019
3301 Clear 27 1016 42 10000 3.1 220 09:42 03.12.2019
3302 Clear 27 1016 42 10000 3.1 220 09:23 03.12.2019
3303 Clear 26 1016 47 10000 3.6 170 08:56 03.12.2019
3304 Clear 26 1016 47 10000 3.6 170 08:38 03.12.2019
3305 Clear 26 1016 47 10000 3.6 170 08:19 03.12.2019
3306 Clear 24 1016 57 10000 2.1 170 07:51 03.12.2019
3307 Clear 24 1016 57 10000 2.1 170 07:25 03.12.2019
3308 Clear 22 1016 60 10000 2.1 160 06:24 03.12.2019
3309 Clear 19 1016 64 10000 2.1 130 05:59 03.12.2019
3310 Clear 18 1015 68 10000 2.6 100 04:55 03.12.2019
3311 Clear 18 1015 64 10000 2.1 130 03:41 03.12.2019
3312 Clear 18 1015 64 10000 2.1 130 03:20 03.12.2019
3313 Clear 18 1015 64 10000 2.1 130 03:20 03.12.2019
3314 Clear 19 1014 64 10000 2.6 110 02:51 03.12.2019
3315 Clear 19 1014 64 10000 2.6 110 02:31 03.12.2019
3316 Clear 19 1014 68 10000 2.1 110 01:53 03.12.2019
3317 Clear 19 1014 68 10000 2.1 110 01:34 03.12.2019
3318 Clear 19 1015 64 10000 2.6 90 00:57 03.12.2019
3319 Clear 19 1015 64 10000 2.6 90 00:39 03.12.2019
3320 Clear 19 1015 64 10000 2.6 90 00:20 03.12.2019
3321 Clear 19 1015 64 10000 2.1 70 23:43 02.12.2019
3322 Clear 19 1015 64 10000 2.1 70 23:20 02.12.2019
3323 Clear 19 1015 64 10000 2.1 70 23:20 02.12.2019
3324 Clear 20 1015 60 10000 2.6 100 22:43 02.12.2019
3325 Clear 20 1015 60 10000 2.6 100 22:23 02.12.2019
3326 Clear 21 1015 57 10000 3.6 80 21:59 02.12.2019
3327 Clear 21 1015 57 10000 3.6 80 21:59 02.12.2019
3328 Clear 21 1015 57 10000 3.6 80 21:59 02.12.2019
3329 Clear 21 1015 57 10000 3.6 80 21:38 02.12.2019
3330 Clear 21 1015 57 10000 3.6 80 21:19 02.12.2019
3331 Clear 21 1015 60 10000 2.6 60 20:56 02.12.2019
3332 Clear 21 1015 60 10000 2.6 60 20:56 02.12.2019
3333 Clear 21 1015 60 10000 2.6 60 20:38 02.12.2019
3334 Clear 21 1015 60 10000 2.6 60 20:20 02.12.2019
3335 Clear 22 1016 57 10000 2.6 70 19:55 02.12.2019
3336 Clear 22 1016 57 10000 2.6 70 19:37 02.12.2019
3337 Clear 22 1016 57 10000 2.6 70 19:19 02.12.2019
3338 Clear 22 1016 53 10000 2.1 80 18:44 02.12.2019
3339 Clear 22 1016 53 10000 2.1 80 18:20 02.12.2019
3340 Clear 23 1016 57 10000 2.1 70 17:58 02.12.2019
3341 Clear 23 1016 57 10000 2.1 70 17:40 02.12.2019
3342 Clear 23 1016 57 10000 2.1 70 17:40 02.12.2019
3343 Clear 23 1016 57 10000 2.1 70 17:20 02.12.2019
3344 Clear 24 1015 61 10000 3.1 30 16:54 02.12.2019
3345 Clear 24 1015 61 10000 3.1 30 16:36 02.12.2019
3346 Clear 24 1015 61 10000 3.1 30 16:18 02.12.2019
3347 Clear 25 1014 54 10000 3.1 360 15:55 02.12.2019
3348 Clear 25 1014 54 10000 3.1 360 15:36 02.12.2019
3349 Clear 25 1014 54 10000 3.1 360 15:18 02.12.2019
3350 Clear 26 1014 50 10000 4.1 310 14:39 02.12.2019
3351 Clear 26 1014 50 10000 4.1 310 14:20 02.12.2019
3352 Clear 26 1014 50 10000 4.1 310 14:20 02.12.2019
3353 Clear 26 1014 50 10000 4.1 310 14:20 02.12.2019
3354 Clouds 27 1014 47 10000 5.7 340 13:58 02.12.2019
3355 Clouds 27 1014 47 10000 5.7 340 13:39 02.12.2019
3356 Clouds 27 1014 47 10000 5.7 340 13:20 02.12.2019
3357 Clouds 28 1014 37 10000 3.1 0 12:57 02.12.2019
3358 Clouds 28 1014 37 10000 3.1 0 12:37 02.12.2019
3359 Clouds 28 1014 37 10000 3.1 0 12:19 02.12.2019
3360 Clouds 27 1014 37 10000 2.6 150 11:55 02.12.2019
3361 Clouds 27 1014 37 10000 2.6 150 11:36 02.12.2019
3362 Clouds 27 1014 37 10000 2.6 150 11:18 02.12.2019
3363 Clouds 27 1015 42 10000 2.6 200 10:54 02.12.2019
3364 Clouds 27 1015 42 10000 2.6 200 10:36 02.12.2019
3365 Clouds 27 1015 42 10000 2.6 200 10:18 02.12.2019
3366 Clouds 26 1016 47 10000 3.6 200 09:39 02.12.2019
3367 Clouds 26 1016 47 10000 3.6 200 09:19 02.12.2019
3368 Clouds 26 1016 47 10000 3.6 200 09:19 02.12.2019
3369 Clear 25 1017 53 10000 3.6 190 08:55 02.12.2019
3370 Clear 25 1017 53 10000 3.6 190 08:55 02.12.2019
3371 Clear 25 1017 53 10000 3.6 190 08:37 02.12.2019
3372 Clear 25 1017 53 10000 3.6 190 08:37 02.12.2019
3373 Clear 25 1017 53 10000 3.6 190 08:19 02.12.2019
3374 Clear 24 1018 57 10000 4.1 190 07:42 02.12.2019
3375 Clear 24 1018 57 10000 4.1 190 07:20 02.12.2019
3376 Clear 21 1018 56 10000 3.6 170 06:52 02.12.2019
3377 Clear 21 1018 56 10000 3.6 170 06:34 02.12.2019
3378 Clear 18 1017 60 10000 1.5 0 05:24 02.12.2019
3379 Clear 16 1017 64 10000 2.6 120 04:19 02.12.2019
3380 Clear 17 1016 64 10000 2.6 90 02:51 02.12.2019
3381 Clear 17 1016 64 10000 2.6 90 02:23 02.12.2019
3382 Clear 19 1016 56 10000 4.1 100 01:23 02.12.2019
3383 Clear 19 1016 60 10000 2.6 80 00:45 02.12.2019
3384 Clear 19 1016 60 10000 2.6 80 00:23 02.12.2019
3385 Clear 20 1016 60 10000 1.5 80 23:45 01.12.2019
3386 Clear 20 1016 60 10000 1.5 80 23:23 01.12.2019
3387 Clear 20 1016 60 10000 2.1 80 22:58 01.12.2019
3388 Clear 20 1016 60 10000 2.1 80 22:39 01.12.2019
3389 Clear 20 1016 60 10000 2.1 80 22:20 01.12.2019
3390 Clear 20 1016 64 10000 2.6 90 21:58 01.12.2019
3391 Clear 20 1016 64 10000 2.6 90 21:40 01.12.2019
3392 Clear 20 1016 64 10000 2.6 90 21:22 01.12.2019
3393 Clear 22 1017 60 10000 3.6 80 20:59 01.12.2019
3394 Clear 22 1017 60 10000 3.6 80 20:41 01.12.2019
3395 Clear 22 1017 60 10000 3.6 80 20:22 01.12.2019
3396 Clear 22 1017 64 10000 2.6 70 19:59 01.12.2019
3397 Clear 22 1017 64 10000 2.6 70 19:39 01.12.2019
3398 Clear 22 1017 64 10000 2.6 70 19:39 01.12.2019
3399 Clear 22 1017 64 10000 2.6 70 19:21 01.12.2019
3400 Clear 22 1017 64 10000 2.6 70 19:21 01.12.2019
3401 Clear 22 1017 64 10000 2.6 70 19:21 01.12.2019
3402 Clear 23 1017 61 10000 2.6 40 18:57 01.12.2019
3403 Clear 23 1017 61 10000 2.6 40 18:38 01.12.2019
3404 Clear 23 1017 61 10000 2.6 40 18:19 01.12.2019
3405 Clear 23 1016 61 10000 2.1 40 17:57 01.12.2019
3406 Clear 23 1016 61 10000 2.1 40 17:39 01.12.2019
3407 Clear 23 1016 61 10000 2.1 40 17:20 01.12.2019
3408 Clear 24 1016 57 10000 3.1 40 16:55 01.12.2019
3409 Clear 24 1016 57 10000 3.1 40 16:37 01.12.2019
3410 Clear 24 1016 57 10000 3.1 40 16:18 01.12.2019
3411 Clear 25 1015 54 10000 4.6 30 15:44 01.12.2019
3412 Clear 25 1015 54 10000 4.6 30 15:26 01.12.2019
3413 Clear 25 1015 54 10000 4.6 30 15:26 01.12.2019
3414 Clear 25 1015 54 10000 4.6 30 15:26 01.12.2019
3415 Clear 27 1015 47 10000 4.1 340 14:39 01.12.2019
3416 Clear 27 1015 47 10000 4.1 340 14:19 01.12.2019
3417 Clear 27 1014 45 10000 4.6 350 13:43 01.12.2019
3418 Clear 27 1014 45 10000 4.6 350 13:43 01.12.2019
3419 Clear 28 1014 45 10000 4.6 350 13:25 01.12.2019
3420 Clear 28 1014 45 10000 4.6 350 13:25 01.12.2019
3421 Clear 28 1014 45 10000 4.6 350 13:25 01.12.2019
3422 Clear 28 1014 34 10000 4.6 360 12:59 01.12.2019
3423 Clear 28 1014 34 10000 4.6 360 12:40 01.12.2019
3424 Clouds 28 1015 35 10000 1.5 0 11:55 01.12.2019
3425 Clouds 28 1015 35 10000 1.5 0 11:37 01.12.2019
3426 Clouds 28 1015 35 10000 1.5 0 11:18 01.12.2019
3427 Clouds 28 1015 35 10000 1.5 0 11:18 01.12.2019
3428 Clouds 28 1016 30 10000 2.6 110 10:43 01.12.2019
3429 Clouds 28 1016 30 10000 2.6 110 10:20 01.12.2019
3430 Clouds 28 1017 42 10000 1 0 09:42 01.12.2019
3431 Clouds 27 1017 42 10000 1 0 09:23 01.12.2019
3432 Clouds 27 1018 54 10000 1.5 0 08:57 01.12.2019
3433 Clouds 27 1018 54 10000 1.5 0 08:37 01.12.2019
3434 Clouds 27 1018 54 10000 1.5 0 08:19 01.12.2019
3435 Clouds 27 1018 54 10000 1.5 0 08:19 01.12.2019
3436 Clear 25 1019 65 10000 2.6 160 07:48 01.12.2019
3437 Clear 25 1019 65 10000 2.6 160 07:28 01.12.2019
3438 Clear 23 1019 64 6000 3.1 150 06:52 01.12.2019
3439 Haze 20 1018 73 5000 1.5 160 05:58 01.12.2019
3440 Haze 20 1018 73 5000 1.5 160 05:34 01.12.2019
3441 Haze 19 1018 73 4500 1.5 160 04:29 01.12.2019
3442 Clear 19 1017 73 7000 1.5 180 02:46 01.12.2019
3443 Clear 19 1017 73 7000 1.5 180 02:27 01.12.2019
3444 Clouds 20 1016 68 7000 2.1 160 01:54 01.12.2019
3445 Clouds 20 1016 68 7000 2.1 160 01:31 01.12.2019
3446 Clouds 20 1016 68 7000 2.1 160 01:31 01.12.2019
3447 Haze 20 1017 73 5000 1.5 170 00:50 01.12.2019
3448 Haze 20 1017 73 5000 1.5 170 00:27 01.12.2019
3449 Haze 20 1016 73 5000 2.6 180 23:57 30.11.2019
3450 Haze 20 1016 73 5000 2.6 180 23:37 30.11.2019
3451 Haze 20 1016 73 5000 2.6 180 23:19 30.11.2019
3452 Haze 21 1017 73 5000 2.1 180 22:42 30.11.2019
3453 Haze 21 1017 73 5000 2.1 180 22:23 30.11.2019
3454 Clear 21 1017 73 6000 2.6 150 21:48 30.11.2019
3455 Clear 21 1017 73 6000 2.6 150 21:28 30.11.2019
3456 Clear 22 1017 69 7000 2.1 150 20:58 30.11.2019
3457 Clear 22 1017 69 7000 2.1 150 20:40 30.11.2019
3458 Clear 22 1017 69 7000 2.1 150 20:20 30.11.2019
3459 Clear 22 1017 69 8000 2.1 180 19:57 30.11.2019
3460 Clear 22 1017 69 8000 2.1 180 19:39 30.11.2019
3461 Clear 22 1017 69 8000 2.1 180 19:21 30.11.2019
3462 Clear 23 1017 69 10000 1 0 18:59 30.11.2019
3463 Clear 23 1017 69 10000 1 0 18:39 30.11.2019
3464 Clear 23 1017 69 10000 1 0 18:21 30.11.2019
3465 Clear 24 1017 69 10000 1.5 10 17:58 30.11.2019
3466 Clear 24 1017 69 10000 1.5 10 17:40 30.11.2019
3467 Clear 24 1017 69 10000 1.5 10 17:22 30.11.2019
3468 Clear 25 1017 69 10000 2.1 0 16:58 30.11.2019
3469 Clear 25 1017 69 10000 2.1 0 16:58 30.11.2019
3470 Clear 25 1017 69 10000 2.1 0 16:40 30.11.2019
3471 Clear 25 1017 69 10000 2.1 0 16:21 30.11.2019
3472 Clear 25 1017 69 10000 2.1 0 16:21 30.11.2019
3473 Clear 25 1016 61 10000 3.1 300 15:43 30.11.2019
3474 Clear 25 1016 61 10000 3.1 300 15:20 30.11.2019
3475 Clear 26 1016 57 10000 4.6 320 14:58 30.11.2019
3476 Clear 26 1016 57 10000 4.6 320 14:38 30.11.2019
3477 Clear 26 1016 57 10000 4.6 320 14:20 30.11.2019
3478 Clouds 27 1016 51 10000 4.6 310 13:59 30.11.2019
3479 Clouds 27 1016 51 10000 4.6 310 13:40 30.11.2019
3480 Clouds 27 1016 51 10000 4.6 310 13:22 30.11.2019
3481 Clouds 27 1016 51 10000 4.1 330 12:47 30.11.2019
3482 Clouds 27 1016 47 10000 3.6 310 12:29 30.11.2019
3483 Clouds 27 1016 47 10000 3.6 310 11:59 30.11.2019
3484 Clouds 27 1016 47 10000 3.6 310 11:40 30.11.2019
3485 Clouds 27 1016 47 10000 3.6 310 11:18 30.11.2019
3486 Clouds 27 1017 51 10000 3.1 320 10:45 30.11.2019
3487 Clouds 27 1017 51 10000 3.1 320 10:21 30.11.2019
3488 Clouds 27 1018 51 10000 2.1 290 09:59 30.11.2019
3489 Clouds 27 1018 51 10000 2.1 290 09:41 30.11.2019
3490 Clouds 27 1018 51 10000 2.1 290 09:20 30.11.2019
3491 Clouds 26 1019 50 10000 3.1 130 08:41 30.11.2019
3492 Clouds 26 1019 50 10000 3.1 130 08:19 30.11.2019
3493 Clouds 25 1019 53 10000 2.6 190 07:44 30.11.2019
3494 Clouds 25 1019 53 10000 2.6 190 07:44 30.11.2019
3495 Clouds 25 1019 53 10000 2.6 190 07:25 30.11.2019
3496 Clouds 22 1019 60 9000 2.1 170 06:49 30.11.2019
3497 Clouds 22 1019 60 9000 2.1 170 06:28 30.11.2019
3498 Clouds 19 1019 73 8000 2.1 170 05:30 30.11.2019
3499 Clear 18 1018 77 9000 1.5 180 03:40 30.11.2019
3500 Clear 18 1017 77 10000 1.5 150 02:39 30.11.2019
3501 Clear 18 1017 77 10000 1.5 150 02:20 30.11.2019
3502 Clear 19 1017 77 10000 1.5 150 01:25 30.11.2019
3503 Clear 19 1017 77 10000 1 0 00:47 30.11.2019
3504 Clear 19 1017 77 10000 1 0 00:28 30.11.2019
3505 Clear 19 1017 73 10000 2.1 180 23:55 29.11.2019
3506 Clear 19 1017 73 10000 2.1 180 23:37 29.11.2019
3507 Clear 19 1017 73 10000 2.1 180 23:18 29.11.2019
3508 Clear 20 1017 69 10000 2.6 170 22:39 29.11.2019
3509 Clear 20 1017 69 10000 2.6 170 22:21 29.11.2019
3510 Clear 20 1017 69 10000 1 160 21:42 29.11.2019
3511 Clear 20 1017 69 10000 1 160 21:22 29.11.2019
3512 Clear 21 1018 50 10000 1.5 0 20:56 29.11.2019
3513 Clear 21 1018 50 10000 1.5 0 20:37 29.11.2019
3514 Clear 21 1018 50 10000 1.5 0 20:18 29.11.2019
3515 Clear 22 1018 44 10000 2.1 360 19:55 29.11.2019
3516 Clear 22 1018 44 10000 2.1 360 19:37 29.11.2019
3517 Clear 22 1018 44 10000 2.1 360 19:37 29.11.2019
3518 Clear 22 1018 44 10000 2.1 360 19:19 29.11.2019
3519 Clear 23 1018 53 10000 2.1 350 18:42 29.11.2019
3520 Clear 23 1018 53 10000 2.1 350 18:24 29.11.2019
3521 Clear 23 1018 53 10000 4.1 340 17:58 29.11.2019
3522 Clear 23 1018 53 10000 4.1 340 17:58 29.11.2019
3523 Clear 23 1018 53 10000 4.1 340 17:40 29.11.2019
3524 Clear 23 1018 53 10000 4.1 340 17:21 29.11.2019
3525 Clear 24 1017 65 10000 3.6 360 16:43 29.11.2019
3526 Clear 24 1017 65 10000 3.6 360 16:21 29.11.2019
3527 Clear 24 1017 65 10000 4.6 340 15:57 29.11.2019
3528 Clear 25 1017 65 10000 4.6 340 15:39 29.11.2019
3529 Clear 25 1017 65 10000 4.6 340 15:20 29.11.2019
3530 Clear 25 1016 57 10000 5.7 340 14:40 29.11.2019
3531 Clear 25 1016 57 10000 5.7 340 14:21 29.11.2019
3532 Clouds 27 1016 54 10000 5.7 360 13:57 29.11.2019
3533 Clouds 27 1016 54 10000 5.7 360 13:38 29.11.2019
3534 Clouds 27 1016 54 10000 5.7 360 13:19 29.11.2019
3535 Clouds 27 1016 47 10000 5.1 340 12:43 29.11.2019
3536 Clouds 27 1016 47 10000 5.1 340 12:25 29.11.2019
3537 Clouds 27 1016 51 10000 5.1 310 11:56 29.11.2019
3538 Clouds 27 1016 51 10000 5.1 310 11:38 29.11.2019
3539 Clouds 27 1016 51 10000 4.6 350 11:19 29.11.2019
3540 Clouds 28 1017 39 10000 1 0 10:57 29.11.2019
3541 Clouds 28 1017 39 10000 1 0 10:39 29.11.2019
3542 Clouds 28 1017 39 10000 1 0 10:20 29.11.2019
3543 Clouds 27 1019 44 10000 2.1 80 09:58 29.11.2019
3544 Clouds 27 1019 44 10000 2.1 80 09:39 29.11.2019
3545 Clouds 27 1019 44 10000 2.1 80 09:20 29.11.2019
3546 Clear 26 1019 44 10000 2.1 170 08:55 29.11.2019
3547 Clear 26 1019 44 10000 2.1 170 08:36 29.11.2019
3548 Clear 26 1019 44 10000 2.1 170 08:18 29.11.2019
3549 Clear 24 1020 53 10000 3.6 160 07:41 29.11.2019
3550 Clear 24 1020 53 10000 3.6 160 07:23 29.11.2019
3551 Clear 21 1019 60 10000 1.5 0 06:47 29.11.2019
3552 Clear 22 1019 60 10000 1.5 0 06:28 29.11.2019
3553 Clear 18 1019 64 10000 1.5 180 05:32 29.11.2019
3554 Clear 17 1018 68 10000 1.5 150 04:56 29.11.2019
3555 Clear 17 1018 64 10000 1.5 180 03:37 29.11.2019
3556 Clear 17 1018 64 10000 1.5 180 03:18 29.11.2019
3557 Clear 17 1018 64 10000 1.5 180 03:18 29.11.2019
3558 Clear 17 1017 64 10000 1 0 02:22 29.11.2019
3559 Clear 18 1017 56 10000 1 0 01:40 29.11.2019
3560 Clear 18 1017 56 10000 1 0 01:20 29.11.2019
3561 Clear 19 1017 53 10000 2.1 140 00:26 29.11.2019
3562 Clear 19 1017 53 10000 2.1 140 23:59 28.11.2019
3563 Clear 19 1017 53 10000 2.1 140 23:39 28.11.2019
3564 Clear 19 1017 53 10000 2.1 140 23:21 28.11.2019
3565 Clear 19 1017 53 10000 3.1 110 22:56 28.11.2019
3566 Clear 19 1017 53 10000 3.1 110 22:37 28.11.2019
3567 Clear 19 1017 53 10000 3.1 110 22:18 28.11.2019
3568 Clear 20 1017 53 10000 2.6 100 21:42 28.11.2019
3569 Clear 20 1017 53 10000 2.6 100 21:21 28.11.2019
3570 Clear 21 1017 50 10000 2.1 90 20:59 28.11.2019
3571 Clear 21 1017 50 10000 2.1 90 20:41 28.11.2019
3572 Clear 21 1017 50 10000 2.1 90 20:22 28.11.2019
3573 Clear 22 1017 50 10000 3.1 90 19:57 28.11.2019
3574 Clear 22 1017 50 10000 3.1 90 19:38 28.11.2019
3575 Clear 22 1017 50 10000 3.1 90 19:19 28.11.2019
3576 Clear 22 1017 50 10000 3.1 90 19:19 28.11.2019
3577 Clear 23 1017 50 10000 3.6 80 18:57 28.11.2019
3578 Clear 23 1017 50 10000 3.6 80 18:39 28.11.2019
3579 Clear 23 1017 50 10000 3.6 80 18:18 28.11.2019
3580 Clear 23 1017 50 10000 3.6 50 17:56 28.11.2019
3581 Clear 23 1017 50 10000 3.6 50 17:38 28.11.2019
3582 Clear 23 1017 50 10000 3.6 50 17:20 28.11.2019
3583 Clear 24 1017 47 10000 3.6 30 16:40 28.11.2019
3584 Clear 24 1017 47 10000 3.6 30 16:19 28.11.2019
3585 Clear 25 1016 47 10000 4.6 30 15:58 28.11.2019
3586 Clear 25 1016 47 10000 4.6 30 15:39 28.11.2019
3587 Clear 25 1016 47 10000 4.6 30 15:19 28.11.2019
3588 Clear 27 1016 47 10000 5.1 20 14:57 28.11.2019
3589 Clear 27 1016 47 10000 5.1 20 14:39 28.11.2019
3590 Clear 27 1016 47 10000 5.1 20 14:19 28.11.2019
3591 Clear 28 1015 45 10000 5.7 340 13:42 28.11.2019
3592 Clear 28 1015 45 10000 5.7 340 13:23 28.11.2019
3593 Clear 28 1015 42 10000 7.2 320 12:56 28.11.2019
3594 Clear 28 1015 42 10000 7.2 320 12:37 28.11.2019
3595 Clear 29 1015 37 10000 6.2 320 12:19 28.11.2019
3596 Clear 29 1016 25 10000 2.1 0 11:55 28.11.2019
3597 Clear 29 1016 25 10000 2.1 0 11:36 28.11.2019
3598 Clear 29 1016 25 10000 2.1 0 11:36 28.11.2019
3599 Clear 29 1016 25 10000 2.1 0 11:18 28.11.2019
3600 Clear 28 1017 32 10000 1.5 0 10:42 28.11.2019
3601 Clear 28 1017 32 10000 1.5 0 10:21 28.11.2019
3602 Clear 27 1018 34 10000 2.1 120 09:56 28.11.2019
3603 Clear 27 1018 34 10000 2.1 120 09:56 28.11.2019
3604 Clear 27 1018 34 10000 2.1 120 09:38 28.11.2019
3605 Clear 27 1018 34 10000 2.1 120 09:18 28.11.2019
3606 Clear 26 1019 44 10000 4.6 110 08:40 28.11.2019
3607 Clear 26 1019 44 10000 4.6 110 08:21 28.11.2019
3608 Clear 24 1019 50 10000 6.2 110 07:55 28.11.2019
3609 Clear 24 1019 50 10000 6.2 110 07:36 28.11.2019
3610 Clear 24 1019 50 10000 6.2 110 07:18 28.11.2019
3611 Clear 22 1019 53 10000 3.6 100 06:37 28.11.2019
3612 Clear 18 1019 60 10000 3.6 90 05:53 28.11.2019
3613 Clear 18 1019 60 10000 3.6 90 05:33 28.11.2019
3614 Clear 16 1017 68 10000 2.1 110 03:52 28.11.2019
3615 Clear 17 1017 68 10000 2.1 70 02:30 28.11.2019
3616 Clear 17 1016 68 10000 3.1 80 01:23 28.11.2019
3617 Clear 18 1016 64 10000 2.1 80 00:39 28.11.2019
3618 Clear 18 1016 64 10000 2.1 80 00:18 28.11.2019
3619 Clear 18 1016 64 10000 1.5 80 23:38 27.11.2019
3620 Clear 18 1016 64 10000 1.5 80 23:20 27.11.2019
3621 Clear 19 1016 60 10000 2.6 100 22:56 27.11.2019
3622 Clear 19 1016 60 10000 2.6 100 22:37 27.11.2019
3623 Clear 19 1016 60 10000 2.6 100 22:18 27.11.2019
3624 Clear 20 1017 56 10000 2.6 80 21:55 27.11.2019
3625 Clear 20 1017 56 10000 2.6 80 21:36 27.11.2019
3626 Clear 20 1017 56 10000 2.6 80 21:18 27.11.2019
3627 Clear 21 1017 56 10000 3.1 100 20:55 27.11.2019
3628 Clear 21 1017 56 10000 3.1 100 20:36 27.11.2019
3629 Clouds 21 1017 56 10000 3.1 100 20:18 27.11.2019
3630 Clouds 22 1017 53 10000 3.6 70 19:54 27.11.2019
3631 Clouds 22 1017 53 10000 3.6 70 19:54 27.11.2019
3632 Clouds 22 1017 53 10000 3.6 70 19:36 27.11.2019
3633 Clouds 22 1017 53 10000 3.6 70 19:18 27.11.2019
3634 Clouds 22 1017 53 10000 3.6 70 18:38 27.11.2019
3635 Clouds 22 1017 53 10000 3.6 70 18:38 27.11.2019
3636 Clouds 22 1017 53 10000 3.6 70 18:38 27.11.2019
3637 Clouds 22 1017 53 10000 3.6 70 18:19 27.11.2019
3638 Clouds 23 1017 50 10000 3.6 60 17:59 27.11.2019
3639 Clouds 23 1017 50 10000 3.6 60 17:40 27.11.2019
3640 Clouds 23 1017 50 10000 3.6 60 17:40 27.11.2019
3641 Clouds 23 1017 50 10000 3.6 60 17:22 27.11.2019
3642 Clouds 23 1016 47 10000 4.1 50 16:58 27.11.2019
3643 Clouds 23 1016 47 10000 4.1 50 16:39 27.11.2019
3644 Clouds 23 1016 47 10000 4.1 50 16:21 27.11.2019
3645 Clouds 25 1016 47 10000 4.1 20 15:57 27.11.2019
3646 Clouds 25 1016 47 10000 4.1 20 15:39 27.11.2019
3647 Clouds 25 1016 47 10000 4.1 20 15:21 27.11.2019
3648 Clouds 25 1015 47 10000 6.2 20 14:58 27.11.2019
3649 Clouds 25 1015 47 10000 6.2 20 14:39 27.11.2019
3650 Clouds 25 1015 47 10000 6.2 20 14:39 27.11.2019
3651 Clouds 25 1015 47 10000 6.2 20 14:39 27.11.2019
3652 Clouds 25 1015 47 10000 6.2 20 14:21 27.11.2019
3653 Clouds 26 1015 42 10000 6.2 20 13:58 27.11.2019
3654 Clouds 26 1015 42 10000 6.2 20 13:39 27.11.2019
3655 Clouds 26 1015 42 10000 6.2 20 13:19 27.11.2019
3656 Clouds 27 1015 42 10000 5.7 10 12:57 27.11.2019
3657 Clouds 27 1015 42 10000 5.7 10 12:39 27.11.2019
3658 Clouds 27 1015 42 10000 5.7 10 12:19 27.11.2019
3659 Clouds 28 1016 36 10000 3.6 40 11:38 27.11.2019
3660 Clear 28 1016 36 10000 3.6 40 11:19 27.11.2019
3661 Clear 28 1017 30 10000 2.6 10 10:58 27.11.2019
3662 Clear 28 1017 30 10000 2.6 10 10:40 27.11.2019
3663 Clear 27 1017 30 10000 2.6 10 10:22 27.11.2019
3664 Clear 27 1018 32 10000 4.1 70 09:44 27.11.2019
3665 Clear 27 1018 32 10000 4.1 70 09:26 27.11.2019
3666 Clear 26 1019 36 10000 3.1 30 08:57 27.11.2019
3667 Clear 26 1019 36 10000 3.1 30 08:38 27.11.2019
3668 Clear 26 1019 36 10000 3.1 30 08:19 27.11.2019
3669 Clear 24 1019 47 10000 3.1 80 07:45 27.11.2019
3670 Clear 24 1019 47 10000 3.1 80 07:27 27.11.2019
3671 Clear 22 1019 57 10000 1.5 140 06:47 27.11.2019
3672 Clear 22 1019 57 10000 1.5 140 06:29 27.11.2019
3673 Clear 18 1019 64 10000 1.5 160 05:27 27.11.2019
3674 Clear 17 1018 64 10000 0.5 0 04:59 27.11.2019
3675 Clear 17 1018 64 10000 0.5 0 04:40 27.11.2019
3676 Clear 17 1017 64 10000 1 0 03:53 27.11.2019
3677 Clear 17 1017 64 10000 1 0 03:22 27.11.2019
3678 Clear 17 1017 60 10000 1 0 02:54 27.11.2019
3679 Clear 18 1017 56 10000 1.5 140 01:35 27.11.2019
3680 Clear 18 1017 53 10000 2.6 110 00:44 27.11.2019
3681 Clear 18 1017 53 10000 2.6 110 00:25 27.11.2019
3682 Clear 18 1017 53 10000 1.5 80 23:48 26.11.2019
3683 Clear 18 1017 53 10000 1.5 80 23:26 26.11.2019
3684 Clear 19 1017 53 10000 2.1 110 22:58 26.11.2019
3685 Clear 19 1017 53 10000 2.1 110 22:38 26.11.2019
3686 Clear 19 1017 53 10000 2.1 110 22:19 26.11.2019
3687 Clear 20 1017 49 10000 2.6 100 21:58 26.11.2019
3688 Clear 20 1017 49 10000 2.6 100 21:37 26.11.2019
3689 Clear 20 1017 49 10000 2.6 100 21:19 26.11.2019
3690 Clear 20 1017 47 10000 2.1 60 20:54 26.11.2019
3691 Clear 20 1017 47 10000 2.1 60 20:36 26.11.2019
3692 Clear 20 1017 47 10000 2.1 60 20:18 26.11.2019
3693 Clear 20 1017 47 10000 3.1 40 19:54 26.11.2019
3694 Clear 21 1017 47 10000 3.1 40 19:36 26.11.2019
3695 Clear 21 1017 47 10000 3.1 40 19:18 26.11.2019
3696 Clear 22 1017 47 10000 3.1 50 18:56 26.11.2019
3697 Clear 22 1017 47 10000 3.1 50 18:37 26.11.2019
3698 Clear 22 1017 47 10000 3.1 50 18:19 26.11.2019
3699 Clear 23 1016 44 10000 3.6 40 17:43 26.11.2019
3700 Clear 23 1016 44 10000 3.6 40 17:24 26.11.2019
3701 Clear 23 1016 44 10000 3.6 40 16:58 26.11.2019
3702 Clear 23 1016 44 10000 3.6 40 16:38 26.11.2019
3703 Clear 23 1016 44 10000 3.6 40 16:20 26.11.2019
3704 Clear 24 1016 44 10000 5.1 30 16:00 26.11.2019
3705 -273 0 0 0 0 0 15:39 26.11.2019
3706 Clear 24 1016 44 10000 5.1 30 15:21 26.11.2019
3707 Clear 25 1015 39 10000 5.7 30 14:59 26.11.2019
3708 Clear 25 1015 39 10000 5.7 30 14:41 26.11.2019
3709 Clear 25 1015 39 10000 5.7 30 14:23 26.11.2019
3710 Clear 26 1015 37 10000 6.7 20 13:43 26.11.2019
3711 Clear 27 1015 37 10000 6.7 20 13:24 26.11.2019
3712 Clear 27 1015 34 10000 5.7 20 12:56 26.11.2019
3713 Clear 27 1015 34 10000 5.7 20 12:36 26.11.2019
3714 Clear 27 1016 39 10000 5.1 360 12:18 26.11.2019
3715 Clear 27 1016 39 10000 5.1 360 11:55 26.11.2019
3716 Clear 27 1016 39 10000 5.1 360 11:36 26.11.2019
3717 Clear 27 1016 39 10000 5.1 360 11:18 26.11.2019
3718 Clear 27 1016 34 10000 4.6 30 10:54 26.11.2019
3719 Clear 27 1016 34 10000 4.6 30 10:36 26.11.2019
3720 Clear 27 1016 34 10000 4.6 30 10:18 26.11.2019
3721 Clear 27 1017 42 10000 3.6 70 09:42 26.11.2019
3722 Clear 27 1017 42 10000 3.6 70 09:23 26.11.2019
3723 Clear 26 1018 50 10000 3.6 70 08:47 26.11.2019
3724 Clear 26 1018 50 10000 3.6 70 08:28 26.11.2019
3725 Clear 25 1018 53 10000 4.1 80 07:57 26.11.2019
3726 Clear 24 1018 53 10000 4.1 80 07:38 26.11.2019
3727 Clear 24 1018 53 10000 4.1 80 07:19 26.11.2019
3728 Clear 22 1018 60 10000 3.1 60 06:46 26.11.2019
3729 Clear 18 1018 64 10000 2.1 80 05:58 26.11.2019
3730 Clear 18 1018 64 10000 2.1 80 05:19 26.11.2019
3731 Clear 17 1017 64 10000 2.1 90 03:21 26.11.2019
3732 Clear 17 1017 64 10000 2.1 90 03:21 26.11.2019
3733 Clouds 17 1016 60 10000 2.6 90 01:37 26.11.2019
3734 Clouds 17 1016 60 10000 2.6 90 01:19 26.11.2019
3735 Clouds 17 1016 52 10000 2.6 70 00:41 26.11.2019
3736 Clouds 18 1016 56 10000 2.6 110 23:59 25.11.2019
3737 Clouds 18 1016 56 10000 2.6 110 23:59 25.11.2019
3738 Clouds 18 1016 56 10000 2.6 110 23:38 25.11.2019
3739 Clouds 18 1016 56 10000 2.6 110 23:19 25.11.2019
3740 Clouds 18 1016 49 10000 2.1 60 22:40 25.11.2019
3741 Clouds 19 1016 49 10000 2.1 60 22:19 25.11.2019
3742 Clouds 19 1016 46 10000 2.1 70 21:59 25.11.2019
3743 Clouds 19 1016 46 10000 2.1 70 21:59 25.11.2019
3744 Clouds 19 1016 46 10000 2.1 70 21:41 25.11.2019
3745 Clouds 20 1017 46 10000 2.6 70 21:23 25.11.2019
3746 Clouds 20 1017 46 10000 2.6 70 20:58 25.11.2019
3747 Clouds 20 1017 46 10000 2.6 70 20:40 25.11.2019
3748 Clouds 20 1017 46 10000 2.6 70 20:20 25.11.2019
3749 Clouds 20 1017 46 10000 2.6 70 19:57 25.11.2019
3750 Clouds 20 1017 46 10000 2.6 70 19:39 25.11.2019
3751 Clouds 20 1017 46 10000 2.6 70 19:20 25.11.2019
3752 Clouds 21 1017 44 10000 2.6 80 18:58 25.11.2019
3753 Clouds 21 1017 44 10000 2.6 80 18:58 25.11.2019
3754 Clouds 21 1017 44 10000 2.6 80 18:40 25.11.2019
3755 Clouds 21 1017 44 10000 2.6 80 18:22 25.11.2019
3756 Clouds 22 1017 38 10000 3.1 50 17:58 25.11.2019
3757 Clouds 22 1017 38 10000 3.1 50 17:40 25.11.2019
3758 Clouds 22 1017 38 10000 3.1 50 17:40 25.11.2019
3759 Clouds 23 1017 38 10000 3.1 50 17:21 25.11.2019
3760 Clouds 23 1017 41 10000 4.1 20 16:59 25.11.2019
3761 Clouds 23 1017 41 10000 4.1 20 16:40 25.11.2019
3762 Clouds 23 1017 41 10000 4.1 20 16:22 25.11.2019
3763 Clouds 24 1016 44 10000 4.6 20 15:56 25.11.2019
3764 Clouds 24 1016 44 10000 4.6 20 15:37 25.11.2019
3765 Clouds 24 1016 44 10000 4.6 20 15:19 25.11.2019
3766 Clouds 25 1015 44 10000 4.6 350 14:43 25.11.2019
3767 Clouds 25 1015 44 10000 4.6 350 14:25 25.11.2019
3768 Clouds 26 1015 47 10000 5.1 360 13:57 25.11.2019
3769 Clouds 26 1015 47 10000 5.1 360 13:57 25.11.2019
3770 Clouds 26 1015 47 10000 5.1 360 13:57 25.11.2019
3771 Clouds 26 1015 47 10000 5.1 360 13:37 25.11.2019
3772 Clouds 26 1015 47 10000 5.1 360 13:18 25.11.2019
3773 Clouds 26 1015 47 10000 5.1 10 12:57 25.11.2019
3774 Clouds 26 1015 47 10000 5.1 10 12:38 25.11.2019
3775 Clouds 26 1015 47 10000 5.1 10 12:19 25.11.2019
3776 Clouds 26 1015 47 10000 5.1 10 12:19 25.11.2019
3777 Clouds 26 1015 44 10000 6.2 360 11:40 25.11.2019
3778 Clouds 26 1015 44 10000 6.2 360 11:40 25.11.2019
3779 Clear 26 1015 44 10000 6.2 360 11:21 25.11.2019
3780 Clear 27 1016 39 10000 2.6 0 10:59 25.11.2019
3781 Clear 27 1016 39 10000 2.6 0 10:41 25.11.2019
3782 Clear 27 1016 39 10000 2.6 0 10:19 25.11.2019
3783 Clear 26 1017 47 10000 2.1 80 09:44 25.11.2019
3784 Clear 26 1017 47 10000 2.1 80 09:26 25.11.2019
3785 Clear 25 1018 50 10000 4.1 60 08:57 25.11.2019
3786 Clear 25 1018 50 10000 4.1 60 08:38 25.11.2019
3787 Clear 25 1018 50 10000 4.1 60 08:18 25.11.2019
3788 Clear 24 1018 50 10000 4.1 60 07:39 25.11.2019
3789 Clear 24 1018 50 10000 4.1 60 07:18 25.11.2019
3790 Clear 22 1018 53 10000 3.1 70 06:38 25.11.2019
3791 Clear 22 1018 53 10000 3.1 70 06:18 25.11.2019
3792 Clear 18 1018 60 10000 2.1 100 05:32 25.11.2019
3793 Clear 17 1017 64 10000 3.6 60 04:49 25.11.2019
3794 Clear 18 1016 52 10000 2.6 70 02:36 25.11.2019
3795 Clear 18 1016 49 10000 4.1 60 01:44 25.11.2019
3796 Clear 18 1016 49 10000 4.1 60 01:24 25.11.2019
3797 Clear 18 1016 56 10000 2.1 90 00:59 25.11.2019
3798 Clear 18 1016 56 10000 2.1 90 00:20 25.11.2019
3799 Clear 18 1016 56 10000 2.1 90 23:45 24.11.2019
3800 Clear 18 1016 56 10000 2.1 90 23:21 24.11.2019
3801 Clear 19 1017 53 10000 3.1 80 22:58 24.11.2019
3802 Clear 19 1017 53 10000 3.1 80 22:39 24.11.2019
3803 Clear 19 1017 53 10000 3.1 80 22:19 24.11.2019
3804 Clear 19 1017 49 10000 2.6 70 21:57 24.11.2019
3805 Clear 19 1017 49 10000 2.6 70 21:38 24.11.2019
3806 Clear 19 1017 49 10000 2.6 70 21:20 24.11.2019
3807 Clear 20 1018 49 10000 2.6 60 20:57 24.11.2019
3808 Clear 20 1018 49 10000 2.6 60 20:37 24.11.2019
3809 Clear 20 1018 49 10000 2.6 60 20:18 24.11.2019
3810 Clear 21 1018 49 10000 2.6 50 19:56 24.11.2019
3811 Clear 21 1018 49 10000 2.6 50 19:38 24.11.2019
3812 Clear 21 1018 49 10000 2.6 50 19:19 24.11.2019
3813 Clear 21 1018 47 10000 2.6 60 18:57 24.11.2019
3814 Clear 21 1018 47 10000 2.6 60 18:36 24.11.2019
3815 Clear 21 1018 47 10000 2.6 60 18:18 24.11.2019
3816 Clear 22 1018 50 10000 3.6 50 17:55 24.11.2019
3817 Clear 22 1018 50 10000 3.6 50 17:37 24.11.2019
3818 Clear 22 1018 50 10000 3.6 50 17:37 24.11.2019
3819 Clear 22 1018 50 10000 3.6 50 17:19 24.11.2019
3820 Clear 23 1017 50 10000 3.6 50 16:54 24.11.2019
3821 Clear 23 1017 50 10000 3.6 50 16:36 24.11.2019
3822 Clear 23 1017 50 10000 3.6 50 16:18 24.11.2019
3823 Clear 24 1016 47 10000 4.6 30 15:42 24.11.2019
3824 Clear 24 1016 47 10000 4.6 30 15:24 24.11.2019
3825 Clear 25 1016 50 10000 5.1 30 14:57 24.11.2019
3826 Clear 25 1016 50 10000 5.1 30 14:38 24.11.2019
3827 Clear 25 1016 50 10000 5.1 30 14:38 24.11.2019
3828 Clear 25 1016 50 10000 5.1 30 14:18 24.11.2019
3829 Clouds 26 1015 47 10000 5.7 10 13:40 24.11.2019
3830 Clouds 26 1015 47 10000 5.7 10 13:22 24.11.2019
3831 Clouds 27 1015 42 10000 6.7 340 12:58 24.11.2019
3832 Clouds 27 1015 42 10000 6.7 340 12:39 24.11.2019
3833 Clouds 27 1015 42 10000 6.7 340 12:18 24.11.2019
3834 Clouds 27 1015 39 10000 4.6 350 11:55 24.11.2019
3835 Clouds 27 1015 39 10000 4.6 350 11:36 24.11.2019
3836 Clouds 27 1015 39 10000 4.6 350 11:18 24.11.2019
3837 Clouds 26 1016 39 10000 5.1 350 10:46 24.11.2019
3838 Clouds 26 1016 39 10000 2.1 70 10:28 24.11.2019
3839 Clouds 26 1017 42 10000 2.1 40 09:55 24.11.2019
3840 Clouds 26 1017 42 10000 2.1 40 09:36 24.11.2019
3841 Clouds 26 1017 42 10000 2.1 40 09:18 24.11.2019
3842 Clear 25 1018 41 10000 4.1 60 08:43 24.11.2019
3843 Clear 25 1018 41 10000 4.1 60 08:21 24.11.2019
3844 Clear 24 1019 44 10000 3.6 80 07:55 24.11.2019
3845 Clear 23 1019 44 10000 3.6 80 07:36 24.11.2019
3846 Clear 23 1019 44 10000 3.6 80 07:18 24.11.2019
3847 Clear 22 1019 56 10000 3.1 70 06:19 24.11.2019
3848 Clear 22 1019 56 10000 3.1 70 06:19 24.11.2019
3849 Clear 18 1018 60 10000 2.6 70 04:47 24.11.2019
3850 Clear 17 1017 60 10000 2.6 70 03:25 24.11.2019
3851 Clear 18 1017 60 10000 3.1 50 01:58 24.11.2019
3852 Clear 18 1017 60 10000 3.1 50 01:39 24.11.2019
3853 Clear 18 1017 60 10000 3.1 50 01:20 24.11.2019
3854 Clear 19 1017 56 10000 3.1 50 00:47 24.11.2019
3855 Clear 19 1017 56 10000 3.1 50 00:23 24.11.2019
3856 Clear 19 1017 56 10000 3.1 50 23:45 23.11.2019
3857 Clear 19 1017 56 10000 3.1 50 23:22 23.11.2019
3858 Clear 19 1017 56 10000 2.6 60 22:59 23.11.2019
3859 Clear 19 1017 56 10000 2.6 60 22:40 23.11.2019
3860 Clear 19 1017 56 10000 2.6 60 22:22 23.11.2019
3861 Clear 20 1017 56 10000 3.1 70 21:58 23.11.2019
3862 Clear 20 1017 56 10000 3.1 70 21:40 23.11.2019
3863 Clear 20 1017 56 10000 3.1 70 21:21 23.11.2019
3864 Clear 21 1018 53 10000 3.1 70 20:55 23.11.2019
3865 Clear 21 1018 53 10000 3.1 70 20:36 23.11.2019
3866 Clear 21 1018 53 10000 3.1 70 20:18 23.11.2019
3867 Clear 20 1018 53 10000 2.6 70 19:54 23.11.2019
3868 Clear 21 1018 53 10000 2.6 70 19:36 23.11.2019
3869 Clear 21 1018 53 10000 2.6 70 19:18 23.11.2019
3870 Clear 21 1018 47 10000 3.6 50 18:39 23.11.2019
3871 Clear 21 1018 47 10000 3.6 50 18:20 23.11.2019
3872 Clear 22 1018 47 10000 3.6 50 17:54 23.11.2019
3873 Clear 22 1018 47 10000 3.6 50 17:36 23.11.2019
3874 Clear 22 1018 47 10000 3.6 50 17:18 23.11.2019
3875 Clear 23 1017 50 10000 4.6 30 16:54 23.11.2019
3876 Clear 23 1017 50 10000 4.6 30 16:36 23.11.2019
3877 Clear 23 1017 50 10000 4.6 30 16:18 23.11.2019
3878 Clear 23 1017 47 10000 5.1 30 15:40 23.11.2019
3879 Clear 23 1017 47 10000 5.1 30 15:19 23.11.2019
3880 Clear 23 1017 47 10000 5.1 30 15:19 23.11.2019
3881 Clear 24 1017 47 10000 5.7 30 14:58 23.11.2019
3882 Clear 24 1017 47 10000 5.7 30 14:40 23.11.2019
3883 Clear 24 1017 47 10000 5.7 30 14:21 23.11.2019
3884 Clear 25 1016 41 10000 5.7 10 13:56 23.11.2019
3885 Clear 25 1016 41 10000 5.7 10 13:38 23.11.2019
3886 Clear 25 1016 41 10000 5.7 10 13:18 23.11.2019
3887 Clear 26 1016 36 10000 6.2 10 12:42 23.11.2019
3888 Clear 26 1016 36 10000 6.2 10 12:24 23.11.2019
3889 Clear 26 1017 32 10000 3.6 40 11:45 23.11.2019
3890 Clear 26 1017 32 10000 3.6 40 11:23 23.11.2019
3891 Clear 26 1018 32 10000 2.6 100 10:56 23.11.2019
3892 Clear 26 1018 32 10000 2.6 100 10:37 23.11.2019
3893 Clear 26 1018 32 10000 2.6 100 10:18 23.11.2019
3894 Clear 26 1019 34 10000 4.1 70 09:40 23.11.2019
3895 Clear 25 1019 34 10000 4.1 70 09:18 23.11.2019
3896 Clear 25 1020 33 10000 4.6 70 08:41 23.11.2019
3897 Clear 25 1020 33 10000 4.6 70 08:41 23.11.2019
3898 Clouds 25 1020 33 10000 4.6 70 08:19 23.11.2019
3899 Clouds 23 1020 33 10000 4.1 50 07:42 23.11.2019
3900 Clouds 20 1020 43 10000 2.6 60 06:53 23.11.2019
3901 Clouds 20 1020 43 10000 2.6 60 06:27 23.11.2019
3902 Clouds 17 1020 49 10000 3.1 80 05:57 23.11.2019
3903 Clouds 17 1020 49 10000 3.1 80 05:32 23.11.2019
3904 Clouds 15 1019 55 10000 1.5 90 04:58 23.11.2019
3905 Clouds 15 1019 55 10000 1.5 90 04:34 23.11.2019
3906 Clouds 16 1018 55 10000 2.6 100 03:27 23.11.2019
3907 Clouds 16 1018 59 10000 2.1 80 02:38 23.11.2019
3908 Clouds 16 1018 56 10000 2.1 80 01:40 23.11.2019
3909 Clouds 17 1018 49 10000 2.1 70 00:48 23.11.2019
3910 Clouds 17 1018 49 10000 2.1 70 00:19 23.11.2019
3911 Clouds 17 1018 49 10000 3.6 100 23:55 22.11.2019
3912 Clouds 18 1018 49 10000 3.6 100 23:36 22.11.2019
3913 Clouds 18 1018 49 10000 3.6 100 23:36 22.11.2019
3914 Clear 18 1018 49 10000 3.6 100 23:18 22.11.2019
3915 Clear 18 1019 52 10000 2.6 90 22:55 22.11.2019
3916 Clear 18 1019 52 10000 2.6 90 22:36 22.11.2019
3917 Clear 18 1019 52 10000 2.6 90 22:18 22.11.2019
3918 Clear 18 1019 52 10000 2.6 90 22:18 22.11.2019
3919 Clear 18 1019 52 10000 2.6 90 22:18 22.11.2019
3920 Clear 19 1019 49 10000 3.1 80 21:40 22.11.2019
3921 Clear 19 1019 49 10000 3.1 80 21:21 22.11.2019
3922 Clear 19 1019 49 10000 3.1 70 20:55 22.11.2019
3923 Clouds 19 1019 49 10000 3.1 70 20:37 22.11.2019
3924 Clear 19 1019 49 10000 3.1 70 20:19 22.11.2019
3925 Clear 19 1019 49 10000 2.6 60 19:39 22.11.2019
3926 Clear 19 1019 49 10000 2.6 60 19:20 22.11.2019
3927 Clear 20 1019 46 10000 3.1 40 18:59 22.11.2019
3928 Clear 20 1019 46 10000 3.1 40 18:37 22.11.2019
3929 Clear 20 1019 46 10000 3.1 40 18:19 22.11.2019
3930 Clear 21 1019 46 10000 2.6 50 17:42 22.11.2019
3931 Clear 21 1019 46 10000 2.6 50 17:22 22.11.2019
3932 Clear 21 1018 46 10000 3.6 50 16:48 22.11.2019
3933 Clear 21 1018 46 10000 3.6 50 16:30 22.11.2019
3934 Clear 23 1018 41 10000 5.7 40 15:58 22.11.2019
3935 Clear 23 1018 41 10000 5.7 40 15:38 22.11.2019
3936 Clear 23 1018 41 10000 5.7 40 15:20 22.11.2019
3937 Clear 23 1017 38 10000 5.7 20 14:54 22.11.2019
3938 Clear 23 1017 38 10000 5.7 20 14:36 22.11.2019
3939 Clear 23 1017 38 10000 5.7 20 14:18 22.11.2019
3940 Clear 24 1017 33 10000 5.7 40 13:38 22.11.2019
3941 Clear 24 1017 33 10000 5.7 40 13:19 22.11.2019
3942 Clouds 24 1017 38 10000 6.7 10 12:58 22.11.2019
3943 Clouds 24 1017 38 10000 6.7 10 12:58 22.11.2019
3944 Clouds 24 1017 38 10000 6.7 10 12:40 22.11.2019
3945 Clouds 24 1017 41 10000 5.7 10 12:19 22.11.2019
3946 Clouds 24 1017 41 10000 5.7 10 11:57 22.11.2019
3947 Clouds 24 1017 41 10000 5.7 10 11:37 22.11.2019
3948 Clouds 24 1017 41 10000 5.7 10 11:18 22.11.2019
3949 Clouds 24 1017 41 10000 5.7 10 11:18 22.11.2019
3950 Clouds 25 1018 31 10000 4.6 20 10:54 22.11.2019
3951 Clouds 25 1018 31 10000 4.6 20 10:36 22.11.2019
3952 Clouds 25 1018 31 10000 4.6 20 10:18 22.11.2019
3953 Clouds 24 1019 38 10000 4.6 70 09:41 22.11.2019
3954 Clouds 24 1019 38 10000 4.6 70 09:21 22.11.2019
3955 Clouds 23 1020 38 10000 2.6 80 08:57 22.11.2019
3956 Clouds 23 1020 38 10000 2.6 80 08:38 22.11.2019
3957 Clouds 23 1020 38 10000 2.6 80 08:20 22.11.2019
3958 Clouds 22 1020 49 10000 2.1 200 07:42 22.11.2019
3959 Clouds 22 1020 49 10000 2.1 200 07:20 22.11.2019
3960 Clouds 19 1020 60 10000 2.6 190 06:47 22.11.2019
3961 Clouds 19 1020 60 10000 2.6 190 06:27 22.11.2019
3962 Clouds 17 1019 63 10000 2.1 180 05:33 22.11.2019
3963 Clear 16 1017 72 10000 1.5 150 03:26 22.11.2019
3964 Clear 17 1017 72 10000 2.1 170 02:39 22.11.2019
3965 Clouds 17 1017 72 10000 2.1 170 02:20 22.11.2019
3966 Clouds 18 1016 72 10000 2.1 170 01:43 22.11.2019
3967 Clear 18 1016 72 10000 2.1 170 01:18 22.11.2019
3968 Clouds 19 1016 68 10000 2.6 170 00:40 22.11.2019
3969 Clouds 19 1016 68 10000 2.6 170 00:19 22.11.2019
3970 Clouds 19 1016 72 10000 2.6 180 23:43 21.11.2019
3971 Clouds 19 1016 72 10000 2.6 180 23:24 21.11.2019
3972 Clouds 19 1016 72 10000 3.6 200 22:56 21.11.2019
3973 Clouds 19 1016 72 10000 3.6 200 22:37 21.11.2019
3974 Clouds 19 1016 72 10000 3.6 200 22:19 21.11.2019
3975 Clouds 20 1016 68 10000 3.1 170 21:54 21.11.2019
3976 Clouds 20 1016 68 10000 3.1 170 21:36 21.11.2019
3977 Clouds 20 1016 68 10000 3.1 170 21:18 21.11.2019
3978 Clouds 21 1017 64 10000 3.1 150 20:55 21.11.2019
3979 Clouds 21 1017 64 10000 3.1 150 20:36 21.11.2019
3980 Clouds 21 1017 64 10000 3.1 150 20:36 21.11.2019
3981 Clouds 21 1017 64 10000 3.1 150 20:18 21.11.2019
3982 Clouds 22 1016 49 10000 3.1 300 19:42 21.11.2019
3983 Clouds 22 1016 49 10000 3.1 300 19:23 21.11.2019
3984 Clouds 22 1016 49 10000 3.1 300 19:23 21.11.2019
3985 -273 0 0 0 0 0 19:23 21.11.2019
3986 Clouds 22 1016 53 10000 4.1 320 18:59 21.11.2019
3987 Clouds 22 1016 53 10000 4.1 320 18:40 21.11.2019
3988 Clouds 22 1016 53 10000 4.1 320 18:21 21.11.2019
3989 Clouds 22 1016 47 10000 4.1 340 17:58 21.11.2019
3990 Clouds 22 1016 47 10000 4.1 340 17:39 21.11.2019
3991 Clouds 22 1016 47 10000 4.1 340 17:21 21.11.2019
3992 Clouds 22 1015 53 10000 3.6 340 16:57 21.11.2019
3993 Clouds 22 1015 53 10000 3.6 340 16:39 21.11.2019
3994 Clouds 22 1015 53 10000 3.6 340 16:20 21.11.2019
3995 Clouds 23 1015 50 10000 4.1 350 15:43 21.11.2019
3996 Clouds 23 1015 50 10000 4.1 350 15:21 21.11.2019
3997 Clouds 24 1014 47 10000 6.7 360 14:57 21.11.2019
3998 Clouds 24 1014 47 10000 6.7 360 14:57 21.11.2019
3999 Clouds 24 1014 47 10000 6.7 360 14:38 21.11.2019
4000 Clouds 24 1014 47 10000 6.7 360 14:19 21.11.2019
4001 Clouds 24 1013 38 10000 5.7 280 13:57 21.11.2019
4002 Clouds 24 1013 38 10000 5.7 280 13:37 21.11.2019
4003 Clouds 24 1013 38 10000 5.7 280 13:18 21.11.2019
4004 Clouds 25 1013 36 10000 5.1 300 12:40 21.11.2019
4005 Clouds 25 1013 36 10000 5.1 300 12:22 21.11.2019
4006 Clouds 24 1013 41 10000 5.1 290 11:55 21.11.2019
4007 Clouds 24 1013 41 10000 5.1 290 11:37 21.11.2019
4008 Clouds 24 1013 41 10000 5.1 290 11:19 21.11.2019
4009 Clouds 24 1014 50 10000 5.1 310 10:42 21.11.2019
4010 Clouds 24 1014 50 10000 5.1 310 10:24 21.11.2019
4011 Clouds 24 1015 53 10000 3.6 300 09:58 21.11.2019
4012 Clouds 24 1015 53 10000 3.6 300 09:39 21.11.2019
4013 Clouds 24 1015 53 10000 3.6 300 09:21 21.11.2019
4014 Clouds 24 1016 50 10000 6.2 320 08:44 21.11.2019
4015 Clouds 24 1016 50 10000 6.2 320 08:23 21.11.2019
4016 Clouds 24 1015 44 10000 7.2 300 07:45 21.11.2019
4017 Clouds 24 1015 44 10000 7.2 300 07:20 21.11.2019
4018 Clouds 24 1015 44 10000 5.1 280 06:58 21.11.2019
4019 Clouds 24 1015 44 10000 5.1 280 06:34 21.11.2019
4020 Clouds 22 1014 69 10000 3.1 220 05:50 21.11.2019
4021 Clouds 21 1012 94 7000 1.5 200 03:36 21.11.2019
4022 Clouds 20 1011 88 8000 2.1 180 02:42 21.11.2019
4023 Clouds 20 1011 88 8000 2.1 180 02:24 21.11.2019
4024 Clouds 21 1012 83 8000 3.1 220 01:49 21.11.2019
4025 Clouds 21 1012 83 8000 3.1 220 01:20 21.11.2019
4026 Clouds 20 1011 88 8000 2.1 230 00:38 21.11.2019
4027 Clouds 20 1011 88 8000 2.1 230 00:20 21.11.2019
4028 Rain 20 1012 88 8000 3.1 240 23:42 20.11.2019
4029 Rain 20 1012 88 8000 3.1 240 23:21 20.11.2019
4030 Clouds 21 1012 88 8000 3.1 210 22:58 20.11.2019
4031 Clouds 20 1012 88 8000 3.1 210 22:38 20.11.2019
4032 Clouds 20 1012 88 8000 3.1 210 22:19 20.11.2019
4033 Clouds 20 1012 88 8000 3.1 210 22:19 20.11.2019
4034 Clouds 21 1012 83 10000 3.1 190 21:58 20.11.2019
4035 Clouds 21 1012 83 10000 3.1 190 21:38 20.11.2019
4036 Clouds 21 1012 83 10000 3.1 190 21:19 20.11.2019
4037 Clouds 21 1012 83 10000 3.1 190 21:19 20.11.2019
4038 Clouds 21 1013 88 10000 3.1 220 20:56 20.11.2019
4039 Clouds 21 1013 88 10000 3.1 220 20:38 20.11.2019
4040 Rain 21 1013 88 10000 3.1 220 20:19 20.11.2019
4041 Rain 21 1013 83 10000 1.5 210 19:56 20.11.2019
4042 Rain 21 1013 83 10000 1.5 210 19:36 20.11.2019
4043 Rain 21 1013 83 10000 1.5 210 19:18 20.11.2019
4044 Rain 22 1013 78 10000 2.6 170 18:58 20.11.2019
4045 Rain 22 1013 78 10000 2.6 170 18:38 20.11.2019
4046 Rain 22 1013 78 10000 2.6 170 18:20 20.11.2019
4047 Rain 22 1013 78 10000 2.6 170 18:20 20.11.2019
4048 Rain 21 1012 83 10000 2.6 180 17:55 20.11.2019
4049 Rain 21 1012 83 10000 2.6 180 17:37 20.11.2019
4050 Rain 21 1012 83 10000 2.6 180 17:18 20.11.2019
4051 Rain 22 1012 83 10000 3.6 180 16:41 20.11.2019
4052 Rain 22 1012 83 10000 3.6 180 16:20 20.11.2019
4053 Rain 22 1012 88 10000 3.6 180 15:58 20.11.2019
4054 Rain 22 1012 88 10000 3.6 180 15:40 20.11.2019
4055 Rain 22 1012 88 10000 3.6 180 15:20 20.11.2019
4056 Rain 21 1011 83 10000 3.1 160 14:57 20.11.2019
4057 Rain 21 1011 83 10000 3.1 160 14:57 20.11.2019
4058 Rain 21 1011 83 10000 3.1 160 14:38 20.11.2019
4059 Rain 21 1011 83 10000 3.1 160 14:20 20.11.2019
4060 Rain 21 1012 83 10000 1.5 240 13:56 20.11.2019
4061 Rain 21 1012 83 10000 1.5 240 13:37 20.11.2019
4062 Rain 21 1012 83 10000 1.5 240 13:18 20.11.2019
4063 Rain 21 1011 83 9000 1.5 250 12:42 20.11.2019
4064 Rain 21 1011 83 9000 1.5 250 12:24 20.11.2019
4065 Rain 22 1011 83 9000 4.6 20 11:57 20.11.2019
4066 Rain 22 1011 83 9000 4.6 20 11:37 20.11.2019
4067 Rain 22 1011 83 9000 4.6 20 11:18 20.11.2019
4068 Rain 22 1011 83 9000 4.6 20 11:18 20.11.2019
4069 Clouds 21 1012 94 10000 4.6 40 10:55 20.11.2019
4070 Rain 20 1014 94 8000 3.1 330 10:36 20.11.2019
4071 Rain 20 1014 94 8000 3.1 330 10:18 20.11.2019
4072 Rain 20 1014 94 8000 3.1 330 09:42 20.11.2019
4073 Rain 20 1014 94 8000 3.1 330 09:21 20.11.2019
4074 Rain 20 1015 94 8000 5.1 330 08:48 20.11.2019
4075 Rain 23 1015 94 8000 5.1 330 08:28 20.11.2019
4076 Clouds 23 1014 73 10000 5.1 20 07:59 20.11.2019
4077 Clouds 23 1014 73 10000 5.1 20 07:38 20.11.2019
4078 Clouds 23 1014 73 10000 5.1 20 07:20 20.11.2019
4079 Clouds 23 1014 69 10000 2.1 20 06:45 20.11.2019
4080 Clouds 23 1014 69 10000 2.1 20 06:45 20.11.2019
4081 Clouds 23 1014 69 10000 2.1 20 06:19 20.11.2019
4082 Rain 22 1011 69 10000 2.6 100 04:51 20.11.2019
4083 Rain 23 1011 69 10000 3.1 50 02:47 20.11.2019
4084 Rain 23 1012 65 10000 4.1 50 01:39 20.11.2019
4085 Clouds 24 1012 65 10000 3.6 40 00:59 20.11.2019
4086 Clouds 24 1012 65 10000 3.6 40 00:35 20.11.2019
4087 Clouds 24 1012 61 10000 3.6 40 23:43 19.11.2019
4088 Clouds 24 1012 61 10000 3.6 40 23:24 19.11.2019
4089 Clouds 24 1012 65 10000 4.6 40 22:56 19.11.2019
4090 Clouds 24 1012 65 10000 4.6 40 22:38 19.11.2019
4091 Clouds 24 1012 65 10000 4.6 40 22:18 19.11.2019
4092 Clouds 24 1013 69 10000 5.7 50 21:55 19.11.2019
4093 Clouds 24 1013 69 10000 5.7 50 21:37 19.11.2019
4094 Clouds 24 1013 69 10000 5.7 50 21:19 19.11.2019
4095 Clouds 24 1014 73 10000 5.1 50 20:55 19.11.2019
4096 Clouds 24 1014 73 10000 5.1 50 20:36 19.11.2019
4097 Clouds 24 1014 73 10000 5.1 50 20:36 19.11.2019
4098 Clouds 24 1014 73 10000 5.1 50 20:36 19.11.2019
4099 Clouds 24 1014 73 10000 5.1 50 20:36 19.11.2019
4100 Clouds 24 1014 73 10000 5.1 50 20:18 19.11.2019
4101 Clouds 24 1014 73 10000 5.1 50 20:18 19.11.2019
4102 Clouds 25 1014 65 10000 3.1 40 19:54 19.11.2019
4103 Clouds 25 1014 65 10000 3.1 40 19:36 19.11.2019
4104 Clouds 25 1014 65 10000 3.1 40 19:18 19.11.2019
4105 Clouds 25 1014 57 10000 2.6 40 18:41 19.11.2019
4106 Clouds 25 1014 57 10000 2.6 40 18:21 19.11.2019
4107 Clouds 25 1014 57 10000 2.6 40 18:21 19.11.2019
4108 Clouds 25 1014 57 10000 1.5 80 17:58 19.11.2019
4109 Clouds 25 1014 57 10000 1.5 80 17:58 19.11.2019
4110 Clouds 25 1014 57 10000 1.5 80 17:40 19.11.2019
4111 Clouds 25 1014 57 10000 1.5 80 17:20 19.11.2019
4112 Clouds 25 1014 57 10000 1.5 80 17:20 19.11.2019
4113 Clouds 25 1013 61 8000 2.6 50 16:59 19.11.2019
4114 Clouds 25 1013 61 8000 2.6 50 16:40 19.11.2019
4115 Clouds 25 1013 61 8000 2.6 50 16:20 19.11.2019
4116 Clouds 26 1013 57 10000 3.1 70 15:47 19.11.2019
4117 Clouds 26 1013 57 10000 3.1 70 15:47 19.11.2019
4118 Clouds 26 1013 57 10000 3.1 70 15:27 19.11.2019
4119 Clouds 26 1012 61 10000 4.6 50 14:58 19.11.2019
4120 Clouds 26 1012 61 10000 4.6 50 14:39 19.11.2019
4121 Clouds 26 1012 61 10000 4.6 50 14:21 19.11.2019
4122 Clouds 27 1012 57 10000 4.1 30 13:42 19.11.2019
4123 Clouds 27 1012 57 10000 4.1 30 13:22 19.11.2019
4124 Clouds 27 1013 61 10000 5.1 10 12:57 19.11.2019
4125 Dust 26 1013 61 5000 7.2 340 12:39 19.11.2019
4126 Dust 27 1013 61 5000 7.2 340 12:20 19.11.2019
4127 Clouds 27 1014 65 6000 7.2 340 11:55 19.11.2019
4128 Clouds 27 1014 65 6000 7.2 340 11:36 19.11.2019
4129 Clouds 27 1013 61 10000 8.2 10 11:18 19.11.2019
4130 Clear 29 1014 42 10000 4.1 270 10:44 19.11.2019
4131 Clear 29 1014 42 10000 4.1 270 10:21 19.11.2019
4132 Clear 29 1015 45 10000 5.7 240 09:43 19.11.2019
4133 Clear 29 1015 45 10000 5.7 240 09:21 19.11.2019
4134 Clear 28 1015 51 10000 5.1 210 08:58 19.11.2019
4135 Clear 28 1015 51 10000 5.1 210 08:39 19.11.2019
4136 Clouds 28 1015 51 10000 5.1 210 08:21 19.11.2019
4137 Clouds 27 1016 54 10000 5.1 190 07:55 19.11.2019
4138 Clouds 27 1016 54 10000 5.1 190 07:36 19.11.2019
4139 Clouds 27 1016 54 10000 5.1 190 07:18 19.11.2019
4140 Clouds 25 1016 61 10000 5.1 180 06:42 19.11.2019
4141 Clouds 25 1016 61 10000 5.1 180 06:18 19.11.2019
4142 Clouds 25 1016 61 10000 5.1 180 06:18 19.11.2019
4143 Clouds 24 1015 60 10000 4.1 170 05:19 19.11.2019
4144 Clouds 21 1015 64 10000 3.6 120 03:40 19.11.2019
4145 Clouds 21 1015 64 10000 3.6 120 03:19 19.11.2019
4146 Clouds 22 1015 64 10000 4.1 120 02:47 19.11.2019
4147 Clouds 21 1015 57 10000 3.6 110 01:48 19.11.2019
4148 Clouds 22 1015 64 10000 3.6 100 00:48 19.11.2019
4149 Clouds 22 1015 64 10000 3.6 100 00:19 19.11.2019
4150 Clouds 22 1015 60 10000 3.6 90 23:40 18.11.2019
4151 Clouds 22 1015 60 10000 3.6 90 23:19 18.11.2019
4152 Clouds 23 1015 57 10000 3.6 100 22:46 18.11.2019
4153 Clouds 23 1015 57 10000 3.6 100 22:24 18.11.2019
4154 Clouds 24 1016 54 10000 3.6 70 21:58 18.11.2019
4155 Clouds 24 1016 54 10000 3.6 70 21:40 18.11.2019
4156 Clouds 24 1016 54 10000 3.6 70 21:21 18.11.2019
4157 Clouds 24 1016 50 10000 3.6 110 20:57 18.11.2019
4158 Clouds 24 1016 50 10000 3.6 110 20:39 18.11.2019
4159 Clear 24 1016 50 10000 3.6 110 20:18 18.11.2019
4160 Clear 24 1017 57 10000 4.1 70 19:56 18.11.2019
4161 Clear 24 1017 57 10000 4.1 70 19:38 18.11.2019
4162 Clear 24 1017 57 10000 4.1 70 19:19 18.11.2019
4163 Clear 25 1017 57 10000 4.1 50 18:56 18.11.2019
4164 Clear 25 1017 57 10000 4.1 50 18:38 18.11.2019
4165 Clear 25 1017 57 10000 4.1 50 18:19 18.11.2019
4166 Clear 26 1017 54 10000 3.6 30 17:55 18.11.2019
4167 Clear 26 1017 54 10000 3.6 30 17:55 18.11.2019
4168 Clear 26 1017 54 10000 3.6 30 17:36 18.11.2019
4169 Clear 26 1017 54 10000 3.6 30 17:36 18.11.2019
4170 Clear 26 1017 54 10000 3.6 30 17:18 18.11.2019
4171 Clear 27 1017 51 10000 4.6 30 16:42 18.11.2019
4172 Clear 27 1017 51 10000 4.6 30 16:23 18.11.2019
4173 Clear 27 1016 51 10000 5.7 10 15:56 18.11.2019
4174 Clear 27 1016 51 10000 5.7 10 15:38 18.11.2019
4175 Clear 27 1016 51 10000 5.7 10 15:20 18.11.2019
4176 Clouds 28 1015 51 10000 6.2 350 14:43 18.11.2019
4177 Clouds 28 1015 51 10000 6.2 350 14:24 18.11.2019
4178 Clouds 28 1015 51 10000 6.2 350 14:24 18.11.2019
4179 Clouds 29 1014 42 10000 4.6 340 13:57 18.11.2019
4180 Clouds 29 1014 42 10000 4.6 340 13:39 18.11.2019
4181 Clouds 29 1014 42 10000 4.6 340 13:39 18.11.2019
4182 Clouds 29 1014 42 10000 4.6 340 13:21 18.11.2019
4183 Clouds 30 1014 33 10000 1.5 0 12:39 18.11.2019
4184 Clouds 30 1014 33 10000 1.5 0 12:20 18.11.2019
4185 Clouds 30 1014 35 10000 3.1 80 11:54 18.11.2019
4186 Clouds 30 1014 35 10000 3.1 80 11:36 18.11.2019
4187 Clouds 30 1014 35 10000 3.1 80 11:18 18.11.2019
4188 Clouds 30 1015 37 10000 3.1 100 10:42 18.11.2019
4189 Clouds 30 1015 37 10000 3.1 100 10:42 18.11.2019
4190 Clouds 29 1015 37 10000 3.1 100 10:23 18.11.2019
4191 Clouds 28 1016 45 10000 3.1 170 09:56 18.11.2019
4192 Clouds 28 1016 45 10000 3.1 170 09:38 18.11.2019
4193 Clouds 28 1016 45 10000 3.1 170 09:18 18.11.2019
4194 Clear 28 1018 45 10000 4.1 130 08:45 18.11.2019
4195 Clouds 28 1018 45 10000 4.1 130 08:22 18.11.2019
4196 Clouds 27 1019 51 10000 4.6 160 07:49 18.11.2019
4197 Clouds 27 1019 51 10000 4.6 160 07:30 18.11.2019
4198 Clouds 25 1019 57 10000 3.6 160 06:56 18.11.2019
4199 Clouds 25 1019 57 10000 3.6 160 06:37 18.11.2019
4200 Clouds 25 1019 57 10000 3.6 160 06:19 18.11.2019
4201 Clouds 23 1019 53 10000 2.1 120 05:25 18.11.2019
4202 Clouds 20 1016 60 10000 3.1 90 02:59 18.11.2019
4203 Clouds 21 1016 57 10000 2.6 80 01:31 18.11.2019
4204 Clouds 21 1016 57 10000 3.1 100 00:39 18.11.2019
4205 Clouds 22 1016 57 10000 2.1 90 23:56 17.11.2019
4206 Clouds 22 1016 57 10000 2.1 90 23:38 17.11.2019
4207 Clouds 22 1016 57 10000 2.1 90 23:18 17.11.2019
4208 Clouds 22 1017 53 10000 2.1 90 22:41 17.11.2019
4209 Clouds 22 1017 53 10000 2.1 90 22:23 17.11.2019
4210 Clouds 23 1017 50 10000 2.6 100 21:59 17.11.2019
4211 Clouds 23 1017 50 10000 2.6 100 21:41 17.11.2019
4212 Clouds 23 1017 50 10000 2.6 100 21:19 17.11.2019
4213 Clouds 24 1017 50 10000 4.1 110 20:57 17.11.2019
4214 Clouds 24 1017 50 10000 4.1 110 20:38 17.11.2019
4215 Clouds 24 1017 50 10000 4.1 110 20:20 17.11.2019
4216 Clouds 24 1017 50 10000 4.1 110 20:20 17.11.2019
4217 Clouds 24 1017 47 10000 3.6 90 19:56 17.11.2019
4218 Clouds 24 1017 47 10000 3.6 90 19:38 17.11.2019
4219 Clouds 24 1017 47 10000 3.6 90 19:20 17.11.2019
4220 Clouds 25 1017 44 10000 3.6 90 18:56 17.11.2019
4221 Clouds 25 1017 44 10000 3.6 90 18:38 17.11.2019
4222 Clouds 25 1017 44 10000 3.6 90 18:19 17.11.2019
4223 Clouds 26 1017 39 10000 4.1 100 17:57 17.11.2019
4224 Clouds 26 1017 39 10000 4.1 100 17:57 17.11.2019
4225 Clouds 26 1017 39 10000 4.1 100 17:39 17.11.2019
4226 Clouds 26 1017 39 10000 4.1 100 17:20 17.11.2019
4227 Clouds 26 1017 39 10000 4.1 100 16:58 17.11.2019
4228 Clouds 27 1017 39 10000 4.1 100 16:40 17.11.2019
4229 Clouds 27 1017 39 10000 4.1 100 16:21 17.11.2019
4230 Clouds 27 1016 48 10000 5.1 10 15:55 17.11.2019
4231 Clouds 27 1016 48 10000 5.1 10 15:37 17.11.2019
4232 Clouds 27 1016 48 10000 5.1 10 15:18 17.11.2019
4233 Clouds 29 1015 48 10000 6.2 10 14:55 17.11.2019
4234 Clouds 29 1015 48 10000 6.2 10 14:37 17.11.2019
4235 Clouds 29 1015 48 10000 6.2 10 14:19 17.11.2019
4236 Clouds 29 1015 48 10000 4.6 360 13:55 17.11.2019
4237 Clouds 29 1015 48 10000 4.6 360 13:55 17.11.2019
4238 Clouds 29 1015 48 10000 4.6 360 13:37 17.11.2019
4239 Clouds 29 1015 48 10000 4.6 360 13:18 17.11.2019
4240 Clouds 30 1015 29 10000 3.1 140 12:41 17.11.2019
4241 Clouds 30 1015 29 10000 3.1 140 12:22 17.11.2019
4242 Clouds 30 1015 30 10000 5.1 120 11:56 17.11.2019
4243 Clouds 30 1015 30 10000 5.1 120 11:38 17.11.2019
4244 Clouds 30 1015 30 10000 5.1 120 11:20 17.11.2019
4245 Clouds 29 1016 33 10000 3.6 140 10:44 17.11.2019
4246 Clouds 29 1016 33 10000 3.6 140 10:23 17.11.2019
4247 Clouds 28 1017 39 10000 3.1 170 09:57 17.11.2019
4248 Clouds 28 1017 39 10000 3.1 170 09:39 17.11.2019
4249 Clouds 28 1017 39 10000 3.1 170 09:20 17.11.2019
4250 Clouds 28 1018 42 10000 3.6 190 08:39 17.11.2019
4251 Clouds 28 1018 42 10000 3.6 190 08:20 17.11.2019
4252 Clouds 26 1019 50 10000 4.1 150 07:46 17.11.2019
4253 Clouds 26 1019 50 10000 4.1 150 07:24 17.11.2019
4254 Clouds 25 1018 53 10000 4.6 120 06:57 17.11.2019
4255 Clouds 25 1018 53 10000 4.6 120 06:31 17.11.2019
4256 Clouds 20 1017 64 10000 3.6 90 05:40 17.11.2019
4257 Clouds 19 1017 68 10000 2.6 60 04:23 17.11.2019
4258 Clouds 18 1016 68 10000 2.1 100 03:43 17.11.2019
4259 Clouds 18 1016 68 10000 2.1 100 03:23 17.11.2019
4260 Clear 20 1016 60 10000 3.6 60 02:25 17.11.2019
4261 Clear 20 1016 56 10000 3.1 90 01:25 17.11.2019
4262 Clear 20 1016 56 10000 2.1 80 00:53 17.11.2019
4263 Clear 20 1016 56 10000 2.1 80 00:22 17.11.2019
4264 Clear 20 1015 53 10000 2.6 90 23:44 16.11.2019
4265 Clear 20 1015 53 10000 2.6 90 23:20 16.11.2019
4266 Clear 21 1015 56 10000 2.6 90 22:59 16.11.2019
4267 Clear 21 1015 56 10000 2.6 90 22:40 16.11.2019
4268 Clear 21 1015 56 10000 2.6 90 22:40 16.11.2019
4269 Clear 21 1015 56 10000 2.6 90 22:18 16.11.2019
4270 Clear 21 1015 53 10000 2.6 70 21:42 16.11.2019
4271 Clear 21 1015 53 10000 2.6 70 21:23 16.11.2019
4272 Clear 22 1016 57 10000 3.1 80 20:59 16.11.2019
4273 Clear 22 1016 57 10000 3.1 80 20:41 16.11.2019
4274 Clear 22 1016 57 10000 3.1 80 20:20 16.11.2019
4275 Clear 23 1016 57 10000 3.1 60 19:57 16.11.2019
4276 Clear 23 1016 57 10000 3.1 60 19:39 16.11.2019
4277 Clear 23 1016 57 10000 3.1 60 19:20 16.11.2019
4278 Clear 23 1015 53 10000 4.6 50 18:45 16.11.2019
4279 Clear 23 1015 53 10000 4.6 50 18:27 16.11.2019
4280 Clear 24 1015 53 10000 4.1 60 17:56 16.11.2019
4281 Clear 24 1015 53 10000 4.1 60 17:38 16.11.2019
4282 Clear 24 1015 53 10000 4.1 60 17:19 16.11.2019
4283 Clear 25 1015 41 10000 4.1 60 16:47 16.11.2019
4284 Clear 25 1015 41 10000 4.1 60 16:29 16.11.2019
4285 Clear 25 1014 41 10000 4.1 50 15:57 16.11.2019
4286 Clear 25 1014 41 10000 4.1 50 15:39 16.11.2019
4287 Clear 25 1014 41 10000 4.1 50 15:20 16.11.2019
4288 Clear 27 1013 39 10000 5.1 50 14:42 16.11.2019
4289 Clear 27 1013 39 10000 5.1 50 14:22 16.11.2019
4290 Clear 27 1013 39 10000 5.1 50 14:22 16.11.2019
4291 Clear 27 1013 39 10000 5.1 50 13:58 16.11.2019
4292 Clear 27 1013 39 10000 5.1 50 13:39 16.11.2019
4293 Clear 27 1013 39 10000 5.1 50 13:39 16.11.2019
4294 Clear 27 1013 39 10000 5.1 50 13:19 16.11.2019
4295 Clear 26 1013 47 10000 4.1 30 12:59 16.11.2019
4296 Clear 26 1013 47 10000 4.1 30 12:41 16.11.2019
4297 Clear 26 1013 47 10000 4.1 30 12:20 16.11.2019
4298 Clear 26 1013 47 10000 4.1 30 12:20 16.11.2019
4299 Clear 27 1014 47 10000 6.7 40 11:47 16.11.2019
4300 Clear 27 1014 47 10000 6.7 40 11:28 16.11.2019
4301 Clouds 27 1014 25 10000 2.6 130 10:59 16.11.2019
4302 Clouds 27 1014 25 10000 2.6 130 10:41 16.11.2019
4303 Clouds 28 1014 25 10000 2.6 130 10:22 16.11.2019
4304 Clouds 28 1015 32 10000 3.1 250 09:56 16.11.2019
4305 Clouds 28 1015 32 10000 3.1 250 09:36 16.11.2019
4306 Clouds 28 1015 32 10000 3.1 250 09:18 16.11.2019
4307 Clear 27 1016 44 10000 2.6 200 08:40 16.11.2019
4308 Clouds 27 1016 44 10000 2.6 200 08:20 16.11.2019
4309 Clouds 26 1016 50 10000 3.1 180 07:43 16.11.2019
4310 Clouds 26 1016 50 10000 3.1 180 07:22 16.11.2019
4311 Clouds 24 1016 60 10000 2.6 190 06:56 16.11.2019
4312 Clouds 24 1016 60 10000 2.6 190 06:35 16.11.2019
4313 Clouds 22 1016 68 9000 2.1 210 05:59 16.11.2019
4314 Clouds 20 1015 68 8000 2.1 180 04:21 16.11.2019
4315 Clouds 20 1015 68 8000 2.1 180 04:21 16.11.2019
4316 Clouds 20 1014 68 10000 1.5 200 03:26 16.11.2019
4317 Clouds 20 1014 68 10000 1 0 02:35 16.11.2019
4318 Clouds 22 1014 64 10000 2.6 150 01:29 16.11.2019
4319 Clouds 22 1014 69 10000 1.5 190 00:47 16.11.2019
4320 Clouds 22 1014 69 10000 1.5 190 00:47 16.11.2019
4321 Clouds 22 1014 69 10000 1.5 190 00:27 16.11.2019
4322 Clouds 22 1014 64 10000 1 0 23:44 15.11.2019
4323 Clouds 22 1014 64 10000 1 0 23:23 15.11.2019
4324 Clouds 21 1014 60 10000 2.6 170 22:59 15.11.2019
4325 Clouds 21 1014 60 10000 2.6 170 22:39 15.11.2019
4326 Clouds 21 1014 60 10000 2.6 170 22:19 15.11.2019
4327 Clouds 23 1014 64 10000 3.1 160 21:55 15.11.2019
4328 Clouds 23 1014 64 10000 3.1 160 21:36 15.11.2019
4329 Clouds 23 1014 64 10000 3.1 160 21:18 15.11.2019
4330 Clouds 24 1015 61 10000 3.1 140 20:55 15.11.2019
4331 Clouds 23 1015 61 10000 3.1 140 20:37 15.11.2019
4332 Clouds 23 1015 61 10000 3.1 140 20:19 15.11.2019
4333 Clouds 24 1015 51 10000 2.1 0 19:56 15.11.2019
4334 Clouds 24 1015 51 10000 2.1 0 19:36 15.11.2019
4335 Clouds 24 1015 51 10000 2.1 0 19:18 15.11.2019
4336 Clouds 24 1015 51 10000 2.1 0 19:18 15.11.2019
4337 Clouds 24 1015 54 10000 1 0 18:42 15.11.2019
4338 Clouds 24 1015 54 10000 1 0 18:23 15.11.2019
4339 Clouds 24 1014 57 10000 1 0 17:55 15.11.2019
4340 Clouds 24 1014 57 10000 1 0 17:55 15.11.2019
4341 Clouds 24 1014 57 10000 1 0 17:37 15.11.2019
4342 Clear 24 1014 57 10000 1 0 17:19 15.11.2019
4343 Clear 25 1014 57 10000 1.5 220 16:40 15.11.2019
4344 Clear 25 1014 57 10000 1.5 220 16:22 15.11.2019
4345 Clear 26 1014 57 10000 4.1 280 15:59 15.11.2019
4346 Clear 26 1014 57 10000 4.1 280 15:59 15.11.2019
4347 Clear 26 1014 57 10000 4.1 280 15:37 15.11.2019
4348 Clear 26 1014 57 10000 4.1 280 15:18 15.11.2019
4349 Clear 26 1014 51 10000 4.1 280 14:55 15.11.2019
4350 Clear 26 1014 51 10000 4.1 280 14:37 15.11.2019
4351 Clear 26 1014 51 10000 4.1 280 14:37 15.11.2019
4352 Clear 26 1014 51 10000 4.1 280 14:18 15.11.2019
4353 Clear 27 1014 47 10000 4.1 290 13:55 15.11.2019
4354 Clear 27 1014 47 10000 4.1 290 13:36 15.11.2019
4355 Clear 27 1014 47 10000 4.1 290 13:18 15.11.2019
4356 Clear 28 1014 42 10000 5.1 300 12:56 15.11.2019
4357 Clear 28 1014 42 10000 5.1 300 12:37 15.11.2019
4358 Clear 28 1014 42 10000 5.1 300 12:18 15.11.2019
4359 Clear 28 1014 30 10000 3.6 280 11:40 15.11.2019
4360 Clear 28 1014 30 10000 3.6 280 11:21 15.11.2019
4361 Clear 28 1015 30 10000 3.6 320 10:59 15.11.2019
4362 Clear 28 1015 30 10000 3.6 320 10:39 15.11.2019
4363 Clear 28 1015 30 10000 3.6 320 10:20 15.11.2019
4364 Clear 28 1016 26 10000 2.6 90 09:41 15.11.2019
4365 Clear 28 1016 26 10000 2.6 90 09:21 15.11.2019
4366 Clear 28 1017 26 10000 2.1 0 08:58 15.11.2019
4367 Clear 28 1017 26 10000 2.1 0 08:39 15.11.2019
4368 Clear 28 1017 26 10000 2.1 0 08:20 15.11.2019
4369 Clear 26 1017 27 10000 3.6 170 07:42 15.11.2019
4370 Clear 26 1017 27 10000 3.6 170 07:23 15.11.2019
4371 Clear 23 1017 35 10000 3.1 160 06:36 15.11.2019
4372 Clear 20 1017 43 10000 2.1 150 05:54 15.11.2019
4373 Clear 20 1017 43 10000 2.1 150 05:35 15.11.2019
4374 Clear 18 1016 42 10000 2.6 150 04:53 15.11.2019
4375 Clear 17 1016 45 10000 2.1 180 03:39 15.11.2019
4376 Clear 17 1016 43 10000 2.1 160 02:34 15.11.2019
4377 Clear 17 1016 43 10000 2.1 140 01:55 15.11.2019
4378 Clear 17 1016 43 10000 2.1 140 01:32 15.11.2019
4379 Clear 17 1016 43 10000 2.1 140 01:32 15.11.2019
4380 Clear 18 1016 43 10000 1.5 170 00:40 15.11.2019
4381 Clear 18 1016 43 10000 1.5 170 00:21 15.11.2019
4382 Clear 18 1016 43 10000 1.5 170 23:46 14.11.2019
4383 Clear 18 1016 43 10000 1.5 170 23:26 14.11.2019
4384 Clear 18 1016 38 10000 2.1 110 22:42 14.11.2019
4385 Clear 18 1016 38 10000 2.1 110 22:23 14.11.2019
4386 Clear 19 1016 38 10000 2.6 90 21:58 14.11.2019
4387 Clear 19 1016 38 10000 2.6 90 21:40 14.11.2019
4388 Clear 19 1016 38 10000 2.6 90 21:22 14.11.2019
4389 Clear 20 1016 36 10000 1.5 130 20:55 14.11.2019
4390 Clear 20 1016 36 10000 1.5 130 20:37 14.11.2019
4391 Clear 20 1016 36 10000 1.5 130 20:18 14.11.2019
4392 Clear 20 1016 36 10000 1.5 130 20:18 14.11.2019
4393 Clear 22 1016 31 10000 2.1 70 19:54 14.11.2019
4394 Clear 22 1016 31 10000 2.1 70 19:36 14.11.2019
4395 Clear 22 1016 31 10000 2.1 70 19:18 14.11.2019
4396 Clear 22 1016 31 10000 2.1 70 19:18 14.11.2019
4397 Clear 22 1017 35 0 1.79 90 18:42 14.11.2019
4398 Clear 22 1017 35 0 1.79 90 18:42 14.11.2019
4399 Clear 23 1016 24 10000 2.1 50 18:22 14.11.2019
4400 Clear 23 1016 24 10000 2.1 50 17:57 14.11.2019
4401 Clear 24 1016 24 10000 2.1 50 17:38 14.11.2019
4402 Clear 24 1016 24 10000 2.1 50 17:20 14.11.2019
4403 Clear 24 1016 24 10000 2.6 40 16:58 14.11.2019
4404 Clear 24 1016 24 10000 2.6 40 16:37 14.11.2019
4405 Clear 24 1016 24 10000 2.6 40 16:19 14.11.2019
4406 Clear 26 1015 30 10000 4.1 350 15:58 14.11.2019
4407 Clear 26 1015 30 10000 4.1 350 15:38 14.11.2019
4408 Clear 26 1015 30 10000 4.1 350 15:20 14.11.2019
4409 Clear 27 1015 30 10000 5.1 350 14:46 14.11.2019
4410 Clear 27 1015 30 10000 5.1 350 14:23 14.11.2019
4411 Clear 28 1015 28 10000 5.7 350 13:58 14.11.2019
4412 Clear 28 1015 28 10000 5.7 350 13:39 14.11.2019
4413 Clear 28 1015 28 10000 5.7 350 13:20 14.11.2019
4414 Clouds 28 1015 30 10000 6.2 340 12:56 14.11.2019
4415 Clouds 28 1015 30 10000 6.2 340 12:37 14.11.2019
4416 Clouds 28 1015 30 10000 6.2 340 12:19 14.11.2019
4417 Clouds 28 1016 24 10000 6.2 340 11:54 14.11.2019
4418 Clouds 28 1016 24 10000 6.2 340 11:36 14.11.2019
4419 Clouds 28 1016 24 10000 6.2 340 11:18 14.11.2019
4420 Clouds 29 1016 25 10000 5.7 340 10:41 14.11.2019
4421 Clouds 29 1016 25 10000 5.7 340 10:20 14.11.2019
4422 Clouds 28 1017 21 10000 1.5 0 09:57 14.11.2019
4423 Clear 27 1017 31 0 4.43 6 09:39 14.11.2019
4424 Clear 28 1018 23 10000 1 0 09:21 14.11.2019
4425 Clear 28 1018 23 10000 1 0 08:48 14.11.2019
4426 Clear 31 1018 23 10000 1 0 08:26 14.11.2019
4427 Clear 29 1018 32 10000 2.6 110 07:57 14.11.2019
4428 Clear 29 1018 32 10000 2.6 110 07:38 14.11.2019
4429 Clear 29 1018 32 10000 2.6 110 07:20 14.11.2019
4430 Clear 27 1000 26 6000 4.1 200 06:44 14.11.2019
4431 Clear 27 1018 36 10000 1.5 0 06:19 14.11.2019
4432 Clear 17 1017 52 10000 1 0 04:48 14.11.2019
4433 Clear 17 1016 52 10000 2.1 130 04:26 14.11.2019
4434 Clear 18 1016 43 10000 2.1 70 02:49 14.11.2019
4435 Clear 18 1016 43 10000 2.1 70 02:28 14.11.2019
4436 Clear 18 1016 43 10000 2.1 60 01:33 14.11.2019
4437 Clear 20 1016 41 10000 2.1 70 00:55 14.11.2019
4438 Clear 20 1016 41 10000 2.1 70 00:33 14.11.2019
4439 Clear 20 1016 43 10000 1.5 110 23:44 13.11.2019
4440 Clear 20 1016 43 10000 1.5 110 23:25 13.11.2019
4441 Clear 20 1016 41 10000 2.6 150 22:59 13.11.2019
4442 Clear 20 1016 41 10000 2.6 150 22:41 13.11.2019
4443 Clear 20 1016 41 10000 2.6 150 22:22 13.11.2019
4444 Clear 20 1016 38 10000 4.6 110 21:56 13.11.2019
4445 Clear 20 1016 38 10000 4.6 110 21:38 13.11.2019
4446 Clear 20 1016 38 10000 4.6 110 21:20 13.11.2019
4447 Clear 21 1016 44 10000 2.6 100 20:57 13.11.2019
4448 Clear 21 1016 44 10000 2.6 100 20:57 13.11.2019
4449 Clear 21 1016 44 10000 2.6 100 20:37 13.11.2019
4450 Clear 21 1016 44 10000 2.6 100 20:37 13.11.2019
4451 Clear 21 1016 44 10000 2.6 100 20:19 13.11.2019
4452 Clear 21 1016 41 10000 2.6 90 19:44 13.11.2019
4453 Clear 21 1016 41 10000 2.6 90 19:21 13.11.2019
4454 Clear 22 1016 34 10000 2.6 60 18:58 13.11.2019
4455 Clear 22 1016 34 10000 2.6 60 18:58 13.11.2019
4456 Clear 22 1016 34 10000 2.6 60 18:39 13.11.2019
4457 Clear 22 1016 34 10000 2.6 60 18:21 13.11.2019
4458 Clear 24 1016 36 10000 2.6 60 17:59 13.11.2019
4459 Clear 24 1016 36 10000 2.6 60 17:40 13.11.2019
4460 Clear 24 1016 36 10000 2.6 60 17:22 13.11.2019
4461 Clear 25 1015 34 10000 4.1 30 16:59 13.11.2019
4462 Clear 25 1015 34 10000 4.1 30 16:59 13.11.2019
4463 Clear 25 1015 34 10000 4.1 30 16:59 13.11.2019
4464 Clear 25 1015 34 10000 4.1 30 16:40 13.11.2019
4465 Clear 25 1015 34 10000 4.1 30 16:21 13.11.2019
4466 Clear 26 1015 34 10000 5.1 30 15:58 13.11.2019
4467 Clear 26 1015 34 10000 5.1 30 15:40 13.11.2019
4468 Clear 26 1015 34 10000 5.1 30 15:21 13.11.2019
4469 Clear 27 1014 24 10000 5.1 20 14:43 13.11.2019
4470 Clear 27 1014 24 10000 5.1 20 14:23 13.11.2019
4471 Clouds 28 1014 23 10000 5.7 350 13:59 13.11.2019
4472 Clouds 28 1014 23 10000 5.7 350 13:37 13.11.2019
4473 Clouds 28 1014 23 10000 5.7 350 13:19 13.11.2019
4474 Clouds 29 1014 9 10000 1.5 0 12:57 13.11.2019
4475 Clouds 29 1014 9 10000 1.5 0 12:38 13.11.2019
4476 Clouds 29 1014 9 10000 1.5 0 12:19 13.11.2019
4477 Clouds 29 1014 11 10000 2.1 0 11:41 13.11.2019
4478 Clouds 29 1014 11 10000 2.1 0 11:21 13.11.2019
4479 Clouds 29 1015 12 10000 3.6 130 10:59 13.11.2019
4480 Clouds 29 1015 12 10000 3.6 130 10:41 13.11.2019
4481 Clouds 29 1015 12 10000 3.6 130 10:41 13.11.2019
4482 Clouds 29 1015 12 10000 3.6 130 10:20 13.11.2019
4483 Clear 28 1016 21 10000 3.1 140 09:57 13.11.2019
4484 Clear 28 1016 21 10000 3.1 140 09:39 13.11.2019
4485 Clear 28 1016 21 10000 3.1 140 09:20 13.11.2019
4486 Clear 28 1017 21 10000 4.1 100 08:39 13.11.2019
4487 Clear 28 1017 21 10000 4.1 100 08:39 13.11.2019
4488 Clear 28 1017 21 10000 4.1 100 08:20 13.11.2019
4489 Clear 26 1017 26 10000 2.6 80 07:43 13.11.2019
4490 Clear 26 1017 26 10000 2.6 80 07:21 13.11.2019
4491 Clear 23 1017 31 10000 3.1 100 06:47 13.11.2019
4492 Clear 23 1017 31 10000 3.1 100 06:19 13.11.2019
4493 Clear 23 1017 31 10000 3.1 100 06:19 13.11.2019
4494 Clear 23 1017 31 10000 3.1 100 06:19 13.11.2019
4495 Clear 19 1016 40 10000 2.1 110 05:57 13.11.2019
4496 Clear 19 1016 40 10000 2.1 110 05:38 13.11.2019
4497 Clear 16 1016 49 10000 2.6 100 04:44 13.11.2019
4498 Clear 16 1015 49 10000 1.5 170 03:23 13.11.2019
4499 Clear 17 1015 46 10000 1 150 01:46 13.11.2019
4500 Clear 17 1015 46 10000 1 150 01:18 13.11.2019
4501 Clear 17 1015 46 10000 1.5 160 00:37 13.11.2019
4502 Clear 18 1015 49 10000 1.5 100 23:42 12.11.2019
4503 Clear 18 1015 49 10000 1.5 100 23:22 12.11.2019
4504 Clear 18 1015 49 10000 1.5 100 23:22 12.11.2019
4505 Clear 19 1015 43 10000 2.6 100 22:58 12.11.2019
4506 Clear 19 1015 43 10000 2.6 100 22:40 12.11.2019
4507 Clear 19 1015 43 10000 2.6 100 22:40 12.11.2019
4508 Clear 19 1015 43 10000 2.6 100 22:18 12.11.2019
4509 Clear 20 1015 38 10000 2.1 100 21:45 12.11.2019
4510 Clear 20 1015 38 10000 2.1 100 21:26 12.11.2019
4511 Clear 21 1015 38 10000 2.1 90 20:59 12.11.2019
4512 Clear 21 1015 38 10000 2.1 90 20:38 12.11.2019
4513 Clear 21 1015 38 10000 2.1 90 20:19 12.11.2019
4514 Clear 22 1016 44 10000 2.1 100 19:58 12.11.2019
4515 Clear 22 1016 44 10000 2.1 100 19:40 12.11.2019
4516 Clear 22 1016 44 10000 2.1 100 19:20 12.11.2019
4517 Clear 22 1015 44 10000 2.6 100 18:59 12.11.2019
4518 Clear 22 1015 44 10000 2.6 100 18:40 12.11.2019
4519 Clear 22 1015 44 10000 2.6 100 18:22 12.11.2019
4520 Clear 24 1015 41 10000 2.1 90 17:58 12.11.2019
4521 Clear 24 1015 41 10000 2.1 90 17:40 12.11.2019
4522 Clear 24 1015 41 10000 2.1 90 17:21 12.11.2019
4523 Clear 25 1014 36 10000 3.6 50 16:59 12.11.2019
4524 Clear 25 1014 36 10000 3.6 50 16:39 12.11.2019
4525 Clear 25 1014 36 10000 3.6 50 16:21 12.11.2019
4526 Clear 27 1014 34 10000 4.1 20 15:42 12.11.2019
4527 Clear 27 1014 34 10000 4.1 20 15:42 12.11.2019
4528 Clear 27 1014 34 10000 4.1 20 15:22 12.11.2019
4529 Clear 28 1013 28 10000 5.7 10 14:57 12.11.2019
4530 Clear 28 1013 28 10000 5.7 10 14:38 12.11.2019
4531 Clear 28 1013 28 10000 5.7 10 14:19 12.11.2019
4532 Clear 29 1013 28 10000 6.2 360 13:56 12.11.2019
4533 Clear 29 1013 28 10000 6.2 360 13:37 12.11.2019
4534 Clear 29 1013 28 10000 6.2 360 13:19 12.11.2019
4535 Clear 29 1013 22 10000 5.7 360 12:43 12.11.2019
4536 Clear 30 1014 16 10000 1.5 0 12:20 12.11.2019
4537 Clear 30 1014 16 10000 1.5 0 11:59 12.11.2019
4538 Clear 30 1014 16 10000 1.5 0 11:41 12.11.2019
4539 Clear 30 1014 16 10000 1.5 0 11:22 12.11.2019
4540 Clear 30 1015 17 10000 3.6 120 10:56 12.11.2019
4541 Clear 30 1015 17 10000 3.6 120 10:38 12.11.2019
4542 Clear 30 1015 17 10000 3.6 120 10:19 12.11.2019
4543 Clear 29 1016 20 10000 4.6 110 09:42 12.11.2019
4544 Clear 29 1016 20 10000 4.6 110 09:23 12.11.2019
4545 Clear 28 1016 23 10000 4.6 110 08:57 12.11.2019
4546 Clear 27 1017 24 0 4.02 100 08:39 12.11.2019
4547 Clear 27 1017 28 10000 3.6 90 08:19 12.11.2019
4548 Clear 26 1017 28 10000 3.6 90 07:40 12.11.2019
4549 Clear 26 1017 28 10000 3.6 90 07:40 12.11.2019
4550 Clear 26 1017 28 10000 3.6 90 07:22 12.11.2019
4551 Clear 23 1016 31 10000 2.6 100 06:45 12.11.2019
4552 Clear 23 1016 31 10000 2.6 100 06:23 12.11.2019
4553 Clear 20 1016 36 10000 1.5 0 05:46 12.11.2019
4554 Clear 17 1015 52 10000 1 60 04:50 12.11.2019
4555 Clear 16 1014 49 10000 1.5 130 03:48 12.11.2019
4556 Clear 17 1014 46 10000 2.1 150 01:47 12.11.2019
4557 Clear 17 1014 46 10000 2.1 150 01:22 12.11.2019
4558 Clear 18 1014 46 10000 1.5 140 00:47 12.11.2019
4559 Clear 17 1014 59 10000 2.6 130 00:28 12.11.2019
4560 Clear 18 1014 40 10000 0.5 0 23:45 11.11.2019
4561 Clear 19 1014 40 10000 0.5 0 23:23 11.11.2019
4562 Clear 19 1014 40 10000 1.5 200 22:58 11.11.2019
4563 Clear 19 1014 40 10000 1.5 200 22:36 11.11.2019
4564 Clear 19 1014 40 10000 1.5 200 22:18 11.11.2019
4565 Clear 20 1014 31 10000 3.1 100 21:57 11.11.2019
4566 Clear 20 1014 31 10000 3.1 100 21:38 11.11.2019
4567 Clear 20 1014 31 10000 3.1 100 21:19 11.11.2019
4568 Clear 21 1014 29 10000 2.1 90 20:42 11.11.2019
4569 Clear 21 1014 29 10000 2.1 90 20:20 11.11.2019
4570 Clear 22 1014 36 10000 2.1 60 19:58 11.11.2019
4571 Clear 22 1014 36 10000 2.1 60 19:40 11.11.2019
4572 Clear 22 1014 36 10000 2.1 60 19:18 11.11.2019
4573 Clear 23 1014 36 10000 3.1 90 18:55 11.11.2019
4574 Clear 23 1014 36 10000 3.1 90 18:37 11.11.2019
4575 Clear 23 1014 36 10000 3.1 90 18:19 11.11.2019
4576 Clear 24 1014 30 10000 3.1 50 17:42 11.11.2019
4577 Clear 24 1014 30 10000 3.1 50 17:24 11.11.2019
4578 Clear 25 1014 30 10000 4.1 50 16:42 11.11.2019
4579 Clear 25 1014 30 10000 4.1 50 16:22 11.11.2019
4580 Clear 27 1013 30 10000 5.1 30 15:58 11.11.2019
4581 Clear 27 1013 30 10000 5.1 30 15:40 11.11.2019
4582 Clouds 28 1013 28 10000 6.2 20 15:19 11.11.2019
4583 Clouds 28 1013 28 10000 6.2 20 14:44 11.11.2019
4584 Clouds 29 1013 30 10000 5.7 360 14:25 11.11.2019
4585 Clouds 29 1013 30 10000 5.7 360 13:58 11.11.2019
4586 Clouds 29 1013 30 10000 5.7 360 13:38 11.11.2019
4587 Clouds 29 1013 30 10000 5.7 360 13:19 11.11.2019
4588 Clouds 29 1013 30 10000 5.7 360 13:19 11.11.2019
4589 Clouds 29 1013 30 10000 4.1 350 12:57 11.11.2019
4590 Clouds 29 1013 30 10000 4.1 350 12:39 11.11.2019
4591 Clouds 29 1013 37 10000 3.1 70 12:20 11.11.2019
4592 Clouds 29 1013 37 10000 3.1 70 11:42 11.11.2019
4593 Clouds 29 1013 37 10000 3.1 70 11:22 11.11.2019
4594 Clouds 29 1014 35 10000 3.1 100 10:57 11.11.2019
4595 Clouds 29 1014 35 10000 3.1 100 10:38 11.11.2019
4596 Clouds 29 1014 35 10000 3.1 100 10:18 11.11.2019
4597 Clouds 28 1016 42 10000 4.6 100 09:43 11.11.2019
4598 Clouds 28 1016 42 10000 4.6 100 09:21 11.11.2019
4599 Clouds 27 1017 47 10000 5.1 70 08:59 11.11.2019
4600 Clouds 27 1017 47 10000 5.1 70 08:37 11.11.2019
4601 Clouds 27 1017 47 10000 5.1 70 08:18 11.11.2019
4602 Clear 26 1017 51 10000 4.6 90 07:54 11.11.2019
4603 Clear 26 1017 51 10000 4.6 90 07:36 11.11.2019
4604 Clear 26 1017 51 10000 4.6 90 07:18 11.11.2019
4605 Clouds 23 1017 61 10000 4.1 110 06:40 11.11.2019
4606 Clouds 23 1017 61 10000 4.1 110 06:20 11.11.2019
4607 Clouds 20 1016 64 10000 4.1 120 05:49 11.11.2019
4608 Clear 17 1015 82 10000 2.1 110 03:56 11.11.2019
4609 Clear 17 1015 82 10000 2.1 110 03:56 11.11.2019
4610 Clear 18 1015 73 10000 2.1 0 02:49 11.11.2019
4611 Clear 18 1015 73 10000 2.1 0 02:18 11.11.2019
4612 Clear 18 1014 73 10000 2.1 90 01:37 11.11.2019
4613 Clear 18 1014 73 10000 3.1 90 00:58 11.11.2019
4614 Clear 18 1014 73 10000 3.1 90 00:40 11.11.2019
4615 Clear 18 1015 77 10000 1.5 70 23:58 10.11.2019
4616 Clear 18 1015 77 10000 1.5 70 23:38 10.11.2019
4617 Clear 18 1015 77 10000 1.5 70 23:38 10.11.2019
4618 Clear 18 1015 77 10000 1.5 70 23:19 10.11.2019
4619 Clear 19 1015 77 10000 1.5 70 22:56 10.11.2019
4620 Clear 19 1015 77 10000 1.5 70 22:38 10.11.2019
4621 Clear 19 1015 77 10000 1.5 70 22:19 10.11.2019
4622 Clear 19 1015 83 10000 2.1 80 21:55 10.11.2019
4623 Clear 19 1015 83 10000 2.1 80 21:37 10.11.2019
4624 Clear 19 1015 83 10000 2.1 80 21:19 10.11.2019
4625 Clear 19 1015 78 10000 2.1 100 20:41 10.11.2019
4626 Clouds 19 1015 78 10000 2.1 100 20:22 10.11.2019
4627 Clouds 20 1016 68 10000 2.6 100 19:56 10.11.2019
4628 Clouds 20 1016 68 10000 2.6 100 19:56 10.11.2019
4629 Clouds 20 1016 68 10000 2.6 100 19:38 10.11.2019
4630 Clouds 20 1016 68 10000 2.6 100 19:19 10.11.2019
4631 Clouds 20 1016 64 10000 2.1 100 18:58 10.11.2019
4632 Clouds 20 1016 64 10000 2.1 100 18:39 10.11.2019
4633 Clouds 20 1016 64 10000 2.1 100 18:19 10.11.2019
4634 Clouds 20 1016 64 10000 2.1 100 18:19 10.11.2019
4635 Clouds 20 1016 64 10000 1.5 70 17:56 10.11.2019
4636 Clouds 20 1016 64 10000 1.5 70 17:38 10.11.2019
4637 Clouds 20 1016 64 10000 1.5 70 17:38 10.11.2019
4638 Clouds 20 1016 64 10000 1.5 70 17:20 10.11.2019
4639 Clouds 21 1015 64 10000 2.1 120 16:58 10.11.2019
4640 Clouds 21 1015 64 10000 2.1 120 16:39 10.11.2019
4641 Clouds 21 1015 64 10000 2.1 120 16:39 10.11.2019
4642 Clouds 21 1015 64 10000 2.1 120 16:20 10.11.2019
4643 Clouds 22 1015 68 10000 2.6 140 15:55 10.11.2019
4644 Clouds 22 1015 68 10000 2.6 140 15:36 10.11.2019
4645 Clouds 23 1015 64 10000 2.6 110 15:18 10.11.2019
4646 Clouds 23 1015 64 10000 2.6 110 14:41 10.11.2019
4647 Rain 23 1015 64 10000 2.6 110 14:23 10.11.2019
4648 Rain 23 1014 69 10000 3.1 220 13:58 10.11.2019
4649 Rain 23 1014 69 10000 3.1 220 13:40 10.11.2019
4650 Rain 23 1014 69 10000 3.1 220 13:20 10.11.2019
4651 Clouds 22 1015 83 10000 4.1 210 12:44 10.11.2019
4652 Thunderstorm 21 1017 83 8000 7.2 160 12:21 10.11.2019
4653 Thunderstorm 21 1017 83 8000 7.2 160 11:57 10.11.2019
4654 Thunderstorm 21 1017 83 8000 7.2 160 11:39 10.11.2019
4655 Thunderstorm 21 1017 83 8000 7.2 160 11:20 10.11.2019
4656 Thunderstorm 21 1017 83 8000 7.2 160 11:20 10.11.2019
4657 Thunderstorm 26 1017 54 8000 4.6 100 10:59 10.11.2019
4658 Thunderstorm 26 1017 54 8000 4.6 100 10:40 10.11.2019
4659 Thunderstorm 26 1017 54 8000 4.6 100 10:20 10.11.2019
4660 Clouds 28 1016 54 10000 3.1 0 09:43 10.11.2019
4661 Clouds 28 1016 54 10000 3.1 0 09:43 10.11.2019
4662 Clouds 28 1016 54 10000 3.1 0 09:23 10.11.2019
4663 Rain 27 1017 51 10000 2.6 40 08:41 10.11.2019
4664 Rain 27 1017 51 10000 2.6 40 08:21 10.11.2019
4665 Clouds 26 1017 54 10000 3.1 60 07:58 10.11.2019
4666 Clouds 26 1017 54 10000 3.1 60 07:39 10.11.2019
4667 Clouds 26 1017 54 10000 3.1 60 07:18 10.11.2019
4668 Clouds 24 1016 60 10000 5.7 120 06:25 10.11.2019
4669 Clouds 23 1015 73 10000 5.1 100 04:46 10.11.2019
4670 Rain 23 1016 73 10000 7.2 30 03:19 10.11.2019
4671 Rain 25 1014 57 10000 5.1 70 01:44 10.11.2019
4672 Rain 25 1014 57 10000 5.1 70 01:19 10.11.2019
4673 Rain 25 1014 61 10000 7.2 60 00:39 10.11.2019
4674 Rain 25 1013 50 10000 4.1 60 23:43 09.11.2019
4675 Clouds 25 1013 50 10000 4.1 60 23:21 09.11.2019
4676 Clouds 25 1013 47 10000 4.1 110 22:59 09.11.2019
4677 Clouds 25 1013 47 10000 4.1 110 22:40 09.11.2019
4678 Clouds 25 1013 47 10000 4.1 110 22:19 09.11.2019
4679 Clouds 25 1013 47 10000 3.1 90 21:55 09.11.2019
4680 Clouds 25 1013 47 10000 3.1 90 21:37 09.11.2019
4681 Clouds 25 1013 47 10000 3.1 90 21:19 09.11.2019
4682 Clouds 25 1013 47 10000 3.1 90 21:19 09.11.2019
4683 Clouds 25 1014 44 10000 3.6 100 20:41 09.11.2019
4684 Clouds 25 1014 44 10000 3.6 100 20:41 09.11.2019
4685 Clear 25 1014 44 10000 3.6 100 20:22 09.11.2019
4686 Clear 26 1014 47 10000 5.7 120 19:57 09.11.2019
4687 Clear 26 1014 47 10000 5.7 120 19:37 09.11.2019
4688 Clear 26 1014 47 10000 5.7 120 19:18 09.11.2019
4689 Clear 26 1014 51 10000 4.1 90 18:40 09.11.2019
4690 Clear 26 1014 51 10000 4.1 90 18:19 09.11.2019
4691 Clear 26 1014 51 10000 4.1 90 18:19 09.11.2019
4692 Clear 27 1014 54 10000 5.1 90 17:58 09.11.2019
4693 Clear 27 1014 54 10000 5.1 90 17:40 09.11.2019
4694 Clear 27 1014 54 10000 5.1 90 17:21 09.11.2019
4695 Clear 27 1014 51 7000 3.6 70 16:42 09.11.2019
4696 Clear 27 1014 51 7000 3.6 70 16:21 09.11.2019
4697 Dust 28 1014 54 5000 4.6 80 15:55 09.11.2019
4698 Dust 28 1014 54 5000 4.6 80 15:55 09.11.2019
4699 Dust 28 1014 54 5000 4.6 80 15:37 09.11.2019
4700 Clear 30 1012 38 10000 2.1 0 15:19 09.11.2019
4701 Clear 30 1012 38 10000 2.1 0 14:41 09.11.2019
4702 Clear 30 1012 38 10000 2.1 0 14:21 09.11.2019
4703 Clear 30 1012 43 10000 3.1 0 13:57 09.11.2019
4704 Clear 30 1012 43 10000 3.1 0 13:37 09.11.2019
4705 Clear 30 1012 43 10000 3.1 0 13:19 09.11.2019
4706 Clear 31 1012 45 10000 4.1 320 12:47 09.11.2019
4707 Clear 31 1012 45 7000 6.2 320 12:29 09.11.2019
4708 Clear 31 1012 45 7000 6.2 320 11:57 09.11.2019
4709 Clear 32 1012 45 7000 6.2 320 11:38 09.11.2019
4710 Clear 32 1012 45 7000 6.2 320 11:19 09.11.2019
4711 Clear 32 1013 38 8000 3.6 240 10:41 09.11.2019
4712 Clear 33 1013 38 8000 3.6 240 10:20 09.11.2019
4713 Clear 31 1014 40 8000 2.6 190 09:59 09.11.2019
4714 Clear 31 1014 40 8000 2.6 190 09:59 09.11.2019
4715 Clear 31 1014 40 8000 2.6 190 09:59 09.11.2019
4716 Clear 31 1014 40 8000 2.6 190 09:40 09.11.2019
4717 Clear 31 1014 40 8000 2.6 190 09:19 09.11.2019
4718 Clear 30 1015 45 6000 3.6 180 08:43 09.11.2019
4719 Clear 30 1015 45 6000 3.6 180 08:24 09.11.2019
4720 Clouds 28 1016 48 10000 2.6 130 07:49 09.11.2019
4721 Clouds 28 1016 48 10000 2.6 130 07:25 09.11.2019
4722 Clouds 27 1016 51 10000 1.5 0 06:57 09.11.2019
4723 Clouds 26 1016 51 10000 1.5 0 06:39 09.11.2019
4724 Clouds 26 1016 51 10000 1.5 0 06:20 09.11.2019
4725 Clouds 24 1015 54 10000 2.1 170 05:38 09.11.2019
4726 Clouds 22 1013 57 10000 2.1 110 03:57 09.11.2019
4727 Clouds 22 1013 61 10000 1.5 140 02:46 09.11.2019
4728 Clouds 22 1013 61 10000 1.5 140 02:24 09.11.2019
4729 Clouds 23 1012 57 10000 2.1 130 01:18 09.11.2019
4730 Clouds 23 1013 57 10000 3.1 120 00:39 09.11.2019
4731 Clouds 23 1013 57 10000 3.1 120 00:21 09.11.2019
4732 Clouds 23 1013 61 10000 2.1 90 23:40 08.11.2019
4733 Clouds 23 1013 61 10000 2.1 90 23:22 08.11.2019
4734 Clouds 24 1013 65 10000 2.1 100 22:54 08.11.2019
4735 Clouds 24 1013 65 10000 2.1 100 22:22 08.11.2019
4736 Clouds 24 1014 65 10000 2.1 90 21:59 08.11.2019
4737 Clouds 24 1014 65 10000 2.1 90 21:41 08.11.2019
4738 Clouds 24 1014 65 10000 2.1 90 21:22 08.11.2019
4739 Clouds 25 1014 69 10000 2.6 80 20:57 08.11.2019
4740 Clouds 25 1014 69 10000 2.6 80 20:38 08.11.2019
4741 Clouds 25 1014 69 10000 2.6 80 20:18 08.11.2019
4742 Clouds 26 1014 61 10000 3.1 80 19:40 08.11.2019
4743 Clouds 26 1014 61 10000 3.1 80 19:19 08.11.2019
4744 Clouds 26 1014 62 10000 3.1 80 18:57 08.11.2019
4745 Clouds 26 1014 62 10000 3.1 80 18:57 08.11.2019
4746 Clouds 26 1014 62 10000 3.1 80 18:39 08.11.2019
4747 Clouds 26 1014 62 10000 3.1 80 18:20 08.11.2019
4748 Clouds 27 1014 62 10000 3.1 30 17:56 08.11.2019
4749 Clouds 27 1014 62 10000 3.1 30 17:38 08.11.2019
4750 Clear 27 1014 62 10000 3.1 30 17:20 08.11.2019
4751 Clear 28 1013 62 10000 3.6 360 16:58 08.11.2019
4752 Clear 28 1013 62 10000 3.6 360 16:40 08.11.2019
4753 Clear 28 1013 62 10000 3.6 360 16:20 08.11.2019
4754 Clear 29 1013 62 10000 4.1 350 15:59 08.11.2019
4755 Clear 29 1013 62 10000 4.1 350 15:40 08.11.2019
4756 Clear 29 1013 62 10000 4.1 350 15:22 08.11.2019
4757 Clear 30 1012 58 10000 5.7 350 14:56 08.11.2019
4758 Clear 30 1012 58 10000 5.7 350 14:37 08.11.2019
4759 Clear 30 1012 58 10000 5.7 350 14:18 08.11.2019
4760 Clear 31 1012 48 10000 6.2 350 13:57 08.11.2019
4761 Clear 31 1012 48 10000 6.2 350 13:38 08.11.2019
4762 Clear 31 1012 48 10000 6.2 350 13:19 08.11.2019
4763 Clouds 32 1012 40 10000 6.2 340 12:43 08.11.2019
4764 Clouds 32 1012 40 10000 5.7 350 12:24 08.11.2019
4765 Clouds 32 1012 40 10000 5.7 350 12:24 08.11.2019
4766 Clouds 32 1012 40 10000 5.7 350 11:57 08.11.2019
4767 Clouds 32 1012 40 10000 5.7 350 11:38 08.11.2019
4768 Clear 32 1012 40 10000 5.7 350 11:20 08.11.2019
4769 Clear 32 1013 40 10000 5.1 340 10:56 08.11.2019
4770 Clear 32 1013 40 10000 5.1 340 10:38 08.11.2019
4771 Clear 32 1013 40 10000 5.1 340 10:20 08.11.2019
4772 Clear 33 1013 24 10000 2.1 0 09:41 08.11.2019
4773 Clear 33 1013 24 10000 2.1 0 09:20 08.11.2019
4774 Clear 32 1014 29 10000 1.5 0 08:59 08.11.2019
4775 Clear 32 1014 29 10000 1.5 0 08:37 08.11.2019
4776 Clouds 32 1014 29 10000 1.5 0 08:18 08.11.2019
4777 Clouds 29 1015 51 10000 2.1 0 07:40 08.11.2019
4778 Clouds 29 1015 51 10000 2.1 0 07:22 08.11.2019
4779 Clouds 27 1015 39 10000 2.1 130 06:41 08.11.2019
4780 Clouds 27 1015 39 10000 2.1 130 06:22 08.11.2019
4781 Clouds 23 1014 47 10000 1 0 05:55 08.11.2019
4782 Clouds 23 1014 47 10000 1 0 05:22 08.11.2019
4783 Clouds 22 1013 47 10000 1.5 190 03:46 08.11.2019
4784 Clouds 22 1013 47 10000 1.5 190 03:24 08.11.2019
4785 Clouds 23 1012 47 10000 2.6 100 02:46 08.11.2019
4786 Clouds 23 1012 44 10000 2.6 100 01:48 08.11.2019
4787 Clouds 23 1012 44 10000 2.6 100 01:30 08.11.2019
4788 Clouds 24 1012 42 10000 2.1 0 00:24 08.11.2019
4789 Clouds 24 1012 39 10000 1 0 23:58 07.11.2019
4790 Clouds 24 1012 39 10000 1 0 23:40 07.11.2019
4791 Clouds 24 1012 39 10000 1 0 23:22 07.11.2019
4792 Clouds 24 1012 44 10000 1 0 22:42 07.11.2019
4793 Clouds 24 1012 44 10000 1 0 22:22 07.11.2019
4794 Clouds 24 1012 44 10000 1 0 22:22 07.11.2019
4795 Clouds 25 1012 42 10000 2.1 100 21:56 07.11.2019
4796 Clouds 25 1012 42 10000 2.1 100 21:37 07.11.2019
4797 Clouds 25 1012 42 10000 2.1 100 21:19 07.11.2019
4798 Clouds 25 1012 45 10000 2.6 90 20:58 07.11.2019
4799 Clouds 25 1012 45 10000 2.6 90 20:39 07.11.2019
4800 Clouds 25 1012 45 10000 2.6 90 20:21 07.11.2019
4801 Clouds 26 1013 54 10000 2.6 90 19:55 07.11.2019
4802 Clouds 26 1013 54 10000 2.6 90 19:36 07.11.2019
4803 Clouds 26 1013 54 10000 2.6 90 19:18 07.11.2019
4804 Clouds 27 1013 54 10000 2.6 0 18:55 07.11.2019
4805 Clouds 27 1013 54 10000 2.6 0 18:37 07.11.2019
4806 Clouds 27 1013 54 10000 2.6 0 18:37 07.11.2019
4807 Clouds 27 1013 54 10000 2.6 0 18:19 07.11.2019
4808 Clouds 28 1012 51 10000 3.6 60 17:40 07.11.2019
4809 Clouds 28 1012 51 10000 3.6 60 17:40 07.11.2019
4810 Clear 28 1012 51 10000 3.6 60 17:21 07.11.2019
4811 Clear 29 1012 55 10000 3.6 40 16:58 07.11.2019
4812 Clear 29 1012 55 10000 3.6 40 16:40 07.11.2019
4813 Clear 29 1012 55 10000 3.6 40 16:20 07.11.2019
4814 Clear 30 1011 48 10000 4.6 30 15:57 07.11.2019
4815 Clear 30 1011 48 10000 4.6 30 15:37 07.11.2019
4816 Clear 30 1011 48 10000 4.6 30 15:18 07.11.2019
4817 Clear 31 1011 38 10000 4.6 20 14:44 07.11.2019
4818 Clear 31 1011 38 10000 4.6 20 14:26 07.11.2019
4819 Clouds 32 1011 40 10000 5.7 360 13:57 07.11.2019
4820 Clouds 32 1011 40 10000 5.7 360 13:38 07.11.2019
4821 Clouds 32 1011 40 10000 5.7 360 13:20 07.11.2019
4822 Clouds 32 1011 40 10000 6.7 340 12:58 07.11.2019
4823 Clouds 32 1011 40 10000 6.7 340 12:39 07.11.2019
4824 Clouds 32 1011 40 10000 6.7 340 12:20 07.11.2019
4825 Clouds 32 1011 40 10000 6.7 340 12:20 07.11.2019
4826 Clear 33 1011 36 10000 6.2 340 11:44 07.11.2019
4827 Clear 33 1011 36 10000 6.2 340 11:44 07.11.2019
4828 -273 0 0 0 0 0 11:24 07.11.2019
4829 Clear 33 1011 36 10000 6.2 340 11:23 07.11.2019
4830 Clear 34 1011 24 10000 2.1 0 10:59 07.11.2019
4831 Clear 34 1011 24 10000 2.1 0 10:40 07.11.2019
4832 Clear 34 1011 24 10000 2.1 0 10:18 07.11.2019
4833 Clear 32 1013 26 10000 2.1 0 09:42 07.11.2019
4834 Clear 32 1013 26 10000 2.1 0 09:22 07.11.2019
4835 -273 0 0 0 0 0 08:49 07.11.2019
4836 -273 0 0 0 0 0 08:47 07.11.2019
4837 -273 0 0 0 0 0 08:46 07.11.2019
4838 Clear 31 1013 29 10000 3.6 90 08:25 07.11.2019
4839 Clear 31 1013 29 10000 3.6 90 08:25 07.11.2019
4840 Clear 31 1013 29 10000 3.6 90 08:25 07.11.2019
4841 Clear 29 1014 48 10000 3.6 50 07:59 07.11.2019
4842 Clear 29 1014 48 10000 3.6 50 07:41 07.11.2019
4843 -273 0 0 0 0 0 07:21 07.11.2019
4844 Clear 27 1014 54 10000 2.6 80 06:48 07.11.2019
4845 Clear 27 1014 54 10000 2.6 80 06:27 07.11.2019
4846 Clear 24 1013 54 10000 2.1 90 05:52 07.11.2019
4847 Clear 23 1013 54 10000 2.1 90 05:33 07.11.2019
4848 Clear 21 1012 64 10000 1.5 0 04:54 07.11.2019
4849 Clear 21 1012 64 10000 1.5 0 04:52 07.11.2019
4850 Clear 21 1012 64 10000 1.5 0 04:31 07.11.2019
4851 Clear 22 1011 61 10000 3.1 40 01:54 07.11.2019
4852 Clear 23 1011 58 10000 1 0 00:46 07.11.2019
4853 Clear 23 1011 58 10000 1 0 00:19 07.11.2019
4854 Clear 22 1011 77 10000 1 110 23:47 06.11.2019
4855 Clear 24 1011 77 10000 1 110 23:21 06.11.2019
4856 Clear 24 1011 58 10000 1 0 22:55 06.11.2019
4857 Clear 25 1011 58 10000 1 0 22:37 06.11.2019
4858 Clear 25 1011 58 10000 1 0 22:37 06.11.2019
4859 Clear 25 1011 58 10000 1 0 22:18 06.11.2019
4860 Clear 25 1011 54 10000 1 130 21:42 06.11.2019
4861 Clear 25 1011 54 10000 1 130 21:20 06.11.2019
4862 Clear 26 1012 51 10000 1.5 30 20:58 06.11.2019
4863 Clear 26 1012 51 10000 1.5 30 20:40 06.11.2019
4864 Clear 26 1012 51 10000 1.5 30 20:21 06.11.2019
4865 Clear 27 1012 51 10000 1.5 30 19:58 06.11.2019
4866 Clear 27 1012 51 10000 1.5 30 19:39 06.11.2019
4867 Clear 27 1012 51 10000 1.5 30 19:21 06.11.2019
4868 Clear 27 1012 54 10000 2.1 30 18:57 06.11.2019
4869 Clear 27 1012 54 10000 2.1 30 18:38 06.11.2019
4870 Clear 27 1012 54 10000 2.1 30 18:19 06.11.2019
4871 Clear 28 1011 54 10000 2.6 50 17:54 06.11.2019
4872 Clear 28 1011 54 10000 2.6 50 17:36 06.11.2019
4873 Clear 28 1011 54 10000 2.6 50 17:18 06.11.2019
4874 Clear 28 1011 62 10000 4.1 50 16:54 06.11.2019
4875 Clear 28 1011 62 10000 4.1 50 16:36 06.11.2019
4876 Clear 28 1011 62 10000 4.1 50 16:36 06.11.2019
4877 Clear 28 1011 62 10000 4.1 50 16:18 06.11.2019
4878 Clear 29 1010 58 10000 4.6 360 15:54 06.11.2019
4879 Clear 29 1010 58 10000 4.6 360 15:36 06.11.2019
4880 Clear 29 1010 58 10000 4.6 360 15:18 06.11.2019
4881 Clear 30 1010 58 7000 6.2 340 14:54 06.11.2019
4882 Clear 30 1010 58 7000 6.2 340 14:36 06.11.2019
4883 Clear 30 1010 58 7000 6.2 340 14:18 06.11.2019
4884 Clear 30 1010 62 7000 6.2 350 13:38 06.11.2019
4885 Clear 30 1010 62 7000 6.2 350 13:38 06.11.2019
4886 Clear 30 1010 62 7000 6.2 350 13:20 06.11.2019
4887 Clouds 31 1010 58 10000 6.2 340 12:55 06.11.2019
4888 Clouds 31 1010 58 10000 6.2 340 12:37 06.11.2019
4889 Clouds 32 1010 49 10000 6.2 350 12:19 06.11.2019
4890 Clouds 32 1010 49 10000 6.2 350 11:57 06.11.2019
4891 Clouds 32 1010 49 10000 6.2 350 11:36 06.11.2019
4892 Clouds 32 1010 49 10000 6.2 350 11:18 06.11.2019
4893 Clouds 32 1011 49 10000 4.1 340 10:56 06.11.2019
4894 Clouds 32 1011 49 10000 4.1 340 10:37 06.11.2019
4895 Clouds 32 1011 49 10000 4.1 340 10:19 06.11.2019
4896 Clouds 32 1011 49 10000 4.1 340 10:19 06.11.2019
4897 Clouds 32 1012 49 10000 2.1 110 09:42 06.11.2019
4898 Clouds 32 1012 49 10000 2.1 110 09:21 06.11.2019
4899 Clouds 31 1013 58 10000 1.5 0 08:56 06.11.2019
4900 Clouds 31 1013 58 10000 1.5 0 08:38 06.11.2019
4901 Clouds 31 1013 58 10000 1.5 0 08:19 06.11.2019
4902 Clear 29 1013 66 7000 2.1 110 07:47 06.11.2019
4903 Clear 29 1013 66 7000 2.1 110 07:29 06.11.2019
4904 Clear 27 1014 69 8000 3.1 110 06:59 06.11.2019
4905 Clear 27 1014 69 8000 3.1 110 06:38 06.11.2019
4906 Clear 27 1014 69 8000 3.1 110 06:20 06.11.2019
4907 Clear 22 1012 73 9000 2.6 130 03:52 06.11.2019
4908 Clear 23 1011 73 10000 3.1 130 02:18 06.11.2019
4909 Clear 25 1011 61 10000 2.1 170 00:51 06.11.2019
4910 Clear 25 1011 61 10000 2.1 170 00:26 06.11.2019
4911 Clear 24 1011 61 10000 2.1 160 23:57 05.11.2019
4912 Clear 24 1011 61 10000 2.1 160 23:37 05.11.2019
4913 Clear 24 1011 61 10000 2.1 160 23:18 05.11.2019
4914 Clear 26 1011 61 10000 2.1 170 22:42 05.11.2019
4915 Clear 26 1011 61 10000 2.1 170 22:19 05.11.2019
4916 Clear 26 1011 61 10000 2.1 170 22:19 05.11.2019
4917 Clear 26 1012 66 10000 2.1 330 21:57 05.11.2019
4918 Clear 26 1012 66 10000 2.1 330 21:39 05.11.2019
4919 Clear 26 1012 66 10000 2.1 330 21:19 05.11.2019
4920 Clear 26 1012 62 10000 2.6 10 20:56 05.11.2019
4921 Clear 26 1012 62 10000 2.6 10 20:38 05.11.2019
4922 Clear 26 1012 62 10000 2.6 10 20:19 05.11.2019
4923 Clear 27 1012 54 10000 2.6 340 19:54 05.11.2019
4924 Clear 27 1012 54 10000 2.6 340 19:36 05.11.2019
4925 Clear 27 1012 54 10000 2.6 340 19:18 05.11.2019
4926 Clear 27 1012 58 10000 4.6 330 18:55 05.11.2019
4927 Clear 27 1012 58 10000 4.6 330 18:37 05.11.2019
4928 Clear 27 1012 58 10000 4.6 330 18:18 05.11.2019
4929 Clear 28 1012 58 10000 3.6 340 17:39 05.11.2019
4930 Clear 28 1012 58 10000 3.6 340 17:21 05.11.2019
4931 Clear 28 1011 58 10000 2.6 340 16:59 05.11.2019
4932 Clear 28 1011 58 10000 2.6 340 16:41 05.11.2019
4933 Clear 28 1011 58 10000 2.6 340 16:20 05.11.2019
4934 Clear 29 1011 55 10000 4.1 340 15:41 05.11.2019
4935 Clear 29 1011 55 10000 4.1 340 15:20 05.11.2019
4936 Clear 30 1011 58 10000 4.1 350 14:59 05.11.2019
4937 Clear 30 1011 58 10000 4.1 350 14:41 05.11.2019
4938 Clear 30 1011 58 10000 4.1 350 14:22 05.11.2019
4939 Clear 31 1011 55 10000 5.1 340 13:58 05.11.2019
4940 Clear 31 1011 55 10000 5.1 340 13:40 05.11.2019
4941 Clear 31 1011 55 10000 5.1 340 13:22 05.11.2019
4942 Clear 31 1012 48 10000 5.1 350 12:41 05.11.2019
4943 Clear 32 1012 49 10000 6.2 330 12:22 05.11.2019
4944 Clear 32 1012 49 10000 6.2 330 11:57 05.11.2019
4945 Clear 32 1012 49 10000 6.2 330 11:38 05.11.2019
4946 Clear 32 1012 49 10000 6.2 330 11:20 05.11.2019
4947 Clear 32 1013 52 10000 5.1 340 10:48 05.11.2019
4948 Clear 32 1013 52 10000 5.1 340 10:27 05.11.2019
4949 Clear 32 1014 48 10000 5.7 330 09:59 05.11.2019
4950 Clear 32 1014 48 10000 5.7 330 09:41 05.11.2019
4951 Clear 32 1014 48 10000 5.7 330 09:21 05.11.2019
4952 Clear 32 1014 48 10000 5.7 330 09:21 05.11.2019
4953 Clear 31 1015 45 10000 4.6 340 08:59 05.11.2019
4954 Clear 31 1015 45 10000 4.6 340 08:59 05.11.2019
4955 Clear 31 1015 45 10000 4.6 340 08:37 05.11.2019
4956 Clear 31 1015 45 10000 4.6 340 08:19 05.11.2019
4957 Clear 29 1015 51 10000 2.6 60 07:55 05.11.2019
4958 Clear 29 1015 51 10000 2.6 60 07:36 05.11.2019
4959 Clear 29 1015 51 10000 2.6 60 07:18 05.11.2019
4960 Clear 27 1015 61 10000 2.1 50 06:40 05.11.2019
4961 Clear 24 1014 69 10000 2.1 110 05:51 05.11.2019
4962 Clear 24 1014 69 10000 2.1 110 05:21 05.11.2019
4963 Clear 22 1013 73 10000 2.1 90 04:23 05.11.2019
4964 Clear 22 1013 73 10000 2.1 90 03:32 05.11.2019
4965 Clear 22 1013 69 10000 2.1 100 02:43 05.11.2019
4966 Clear 24 1013 69 10000 2.6 80 01:57 05.11.2019
4967 Clear 24 1013 65 10000 1.5 90 00:48 05.11.2019
4968 Clear 24 1013 65 10000 1.5 90 00:27 05.11.2019
4969 Clear 24 1013 65 10000 2.1 100 23:43 04.11.2019
4970 Clear 24 1013 65 10000 2.1 100 23:19 04.11.2019
4971 Clear 25 1013 61 10000 2.1 90 22:58 04.11.2019
4972 Clear 25 1013 61 10000 2.1 90 22:40 04.11.2019
4973 Clear 25 1013 61 10000 2.1 90 22:20 04.11.2019
4974 Clear 26 1014 58 10000 2.6 70 21:55 04.11.2019
4975 Clear 26 1014 58 10000 2.6 70 21:55 04.11.2019
4976 Clear 26 1014 58 10000 2.6 70 21:37 04.11.2019
4977 Clear 26 1014 58 10000 2.6 70 21:18 04.11.2019
4978 Clear 27 1014 58 10000 2.6 70 20:56 04.11.2019
4979 Clear 27 1014 58 10000 2.6 70 20:56 04.11.2019
4980 Clear 27 1014 58 10000 2.6 70 20:37 04.11.2019
4981 Clouds 27 1014 58 10000 2.6 70 20:19 04.11.2019
4982 Clouds 27 1014 62 10000 2.6 60 19:57 04.11.2019
4983 Clouds 27 1014 62 10000 2.6 60 19:38 04.11.2019
4984 Clouds 27 1014 62 10000 2.6 60 19:20 04.11.2019
4985 Clouds 28 1014 58 10000 3.1 60 18:54 04.11.2019
4986 Clouds 28 1014 58 10000 3.1 60 18:36 04.11.2019
4987 Clouds 28 1014 58 10000 3.1 60 18:18 04.11.2019
4988 Clouds 28 1014 51 10000 3.6 20 17:38 04.11.2019
4989 Clear 28 1014 51 10000 3.6 20 17:19 04.11.2019
4990 Clear 29 1013 58 10000 4.6 360 16:55 04.11.2019
4991 Clear 29 1013 58 10000 4.6 360 16:55 04.11.2019
4992 Clear 29 1013 58 10000 4.6 360 16:55 04.11.2019
4993 Clear 29 1013 58 10000 4.6 360 16:55 04.11.2019
4994 Clear 29 1013 58 10000 4.6 360 16:36 04.11.2019
4995 Clear 29 1013 58 10000 4.6 360 16:36 04.11.2019
4996 Clear 29 1013 58 10000 4.6 360 16:18 04.11.2019
4997 Clear 29 1013 58 10000 4.6 360 16:18 04.11.2019
4998 Clear 29 1013 58 10000 5.7 350 15:41 04.11.2019
4999 Clear 29 1013 58 10000 5.7 350 15:21 04.11.2019
5000 Clear 30 1013 55 10000 6.7 350 14:58 04.11.2019
5001 Clear 30 1013 55 10000 6.7 350 14:40 04.11.2019
5002 Clear 30 1013 55 10000 6.7 350 14:20 04.11.2019
5003 Clear 30 1013 55 10000 6.7 350 14:20 04.11.2019
5004 Clear 31 1013 52 10000 7.7 340 13:58 04.11.2019
5005 Clear 31 1013 52 10000 7.7 340 13:58 04.11.2019
5006 Clear 31 1013 52 10000 7.7 340 13:40 04.11.2019
5007 Clear 31 1013 52 10000 7.7 340 13:21 04.11.2019
5008 Clouds 31 1013 45 10000 6.7 350 12:56 04.11.2019
5009 Clouds 31 1013 45 10000 6.7 350 12:38 04.11.2019
5010 Clouds 31 1013 45 10000 6.7 350 12:18 04.11.2019
5011 Clouds 34 1013 38 10000 6.2 340 11:43 04.11.2019
5012 Clouds 34 1013 38 10000 6.2 340 11:23 04.11.2019
5013 Clear 33 1014 28 10000 1.5 0 10:59 04.11.2019
5014 Clear 33 1014 28 10000 1.5 0 10:41 04.11.2019
5015 Clear 33 1014 28 10000 1.5 0 10:23 04.11.2019
5016 Clear 32 1015 29 10000 3.1 100 09:45 04.11.2019
5017 Clear 32 1015 29 10000 3.1 100 09:27 04.11.2019
5018 Clear 31 1016 33 10000 4.1 70 08:57 04.11.2019
5019 Clear 31 1016 33 10000 4.1 70 08:38 04.11.2019
5020 Clouds 30 1016 35 10000 3.6 90 08:18 04.11.2019
5021 Clouds 30 1016 48 10000 4.1 100 07:43 04.11.2019
5022 Clouds 30 1016 48 10000 4.1 100 07:21 04.11.2019
5023 Clouds 30 1016 48 10000 4.1 100 07:21 04.11.2019
5024 Clouds 28 1016 54 10000 4.6 90 06:56 04.11.2019
5025 Clouds 28 1016 54 10000 4.6 90 06:18 04.11.2019
5026 Clouds 24 1016 65 10000 3.1 90 05:46 04.11.2019
5027 Clouds 22 1015 78 8000 3.1 80 04:43 04.11.2019
5028 Clouds 22 1015 78 8000 3.1 80 04:21 04.11.2019
5029 Clouds 23 1014 69 10000 2.1 110 02:32 04.11.2019
5030 Clear 23 1014 65 10000 3.1 60 01:21 04.11.2019
5031 Clear 23 1014 65 10000 1.5 80 00:40 04.11.2019
5032 Clear 23 1014 65 10000 1.5 80 00:20 04.11.2019
5033 Clear 23 1014 61 10000 2.1 60 23:41 03.11.2019
5034 Clear 23 1014 61 10000 2.1 60 23:21 03.11.2019
5035 Clear 24 1014 61 10000 2.6 60 22:59 03.11.2019
5036 Clear 24 1014 61 10000 2.6 60 22:41 03.11.2019
5037 Clear 24 1014 61 10000 2.6 60 22:20 03.11.2019
5038 Clear 24 1014 61 10000 2.6 60 21:57 03.11.2019
5039 Clear 24 1014 61 10000 2.6 60 21:57 03.11.2019
5040 Clear 24 1014 61 10000 2.6 60 21:38 03.11.2019
5041 Clear 24 1014 61 10000 2.6 60 21:20 03.11.2019
5042 Clear 25 1015 61 10000 2.6 40 20:55 03.11.2019
5043 Clear 25 1015 61 10000 2.6 40 20:36 03.11.2019
5044 Clear 25 1015 61 10000 2.6 40 20:18 03.11.2019
5045 Clear 25 1015 58 10000 2.6 100 19:55 03.11.2019
5046 Clear 25 1015 58 10000 2.6 100 19:37 03.11.2019
5047 Clear 25 1015 58 10000 2.6 100 19:18 03.11.2019
5048 Clear 26 1014 51 10000 2.6 50 18:38 03.11.2019
5049 Clear 26 1014 51 10000 2.6 50 18:38 03.11.2019
5050 Clear 26 1014 51 10000 2.6 50 18:18 03.11.2019
5051 Clear 27 1014 48 10000 3.1 40 17:58 03.11.2019
5052 Clear 27 1014 48 10000 3.1 40 17:39 03.11.2019
5053 Clear 27 1014 48 10000 3.1 40 17:18 03.11.2019
5054 Clear 28 1013 51 10000 3.1 350 16:54 03.11.2019
5055 Clear 28 1013 51 10000 3.1 350 16:54 03.11.2019
5056 Clear 28 1013 51 10000 3.1 350 16:36 03.11.2019
5057 Clear 28 1013 51 10000 3.1 350 16:18 03.11.2019
5058 Clear 29 1013 48 10000 4.6 350 15:45 03.11.2019
5059 Clear 29 1013 48 10000 4.6 350 15:25 03.11.2019
5060 Clear 31 1012 38 10000 5.7 330 14:58 03.11.2019
5061 Clear 31 1012 38 10000 5.7 330 14:39 03.11.2019
5062 Clear 31 1012 38 10000 5.7 330 14:18 03.11.2019
5063 Clear 32 1012 33 10000 6.7 320 13:54 03.11.2019
5064 Clear 32 1012 33 10000 6.7 320 13:54 03.11.2019
5065 Clear 32 1012 33 10000 6.7 320 13:36 03.11.2019
5066 Clear 32 1012 33 10000 6.7 320 13:18 03.11.2019
5067 Clear 29 1012 55 0 5.88 329 12:37 03.11.2019
5068 Clear 33 1013 33 10000 4.1 320 12:19 03.11.2019
5069 Clear 33 1013 33 10000 4.1 320 11:54 03.11.2019
5070 Clear 33 1013 33 10000 4.1 320 11:36 03.11.2019
5071 Clear 33 1013 33 10000 4.1 320 11:18 03.11.2019
5072 Clear 33 1013 36 10000 2.6 350 10:40 03.11.2019
5073 Clear 33 1013 36 10000 2.6 350 10:22 03.11.2019
5074 Clear 32 1014 29 10000 2.6 120 09:57 03.11.2019
5075 Clear 32 1014 29 10000 2.6 120 09:39 03.11.2019
5076 Clear 32 1014 29 10000 2.6 120 09:21 03.11.2019
5077 Clear 31 1015 38 10000 2.6 0 08:41 03.11.2019
5078 Clear 31 1015 38 10000 2.6 0 08:22 03.11.2019
5079 Clear 29 1015 45 10000 2.1 130 07:46 03.11.2019
5080 Clear 29 1015 45 10000 2.1 130 07:28 03.11.2019
5081 Clear 27 1015 48 10000 2.6 130 06:50 03.11.2019
5082 Clear 27 1015 48 10000 2.6 130 06:31 03.11.2019
5083 Clear 24 1015 57 10000 2.6 150 05:40 03.11.2019
5084 Clear 22 1014 64 10000 2.1 160 04:58 03.11.2019
5085 Clear 22 1014 64 10000 2.1 160 04:37 03.11.2019
5086 Clear 22 1013 64 10000 1.5 160 03:35 03.11.2019
5087 Clear 22 1013 61 10000 1.5 150 02:42 03.11.2019
5088 Clear 22 1013 61 10000 1.5 150 02:20 03.11.2019
5089 Clear 22 1013 61 10000 1.5 150 02:20 03.11.2019
5090 Clear 23 1013 64 10000 2.1 180 01:39 03.11.2019
5091 Clear 23 1013 64 10000 2.1 180 01:20 03.11.2019
5092 Clear 23 1012 61 10000 2.6 160 00:45 03.11.2019
5093 Clear 23 1012 61 10000 2.6 160 00:26 03.11.2019
5094 Clear 24 1012 57 10000 2.1 140 23:58 02.11.2019
5095 Clear 24 1012 57 10000 2.1 140 23:38 02.11.2019
5096 Clear 24 1012 57 10000 2.1 140 23:19 02.11.2019
5097 Clear 24 1012 57 10000 2.1 140 23:19 02.11.2019
5098 Clear 25 1012 54 10000 2.6 170 22:55 02.11.2019
5099 Clear 25 1012 54 10000 2.6 170 22:37 02.11.2019
5100 Clear 25 1012 54 10000 2.6 170 22:18 02.11.2019
5101 Clear 25 1013 51 10000 1.5 200 21:56 02.11.2019
5102 Clear 25 1013 51 10000 1.5 200 21:37 02.11.2019
5103 Clear 25 1013 51 10000 1.5 200 21:37 02.11.2019
5104 Clear 25 1013 51 10000 1.5 200 21:18 02.11.2019
5105 Clear 27 1013 48 10000 2.1 250 20:58 02.11.2019
5106 Clear 27 1013 48 10000 2.1 250 20:39 02.11.2019
5107 Clear 27 1013 48 10000 2.1 250 20:39 02.11.2019
5108 Clear 27 1013 48 10000 2.1 250 20:39 02.11.2019
5109 Clear 27 1013 48 10000 2.1 250 20:19 02.11.2019
5110 Clear 28 1013 48 10000 2.6 260 19:41 02.11.2019
5111 Clear 28 1013 48 10000 2.6 260 19:23 02.11.2019
5112 Clear 28 1012 48 10000 2.1 250 18:56 02.11.2019
5113 Clear 28 1012 48 10000 2.1 250 18:38 02.11.2019
5114 Clear 28 1012 48 10000 2.1 250 18:38 02.11.2019
5115 Clear 28 1012 48 10000 2.1 250 18:20 02.11.2019
5116 Clear 29 1012 48 10000 2.1 260 17:57 02.11.2019
5117 Clear 29 1012 48 10000 2.1 260 17:38 02.11.2019
5118 Clear 29 1012 48 10000 2.1 260 17:20 02.11.2019
5119 Clear 29 1011 45 10000 3.1 260 16:57 02.11.2019
5120 Clear 29 1011 45 10000 3.1 260 16:36 02.11.2019
5121 Clear 29 1011 45 10000 3.1 260 16:18 02.11.2019
5122 Clear 30 1011 42 10000 4.1 280 15:41 02.11.2019
5123 Clear 30 1011 42 10000 4.1 280 15:19 02.11.2019
5124 Clear 30 1011 45 10000 4.6 290 14:43 02.11.2019
5125 Clear 30 1011 45 10000 4.6 290 14:23 02.11.2019
5126 Clear 31 1010 43 10000 5.7 300 13:57 02.11.2019
5127 Clear 31 1010 43 10000 5.7 300 13:38 02.11.2019
5128 Clear 31 1010 43 10000 5.7 300 13:19 02.11.2019
5129 Clear 31 1010 38 10000 5.7 330 12:41 02.11.2019
5130 Clear 31 1010 43 10000 5.7 310 12:23 02.11.2019
5131 Clear 31 1010 43 10000 5.7 310 11:58 02.11.2019
5132 Clear 31 1010 43 10000 5.7 310 11:39 02.11.2019
5133 Clear 31 1010 43 10000 5.7 310 11:21 02.11.2019
5134 Clouds 31 1011 45 10000 4.6 270 10:50 02.11.2019
5135 Clouds 31 1011 45 10000 4.6 270 10:28 02.11.2019
5136 Clouds 31 1012 45 10000 5.7 330 09:58 02.11.2019
5137 Clouds 31 1012 45 10000 5.7 330 09:39 02.11.2019
5138 Clouds 31 1012 45 10000 5.7 330 09:19 02.11.2019
5139 Clouds 31 1012 45 10000 5.7 330 09:19 02.11.2019
5140 Clouds 31 1012 45 10000 5.7 300 08:45 02.11.2019
5141 Clouds 31 1012 45 10000 5.7 300 08:45 02.11.2019
5142 Clouds 31 1012 45 10000 5.7 300 08:22 02.11.2019
5143 Clouds 30 1013 48 10000 4.6 280 07:48 02.11.2019
5144 Clouds 30 1013 48 10000 4.6 280 07:29 02.11.2019
5145 Clouds 30 1013 48 10000 5.1 290 06:55 02.11.2019
5146 Clouds 30 1013 48 10000 5.1 290 06:30 02.11.2019
5147 Clouds 28 1012 54 10000 2.6 210 05:56 02.11.2019
5148 Clouds 28 1012 54 10000 2.6 210 05:20 02.11.2019
5149 Clouds 26 1012 58 10000 2.1 210 04:21 02.11.2019
5150 Clouds 26 1012 58 10000 2.1 210 04:21 02.11.2019
5151 Clouds 26 1011 54 10000 3.6 300 03:47 02.11.2019
5152 Clouds 27 1010 58 10000 5.7 320 02:40 02.11.2019
5153 Clouds 27 1010 51 10000 5.1 300 01:43 02.11.2019
5154 Clouds 27 1010 51 10000 5.1 300 01:21 02.11.2019
5155 Clear 27 1010 48 10000 5.7 290 00:48 02.11.2019
5156 Clear 27 1010 48 10000 5.7 290 00:26 02.11.2019
5157 Clear 28 1010 51 10000 4.1 270 23:46 01.11.2019
5158 Clear 28 1010 51 10000 4.1 270 23:22 01.11.2019
5159 Clear 29 1010 48 10000 5.1 280 22:57 01.11.2019
5160 Clear 29 1010 48 10000 5.1 280 22:39 01.11.2019
5161 Clear 29 1010 48 10000 5.1 280 22:20 01.11.2019
5162 Clouds 29 1010 55 10000 5.1 300 21:41 01.11.2019
5163 Clouds 29 1010 55 10000 5.1 300 21:23 01.11.2019
5164 Clear 29 1010 55 10000 4.6 280 20:56 01.11.2019
5165 Clear 29 1010 55 10000 4.6 280 20:38 01.11.2019
5166 Clear 29 1010 55 10000 4.6 280 20:19 01.11.2019
5167 Clear 29 1010 48 10000 4.6 270 19:55 01.11.2019
5168 Clear 29 1010 48 10000 4.6 270 19:36 01.11.2019
5169 Clear 29 1010 48 10000 4.6 270 19:18 01.11.2019
5170 Clear 30 1010 48 10000 5.1 280 18:39 01.11.2019
5171 Clear 30 1010 48 10000 5.1 280 18:20 01.11.2019
5172 Clear 30 1010 45 10000 4.6 280 17:55 01.11.2019
5173 Clear 30 1010 45 10000 4.6 280 17:37 01.11.2019
5174 Clear 30 1010 45 10000 4.6 280 17:18 01.11.2019
5175 Clear 30 1009 48 10000 4.6 280 16:38 01.11.2019
5176 Clear 30 1009 48 10000 4.6 280 16:19 01.11.2019
5177 Clear 31 1009 48 10000 5.7 280 15:41 01.11.2019
5178 Clear 31 1009 48 10000 5.7 280 15:23 01.11.2019
5179 Clouds 31 1009 55 10000 5.1 280 14:58 01.11.2019
5180 Clouds 31 1009 55 10000 5.1 280 14:40 01.11.2019
5181 Clouds 31 1009 55 10000 5.1 280 14:22 01.11.2019
5182 Clouds 32 1009 52 10000 5.1 280 13:56 01.11.2019
5183 Clouds 32 1009 52 10000 5.1 280 13:37 01.11.2019
5184 Clouds 32 1009 52 10000 5.1 280 13:19 01.11.2019
5185 Clouds 32 1009 52 10000 5.1 270 12:43 01.11.2019
5186 Clouds 33 1009 46 10000 4.6 310 12:25 01.11.2019
5187 Clouds 33 1009 46 10000 4.6 310 11:44 01.11.2019
5188 Clouds 33 1009 46 10000 4.6 310 11:25 01.11.2019
5189 Clear 30 1010 60 0 3.9 259 10:59 01.11.2019
5190 Clear 30 1010 60 0 3.9 259 10:40 01.11.2019
5191 Clear 30 1010 60 0 3.9 259 10:21 01.11.2019
5192 Clear 30 1010 60 0 3.9 259 09:56 01.11.2019
5193 Clear 30 1010 60 0 3.9 259 09:36 01.11.2019
5194 Clear 30 1010 60 0 3.9 259 09:18 01.11.2019
5195 Clear 30 1010 60 0 3.9 259 08:42 01.11.2019
5196 Clouds 30 1012 62 10000 2.6 190 08:21 01.11.2019
5197 Clouds 30 1012 62 10000 2.6 190 07:53 01.11.2019
5198 Clouds 30 1012 62 10000 2.6 190 07:26 01.11.2019
5199 Clouds 28 1012 66 10000 3.1 180 06:56 01.11.2019
5200 Clouds 28 1012 66 10000 3.1 180 06:37 01.11.2019
5201 Clouds 28 1012 66 10000 3.1 180 06:18 01.11.2019
5202 Clear 26 1011 74 10000 3.6 170 05:43 01.11.2019
5203 Clear 24 1010 74 10000 1.5 190 03:33 01.11.2019
5204 Clear 26 1009 66 10000 2.1 70 01:52 01.11.2019
5205 Clear 26 1009 66 10000 2.1 70 01:28 01.11.2019
5206 Clear 26 1009 62 10000 2.1 80 00:21 01.11.2019
5207 Clear 26 1009 62 10000 1.5 90 23:56 31.10.2019
5208 Clear 26 1009 62 10000 1.5 90 23:38 31.10.2019
5209 Clear 26 1009 62 10000 1.5 90 23:19 31.10.2019
5210 Clear 27 1009 58 10000 1.5 70 22:42 31.10.2019
5211 Clear 27 1009 58 10000 1.5 70 22:24 31.10.2019
5212 Clear 27 1009 58 10000 2.1 80 21:57 31.10.2019
5213 Clear 27 1009 58 10000 2.1 80 21:39 31.10.2019
5214 Clear 27 1009 58 10000 2.1 80 21:18 31.10.2019
5215 Clear 28 1010 55 10000 1.5 50 20:41 31.10.2019
5216 Clear 28 1010 55 10000 1.5 50 20:22 31.10.2019
5217 Clear 28 1010 66 10000 1 0 19:58 31.10.2019
5218 Clear 28 1010 66 10000 1 0 19:38 31.10.2019
5219 Clear 28 1010 66 10000 1 0 19:19 31.10.2019
5220 Clear 29 1010 62 10000 2.1 100 18:44 31.10.2019
5221 Clear 29 1010 62 10000 2.1 100 18:25 31.10.2019
5222 Clear 30 1009 66 10000 2.6 60 17:58 31.10.2019
5223 Clear 30 1009 66 10000 2.6 60 17:40 31.10.2019
5224 Clear 30 1009 66 10000 2.6 60 17:20 31.10.2019
5225 Clear 30 1009 62 10000 3.1 50 16:54 31.10.2019
5226 Clear 30 1009 62 10000 3.1 50 16:36 31.10.2019
5227 Clear 30 1009 62 10000 3.1 50 16:18 31.10.2019
5228 Clear 31 1008 59 10000 3.6 20 15:40 31.10.2019
5229 Clear 31 1008 59 10000 3.6 20 15:21 31.10.2019
5230 Clear 32 1008 49 10000 4.6 330 14:58 31.10.2019
5231 Clear 32 1008 49 10000 4.6 330 14:40 31.10.2019
5232 Clear 32 1008 49 10000 4.6 330 14:22 31.10.2019
5233 Clear 32 1008 49 10000 4.6 330 14:22 31.10.2019
5234 Clear 33 1008 49 10000 5.7 330 13:59 31.10.2019
5235 Clear 33 1008 49 10000 5.7 330 13:38 31.10.2019
5236 Clear 33 1008 49 10000 5.7 330 13:19 31.10.2019
5237 Clear 33 1008 49 10000 5.7 330 13:19 31.10.2019
5238 Clear 35 1008 46 10000 6.7 340 12:55 31.10.2019
5239 Clear 35 1008 46 10000 6.7 340 12:37 31.10.2019
5240 Clear 35 1008 46 10000 6.7 340 12:18 31.10.2019
5241 Clear 37 1008 34 10000 3.6 300 11:45 31.10.2019
5242 Clear 37 1008 34 10000 3.6 300 11:20 31.10.2019
5243 Clear 36 1009 28 10000 2.6 200 10:58 31.10.2019
5244 Clear 36 1009 28 10000 2.6 200 10:39 31.10.2019
5245 Clear 36 1009 28 10000 2.6 200 10:20 31.10.2019
5246 Clear 35 1010 34 10000 2.1 0 09:45 31.10.2019
5247 Clear 35 1010 34 10000 2.1 0 09:20 31.10.2019
5248 Clear 33 1011 43 10000 3.6 130 08:57 31.10.2019
5249 Clear 33 1011 43 10000 3.6 130 08:39 31.10.2019
5250 Clear 33 1011 43 10000 3.6 130 08:20 31.10.2019
5251 Clear 31 1012 55 10000 4.6 130 07:45 31.10.2019
5252 Clear 31 1012 55 10000 4.6 130 07:24 31.10.2019
5253 Clear 29 1011 58 10000 3.6 110 06:50 31.10.2019
5254 Clear 29 1011 58 10000 3.6 110 06:30 31.10.2019
5255 Clear 26 1011 61 10000 4.1 110 05:18 31.10.2019
5256 Clear 24 1009 65 10000 3.6 120 02:47 31.10.2019
5257 Clear 24 1009 65 10000 3.6 120 02:22 31.10.2019
5258 Clear 25 1009 61 10000 4.1 100 00:48 31.10.2019
5259 Clear 25 1009 61 10000 4.1 100 00:24 31.10.2019
5260 Clear 25 1009 61 10000 2.1 90 23:40 30.10.2019
5261 Clear 25 1009 61 10000 2.1 90 23:22 30.10.2019
5262 Clear 26 1010 54 10000 2.6 110 22:41 30.10.2019
5263 Clear 26 1010 54 10000 2.6 110 22:19 30.10.2019
5264 Clear 27 1010 54 10000 2.1 100 21:54 30.10.2019
5265 Clear 27 1010 54 10000 2.1 100 21:36 30.10.2019
5266 Clear 27 1010 54 10000 2.1 100 21:18 30.10.2019
5267 Clear 27 1010 54 10000 2.1 100 21:18 30.10.2019
5268 Clear 27 1010 51 10000 2.6 80 20:56 30.10.2019
5269 Clear 27 1010 51 10000 2.6 80 20:37 30.10.2019
5270 Clear 27 1010 51 10000 2.6 80 20:18 30.10.2019
5271 Clear 28 1010 48 10000 3.1 90 19:42 30.10.2019
5272 Clear 28 1010 48 10000 3.1 90 19:23 30.10.2019
5273 Clear 30 1010 45 10000 4.1 80 18:59 30.10.2019
5274 Clear 30 1010 45 10000 4.1 80 18:38 30.10.2019
5275 Clear 30 1010 45 10000 4.1 80 18:18 30.10.2019
5276 Clear 31 1010 38 10000 4.6 50 17:55 30.10.2019
5277 Clear 31 1010 38 10000 4.6 50 17:55 30.10.2019
5278 Clear 31 1010 38 10000 4.6 50 17:37 30.10.2019
5279 Clear 31 1010 38 10000 4.6 50 17:18 30.10.2019
5280 Clear 31 1009 38 10000 5.1 50 16:42 30.10.2019
5281 Clear 31 1009 38 10000 5.1 50 16:23 30.10.2019
5282 Clear 32 1009 55 10000 5.1 30 15:59 30.10.2019
5283 Clear 32 1009 55 10000 5.1 30 15:38 30.10.2019
5284 Clear 32 1009 55 10000 5.1 30 15:19 30.10.2019
5285 Clear 32 1009 55 10000 5.1 30 15:19 30.10.2019
5286 Clear 32 1008 59 10000 6.2 20 14:57 30.10.2019
5287 Clear 32 1008 59 10000 6.2 20 14:39 30.10.2019
5288 Clear 32 1008 59 10000 6.2 20 14:21 30.10.2019
5289 Clear 34 1008 41 10000 7.7 10 13:54 30.10.2019
5290 Clear 34 1008 41 10000 7.7 10 13:36 30.10.2019
5291 Clear 34 1008 41 10000 7.7 10 13:18 30.10.2019
5292 Clear 35 1007 41 9000 7.7 330 12:43 30.10.2019
5293 Clear 35 1007 41 9000 7.7 330 12:43 30.10.2019
5294 Clear 38 1008 19 10000 4.1 90 12:25 30.10.2019
5295 Clear 38 1008 19 10000 4.1 90 11:57 30.10.2019
5296 Clear 38 1008 19 10000 4.1 90 11:57 30.10.2019
5297 Clear 38 1008 19 10000 4.1 90 11:38 30.10.2019
5298 Clear 38 1008 19 10000 4.1 90 11:18 30.10.2019
5299 Clear 37 1008 20 10000 6.2 110 10:42 30.10.2019
5300 Clear 37 1008 20 10000 6.2 110 10:23 30.10.2019
5301 Clear 36 1010 22 10000 5.1 110 09:42 30.10.2019
5302 Clear 36 1010 22 10000 5.1 110 09:23 30.10.2019
5303 Clear 35 1011 23 10000 5.1 110 08:57 30.10.2019
5304 Clear 35 1011 23 10000 5.1 110 08:39 30.10.2019
5305 Clear 35 1011 23 10000 5.1 110 08:19 30.10.2019
5306 Clear 33 1012 26 10000 4.6 110 07:43 30.10.2019
5307 Clear 29 1012 29 10000 3.6 100 06:59 30.10.2019
5308 Clear 29 1012 29 10000 3.6 100 06:41 30.10.2019
5309 Clear 26 1011 35 10000 2.6 80 05:58 30.10.2019
5310 Clear 26 1011 35 10000 2.6 80 05:40 30.10.2019
5311 Clear 24 1011 36 10000 1.5 40 04:26 30.10.2019
5312 Clear 24 1010 39 10000 2.1 100 03:43 30.10.2019
5313 Clear 24 1010 39 10000 3.6 100 02:50 30.10.2019
5314 Clear 25 1010 37 10000 2.1 0 01:51 30.10.2019
5315 Clear 25 1010 37 10000 1.5 80 00:49 30.10.2019
5316 Clear 25 1010 37 10000 1.5 80 00:28 30.10.2019
5317 Clear 26 1010 39 10000 1.5 90 23:41 29.10.2019
5318 Clear 26 1010 39 10000 1.5 90 23:22 29.10.2019
5319 Clear 26 1010 42 10000 2.1 100 22:45 29.10.2019
5320 Clear 26 1010 42 10000 2.1 100 22:20 29.10.2019
5321 Clear 27 1011 40 10000 2.6 110 21:56 29.10.2019
5322 Clear 27 1011 40 10000 2.6 110 21:38 29.10.2019
5323 Clear 27 1011 40 10000 2.6 110 21:20 29.10.2019
5324 Clear 28 1011 38 10000 2.6 100 20:42 29.10.2019
5325 Clear 28 1011 38 10000 2.6 100 20:23 29.10.2019
5326 Clear 29 1011 33 10000 2.6 70 19:59 29.10.2019
5327 Clear 29 1011 33 10000 2.6 70 19:41 29.10.2019
5328 Clear 29 1011 33 10000 2.6 70 19:22 29.10.2019
5329 Clear 30 1011 38 10000 2.6 70 18:59 29.10.2019
5330 Clear 30 1011 38 10000 2.6 70 18:40 29.10.2019
5331 Clear 30 1011 38 10000 2.6 70 18:21 29.10.2019
5332 Clear 31 1011 43 10000 2.6 70 17:59 29.10.2019
5333 Clear 31 1011 43 10000 2.6 70 17:40 29.10.2019
5334 Clear 31 1011 43 10000 2.6 70 17:21 29.10.2019
5335 Clear 31 1010 38 10000 3.6 30 16:58 29.10.2019
5336 Clear 31 1010 38 10000 3.6 30 16:38 29.10.2019
5337 Clear 31 1010 38 10000 3.6 30 16:18 29.10.2019
5338 Clear 32 1009 43 10000 4.6 30 15:42 29.10.2019
5339 Clear 32 1009 43 10000 4.6 30 15:22 29.10.2019
5340 Clear 33 1009 43 10000 6.7 30 14:59 29.10.2019
5341 Clear 33 1009 43 10000 6.7 30 14:41 29.10.2019
5342 Clear 33 1009 43 10000 6.7 30 14:23 29.10.2019
5343 Clear 34 1008 44 10000 6.2 360 13:58 29.10.2019
5344 Clear 34 1008 44 10000 6.2 360 13:39 29.10.2019
5345 Clear 34 1008 44 10000 6.2 360 13:21 29.10.2019
5346 Clear 37 1008 35 10000 6.2 10 12:43 29.10.2019
5347 Clear 37 1008 35 10000 6.2 10 12:43 29.10.2019
5348 Clear 37 1008 35 10000 6.2 10 12:25 29.10.2019
5349 Clear 38 1009 14 10000 2.6 70 11:55 29.10.2019
5350 Clear 38 1009 14 10000 2.6 70 11:37 29.10.2019
5351 Clear 38 1009 14 10000 2.6 70 11:18 29.10.2019
5352 Clear 38 1009 15 10000 5.1 90 10:57 29.10.2019
5353 Clear 38 1009 15 10000 5.1 90 10:38 29.10.2019
5354 Clear 38 1009 15 10000 5.1 90 10:19 29.10.2019
5355 Clear 37 1010 17 10000 5.1 110 09:42 29.10.2019
5356 Clear 37 1010 17 10000 5.1 110 09:23 29.10.2019
5357 Clear 35 1011 24 10000 3.6 90 08:57 29.10.2019
5358 Clear 35 1011 24 10000 3.6 90 08:39 29.10.2019
5359 Clouds 35 1011 24 10000 3.6 90 08:20 29.10.2019
5360 Clouds 33 1012 31 10000 3.6 90 07:48 29.10.2019
5361 Clouds 33 1012 31 10000 3.6 90 07:20 29.10.2019
5362 Clouds 30 1011 38 10000 3.1 100 06:53 29.10.2019
5363 Clouds 30 1011 38 10000 3.1 100 06:30 29.10.2019
5364 Clouds 26 1011 37 10000 1.5 80 05:56 29.10.2019
5365 Clouds 26 1011 37 10000 1.5 80 05:38 29.10.2019
5366 Clear 25 1010 30 10000 2.6 100 04:41 29.10.2019
5367 Clear 24 1009 30 10000 2.6 80 02:39 29.10.2019
5368 Clouds 25 1009 32 10000 2.6 90 01:56 29.10.2019
5369 Clouds 25 1009 32 10000 2.6 90 01:35 29.10.2019
5370 Clouds 25 1009 32 10000 3.6 100 00:52 29.10.2019
5371 Clouds 25 1009 32 10000 3.6 100 00:24 29.10.2019
5372 Clouds 26 1009 30 10000 3.1 110 23:38 28.10.2019
5373 Clouds 26 1009 30 10000 3.1 110 23:20 28.10.2019
5374 Clouds 26 1009 30 10000 3.1 110 23:20 28.10.2019
5375 Clouds 26 1010 37 10000 1.5 70 22:39 28.10.2019
5376 Clouds 26 1010 37 10000 1.5 70 22:20 28.10.2019
5377 Clouds 26 1010 40 10000 2.1 90 21:58 28.10.2019
5378 Clouds 26 1010 40 10000 2.1 90 21:39 28.10.2019
5379 Clouds 26 1010 40 10000 2.1 90 21:21 28.10.2019
5380 Clouds 27 1010 45 10000 2.6 90 20:59 28.10.2019
5381 Clouds 27 1010 45 10000 2.6 90 20:40 28.10.2019
5382 Clear 27 1010 45 10000 2.6 90 20:20 28.10.2019
5383 Clear 28 1010 45 10000 2.6 80 19:54 28.10.2019
5384 Clear 28 1010 45 10000 2.6 80 19:54 28.10.2019
5385 Clear 28 1010 45 10000 2.6 80 19:36 28.10.2019
5386 Clear 28 1010 45 10000 2.6 80 19:36 28.10.2019
5387 Clear 28 1010 45 10000 2.6 80 19:18 28.10.2019
5388 Clear 28 1010 45 10000 2.6 80 19:18 28.10.2019
5389 Clear 29 1010 38 10000 2.6 50 18:56 28.10.2019
5390 Clear 29 1010 38 10000 2.6 50 18:56 28.10.2019
5391 Clear 29 1010 38 10000 2.6 50 18:38 28.10.2019
5392 Clear 29 1010 38 10000 2.6 50 18:20 28.10.2019
5393 Clear 31 1010 33 10000 2.6 60 17:55 28.10.2019
5394 Clear 31 1010 33 10000 2.6 60 17:55 28.10.2019
5395 Clear 31 1010 33 10000 2.6 60 17:36 28.10.2019
5396 Clear 31 1010 33 10000 2.6 60 17:18 28.10.2019
5397 Clear 31 1009 33 10000 4.1 50 16:44 28.10.2019
5398 Clear 31 1009 33 10000 4.1 50 16:24 28.10.2019
5399 Clear 32 1008 43 10000 4.1 30 15:59 28.10.2019
5400 Clear 32 1008 43 10000 4.1 30 15:40 28.10.2019
5401 Clear 32 1008 43 10000 4.1 30 15:22 28.10.2019
5402 Clear 33 1008 38 10000 4.1 40 14:58 28.10.2019
5403 Clear 33 1008 38 10000 4.1 40 14:40 28.10.2019
5404 Clear 33 1008 38 10000 4.1 40 14:19 28.10.2019
5405 Clear 34 1008 32 10000 4.6 20 13:58 28.10.2019
5406 Clear 34 1008 32 10000 4.6 20 13:40 28.10.2019
5407 Clear 34 1008 32 10000 4.6 20 13:18 28.10.2019
5408 Clear 34 1008 30 10000 7.2 330 12:43 28.10.2019
5409 Clear 34 1008 30 10000 7.2 330 12:21 28.10.2019
5410 Clear 34 1009 31 10000 7.2 330 11:58 28.10.2019
5411 Clear 34 1009 31 10000 7.2 330 11:37 28.10.2019
5412 Clear 34 1009 31 10000 7.2 330 11:19 28.10.2019
5413 Clear 35 1009 32 10000 6.7 330 10:41 28.10.2019
5414 Clear 35 1009 32 10000 6.7 330 10:22 28.10.2019
5415 Clear 35 1010 26 10000 4.1 330 09:57 28.10.2019
5416 Clear 35 1010 26 10000 4.1 330 09:39 28.10.2019
5417 Clear 35 1010 26 10000 4.1 330 09:19 28.10.2019
5418 Clear 34 1011 30 10000 3.1 320 08:57 28.10.2019
5419 Clear 34 1011 30 10000 3.1 320 08:38 28.10.2019
5420 Clear 34 1011 30 10000 3.1 320 08:19 28.10.2019
5421 Clear 33 1011 24 10000 1.5 0 07:56 28.10.2019
5422 Clear 33 1011 24 10000 1.5 0 07:56 28.10.2019
5423 Clear 33 1011 24 10000 1.5 0 07:36 28.10.2019
5424 Clear 33 1011 24 10000 1.5 0 07:18 28.10.2019
5425 Clear 30 1011 31 10000 1 0 06:39 28.10.2019
5426 Clear 27 1010 51 10000 3.1 230 05:40 28.10.2019
5427 Clear 24 1009 54 10000 0.5 0 03:45 28.10.2019
5428 Clear 24 1008 54 10000 2.1 130 02:46 28.10.2019
5429 Clear 25 1008 42 10000 3.6 110 01:55 28.10.2019
5430 Clear 25 1008 37 10000 2.6 90 00:56 28.10.2019
5431 Clear 25 1009 35 10000 1.5 120 00:32 28.10.2019
5432 Clear 25 1009 35 10000 1.5 120 23:47 27.10.2019
5433 Clear 25 1009 35 10000 1.5 120 23:23 27.10.2019
5434 Clear 25 1009 35 10000 1.5 120 23:23 27.10.2019
5435 Clear 27 1009 35 10000 2.1 110 22:58 27.10.2019
5436 Clear 27 1009 35 10000 2.1 110 22:58 27.10.2019
5437 Clear 27 1009 35 10000 2.1 110 22:39 27.10.2019
5438 Clear 27 1009 35 10000 2.1 110 22:21 27.10.2019
5439 Clear 27 1009 35 10000 2.1 110 22:21 27.10.2019
5440 Clear 27 1009 40 10000 2.6 90 21:57 27.10.2019
5441 Clear 27 1009 40 10000 2.6 90 21:39 27.10.2019
5442 Clear 27 1009 40 10000 2.6 90 21:20 27.10.2019
5443 Clear 28 1010 40 10000 2.6 80 20:56 27.10.2019
5444 Clear 28 1010 40 10000 2.6 80 20:38 27.10.2019
5445 Clear 28 1010 40 10000 2.6 80 20:19 27.10.2019
5446 Clear 28 1010 45 10000 3.1 80 19:54 27.10.2019
5447 Clear 28 1010 45 10000 3.1 80 19:36 27.10.2019
5448 Clear 28 1010 45 10000 3.1 80 19:18 27.10.2019
5449 Clear 29 1010 45 10000 2.1 80 18:54 27.10.2019
5450 Clear 29 1010 45 10000 2.1 80 18:36 27.10.2019
5451 Clear 29 1010 45 10000 2.1 80 18:18 27.10.2019
5452 Clear 29 1009 49 10000 2.6 50 17:40 27.10.2019
5453 Clear 29 1009 49 10000 2.6 50 17:19 27.10.2019
5454 Clear 31 1009 40 10000 3.1 50 16:57 27.10.2019
5455 Clear 31 1009 40 10000 3.1 50 16:39 27.10.2019
5456 Clear 31 1009 40 10000 3.1 50 16:20 27.10.2019
5457 Clear 32 1009 49 10000 5.1 50 15:56 27.10.2019
5458 Clear 32 1009 49 10000 5.1 50 15:37 27.10.2019
5459 Clear 32 1009 49 10000 5.1 50 15:19 27.10.2019
5460 Clear 33 1008 43 10000 4.6 10 14:42 27.10.2019
5461 Clear 33 1008 43 10000 4.6 10 14:42 27.10.2019
5462 Clear 33 1008 43 10000 4.6 10 14:20 27.10.2019
5463 Clear 34 1008 34 10000 4.1 30 13:58 27.10.2019
5464 Clear 34 1008 34 10000 4.1 30 13:38 27.10.2019
5465 Clear 34 1008 34 10000 4.1 30 13:19 27.10.2019
5466 Clear 34 1008 36 10000 5.7 340 12:46 27.10.2019
5467 Clear 34 1008 36 10000 5.7 340 12:24 27.10.2019
5468 Clear 35 1008 36 10000 5.7 350 11:59 27.10.2019
5469 Clear 35 1008 36 10000 5.7 350 11:41 27.10.2019
5470 Clear 35 1008 36 10000 5.7 350 11:21 27.10.2019
5471 Clear 36 1009 32 10000 6.7 350 10:44 27.10.2019
5472 Clear 36 1009 32 10000 6.7 350 10:25 27.10.2019
5473 Clear 37 1010 19 10000 2.6 280 09:57 27.10.2019
5474 Clear 37 1010 19 10000 2.6 280 09:39 27.10.2019
5475 Clear 37 1010 19 10000 2.6 280 09:18 27.10.2019
5476 Clear 35 1011 23 10000 2.6 260 08:42 27.10.2019
5477 Clear 35 1011 23 10000 2.6 260 08:22 27.10.2019
5478 Clear 33 1011 29 10000 2.1 220 07:59 27.10.2019
5479 Clear 33 1011 29 10000 2.1 220 07:41 27.10.2019
5480 Clear 33 1011 29 10000 2.1 220 07:20 27.10.2019
5481 Clear 30 1011 31 10000 2.1 190 06:47 27.10.2019
5482 Clear 30 1011 31 10000 2.1 190 06:26 27.10.2019
5483 Clear 26 1011 48 10000 2.1 160 05:39 27.10.2019
5484 Clear 23 1010 57 8000 2.1 100 04:50 27.10.2019
5485 Clear 23 1009 54 8000 3.6 100 02:54 27.10.2019
5486 Clear 24 1009 65 7000 3.1 100 01:49 27.10.2019
5487 Clear 24 1009 65 7000 3.1 100 01:20 27.10.2019
5488 Clear 25 1010 69 8000 2.6 90 00:43 27.10.2019
5489 Clear 25 1010 69 8000 2.6 90 00:18 27.10.2019
5490 Clear 26 1010 62 10000 2.1 110 23:41 26.10.2019
5491 Clear 26 1010 62 10000 2.1 110 23:22 26.10.2019
5492 Clear 26 1010 62 10000 2.6 100 22:59 26.10.2019
5493 Clear 26 1010 62 10000 2.6 100 22:40 26.10.2019
5494 Clear 26 1010 62 10000 2.6 100 22:20 26.10.2019
5495 Clear 28 1011 66 10000 2.6 110 21:59 26.10.2019
5496 Clear 28 1011 66 10000 2.6 110 21:41 26.10.2019
5497 Clear 28 1011 66 10000 2.6 110 21:20 26.10.2019
5498 Clear 28 1011 70 7000 3.1 100 20:45 26.10.2019
5499 Clear 28 1011 70 7000 3.1 100 20:20 26.10.2019
5500 Clear 29 1011 66 8000 3.1 60 19:57 26.10.2019
5501 Clear 29 1011 66 8000 3.1 60 19:38 26.10.2019
5502 Clear 29 1011 66 8000 3.1 60 19:19 26.10.2019
5503 Clear 30 1010 66 8000 3.1 340 18:56 26.10.2019
5504 Clear 30 1010 66 8000 3.1 340 18:37 26.10.2019
5505 Clear 30 1010 66 8000 3.1 340 18:18 26.10.2019
5506 Clear 31 1010 62 8000 2.1 360 17:39 26.10.2019
5507 Clear 31 1010 62 8000 2.1 360 17:39 26.10.2019
5508 Clear 31 1010 62 8000 2.1 360 17:21 26.10.2019
5509 Clear 31 1009 62 8000 4.1 340 16:59 26.10.2019
5510 Clear 31 1009 62 8000 4.1 340 16:41 26.10.2019
5511 Clear 31 1009 62 8000 4.1 340 16:41 26.10.2019
5512 Clear 31 1009 62 8000 4.1 340 16:22 26.10.2019
5513 Clear 33 1009 49 10000 4.6 350 15:41 26.10.2019
5514 Clear 33 1009 49 10000 4.6 350 15:20 26.10.2019
5515 Clear 34 1009 44 10000 7.2 340 14:41 26.10.2019
5516 Clear 34 1009 44 10000 7.2 340 14:22 26.10.2019
5517 Clear 31 1009 52 0 5.36 335 13:59 26.10.2019
5518 Clear 31 1009 52 0 5.36 335 13:41 26.10.2019
5519 Clear 35 1009 41 10000 7.7 330 13:21 26.10.2019
5520 Clear 36 1009 32 10000 7.7 310 12:48 26.10.2019
5521 Clear 38 1010 18 10000 2.6 0 12:25 26.10.2019
5522 Clear 38 1010 18 10000 2.6 0 11:50 26.10.2019
5523 Clear 38 1010 18 10000 2.6 0 11:29 26.10.2019
5524 Clear 37 1011 16 10000 3.6 220 10:57 26.10.2019
5525 Clear 37 1011 16 10000 3.6 220 10:39 26.10.2019
5526 Clear 37 1011 16 10000 3.6 220 10:21 26.10.2019
5527 Clear 36 1012 19 10000 4.1 200 09:44 26.10.2019
5528 Clear 36 1012 19 10000 4.1 200 09:26 26.10.2019
5529 Clear 33 1012 17 10000 4.6 180 08:44 26.10.2019
5530 Clear 33 1012 17 10000 4.6 180 08:25 26.10.2019
5531 Clear 31 1012 25 10000 4.1 180 07:55 26.10.2019
5532 Clear 31 1012 25 10000 4.1 180 07:31 26.10.2019
5533 Clear 27 1012 48 10000 3.1 180 06:46 26.10.2019
5534 Clear 27 1012 48 10000 3.1 180 06:27 26.10.2019
5535 Haze 25 1012 74 4500 3.6 150 05:21 26.10.2019
5536 Haze 24 1010 78 5000 1.5 0 04:30 26.10.2019
5537 Clear 25 1010 74 10000 1.5 0 02:49 26.10.2019
5538 Clear 25 1010 66 10000 1.5 190 01:56 26.10.2019
5539 Clear 25 1010 66 10000 1.5 190 01:29 26.10.2019
5540 Clear 26 1010 74 8000 1.5 110 00:25 26.10.2019
5541 Clear 27 1010 70 8000 2.1 90 23:44 25.10.2019
5542 Clear 27 1010 70 8000 2.1 90 23:44 25.10.2019
5543 Clear 27 1010 70 8000 2.1 90 23:20 25.10.2019
5544 Clear 28 1011 70 10000 2.6 90 22:41 25.10.2019
5545 Clear 28 1011 70 10000 2.6 90 22:23 25.10.2019
5546 Clear 28 1011 62 10000 2.1 0 21:58 25.10.2019
5547 Clear 28 1011 62 10000 2.1 0 21:40 25.10.2019
5548 Clear 28 1011 62 10000 2.1 0 21:21 25.10.2019
5549 Clear 29 1011 62 10000 2.1 50 20:56 25.10.2019
5550 Clear 29 1011 62 10000 2.1 50 20:38 25.10.2019
5551 Clear 29 1011 62 10000 2.1 50 20:18 25.10.2019
5552 Clear 29 1011 62 10000 2.6 70 19:43 25.10.2019
5553 Clear 29 1011 62 10000 2.6 70 19:25 25.10.2019
5554 Clear 30 1010 59 10000 4.1 60 18:45 25.10.2019
5555 Clear 30 1010 59 10000 4.1 60 18:23 25.10.2019
5556 Clear 31 1010 43 10000 3.1 20 17:42 25.10.2019
5557 Clear 31 1010 43 10000 3.1 20 17:22 25.10.2019
5558 Clear 33 1009 43 10000 4.1 340 16:56 25.10.2019
5559 Clear 33 1009 43 10000 4.1 340 16:37 25.10.2019
5560 Clear 33 1009 43 10000 4.1 340 16:19 25.10.2019
5561 Clear 35 1009 30 10000 4.6 330 15:40 25.10.2019
5562 Clear 35 1009 30 10000 4.6 330 15:22 25.10.2019
5563 Clear 36 1009 25 10000 5.7 330 14:58 25.10.2019
5564 Clear 36 1009 25 10000 5.7 330 14:58 25.10.2019
5565 Clear 36 1009 25 10000 5.7 330 14:58 25.10.2019
5566 Clear 36 1009 25 10000 5.7 330 14:39 25.10.2019
5567 Clear 36 1009 25 10000 5.7 330 14:20 25.10.2019
5568 Clear 36 1009 32 10000 5.1 340 13:42 25.10.2019
5569 Clear 37 1010 22 10000 3.1 300 13:24 25.10.2019
5570 Clear 37 1010 22 10000 3.1 300 12:56 25.10.2019
5571 Clear 37 1010 22 10000 3.1 300 12:38 25.10.2019
5572 Clear 37 1010 22 10000 3.1 300 12:19 25.10.2019
5573 Clear 37 1010 17 10000 1.5 140 11:41 25.10.2019
5574 Clear 37 1010 17 10000 1.5 140 11:22 25.10.2019
5575 Clear 36 1011 22 10000 1.5 220 10:57 25.10.2019
5576 Clear 36 1011 22 10000 1.5 220 10:39 25.10.2019
5577 Clear 36 1011 22 10000 1.5 220 10:19 25.10.2019
5578 Clear 35 1013 21 10000 2.1 180 09:42 25.10.2019
5579 Clear 35 1013 21 10000 2.1 180 09:21 25.10.2019
5580 Clear 33 1013 27 10000 1.5 0 08:59 25.10.2019
5581 Clear 33 1013 27 10000 1.5 0 08:41 25.10.2019
5582 Clear 33 1013 27 10000 1.5 0 08:22 25.10.2019
5583 Clear 31 1013 29 10000 2.1 0 07:47 25.10.2019
5584 Clear 31 1013 29 10000 2.1 0 07:28 25.10.2019
5585 Clear 28 1012 58 8000 2.1 90 06:38 25.10.2019
5586 Dust 26 1012 69 5000 2.1 160 05:50 25.10.2019
5587 Dust 26 1012 69 5000 2.1 160 05:32 25.10.2019
5588 Haze 24 1012 78 4500 3.6 170 04:37 25.10.2019
5589 Clear 26 1010 70 10000 2.1 80 02:42 25.10.2019
5590 Clear 26 1010 66 10000 1 160 01:53 25.10.2019
5591 Clear 26 1010 70 10000 1.5 350 00:36 25.10.2019
5592 Clear 27 1010 70 10000 1.5 0 23:56 24.10.2019
5593 Clear 27 1010 70 10000 1.5 0 23:37 24.10.2019
5594 Clear 27 1010 70 10000 1.5 0 23:19 24.10.2019
5595 Clear 27 1010 70 10000 1.5 0 23:19 24.10.2019
5596 Clear 27 1011 62 10000 2.1 70 22:39 24.10.2019
5597 Clear 27 1011 62 10000 2.1 70 22:19 24.10.2019
5598 Clear 28 1011 55 10000 1.5 60 21:58 24.10.2019
5599 Clear 28 1011 55 10000 1.5 60 21:40 24.10.2019
5600 Clear 28 1011 55 10000 1.5 60 21:20 24.10.2019
5601 Clear 29 1011 46 10000 3.1 30 20:59 24.10.2019
5602 Clear 29 1011 46 10000 3.1 30 20:39 24.10.2019
5603 Clear 29 1011 46 10000 3.1 30 20:21 24.10.2019
5604 Clear 30 1011 58 10000 2.6 50 19:57 24.10.2019
5605 Clear 30 1011 58 10000 2.6 50 19:57 24.10.2019
5606 Clear 30 1011 58 10000 2.6 50 19:38 24.10.2019
5607 Clear 30 1011 58 10000 2.6 50 19:20 24.10.2019
5608 Clear 30 1011 55 10000 3.1 30 18:56 24.10.2019
5609 Clear 30 1011 55 10000 3.1 30 18:38 24.10.2019
5610 Clear 30 1011 55 10000 3.1 30 18:18 24.10.2019
5611 Clear 31 1010 59 10000 3.6 50 17:42 24.10.2019
5612 Clear 31 1010 59 10000 3.6 50 17:20 24.10.2019
5613 Clear 33 1010 44 10000 4.6 360 16:58 24.10.2019
5614 Clear 33 1010 44 10000 4.6 360 16:39 24.10.2019
5615 Clear 33 1010 44 10000 4.6 360 16:21 24.10.2019
5616 Clear 35 1009 44 10000 5.1 360 15:58 24.10.2019
5617 Clear 35 1009 44 10000 5.1 360 15:58 24.10.2019
5618 Clear 35 1009 44 10000 5.1 360 15:40 24.10.2019
5619 Clear 35 1009 44 10000 5.1 360 15:21 24.10.2019
5620 Clear 35 1009 44 10000 5.1 340 14:57 24.10.2019
5621 Clear 35 1009 44 10000 5.1 340 14:38 24.10.2019
5622 Clear 35 1009 44 10000 5.1 340 14:20 24.10.2019
5623 Clear 36 1009 50 10000 5.1 340 13:41 24.10.2019
5624 Clear 37 1010 44 10000 5.1 340 13:20 24.10.2019
5625 Clear 37 1010 44 10000 5.1 340 12:58 24.10.2019
5626 Clear 37 1010 44 10000 5.1 340 12:39 24.10.2019
5627 Clear 37 1010 44 10000 5.1 340 12:19 24.10.2019
5628 Clear 36 1010 41 10000 5.1 340 11:57 24.10.2019
5629 Clear 36 1010 41 10000 5.1 340 11:38 24.10.2019
5630 Clear 36 1010 41 10000 5.1 340 11:19 24.10.2019
5631 Clear 35 1011 41 10000 3.1 0 10:57 24.10.2019
5632 Clear 35 1011 41 10000 3.1 0 10:38 24.10.2019
5633 Clear 35 1011 41 10000 3.1 0 10:20 24.10.2019
5634 Clear 34 1012 44 8000 2.1 0 09:38 24.10.2019
5635 Clear 34 1012 44 8000 2.1 0 09:38 24.10.2019
5636 Clear 34 1012 44 8000 2.1 0 09:18 24.10.2019
5637 Clear 31 1013 66 6000 2.6 80 08:44 24.10.2019
5638 Clear 31 1013 66 6000 2.6 80 08:22 24.10.2019
5639 Haze 29 1013 74 5000 2.1 90 08:00 24.10.2019
5640 Haze 29 1013 74 5000 2.1 90 07:41 24.10.2019
5641 Haze 29 1013 74 5000 2.1 90 07:21 24.10.2019
5642 Haze 26 1012 83 4000 1.5 150 06:39 24.10.2019
5643 Haze 26 1012 83 4000 1.5 150 06:20 24.10.2019
5644 Haze 25 1011 78 4000 1.5 170 05:48 24.10.2019
5645 Haze 25 1011 78 4000 1.5 170 05:27 24.10.2019
5646 Clear 25 1010 78 6000 2.6 80 03:37 24.10.2019
5647 Clear 26 1010 79 7000 2.6 90 02:55 24.10.2019
5648 Clear 26 1010 79 7000 2.6 90 02:24 24.10.2019
5649 Clear 26 1010 79 8000 2.1 90 01:34 24.10.2019
5650 Clear 27 1010 70 8000 1.5 70 00:58 24.10.2019
5651 Clear 27 1010 70 8000 1.5 70 00:38 24.10.2019
5652 Clear 27 1010 70 8000 1.5 70 00:18 24.10.2019
5653 Clear 28 1010 70 10000 2.1 360 23:42 23.10.2019
5654 Clear 28 1010 70 10000 2.1 360 23:23 23.10.2019
5655 Clear 28 1010 70 10000 1.5 340 22:57 23.10.2019
5656 Clear 28 1010 70 10000 1.5 340 22:38 23.10.2019
5657 Clear 28 1010 70 10000 1.5 340 22:18 23.10.2019
5658 Clear 29 1010 74 9000 3.1 350 21:57 23.10.2019
5659 Clear 29 1010 74 9000 3.1 350 21:57 23.10.2019
5660 Clear 29 1010 74 9000 3.1 350 21:38 23.10.2019
5661 Clear 29 1010 74 9000 3.1 350 21:19 23.10.2019
5662 Clear 29 1010 70 9000 3.1 360 20:56 23.10.2019
5663 Clear 29 1010 70 9000 3.1 360 20:37 23.10.2019
5664 Clear 29 1010 70 9000 3.1 360 20:19 23.10.2019
5665 Clear 30 1010 70 9000 2.1 360 19:54 23.10.2019
5666 Clear 30 1010 70 9000 2.1 360 19:36 23.10.2019
5667 Clear 30 1010 70 9000 2.1 360 19:18 23.10.2019
5668 Clear 30 1010 70 8000 3.1 340 18:39 23.10.2019
5669 Clear 30 1010 70 8000 3.1 340 18:19 23.10.2019
5670 Clear 30 1009 70 10000 4.1 350 17:58 23.10.2019
5671 Clear 30 1009 70 10000 4.1 350 17:58 23.10.2019
5672 Clear 30 1009 70 10000 4.1 350 17:40 23.10.2019
5673 Clear 30 1009 70 10000 4.1 350 17:19 23.10.2019
5674 Clear 31 1009 66 7000 5.1 340 16:41 23.10.2019
5675 Clear 31 1009 66 7000 5.1 340 16:21 23.10.2019
5676 Clear 33 1008 52 7000 4.6 360 15:58 23.10.2019
5677 Clear 33 1008 52 7000 4.6 360 15:40 23.10.2019
5678 Clear 33 1008 52 7000 4.6 360 15:21 23.10.2019
5679 Clear 34 1008 52 8000 4.6 350 14:56 23.10.2019
5680 Clear 34 1008 52 8000 4.6 350 14:38 23.10.2019
5681 Clear 34 1008 52 8000 4.6 350 14:19 23.10.2019
5682 Clear 34 1008 49 10000 6.2 340 13:44 23.10.2019
5683 Clear 34 1008 49 10000 6.2 340 13:44 23.10.2019
5684 Clear 35 1009 41 10000 6.7 340 13:25 23.10.2019
5685 Clear 35 1009 41 10000 6.7 340 12:59 23.10.2019
5686 Clear 35 1009 41 10000 6.7 340 12:41 23.10.2019
5687 Clear 35 1009 41 10000 6.7 340 12:19 23.10.2019
5688 Clear 35 1010 52 8000 5.7 330 11:58 23.10.2019
5689 Clear 35 1010 52 8000 5.7 330 11:40 23.10.2019
5690 Clear 35 1010 52 8000 5.7 330 11:21 23.10.2019
5691 Clear 35 1011 34 10000 2.6 100 10:57 23.10.2019
5692 Clear 35 1011 34 10000 2.6 100 10:38 23.10.2019
5693 Clear 35 1011 34 10000 2.6 100 10:19 23.10.2019
5694 Clear 34 1012 46 10000 1.5 0 09:40 23.10.2019
5695 Clear 34 1012 46 10000 1.5 0 09:40 23.10.2019
5696 Clear 34 1012 46 10000 1.5 0 09:22 23.10.2019
5697 Clear 31 1012 59 7000 2.6 110 08:55 23.10.2019
5698 Clear 31 1012 59 7000 2.6 110 08:55 23.10.2019
5699 Clear 31 1012 59 7000 2.6 110 08:37 23.10.2019
5700 Clear 31 1012 59 7000 2.6 110 08:18 23.10.2019
5701 Haze 29 1012 74 4000 2.6 60 07:44 23.10.2019
5702 Haze 29 1012 74 4000 2.6 60 07:20 23.10.2019
5703 Haze 27 1012 83 3000 2.6 90 06:43 23.10.2019
5704 Haze 27 1012 83 3000 2.6 90 06:19 23.10.2019
5705 Haze 25 1011 88 2500 1.5 100 05:20 23.10.2019
5706 Haze 26 1010 83 4000 1.5 180 03:47 23.10.2019
5707 Haze 26 1010 83 5000 2.1 90 02:44 23.10.2019
5708 Haze 26 1010 83 5000 2.1 100 01:43 23.10.2019
5709 Haze 26 1010 83 5000 2.1 100 01:18 23.10.2019
5710 Clouds 27 1010 79 6000 3.6 120 00:34 23.10.2019
5711 Clouds 28 1010 79 8000 2.6 80 23:56 22.10.2019
5712 Clouds 28 1010 79 8000 2.6 80 23:37 22.10.2019
5713 Clouds 28 1010 79 8000 2.6 80 23:18 22.10.2019
5714 Clouds 28 1010 79 8000 2.6 70 22:41 22.10.2019
5715 Clouds 28 1010 79 8000 2.6 70 22:41 22.10.2019
5716 Clouds 28 1010 79 8000 2.6 70 22:41 22.10.2019
5717 Clouds 28 1010 79 8000 2.6 70 22:23 22.10.2019
5718 Clouds 29 1011 74 7000 1.5 10 21:57 22.10.2019
5719 Clouds 29 1011 74 7000 1.5 10 21:39 22.10.2019
5720 Clouds 29 1011 74 7000 1.5 10 21:19 22.10.2019
5721 Clouds 29 1011 74 7000 3.6 340 20:59 22.10.2019
5722 Clouds 29 1011 74 7000 3.6 340 20:41 22.10.2019
5723 Clouds 29 1011 74 7000 3.6 340 20:23 22.10.2019
5724 Clouds 30 1011 79 7000 3.1 360 19:59 22.10.2019
5725 Clouds 30 1011 79 7000 3.1 360 19:41 22.10.2019
5726 Clouds 30 1011 79 7000 3.1 360 19:22 22.10.2019
5727 Clouds 30 1010 74 7000 4.1 350 18:56 22.10.2019
5728 Clouds 30 1010 74 7000 4.1 350 18:38 22.10.2019
5729 Clouds 30 1010 74 7000 4.1 350 18:20 22.10.2019
5730 Clouds 30 1010 74 7000 5.1 350 17:55 22.10.2019
5731 Clouds 30 1010 74 7000 5.1 350 17:36 22.10.2019
5732 Clouds 30 1010 74 7000 5.1 350 17:18 22.10.2019
5733 Clouds 31 1009 70 6000 5.1 330 16:39 22.10.2019
5734 Clouds 31 1009 70 6000 5.1 330 16:20 22.10.2019
5735 Clouds 31 1009 70 6000 5.1 330 16:20 22.10.2019
5736 Clear 32 1009 66 7000 6.2 340 15:59 22.10.2019
5737 Clear 32 1009 66 7000 6.2 340 15:41 22.10.2019
5738 Clear 32 1009 66 7000 6.2 340 15:19 22.10.2019
5739 Clear 33 1009 52 9000 7.2 340 14:47 22.10.2019
5740 Clear 33 1009 52 9000 7.2 340 14:22 22.10.2019
5741 Clear 33 1009 49 9000 7.2 350 13:56 22.10.2019
5742 Clear 33 1009 49 9000 7.2 350 13:37 22.10.2019
5743 Clear 33 1009 49 9000 7.2 350 13:18 22.10.2019
5744 Clear 34 1009 46 9000 6.2 330 12:54 22.10.2019
5745 Clear 34 1009 46 9000 6.2 330 12:36 22.10.2019
5746 Clear 34 1009 46 9000 6.2 330 12:18 22.10.2019
5747 Clear 35 1010 44 8000 2.1 0 11:40 22.10.2019
5748 Clear 35 1010 44 8000 2.1 0 11:22 22.10.2019
5749 Clear 34 1011 36 10000 2.6 70 10:58 22.10.2019
5750 Clear 34 1011 36 10000 2.6 70 10:38 22.10.2019
5751 Clear 34 1011 36 10000 2.6 70 10:19 22.10.2019
5752 Clear 33 1012 38 10000 2.6 90 09:57 22.10.2019
5753 Clear 33 1012 38 10000 2.6 90 09:38 22.10.2019
5754 Clear 33 1012 38 10000 2.6 90 09:20 22.10.2019
5755 Clear 31 1012 66 7000 2.6 120 08:43 22.10.2019
5756 Clear 31 1012 66 7000 2.6 120 08:22 22.10.2019
5757 Haze 29 1012 74 5000 3.6 120 07:55 22.10.2019
5758 Haze 29 1012 74 5000 3.6 120 07:55 22.10.2019
5759 Haze 29 1012 74 5000 3.6 120 07:37 22.10.2019
5760 Haze 29 1012 74 5000 3.6 120 07:18 22.10.2019
5761 Haze 26 1012 74 4500 3.1 100 06:36 22.10.2019
5762 Haze 26 1012 74 4500 3.1 100 06:18 22.10.2019
5763 Haze 24 1011 78 3500 2.1 140 05:27 22.10.2019
5764 Clear 25 1010 74 6000 2.1 80 03:38 22.10.2019
5765 Clear 25 1010 74 8000 1 0 02:29 22.10.2019
5766 Clear 26 1010 74 7000 3.1 130 01:32 22.10.2019
5767 Clear 26 1010 74 7000 1.5 130 00:59 22.10.2019
5768 Clear 26 1010 74 7000 1.5 130 00:41 22.10.2019
5769 Clear 26 1010 74 7000 1.5 130 00:21 22.10.2019
5770 Clear 27 1011 70 8000 2.1 110 23:57 21.10.2019
5771 Clear 27 1011 70 8000 2.1 110 23:37 21.10.2019
5772 Clear 27 1011 70 8000 2.1 110 23:18 21.10.2019
5773 Clouds 28 1011 70 8000 3.1 110 22:57 21.10.2019
5774 Clouds 28 1011 70 8000 3.1 110 22:38 21.10.2019
5775 Clouds 28 1011 70 8000 3.1 110 22:19 21.10.2019
5776 Clouds 28 1011 70 8000 3.6 120 21:55 21.10.2019
5777 Clouds 28 1011 70 8000 3.6 120 21:55 21.10.2019
5778 Clouds 28 1011 70 8000 3.6 120 21:37 21.10.2019
5779 Clouds 28 1011 70 8000 3.6 120 21:19 21.10.2019
5780 Clouds 29 1011 62 10000 2.1 330 20:55 21.10.2019
5781 Clouds 29 1011 62 10000 2.1 330 20:37 21.10.2019
5782 Clouds 29 1011 62 10000 2.1 330 20:18 21.10.2019
5783 Clouds 29 1011 66 8000 2.6 360 19:41 21.10.2019
5784 Clouds 29 1011 66 8000 2.6 360 19:22 21.10.2019
5785 Clear 30 1011 66 10000 2.6 350 18:57 21.10.2019
5786 Clear 30 1011 66 10000 2.6 350 18:38 21.10.2019
5787 Clear 30 1011 66 10000 2.6 350 18:38 21.10.2019
5788 Clear 30 1011 66 10000 2.6 350 18:19 21.10.2019
5789 Clear 30 1010 62 10000 4.6 340 17:59 21.10.2019
5790 Clear 30 1010 62 10000 4.6 340 17:38 21.10.2019
5791 Clear 30 1010 62 10000 4.6 340 17:19 21.10.2019
5792 Clear 31 1010 58 8000 6.2 330 16:57 21.10.2019
5793 Clear 31 1010 58 8000 6.2 330 16:39 21.10.2019
5794 Clear 31 1010 58 8000 6.2 330 16:20 21.10.2019
5795 Clear 32 1010 52 8000 6.7 340 15:47 21.10.2019
5796 Clear 32 1010 52 8000 6.7 340 15:27 21.10.2019
5797 Clear 33 1010 49 8000 6.7 330 14:58 21.10.2019
5798 Clear 33 1010 49 8000 6.7 330 14:39 21.10.2019
5799 Clear 33 1010 49 8000 6.7 330 14:21 21.10.2019
5800 Clear 33 1010 52 7000 6.7 330 13:57 21.10.2019
5801 Clear 33 1010 52 7000 6.7 330 13:39 21.10.2019
5802 Clear 33 1010 52 7000 4.6 310 13:19 21.10.2019
5803 Clear 33 1011 55 8000 6.7 330 12:42 21.10.2019
5804 Clear 33 1011 55 8000 6.7 330 12:22 21.10.2019
5805 Clear 33 1011 55 8000 6.7 330 12:22 21.10.2019
5806 Clear 34 1011 55 7000 5.7 330 11:57 21.10.2019
5807 Clear 34 1011 55 7000 5.7 330 11:39 21.10.2019
5808 Clear 34 1011 55 7000 5.7 330 11:20 21.10.2019
5809 Clouds 34 1012 44 10000 2.6 250 10:57 21.10.2019
5810 Clouds 34 1012 44 10000 2.6 250 10:38 21.10.2019
5811 Clouds 34 1012 44 10000 2.6 250 10:19 21.10.2019
5812 Clear 33 1013 46 10000 2.1 0 09:48 21.10.2019
5813 Clear 33 1013 46 10000 2.1 0 09:26 21.10.2019
5814 Clear 31 1014 55 8000 2.6 100 08:58 21.10.2019
5815 Clear 31 1014 55 8000 2.6 100 08:39 21.10.2019
5816 Clear 31 1014 55 8000 2.6 100 08:21 21.10.2019
5817 -273 0 0 0 0 0 07:39 21.10.2019
5818 Haze 30 1014 66 6000 2.6 130 07:21 21.10.2019
5819 Haze 27 1013 74 5000 2.6 160 06:56 21.10.2019
5820 Haze 27 1013 74 5000 2.6 160 06:36 21.10.2019
5821 Haze 27 1013 74 5000 2.6 160 06:36 21.10.2019
5822 Haze 26 1013 78 4000 3.1 120 05:56 21.10.2019
5823 Haze 25 1013 83 5000 2.6 140 04:46 21.10.2019
5824 Mist 25 1012 78 6000 2.6 90 03:38 21.10.2019
5825 Haze 26 1012 78 6000 2.6 140 02:25 21.10.2019
5826 Haze 26 1012 74 7000 2.1 140 01:59 21.10.2019
5827 Haze 26 1012 74 7000 2.1 140 01:23 21.10.2019
5828 Haze 27 1012 66 10000 2.1 340 00:48 21.10.2019
5829 Haze 27 1012 66 10000 2.1 340 00:26 21.10.2019
5830 Clear 27 1013 66 10000 1.5 0 23:43 20.10.2019
5831 Clear 27 1013 66 10000 1.5 0 23:22 20.10.2019
5832 Clear 28 1013 70 10000 1.5 0 22:57 20.10.2019
5833 Clear 28 1013 70 10000 1.5 0 22:39 20.10.2019
5834 Clear 28 1013 70 10000 1.5 0 22:19 20.10.2019
5835 Clear 29 1013 66 10000 2.1 80 21:58 20.10.2019
5836 Clear 29 1013 66 10000 2.1 80 21:39 20.10.2019
5837 Clear 29 1013 66 10000 2.1 80 21:21 20.10.2019
5838 Clear 29 1013 66 10000 2.1 40 20:42 20.10.2019
5839 Clear 29 1013 66 10000 2.1 40 20:19 20.10.2019
5840 Clear 30 1013 62 10000 2.6 30 19:57 20.10.2019
5841 Clear 30 1013 62 10000 2.6 30 19:39 20.10.2019
5842 Clear 30 1013 62 10000 2.6 30 19:39 20.10.2019
5843 Clear 30 1013 62 10000 2.6 30 19:20 20.10.2019
5844 Clear 30 1013 62 10000 2.6 30 19:20 20.10.2019
5845 Clear 30 1012 66 10000 3.6 350 18:56 20.10.2019
5846 Clear 30 1012 66 10000 3.6 350 18:56 20.10.2019
5847 Clear 30 1012 66 10000 3.6 350 18:38 20.10.2019
5848 Clear 30 1012 66 10000 3.6 350 18:38 20.10.2019
5849 Clear 30 1012 66 10000 3.6 350 18:19 20.10.2019
5850 Clear 30 1012 62 10000 5.7 340 17:54 20.10.2019
5851 Clear 30 1012 62 10000 5.7 340 17:36 20.10.2019
5852 Clear 30 1012 62 10000 5.7 340 17:18 20.10.2019
5853 Clear 32 1012 55 10000 5.1 340 16:41 20.10.2019
5854 Clear 32 1012 55 10000 5.1 340 16:23 20.10.2019
5855 Clear 33 1012 49 10000 4.1 340 15:57 20.10.2019
5856 Clear 33 1012 49 10000 4.1 340 15:38 20.10.2019
5857 Clear 33 1012 49 10000 4.1 340 15:19 20.10.2019
5858 Clear 33 1012 55 10000 5.7 360 14:57 20.10.2019
5859 Clear 33 1012 55 10000 5.7 360 14:37 20.10.2019
5860 Clear 33 1012 55 10000 5.7 360 14:19 20.10.2019
5861 Clouds 34 1011 52 10000 5.7 360 13:55 20.10.2019
5862 Clear 31 1011 63 0 4.8 304.342 13:36 20.10.2019
5863 Clouds 35 1012 47 10000 4.6 340 13:18 20.10.2019
5864 Clouds 35 1012 47 10000 4.6 340 12:55 20.10.2019
5865 Clouds 35 1012 47 10000 4.6 340 12:37 20.10.2019
5866 Clouds 35 1012 47 10000 4.6 340 12:19 20.10.2019
5867 Clear 30 1013 52 0 1.28 258.9 11:41 20.10.2019
5868 Clear 34 1014 52 8000 4.1 340 11:23 20.10.2019
5869 Clear 34 1014 52 8000 4.1 340 10:59 20.10.2019
5870 Clear 34 1014 52 8000 4.1 340 10:39 20.10.2019
5871 Clear 34 1014 52 8000 4.1 340 10:21 20.10.2019
5872 Clear 34 1015 46 9000 1.5 0 09:56 20.10.2019
5873 Clear 34 1015 46 9000 1.5 0 09:38 20.10.2019
5874 Clear 34 1015 46 9000 1.5 0 09:20 20.10.2019
5875 Clear 32 1015 55 7000 2.1 0 08:44 20.10.2019
5876 Clear 32 1015 55 7000 2.1 0 08:22 20.10.2019
5877 Haze 30 1015 74 5000 2.1 70 07:49 20.10.2019
5878 Haze 30 1015 74 5000 2.1 70 07:29 20.10.2019
5879 Haze 27 1014 83 3500 1.5 90 06:31 20.10.2019
5880 Haze 24 1013 88 2500 2.6 120 04:41 20.10.2019
5881 Haze 25 1013 83 4000 2.1 90 03:59 20.10.2019
5882 Haze 25 1013 83 4000 2.1 90 03:39 20.10.2019
5883 Haze 25 1013 83 4000 2.1 90 03:18 20.10.2019
5884 Haze 25 1012 83 5000 2.6 80 02:28 20.10.2019
5885 Haze 26 1012 79 6000 2.1 80 01:54 20.10.2019
5886 Haze 26 1012 79 6000 2.1 80 01:23 20.10.2019
5887 Haze 26 1012 74 7000 1.5 110 00:53 20.10.2019
5888 Haze 26 1012 74 7000 1.5 110 00:21 20.10.2019
5889 Clear 28 1013 70 10000 1.5 150 23:55 19.10.2019
5890 Clear 28 1013 70 10000 1.5 150 23:37 19.10.2019
5891 Clear 28 1013 70 10000 1.5 150 23:19 19.10.2019
5892 Clear 28 1013 66 10000 2.1 110 22:41 19.10.2019
5893 Clear 28 1013 66 10000 2.1 110 22:23 19.10.2019
5894 Clear 28 1013 66 10000 2.1 360 21:58 19.10.2019
5895 Clear 28 1013 66 10000 2.1 360 21:40 19.10.2019
5896 Clear 28 1013 66 10000 2.1 360 21:40 19.10.2019
5897 Clear 28 1013 66 10000 2.1 360 21:20 19.10.2019
5898 Clear 29 1013 66 10000 2.6 0 20:43 19.10.2019
5899 Clear 29 1013 66 10000 2.6 0 20:21 19.10.2019
5900 Clear 30 1013 66 10000 3.1 350 19:55 19.10.2019
5901 Clear 30 1013 66 10000 3.1 350 19:37 19.10.2019
5902 Clear 30 1013 66 10000 3.1 350 19:19 19.10.2019
5903 Clear 31 1013 59 10000 3.6 350 18:41 19.10.2019
5904 Clear 31 1013 59 10000 3.6 350 18:41 19.10.2019
5905 Clear 31 1013 59 10000 3.6 350 18:22 19.10.2019
5906 Clear 31 1012 66 10000 5.7 340 17:41 19.10.2019
5907 Clear 31 1012 66 10000 5.7 340 17:23 19.10.2019
5908 Clear 32 1012 62 10000 5.7 340 16:59 19.10.2019
5909 Clear 32 1012 62 10000 5.7 340 16:38 19.10.2019
5910 Clear 32 1012 62 10000 5.7 340 16:38 19.10.2019
5911 Clear 32 1012 62 10000 5.7 340 16:19 19.10.2019
5912 Clear 33 1011 55 10000 6.2 330 15:43 19.10.2019
5913 Clear 33 1011 55 10000 6.2 330 15:25 19.10.2019
5914 Clear 33 1011 55 10000 6.2 330 15:25 19.10.2019
5915 Clear 34 1011 41 10000 6.7 320 14:40 19.10.2019
5916 Clear 34 1011 41 10000 6.7 320 14:40 19.10.2019
5917 Clear 34 1011 41 10000 6.7 320 14:21 19.10.2019
5918 Clear 35 1011 34 10000 6.2 330 13:59 19.10.2019
5919 Clear 35 1011 34 10000 6.2 330 13:41 19.10.2019
5920 Clear 35 1011 34 10000 6.2 330 13:20 19.10.2019
5921 Clear 36 1011 39 10000 5.7 330 12:58 19.10.2019
5922 Clear 36 1011 39 10000 5.7 330 12:38 19.10.2019
5923 Clear 36 1011 39 10000 5.7 330 12:20 19.10.2019
5924 Clear 38 1012 22 10000 2.6 280 11:41 19.10.2019
5925 Clear 38 1012 22 10000 2.6 280 11:23 19.10.2019
5926 Clear 37 1013 19 10000 1 0 10:58 19.10.2019
5927 Clear 37 1013 19 10000 1 0 10:39 19.10.2019
5928 Clear 37 1013 19 10000 1 0 10:21 19.10.2019
5929 Clear 35 1014 28 10000 3.1 0 09:44 19.10.2019
5930 Clear 35 1014 28 10000 3.1 0 09:26 19.10.2019
5931 Clear 33 1014 31 8000 4.6 190 09:00 19.10.2019
5932 Clear 33 1014 31 8000 4.6 190 08:59 19.10.2019
5933 Clear 33 1014 31 8000 4.6 190 08:40 19.10.2019
5934 Clear 33 1014 31 8000 4.6 190 08:21 19.10.2019
5935 Clear 33 1014 31 8000 4.6 190 08:21 19.10.2019
5936 Haze 29 1014 55 5000 2.1 0 07:44 19.10.2019
5937 Haze 29 1014 79 3500 2.6 90 07:25 19.10.2019
5938 Fog 27 1015 100 250 1 0 06:47 19.10.2019
5939 Fog 26 1014 100 800 2.6 140 06:28 19.10.2019
5940 Fog 26 1013 100 1200 2.6 160 05:34 19.10.2019
5941 Haze 26 1014 100 1000 5.7 140 04:24 19.10.2019
5942 Haze 26 1012 94 50 1.5 120 02:47 19.10.2019
5943 Haze 26 1011 83 3500 1 0 01:53 19.10.2019
5944 Haze 26 1011 83 3500 1 0 01:25 19.10.2019
5945 Haze 27 1011 83 4500 2.1 110 00:48 19.10.2019
5946 Haze 27 1011 83 4500 2.1 110 00:27 19.10.2019
5947 Haze 27 1011 83 5000 2.1 130 23:45 18.10.2019
5948 Haze 27 1011 83 5000 2.1 130 23:27 18.10.2019
5949 Haze 28 1011 74 6000 3.6 110 22:58 18.10.2019
5950 Haze 28 1011 74 6000 3.6 110 22:40 18.10.2019
5951 Haze 28 1011 74 6000 3.6 110 22:20 18.10.2019
5952 Haze 28 1011 74 6000 3.6 110 22:20 18.10.2019
5953 Haze 28 1011 74 6000 3.6 110 22:20 18.10.2019
5954 Haze 29 1011 74 7000 1.5 0 21:59 18.10.2019
5955 Haze 29 1011 74 7000 1.5 0 21:39 18.10.2019
5956 Haze 29 1011 74 7000 1.5 0 21:20 18.10.2019
5957 Haze 29 1012 74 7000 2.1 0 20:56 18.10.2019
5958 Haze 29 1012 74 7000 2.1 0 20:56 18.10.2019
5959 Haze 29 1012 74 7000 2.1 0 20:38 18.10.2019
5960 Haze 29 1012 74 7000 2.1 0 20:20 18.10.2019
5961 Haze 30 1012 70 8000 2.1 10 19:57 18.10.2019
5962 Haze 30 1012 70 8000 2.1 10 19:57 18.10.2019
5963 Haze 30 1012 70 8000 2.1 10 19:38 18.10.2019
5964 Haze 30 1012 70 8000 2.1 10 19:38 18.10.2019
5965 Haze 30 1012 70 8000 2.1 10 19:38 18.10.2019
5966 Haze 30 1012 70 8000 2.1 10 19:20 18.10.2019
5967 Haze 30 1011 74 7000 3.6 360 18:56 18.10.2019
5968 Haze 30 1011 74 7000 3.6 360 18:38 18.10.2019
5969 Haze 30 1011 74 7000 3.6 360 18:20 18.10.2019
5970 Clouds 31 1011 74 8000 5.7 340 17:39 18.10.2019
5971 Clouds 31 1011 74 8000 5.7 340 17:20 18.10.2019
5972 Clouds 31 1010 59 7000 6.2 340 16:58 18.10.2019
5973 Clouds 31 1010 59 7000 6.2 340 16:37 18.10.2019
5974 Clouds 31 1010 59 7000 6.2 340 16:19 18.10.2019
5975 Clouds 32 1010 55 7000 7.2 330 15:41 18.10.2019
5976 Clouds 32 1010 55 7000 7.2 330 15:21 18.10.2019
5977 Clouds 33 1010 52 7000 6.7 330 14:59 18.10.2019
5978 Clouds 33 1010 52 7000 6.7 330 14:40 18.10.2019
5979 Clouds 33 1010 52 7000 6.7 330 14:22 18.10.2019
5980 Clear 35 1010 32 10000 6.7 350 13:59 18.10.2019
5981 Clear 35 1010 32 10000 6.7 350 13:41 18.10.2019
5982 Clear 37 1011 25 10000 4.6 310 13:23 18.10.2019
5983 Clear 37 1011 25 10000 4.6 310 12:56 18.10.2019
5984 Clear 37 1011 25 10000 4.6 310 12:38 18.10.2019
5985 Clear 37 1011 25 10000 4.6 310 12:20 18.10.2019
5986 Clear 37 1011 19 10000 1.5 0 11:56 18.10.2019
5987 Clear 37 1011 19 10000 1.5 0 11:38 18.10.2019
5988 Clear 37 1011 19 10000 1.5 0 11:19 18.10.2019
5989 Clear 37 1013 22 10000 1.5 0 10:43 18.10.2019
5990 Clear 37 1013 22 10000 1.5 0 10:43 18.10.2019
5991 Clear 37 1013 22 10000 1.5 0 10:23 18.10.2019
5992 Clear 35 1014 30 10000 3.6 210 09:59 18.10.2019
5993 Clear 35 1014 30 10000 3.6 210 09:41 18.10.2019
5994 Clear 35 1014 30 10000 3.6 210 09:21 18.10.2019
5995 Clear 35 1014 30 10000 3.6 210 09:21 18.10.2019
5996 Clouds 32 1014 49 8000 2.6 0 08:58 18.10.2019
5997 Clouds 32 1014 49 8000 2.6 0 08:58 18.10.2019
5998 Clouds 32 1014 49 8000 2.6 0 08:58 18.10.2019
5999 Clouds 32 1014 49 8000 2.6 0 08:58 18.10.2019
6000 Clouds 32 1014 49 8000 2.6 0 08:40 18.10.2019
6001 Clouds 32 1014 49 8000 2.6 0 08:21 18.10.2019
6002 Haze 29 1014 74 5000 2.1 270 07:42 18.10.2019
6003 Haze 29 1014 74 5000 2.1 270 07:21 18.10.2019
6004 Haze 26 1014 88 2500 3.6 190 06:39 18.10.2019
6005 Haze 26 1014 88 2500 3.6 190 06:21 18.10.2019
6006 Mist 25 1013 88 1500 3.6 140 05:56 18.10.2019
6007 Mist 25 1013 88 1500 3.6 140 05:22 18.10.2019
6008 Haze 25 1012 94 3000 3.6 140 04:25 18.10.2019
6009 Haze 26 1012 83 4000 2.6 100 03:29 18.10.2019
6010 Haze 26 1012 83 5000 2.1 150 02:33 18.10.2019
6011 Haze 26 1012 78 6000 2.6 130 01:44 18.10.2019
6012 Haze 26 1012 78 6000 2.6 130 01:26 18.10.2019
6013 Haze 27 1012 74 7000 2.6 140 00:44 18.10.2019
6014 Haze 27 1012 74 7000 2.6 140 00:20 18.10.2019
6015 Haze 27 1012 74 7000 2.6 140 00:20 18.10.2019
6016 Haze 28 1013 79 8000 2.1 360 23:54 17.10.2019
6017 Haze 28 1013 79 8000 2.1 360 23:36 17.10.2019
6018 Haze 28 1013 79 8000 2.1 360 23:18 17.10.2019
6019 Haze 28 1012 74 7000 2.6 0 22:54 17.10.2019
6020 Haze 28 1012 74 7000 2.6 0 22:36 17.10.2019
6021 Haze 28 1012 74 7000 2.6 0 22:18 17.10.2019
6022 Clear 29 1013 79 7000 3.1 350 21:54 17.10.2019
6023 Clear 29 1013 79 7000 3.1 350 21:36 17.10.2019
6024 Clear 29 1013 79 7000 3.1 350 21:36 17.10.2019
6025 Clouds 29 1013 79 7000 3.1 350 21:18 17.10.2019
6026 Clouds 29 1013 74 7000 3.6 330 20:54 17.10.2019
6027 Clouds 29 1013 74 7000 3.6 330 20:36 17.10.2019
6028 Clouds 29 1013 74 7000 3.6 330 20:18 17.10.2019
6029 -273 0 0 0 0 0 19:41 17.10.2019
6030 Clouds 30 1013 70 8000 3.6 340 19:20 17.10.2019
6031 Clouds 30 1013 70 8000 3.6 340 19:20 17.10.2019
6032 Clouds 30 1013 70 8000 3.6 340 19:20 17.10.2019
6033 Clear 31 1013 59 10000 4.1 340 18:59 17.10.2019
6034 Clear 31 1013 59 10000 4.1 340 18:38 17.10.2019
6035 Clear 31 1013 59 10000 4.1 340 18:20 17.10.2019
6036 Clear 32 1012 52 10000 4.1 350 17:43 17.10.2019
6037 Clear 32 1012 52 10000 4.1 350 17:24 17.10.2019
6038 Clear 33 1012 43 10000 5.1 340 16:58 17.10.2019
6039 Clear 33 1012 43 10000 5.1 340 16:40 17.10.2019
6040 Clear 33 1012 43 10000 5.1 340 16:40 17.10.2019
6041 Clear 33 1012 43 10000 5.1 340 16:18 17.10.2019
6042 Clear 35 1012 38 10000 5.7 320 15:56 17.10.2019
6043 Clear 35 1012 38 10000 5.7 320 15:38 17.10.2019
6044 Clear 35 1012 38 10000 5.7 320 15:20 17.10.2019
6045 Clear 36 1012 34 10000 5.1 330 14:56 17.10.2019
6046 Clear 36 1012 34 10000 5.1 330 14:37 17.10.2019
6047 Clear 36 1012 34 10000 5.1 330 14:19 17.10.2019
6048 Clouds 36 1012 34 10000 6.2 340 13:39 17.10.2019
6049 Clouds 36 1012 34 10000 6.2 340 13:39 17.10.2019
6050 Clouds 36 1012 34 10000 6.2 340 13:20 17.10.2019
6051 Clear 37 1012 34 10000 5.1 330 12:57 17.10.2019
6052 Clear 37 1012 34 10000 5.1 330 12:37 17.10.2019
6053 Clear 37 1012 34 10000 5.1 330 12:37 17.10.2019
6054 Clear 37 1012 34 10000 5.1 330 12:18 17.10.2019
6055 Clear 37 1012 34 10000 5.1 330 12:18 17.10.2019
6056 Clear 37 1013 22 10000 1 0 11:42 17.10.2019
6057 Clear 37 1013 22 10000 1 0 11:42 17.10.2019
6058 Clear 37 1013 22 10000 1 0 11:22 17.10.2019
6059 Clear 36 1014 28 10000 2.1 0 10:59 17.10.2019
6060 Clear 36 1014 28 10000 2.1 0 10:41 17.10.2019
6061 Clear 36 1014 28 10000 2.1 0 10:19 17.10.2019
6062 Clear 34 1015 38 10000 2.1 240 09:56 17.10.2019
6063 Clear 34 1015 38 10000 2.1 240 09:37 17.10.2019
6064 Clear 34 1015 38 10000 2.1 240 09:19 17.10.2019
6065 Clear 32 1015 41 10000 1.5 0 08:48 17.10.2019
6066 Clear 32 1015 41 10000 1.5 0 08:27 17.10.2019
6067 Haze 29 1015 79 5000 2.1 0 07:59 17.10.2019
6068 Haze 29 1015 79 5000 2.1 0 07:41 17.10.2019
6069 Haze 29 1015 79 5000 2.1 0 07:20 17.10.2019
6070 Haze 29 1015 79 5000 2.1 0 07:20 17.10.2019
6071 Clouds 27 1015 74 6000 3.1 180 06:42 17.10.2019
6072 Clouds 27 1015 74 6000 3.1 180 06:42 17.10.2019
6073 Clouds 27 1015 74 6000 3.1 180 06:23 17.10.2019
6074 Clouds 25 1014 74 6000 3.1 180 05:58 17.10.2019
6075 Clouds 25 1014 74 6000 3.1 180 05:35 17.10.2019
6076 Clear 24 1013 78 8000 1.5 80 04:57 17.10.2019
6077 Clear 24 1013 74 8000 2.1 170 03:58 17.10.2019
6078 Clear 24 1013 74 8000 2.1 170 03:38 17.10.2019
6079 Clear 25 1013 78 10000 2.1 80 01:55 17.10.2019
6080 Clear 25 1013 74 10000 2.1 80 00:41 17.10.2019
6081 Clear 25 1013 74 10000 2.1 80 00:20 17.10.2019
6082 Clear 27 1013 74 10000 2.1 80 23:42 16.10.2019
6083 Clear 27 1013 74 10000 2.1 80 23:22 16.10.2019
6084 Clear 27 1013 70 10000 2.6 100 22:58 16.10.2019
6085 Clear 27 1013 70 10000 2.6 100 22:38 16.10.2019
6086 Clear 27 1013 70 10000 2.6 100 22:20 16.10.2019
6087 Clear 28 1014 70 10000 3.1 90 21:58 16.10.2019
6088 Clear 28 1014 70 10000 3.1 90 21:58 16.10.2019
6089 Clear 28 1014 70 10000 3.1 90 21:38 16.10.2019
6090 Clear 28 1014 70 10000 3.1 90 21:20 16.10.2019
6091 Clear 28 1014 66 10000 2.6 70 20:59 16.10.2019
6092 Clear 28 1014 66 10000 2.6 70 20:59 16.10.2019
6093 Clear 28 1014 66 10000 2.6 70 20:41 16.10.2019
6094 Clear 28 1014 66 10000 2.6 70 20:22 16.10.2019
6095 Clear 29 1013 62 10000 3.6 50 19:59 16.10.2019
6096 Clear 29 1013 62 10000 3.6 50 19:40 16.10.2019
6097 Clear 29 1013 62 10000 3.6 50 19:21 16.10.2019
6098 -273 0 0 0 0 0 18:57 16.10.2019
6099 Clear 30 1013 55 10000 3.1 40 18:56 16.10.2019
6100 Clear 30 1013 55 10000 3.1 40 18:37 16.10.2019
6101 Clear 30 1013 55 10000 3.1 40 18:18 16.10.2019
6102 Clear 31 1012 55 10000 3.1 330 17:55 16.10.2019
6103 Clear 31 1012 55 10000 3.1 330 17:36 16.10.2019
6104 Clear 31 1012 55 10000 3.1 330 17:18 16.10.2019
6105 Clear 33 1012 49 10000 4.6 340 16:43 16.10.2019
6106 Clear 33 1012 49 10000 4.6 340 16:23 16.10.2019
6107 Clear 34 1011 44 10000 5.1 350 15:59 16.10.2019
6108 Clear 34 1011 44 10000 5.1 350 15:39 16.10.2019
6109 Clear 34 1011 44 10000 5.1 350 15:39 16.10.2019
6110 Clear 36 1011 39 10000 5.7 350 15:19 16.10.2019
6111 Clear 36 1011 39 10000 5.7 350 14:58 16.10.2019
6112 Clear 36 1011 39 10000 5.7 350 14:39 16.10.2019
6113 Clear 36 1011 39 10000 5.7 350 14:20 16.10.2019
6114 Clouds 36 1011 28 10000 7.2 350 13:57 16.10.2019
6115 Clouds 36 1011 28 10000 7.2 350 13:39 16.10.2019
6116 Clouds 36 1011 28 10000 7.2 350 13:21 16.10.2019
6117 Clouds 37 1012 37 10000 5.7 330 12:42 16.10.2019
6118 Clouds 37 1012 37 10000 5.7 330 12:42 16.10.2019
6119 Clouds 37 1012 37 10000 5.7 330 12:20 16.10.2019
6120 Clear 37 1012 25 10000 3.1 350 11:55 16.10.2019
6121 Clear 37 1012 25 10000 3.1 350 11:36 16.10.2019
6122 Clear 37 1012 25 10000 3.1 350 11:18 16.10.2019
6123 Clear 38 1013 19 10000 1.5 210 10:36 16.10.2019
6124 Clear 38 1013 19 10000 1.5 210 10:36 16.10.2019
6125 Clear 38 1013 19 10000 1.5 210 10:18 16.10.2019
6126 Clear 36 1014 26 10000 3.6 180 09:40 16.10.2019
6127 Clear 36 1014 26 10000 3.6 180 09:22 16.10.2019
6128 Clear 33 1015 38 10000 4.1 190 08:56 16.10.2019
6129 Clear 33 1015 38 10000 4.1 190 08:56 16.10.2019
6130 Clear 33 1015 38 10000 4.1 190 08:38 16.10.2019
6131 Clear 33 1015 38 10000 4.1 190 08:19 16.10.2019
6132 Clear 31 1015 46 10000 2.6 180 07:41 16.10.2019
6133 Clear 31 1015 46 10000 2.6 180 07:23 16.10.2019
6134 Clear 27 1015 74 10000 1.5 160 06:48 16.10.2019
6135 Clear 27 1015 74 10000 1.5 160 06:29 16.10.2019
6136 Clear 25 1013 83 10000 2.6 110 04:31 16.10.2019
6137 Clear 25 1013 78 10000 2.6 100 02:51 16.10.2019
6138 Clear 25 1013 78 10000 3.6 110 01:20 16.10.2019
6139 Clear 26 1012 70 10000 2.1 50 00:59 16.10.2019
6140 Clear 26 1012 70 10000 2.1 50 00:40 16.10.2019
6141 Clear 26 1013 66 10000 1.5 40 23:58 15.10.2019
6142 Clear 26 1013 66 10000 1.5 40 23:38 15.10.2019
6143 Clear 26 1013 66 10000 1.5 40 23:19 15.10.2019
6144 Clear 28 1013 62 10000 3.1 10 22:55 15.10.2019
6145 Clear 28 1013 62 10000 3.1 10 22:55 15.10.2019
6146 Clear 28 1013 62 10000 3.1 10 22:37 15.10.2019
6147 Clear 28 1013 62 10000 3.1 10 22:18 15.10.2019
6148 Clear 27 1013 66 10000 2.1 90 21:54 15.10.2019
6149 Clear 27 1013 66 10000 2.1 90 21:36 15.10.2019
6150 Clear 27 1013 66 10000 2.1 90 21:18 15.10.2019
6151 Clear 28 1013 62 10000 2.6 90 20:54 15.10.2019
6152 Clear 28 1013 62 10000 2.6 90 20:36 15.10.2019
6153 Clear 28 1013 62 10000 2.6 90 20:18 15.10.2019
6154 Clear 29 1013 58 10000 2.1 90 19:55 15.10.2019
6155 Clear 29 1013 58 10000 2.1 90 19:36 15.10.2019
6156 Clear 29 1013 58 10000 2.1 90 19:18 15.10.2019
6157 Clear 30 1013 62 10000 2.6 60 18:41 15.10.2019
6158 Clear 30 1013 62 10000 2.6 60 18:23 15.10.2019
6159 Clear 31 1012 55 10000 3.1 30 17:54 15.10.2019
6160 Clear 31 1012 55 10000 3.1 30 17:36 15.10.2019
6161 Clear 31 1012 55 10000 3.1 30 17:18 15.10.2019
6162 Clear 32 1012 55 10000 4.6 340 16:42 15.10.2019
6163 Clear 32 1012 55 10000 4.6 340 16:22 15.10.2019
6164 Clear 33 1012 46 10000 6.2 350 15:57 15.10.2019
6165 Clear 33 1012 46 10000 6.2 350 15:57 15.10.2019
6166 Clear 33 1012 46 10000 6.2 350 15:39 15.10.2019
6167 Clear 33 1012 46 10000 6.2 350 15:19 15.10.2019
6168 Clear 34 1012 44 10000 7.2 350 14:55 15.10.2019
6169 Clear 34 1012 44 10000 7.2 350 14:37 15.10.2019
6170 Clear 34 1012 44 10000 7.2 350 14:18 15.10.2019
6171 Clear 35 1012 34 10000 6.7 360 13:43 15.10.2019
6172 Clear 35 1012 34 10000 6.7 360 13:20 15.10.2019
6173 Clear 35 1012 34 10000 6.7 360 13:20 15.10.2019
6174 Clear 36 1013 36 10000 4.1 340 12:56 15.10.2019
6175 Clear 36 1013 36 10000 4.1 340 12:56 15.10.2019
6176 Clear 36 1013 36 10000 4.1 340 12:38 15.10.2019
6177 Clear 36 1013 36 10000 4.1 340 12:19 15.10.2019
6178 Clear 36 1013 34 10000 5.1 320 11:42 15.10.2019
6179 Clear 36 1013 34 10000 5.1 320 11:42 15.10.2019
6180 Clear 36 1013 34 10000 5.1 320 11:20 15.10.2019
6181 Clear 35 1014 34 10000 1.5 0 10:55 15.10.2019
6182 Clear 35 1014 34 10000 1.5 0 10:37 15.10.2019
6183 Clear 35 1014 34 10000 1.5 0 10:18 15.10.2019
6184 Clear 34 1015 41 10000 3.1 220 09:40 15.10.2019
6185 Clear 34 1015 41 10000 3.1 220 09:40 15.10.2019
6186 Clear 34 1015 41 10000 3.1 220 09:21 15.10.2019
6187 Clear 33 1015 43 10000 2.6 220 08:58 15.10.2019
6188 Clear 33 1015 43 10000 2.6 220 08:58 15.10.2019
6189 Clear 33 1015 43 10000 2.6 220 08:58 15.10.2019
6190 Clear 32 1015 52 10000 4.1 220 08:40 15.10.2019
6191 Clear 30 1015 55 10000 5.1 190 08:20 15.10.2019
6192 Clear 30 1015 55 10000 5.1 190 08:19 15.10.2019
6193 Clear 30 1015 55 10000 5.1 190 08:19 15.10.2019
6194 Clear 30 1015 55 10000 5.1 190 07:43 15.10.2019
6195 Clear 30 1015 55 10000 5.1 190 07:22 15.10.2019
6196 Clear 28 1015 58 10000 3.1 220 06:56 15.10.2019
6197 Clear 28 1015 58 10000 3.1 220 06:37 15.10.2019
6198 Clear 26 1014 65 10000 3.6 180 05:56 15.10.2019
6199 Clear 26 1014 65 10000 3.6 180 05:36 15.10.2019
6200 Clear 27 1014 74 10000 3.1 170 04:48 15.10.2019
6201 Mist 26 1013 83 8000 5.1 170 03:59 15.10.2019
6202 Mist 26 1013 83 8000 5.1 170 03:34 15.10.2019
6203 Mist 26 1013 83 8000 5.1 170 03:34 15.10.2019
6204 Clear 25 1013 79 10000 2.1 70 01:51 15.10.2019
6205 Clear 25 1013 79 10000 2.1 70 01:26 15.10.2019
6206 Clear 26 1013 79 10000 2.1 0 00:59 15.10.2019
6207 Clear 26 1013 79 10000 2.1 0 00:24 15.10.2019
6208 Clear 27 1013 74 10000 3.6 100 23:57 14.10.2019
6209 Clear 27 1013 74 10000 3.6 100 23:37 14.10.2019
6210 Clear 27 1013 74 10000 3.6 100 23:18 14.10.2019
6211 Clear 27 1013 70 10000 2.6 100 22:39 14.10.2019
6212 Clear 27 1013 70 10000 2.6 100 22:20 14.10.2019
6213 Clear 28 1014 66 10000 2.6 80 21:57 14.10.2019
6214 Clear 28 1014 66 10000 2.6 80 21:39 14.10.2019
6215 Clear 28 1014 66 10000 2.6 80 21:20 14.10.2019
6216 Clear 29 1014 62 10000 2.6 50 20:57 14.10.2019
6217 Clear 29 1014 62 10000 2.6 50 20:38 14.10.2019
6218 Clear 29 1014 62 10000 2.6 50 20:19 14.10.2019
6219 Clear 30 1013 62 10000 2.1 20 19:44 14.10.2019
6220 Clear 30 1013 62 10000 2.1 20 19:25 14.10.2019
6221 Clear 31 1013 59 10000 2.1 30 18:59 14.10.2019
6222 Clear 31 1013 59 10000 2.1 30 18:40 14.10.2019
6223 Clear 31 1013 59 10000 2.1 30 18:20 14.10.2019
6224 Clear 31 1013 52 10000 3.1 20 17:59 14.10.2019
6225 Clear 31 1013 52 10000 3.1 20 17:40 14.10.2019
6226 Clear 31 1013 52 10000 3.1 20 17:22 14.10.2019
6227 Clear 32 1012 43 10000 4.6 340 16:44 14.10.2019
6228 Clear 32 1012 43 10000 4.6 340 16:22 14.10.2019
6229 Clear 33 1012 41 10000 5.7 350 15:57 14.10.2019
6230 Clear 33 1012 41 10000 5.7 350 15:38 14.10.2019
6231 Clear 33 1012 41 10000 5.7 350 15:20 14.10.2019
6232 Clear 34 1012 34 10000 6.7 340 14:43 14.10.2019
6233 Clear 34 1012 34 10000 6.7 340 14:24 14.10.2019
6234 Clear 35 1013 34 10000 6.2 340 13:57 14.10.2019
6235 Clear 35 1013 34 10000 6.2 340 13:38 14.10.2019
6236 Clear 35 1013 34 10000 6.2 340 13:19 14.10.2019
6237 Clear 36 1013 34 10000 5.1 310 12:41 14.10.2019
6238 Clear 36 1013 34 10000 5.1 310 12:19 14.10.2019
6239 Clear 36 1014 37 10000 2.6 0 11:47 14.10.2019
6240 Clear 36 1014 37 10000 2.6 0 11:27 14.10.2019
6241 Clear 35 1015 34 10000 2.1 0 10:59 14.10.2019
6242 Clear 35 1015 34 10000 2.1 0 10:40 14.10.2019
6243 Clear 35 1015 34 10000 2.1 0 10:21 14.10.2019
6244 Clear 34 1016 41 10000 2.6 180 09:57 14.10.2019
6245 Clear 34 1016 41 10000 2.6 180 09:38 14.10.2019
6246 Clear 35 1016 41 10000 2.6 180 09:19 14.10.2019
6247 Clear 34 1016 43 10000 3.1 190 08:45 14.10.2019
6248 Clear 34 1016 43 10000 3.1 190 08:22 14.10.2019
6249 Clear 30 1016 48 10000 3.1 190 07:43 14.10.2019
6250 Clear 30 1016 48 10000 3.1 190 07:19 14.10.2019
6251 Clear 29 1015 51 10000 2.6 180 06:53 14.10.2019
6252 Clear 29 1015 51 10000 2.6 180 06:26 14.10.2019
6253 Clear 26 1014 61 10000 2.1 170 05:49 14.10.2019
6254 Clear 26 1013 65 10000 2.6 160 04:49 14.10.2019
6255 Clear 27 1013 62 10000 3.1 110 03:28 14.10.2019
6256 Clear 27 1013 62 10000 4.1 110 02:56 14.10.2019
6257 Clear 28 1013 58 10000 3.6 100 01:25 14.10.2019
6258 Clear 28 1013 55 10000 3.1 100 00:59 14.10.2019
6259 Clear 28 1013 55 10000 3.1 100 00:21 14.10.2019
6260 Clear 28 1013 55 10000 3.1 100 00:21 14.10.2019
6261 Clear 29 1013 55 10000 4.6 110 23:45 13.10.2019
6262 Clear 29 1013 55 10000 4.6 110 23:21 13.10.2019
6263 Clear 30 1013 48 10000 5.7 110 22:58 13.10.2019
6264 Clear 30 1013 48 10000 5.7 110 22:58 13.10.2019
6265 Clear 30 1013 48 10000 5.7 110 22:40 13.10.2019
6266 Clear 30 1013 48 10000 5.7 110 22:21 13.10.2019
6267 Clear 30 1013 49 10000 4.1 110 21:58 13.10.2019
6268 Clear 30 1013 49 10000 4.1 110 21:38 13.10.2019
6269 Clear 30 1013 49 10000 4.1 110 21:19 13.10.2019
6270 Clear 31 1013 46 10000 4.1 110 20:58 13.10.2019
6271 Clear 31 1013 46 10000 4.1 110 20:39 13.10.2019
6272 Clear 31 1013 46 10000 4.1 110 20:20 13.10.2019
6273 Clear 32 1013 43 10000 4.1 80 19:58 13.10.2019
6274 Clear 32 1013 43 10000 4.1 80 19:39 13.10.2019
6275 Clear 32 1013 43 10000 4.1 80 19:21 13.10.2019
6276 Clear 33 1012 52 10000 4.1 50 18:57 13.10.2019
6277 Clear 33 1012 52 10000 4.1 50 18:57 13.10.2019
6278 Clear 33 1012 52 10000 4.1 50 18:37 13.10.2019
6279 Clear 33 1012 52 10000 4.1 50 18:19 13.10.2019
6280 Clear 33 1012 52 10000 4.1 50 18:19 13.10.2019
6281 Clear 33 1011 46 10000 4.1 40 17:57 13.10.2019
6282 Clear 33 1011 46 10000 4.1 40 17:38 13.10.2019
6283 Clear 33 1011 46 10000 4.1 40 17:38 13.10.2019
6284 Clear 33 1011 46 10000 4.1 40 17:20 13.10.2019
6285 Dust 34 1011 41 10000 3.6 120 16:41 13.10.2019
6286 Dust 34 1011 41 10000 3.6 120 16:19 13.10.2019
6287 Clouds 35 1010 52 10000 6.2 40 15:57 13.10.2019
6288 Clouds 35 1010 52 10000 6.2 40 15:38 13.10.2019
6289 Clouds 35 1010 52 10000 6.2 40 15:19 13.10.2019
6290 Clouds 36 1010 47 10000 7.7 350 14:57 13.10.2019
6291 Clouds 36 1010 47 10000 7.7 350 14:56 13.10.2019
6292 Clouds 36 1010 47 10000 7.7 350 14:38 13.10.2019
6293 Clouds 36 1010 47 10000 7.7 350 14:18 13.10.2019
6294 Clouds 37 1009 27 10000 5.1 320 13:41 13.10.2019
6295 Clouds 38 1009 27 10000 5.1 320 13:22 13.10.2019
6296 Clear 38 1010 22 10000 1.5 0 12:59 13.10.2019
6297 Clear 38 1010 22 10000 1.5 0 12:39 13.10.2019
6298 Clear 38 1010 22 10000 1.5 0 12:20 13.10.2019
6299 Clear 38 1011 25 10000 1.5 0 11:58 13.10.2019
6300 Clear 38 1011 25 10000 1.5 0 11:39 13.10.2019
6301 Clear 38 1011 25 10000 1.5 0 11:20 13.10.2019
6302 Clear 37 1011 29 10000 2.6 150 10:43 13.10.2019
6303 Clear 37 1011 29 10000 2.6 150 10:24 13.10.2019
6304 Clear 35 1012 39 10000 3.1 180 09:59 13.10.2019
6305 Clear 35 1012 39 10000 3.1 180 09:59 13.10.2019
6306 Clear 35 1012 39 10000 3.1 180 09:39 13.10.2019
6307 Clear 35 1012 39 10000 3.1 180 09:20 13.10.2019
6308 Clear 35 1012 39 10000 3.1 180 09:20 13.10.2019
6309 Clear 34 1013 46 10000 2.1 160 08:43 13.10.2019
6310 Clear 34 1013 46 10000 2.1 160 08:23 13.10.2019
6311 Clear 32 1013 55 10000 3.6 150 07:51 13.10.2019
6312 Clear 32 1013 55 10000 3.6 150 07:32 13.10.2019
6313 Clear 28 1012 62 10000 5.1 120 06:49 13.10.2019
6314 Clear 26 1011 62 10000 3.6 120 05:59 13.10.2019
6315 Clear 26 1011 58 10000 3.1 140 04:59 13.10.2019
6316 Clear 26 1011 58 10000 3.1 140 04:33 13.10.2019
6317 Clear 27 1009 45 10000 3.1 100 02:50 13.10.2019
6318 Clear 27 1009 45 10000 3.1 100 02:25 13.10.2019
6319 Clear 27 1009 45 10000 2.6 70 01:34 13.10.2019
6320 Clear 28 1009 43 10000 1.5 80 00:53 13.10.2019
6321 Clear 28 1009 43 10000 1.5 80 00:23 13.10.2019
6322 Clear 28 1009 43 10000 3.1 110 23:59 12.10.2019
6323 Clear 28 1009 43 10000 3.1 110 23:40 12.10.2019
6324 Clear 28 1009 43 10000 3.1 110 23:22 12.10.2019
6325 Clear 29 1009 40 10000 2.6 100 22:58 12.10.2019
6326 Clear 29 1009 40 10000 2.6 100 22:39 12.10.2019
6327 Clear 29 1009 40 10000 2.6 100 22:21 12.10.2019
6328 Clear 30 1009 46 10000 3.6 80 21:56 12.10.2019
6329 Clear 30 1009 46 10000 3.6 80 21:37 12.10.2019
6330 Clear 30 1009 46 10000 3.6 80 21:19 12.10.2019
6331 Clear 31 1010 41 10000 3.1 60 20:44 12.10.2019
6332 Clear 31 1010 41 10000 3.1 60 20:26 12.10.2019
6333 Clear 32 1009 36 10000 3.6 40 19:42 12.10.2019
6334 Clear 32 1009 36 10000 3.6 40 19:23 12.10.2019
6335 Clear 32 1009 41 10000 4.1 30 18:59 12.10.2019
6336 Clear 32 1009 41 10000 4.1 30 18:41 12.10.2019
6337 Clear 32 1009 41 10000 4.1 30 18:41 12.10.2019
6338 Clear 32 1009 41 10000 4.1 30 18:23 12.10.2019
6339 Clear 33 1008 38 10000 4.6 20 17:45 12.10.2019
6340 Clear 33 1008 38 10000 4.6 20 17:21 12.10.2019
6341 Clear 34 1008 46 10000 4.1 30 16:57 12.10.2019
6342 Clear 34 1008 46 10000 4.1 30 16:38 12.10.2019
6343 Clear 34 1008 46 10000 4.1 30 16:19 12.10.2019
6344 Clear 35 1007 41 10000 4.6 360 15:44 12.10.2019
6345 Clear 35 1007 41 10000 4.6 360 15:25 12.10.2019
6346 Dust 35 1007 41 10000 5.7 340 14:59 12.10.2019
6347 Dust 35 1007 41 10000 5.7 340 14:38 12.10.2019
6348 Dust 35 1007 41 10000 5.7 340 14:19 12.10.2019
6349 Dust 36 1007 50 10000 7.7 330 13:45 12.10.2019
6350 Dust 36 1007 50 10000 7.7 330 13:27 12.10.2019
6351 Clear 37 1007 50 10000 6.7 320 12:55 12.10.2019
6352 Clear 37 1007 50 10000 6.7 320 12:36 12.10.2019
6353 Clear 37 1007 50 10000 6.7 320 12:18 12.10.2019
6354 Clear 40 1008 17 10000 2.1 0 11:40 12.10.2019
6355 Clear 40 1008 17 10000 2.1 0 11:22 12.10.2019
6356 Clear 39 1009 16 10000 3.1 100 10:56 12.10.2019
6357 Clear 39 1009 16 10000 3.1 100 10:37 12.10.2019
6358 Clear 39 1009 16 10000 3.1 100 10:19 12.10.2019
6359 Clear 36 1010 29 10000 4.1 140 09:56 12.10.2019
6360 -273 0 0 0 0 0 09:55 12.10.2019
6361 Clear 36 1010 29 10000 4.1 140 09:37 12.10.2019
6362 Clear 36 1010 29 10000 4.1 140 09:19 12.10.2019
6363 Clear 34 1010 44 10000 2.6 130 08:42 12.10.2019
6364 Clear 34 1010 44 10000 2.6 130 08:22 12.10.2019
6365 Clear 31 1010 62 8000 3.1 90 07:37 12.10.2019
6366 Clear 31 1010 62 8000 3.1 90 07:18 12.10.2019
6367 Haze 27 1009 79 5000 2.1 100 05:53 12.10.2019
6368 Haze 27 1009 79 5000 2.1 100 05:24 12.10.2019
6369 Haze 26 1008 83 6000 3.1 100 04:26 12.10.2019
6370 Haze 27 1008 79 6000 3.1 80 03:42 12.10.2019
6371 Haze 27 1008 79 5000 2.1 90 02:28 12.10.2019
6372 Haze 28 1008 74 5000 3.1 60 01:29 12.10.2019
6373 Haze 28 1008 84 5000 2.1 110 00:43 12.10.2019
6374 Haze 28 1008 84 5000 2.1 110 00:19 12.10.2019
6375 Haze 28 1008 84 5000 2.1 110 00:19 12.10.2019
6376 Haze 29 1008 79 6000 2.1 160 23:40 11.10.2019
6377 Haze 29 1008 79 6000 2.1 160 23:20 11.10.2019
6378 Haze 30 1008 79 6000 2.6 100 22:56 11.10.2019
6379 Haze 30 1008 79 6000 2.6 100 22:37 11.10.2019
6380 Haze 30 1008 79 6000 2.6 100 22:18 11.10.2019
6381 Haze 30 1009 79 6000 2.6 90 21:40 11.10.2019
6382 Haze 30 1009 79 6000 2.6 90 21:21 11.10.2019
6383 Haze 30 1009 75 7000 2.6 30 20:54 11.10.2019
6384 Haze 30 1009 75 7000 2.6 30 20:36 11.10.2019
6385 Haze 30 1009 75 7000 2.6 30 20:18 11.10.2019
6386 Haze 31 1009 75 7000 2.1 50 19:54 11.10.2019
6387 Haze 31 1009 75 7000 2.1 50 19:36 11.10.2019
6388 Haze 31 1009 75 7000 2.1 50 19:18 11.10.2019
6389 Haze 32 1009 75 7000 3.1 340 18:39 11.10.2019
6390 Haze 32 1009 75 7000 3.1 340 18:19 11.10.2019
6391 Haze 32 1008 75 8000 3.6 350 17:59 11.10.2019
6392 Haze 32 1008 75 8000 3.6 350 17:38 11.10.2019
6393 Haze 32 1008 75 8000 3.6 350 17:19 11.10.2019
6394 Clear 32 1008 70 6000 4.6 350 16:59 11.10.2019
6395 Clear 32 1008 70 6000 4.6 350 16:39 11.10.2019
6396 Clear 32 1008 70 6000 4.6 350 16:19 11.10.2019
6397 Clear 33 1008 66 6000 5.1 340 15:55 11.10.2019
6398 Clear 33 1008 66 6000 5.1 340 15:36 11.10.2019
6399 Clear 33 1008 66 6000 5.1 340 15:18 11.10.2019
6400 Dust 34 1008 66 6000 6.7 340 14:41 11.10.2019
6401 Dust 34 1008 66 6000 6.7 340 14:21 11.10.2019
6402 Dust 34 1008 59 8000 7.2 340 13:46 11.10.2019
6403 Dust 34 1008 59 8000 7.2 340 13:26 11.10.2019
6404 Clear 36 1009 47 10000 6.7 330 12:58 11.10.2019
6405 Clear 36 1009 47 10000 6.7 330 12:39 11.10.2019
6406 Clear 36 1009 47 10000 6.7 330 12:21 11.10.2019
6407 Clear 37 1010 47 8000 6.7 320 11:59 11.10.2019
6408 Clear 37 1010 47 8000 6.7 320 11:39 11.10.2019
6409 Clear 37 1010 47 8000 6.7 320 11:21 11.10.2019
6410 Clear 38 1010 30 10000 1.5 0 10:56 11.10.2019
6411 Clear 38 1010 30 10000 1.5 0 10:56 11.10.2019
6412 Clear 38 1010 30 10000 1.5 0 10:36 11.10.2019
6413 Clear 38 1010 30 10000 1.5 0 10:18 11.10.2019
6414 Clear 35 1011 37 10000 1.5 120 09:42 11.10.2019
6415 Clear 35 1011 37 10000 1.5 120 09:21 11.10.2019
6416 Clouds 34 1012 52 8000 1.5 0 08:59 11.10.2019
6417 Clouds 34 1012 52 8000 1.5 0 08:38 11.10.2019
6418 Clouds 34 1012 52 8000 1.5 0 08:20 11.10.2019
6419 Clouds 31 1012 62 7000 2.1 210 07:53 11.10.2019
6420 Clouds 31 1012 62 7000 2.1 210 07:34 11.10.2019
6421 Clouds 29 1011 66 7000 2.1 0 06:50 11.10.2019
6422 Clouds 29 1011 66 7000 2.1 0 06:25 11.10.2019
6423 Haze 28 1011 74 5000 0.5 0 05:47 11.10.2019
6424 Haze 28 1011 74 5000 0.5 0 05:47 11.10.2019
6425 Haze 28 1011 74 5000 0.5 0 05:29 11.10.2019
6426 Clouds 28 1010 74 8000 2.1 120 04:58 11.10.2019
6427 Clear 28 1010 58 10000 2.1 160 03:27 11.10.2019
6428 Clouds 29 1010 42 10000 2.1 170 01:26 11.10.2019
6429 Clear 29 1010 45 10000 2.1 180 00:31 11.10.2019
6430 Clouds 31 1010 75 10000 2.6 220 23:58 10.10.2019
6431 Clouds 31 1010 75 10000 2.6 220 23:40 10.10.2019
6432 Clouds 31 1010 75 10000 2.6 220 23:19 10.10.2019
6433 Dust 31 1010 75 10000 2.1 0 22:56 10.10.2019
6434 Dust 31 1010 75 10000 2.1 0 22:36 10.10.2019
6435 Dust 31 1010 75 10000 2.1 0 22:18 10.10.2019
6436 Dust 31 1011 75 10000 3.6 340 21:42 10.10.2019
6437 Dust 31 1011 75 10000 3.6 340 21:42 10.10.2019
6438 Dust 31 1011 75 10000 3.6 340 21:22 10.10.2019
6439 Dust 31 1011 75 10000 4.6 340 20:58 10.10.2019
6440 Dust 31 1011 75 10000 4.6 340 20:40 10.10.2019
6441 Dust 31 1011 75 10000 4.6 340 20:20 10.10.2019
6442 Dust 32 1011 75 8000 3.6 340 19:57 10.10.2019
6443 Dust 32 1011 75 8000 3.6 340 19:39 10.10.2019
6444 Dust 32 1011 75 8000 3.6 340 19:19 10.10.2019
6445 Clear 32 1011 70 10000 4.1 330 18:42 10.10.2019
6446 Clear 32 1011 70 10000 4.1 330 18:21 10.10.2019
6447 Clear 33 1010 66 10000 2.6 290 17:59 10.10.2019
6448 Clear 33 1010 66 10000 2.6 290 17:40 10.10.2019
6449 Clear 33 1010 66 10000 2.6 290 17:18 10.10.2019
6450 Dust 33 1010 66 8000 3.1 240 16:56 10.10.2019
6451 Dust 33 1010 66 8000 3.1 240 16:37 10.10.2019
6452 Dust 33 1010 66 8000 3.1 240 16:18 10.10.2019
6453 Clear 34 1009 63 8000 6.2 310 15:40 10.10.2019
6454 Clear 34 1009 63 8000 6.2 310 15:22 10.10.2019
6455 Clear 34 1009 59 9000 6.7 320 14:57 10.10.2019
6456 Clear 34 1009 59 9000 6.7 320 14:37 10.10.2019
6457 Clear 34 1009 59 9000 6.7 320 14:19 10.10.2019
6458 Clear 35 1009 53 9000 6.2 330 13:55 10.10.2019
6459 Clear 35 1009 53 9000 6.2 330 13:37 10.10.2019
6460 Clear 35 1009 53 9000 6.2 330 13:18 10.10.2019
6461 Clear 35 1010 56 8000 6.2 320 12:42 10.10.2019
6462 Clear 35 1010 56 8000 6.2 320 12:21 10.10.2019
6463 Clouds 35 1010 59 8000 4.1 300 11:58 10.10.2019
6464 Clouds 35 1010 59 8000 4.1 300 11:39 10.10.2019
6465 Clouds 35 1010 59 8000 4.1 300 11:19 10.10.2019
6466 Clouds 35 1011 59 7000 2.6 300 10:46 10.10.2019
6467 Clouds 35 1011 59 7000 2.6 300 10:27 10.10.2019
6468 Clouds 34 1012 63 6000 2.6 280 09:58 10.10.2019
6469 Clouds 34 1012 63 6000 2.6 280 09:40 10.10.2019
6470 Clouds 34 1012 63 6000 2.6 280 09:22 10.10.2019
6471 Haze 32 1012 75 6000 2.1 220 08:58 10.10.2019
6472 Haze 32 1012 75 6000 2.1 220 08:38 10.10.2019
6473 Haze 32 1012 75 6000 2.1 220 08:38 10.10.2019
6474 Haze 32 1012 75 6000 2.1 220 08:19 10.10.2019
6475 Haze 31 1012 79 5000 3.6 180 07:46 10.10.2019
6476 Haze 31 1012 79 5000 3.6 180 07:23 10.10.2019
6477 Haze 29 1011 79 5000 2.6 190 06:49 10.10.2019
6478 Haze 29 1011 79 5000 2.6 190 06:29 10.10.2019
6479 Haze 29 1010 79 5000 2.1 170 05:28 10.10.2019
6480 Haze 29 1010 79 7000 1.5 190 04:55 10.10.2019
6481 Haze 29 1010 79 7000 1.5 190 04:33 10.10.2019
6482 Clouds 29 1009 79 8000 2.1 170 02:19 10.10.2019
6483 Clouds 29 1009 79 8000 2.1 170 02:19 10.10.2019
6484 Clouds 30 1010 74 8000 2.6 160 01:36 10.10.2019
6485 Clouds 30 1010 74 8000 2.6 160 01:36 10.10.2019
6486 Clouds 30 1010 74 8000 2.6 160 01:18 10.10.2019
6487 Clouds 30 1010 79 8000 2.1 20 00:25 10.10.2019
6488 Clouds 30 1010 79 8000 2.6 20 23:41 09.10.2019
6489 Clouds 30 1010 79 8000 2.6 20 23:23 09.10.2019
6490 Clouds 31 1010 75 8000 3.1 20 22:59 09.10.2019
6491 Clouds 31 1010 75 8000 3.1 20 22:59 09.10.2019
6492 Clouds 31 1010 75 8000 3.1 20 22:40 09.10.2019
6493 Clouds 31 1010 75 8000 3.1 20 22:22 09.10.2019
6494 Clouds 31 1010 75 10000 2.6 280 21:42 09.10.2019
6495 Clouds 31 1010 75 10000 2.6 280 21:21 09.10.2019
6496 Clouds 31 1010 75 10000 2.6 280 21:21 09.10.2019
6497 Clouds 31 1011 75 10000 3.1 320 20:56 09.10.2019
6498 Clouds 31 1011 75 10000 3.1 320 20:38 09.10.2019
6499 Clouds 31 1011 75 10000 3.1 320 20:19 09.10.2019
6500 Clouds 31 1011 75 10000 3.6 330 19:59 09.10.2019
6501 Clouds 31 1011 75 10000 3.6 330 19:59 09.10.2019
6502 Clouds 31 1011 75 10000 3.6 330 19:59 09.10.2019
6503 Clouds 31 1011 75 10000 3.6 330 19:40 09.10.2019
6504 Clouds 31 1011 75 10000 3.6 330 19:22 09.10.2019
6505 Clear 31 1011 75 10000 4.1 320 18:39 09.10.2019
6506 Clear 31 1011 75 10000 4.1 320 18:20 09.10.2019
6507 Clear 32 1010 75 10000 3.6 350 17:58 09.10.2019
6508 Clear 32 1010 75 10000 3.6 350 17:39 09.10.2019
6509 Clear 32 1010 75 10000 3.6 350 17:21 09.10.2019
6510 Clear 32 1010 66 10000 4.6 340 16:56 09.10.2019
6511 Clear 32 1010 66 10000 4.6 340 16:56 09.10.2019
6512 Clear 32 1010 66 10000 4.6 340 16:56 09.10.2019
6513 Clear 32 1010 66 10000 4.6 340 16:37 09.10.2019
6514 Clear 32 1010 66 10000 4.6 340 16:19 09.10.2019
6515 Clear 33 1010 66 10000 6.2 340 15:55 09.10.2019
6516 Clear 33 1010 66 10000 6.2 340 15:37 09.10.2019
6517 Clear 33 1010 66 10000 6.2 340 15:18 09.10.2019
6518 Clear 34 1010 59 10000 6.7 340 14:44 09.10.2019
6519 Clear 34 1010 59 10000 6.7 340 14:19 09.10.2019
6520 Clear 35 1010 47 10000 5.7 330 13:59 09.10.2019
6521 Clear 35 1010 47 10000 5.7 330 13:38 09.10.2019
6522 Clear 35 1010 47 10000 5.7 330 13:18 09.10.2019
6523 Clear 36 1011 44 10000 5.1 340 12:44 09.10.2019
6524 Clear 36 1011 44 10000 5.1 340 12:23 09.10.2019
6525 Clear 36 1012 44 10000 1 0 11:58 09.10.2019
6526 Clear 36 1012 44 10000 1 0 11:39 09.10.2019
6527 Clear 36 1012 44 10000 1 0 11:20 09.10.2019
6528 Clear 35 1013 44 10000 2.1 0 10:58 09.10.2019
6529 Clear 35 1013 44 10000 2.1 0 10:40 09.10.2019
6530 Clear 35 1013 44 10000 2.1 0 10:18 09.10.2019
6531 Clear 33 1014 49 10000 2.1 0 09:43 09.10.2019
6532 Clear 33 1014 49 10000 2.1 0 09:20 09.10.2019
6533 Clouds 32 1014 52 10000 3.1 200 08:57 09.10.2019
6534 Clouds 31 1014 52 10000 3.1 200 08:37 09.10.2019
6535 Clouds 31 1014 52 10000 3.1 200 08:18 09.10.2019
6536 Clouds 31 1014 74 10000 3.6 180 07:46 09.10.2019
6537 Clouds 31 1014 74 10000 3.6 180 07:24 09.10.2019
6538 Clouds 31 1014 74 10000 3.6 180 07:24 09.10.2019
6539 Clouds 31 1014 74 10000 3.6 180 07:24 09.10.2019
6540 Clear 29 1014 74 10000 3.1 170 06:54 09.10.2019
6541 Clear 29 1014 74 10000 3.1 170 06:25 09.10.2019
6542 Clear 28 1013 74 10000 2.1 90 05:47 09.10.2019
6543 Clear 28 1013 74 10000 2.1 150 04:41 09.10.2019
6544 Clear 28 1012 74 10000 2.1 120 03:43 09.10.2019
6545 Clear 29 1012 70 10000 2.1 70 01:55 09.10.2019
6546 Clear 29 1012 70 10000 2.1 70 01:22 09.10.2019
6547 Clear 29 1011 70 10000 1.5 70 00:59 09.10.2019
6548 Clear 29 1011 70 10000 1.5 70 00:40 09.10.2019
6549 Clear 29 1011 70 10000 1.5 70 00:22 09.10.2019
6550 Clear 29 1012 66 10000 2.1 50 23:57 08.10.2019
6551 Clear 29 1012 66 10000 2.1 50 23:37 08.10.2019
6552 Clear 29 1012 66 10000 2.1 50 23:18 08.10.2019
6553 Clear 30 1013 62 10000 3.6 40 22:39 08.10.2019
6554 Clear 30 1013 62 10000 3.6 40 22:20 08.10.2019
6555 Clear 30 1013 66 10000 3.6 40 21:58 08.10.2019
6556 Clear 30 1013 66 10000 3.6 40 21:39 08.10.2019
6557 Clear 30 1013 66 10000 3.6 40 21:39 08.10.2019
6558 Clear 30 1013 66 10000 3.6 40 21:19 08.10.2019
6559 Clear 31 1013 62 10000 4.1 30 20:57 08.10.2019
6560 Clear 31 1013 62 10000 4.1 30 20:57 08.10.2019
6561 Clear 31 1013 62 10000 4.1 30 20:39 08.10.2019
6562 Clear 31 1013 62 10000 4.1 30 20:21 08.10.2019
6563 Clear 31 1013 62 10000 4.1 40 19:58 08.10.2019
6564 Clear 31 1013 62 10000 4.1 40 19:58 08.10.2019
6565 Clear 31 1013 62 10000 4.1 40 19:40 08.10.2019
6566 Clear 31 1013 62 10000 4.1 40 19:22 08.10.2019
6567 Clear 31 1013 59 10000 3.6 40 18:55 08.10.2019
6568 Clear 31 1013 59 10000 3.6 40 18:55 08.10.2019
6569 Clear 31 1013 59 10000 3.6 40 18:36 08.10.2019
6570 Clear 31 1013 59 10000 3.6 40 18:18 08.10.2019
6571 Clear 32 1012 59 10000 3.6 30 17:40 08.10.2019
6572 Clear 32 1012 59 10000 3.6 30 17:20 08.10.2019
6573 Clear 32 1012 62 10000 4.6 350 16:58 08.10.2019
6574 Clear 32 1012 62 10000 4.6 350 16:38 08.10.2019
6575 Clear 32 1012 62 10000 4.6 350 16:20 08.10.2019
6576 Clear 33 1012 52 10000 6.2 340 15:41 08.10.2019
6577 Clear 33 1012 52 10000 6.2 340 15:41 08.10.2019
6578 Clear 33 1012 52 10000 6.2 340 15:21 08.10.2019
6579 Clear 34 1012 52 10000 6.7 350 14:58 08.10.2019
6580 Clear 34 1012 52 10000 6.7 350 14:39 08.10.2019
6581 Clear 34 1012 52 10000 6.7 350 14:20 08.10.2019
6582 Clouds 35 1012 49 10000 6.2 350 13:57 08.10.2019
6583 Clear 35 1012 44 10000 6.2 320 13:38 08.10.2019
6584 Clear 35 1012 44 10000 6.2 320 13:19 08.10.2019
6585 Clear 35 1012 44 10000 6.2 320 12:56 08.10.2019
6586 Clear 35 1012 44 10000 6.2 320 12:37 08.10.2019
6587 Clear 35 1012 44 10000 6.2 320 12:37 08.10.2019
6588 Clear 35 1012 44 10000 6.2 320 12:18 08.10.2019
6589 Clouds 35 1013 44 10000 3.1 0 11:41 08.10.2019
6590 Clouds 35 1013 44 10000 3.1 0 11:22 08.10.2019
6591 Clouds 34 1014 44 10000 1.5 0 10:56 08.10.2019
6592 Clouds 34 1014 44 10000 1.5 0 10:36 08.10.2019
6593 Clouds 34 1014 44 10000 1.5 0 10:18 08.10.2019
6594 Clear 33 1015 46 10000 2.1 0 09:41 08.10.2019
6595 Clear 33 1015 46 10000 2.1 0 09:41 08.10.2019
6596 Clear 33 1015 46 10000 2.1 0 09:23 08.10.2019
6597 Clear 32 1016 52 10000 3.1 180 08:59 08.10.2019
6598 Clear 32 1016 52 10000 3.1 180 08:41 08.10.2019
6599 Clear 32 1016 52 10000 3.1 180 08:22 08.10.2019
6600 Clear 31 1016 58 10000 3.1 130 07:42 08.10.2019
6601 Clear 31 1016 58 10000 3.1 130 07:21 08.10.2019
6602 Clear 29 1015 66 10000 3.6 130 06:49 08.10.2019
6603 Clear 29 1015 66 10000 3.6 130 06:28 08.10.2019
6604 Clear 27 1014 70 10000 4.1 110 05:45 08.10.2019
6605 Clear 27 1014 70 10000 4.1 110 05:45 08.10.2019
6606 Clear 27 1014 70 10000 4.1 110 05:25 08.10.2019
6607 Clear 27 1013 70 10000 4.1 120 03:33 08.10.2019
6608 Clear 28 1012 70 10000 4.6 120 02:47 08.10.2019
6609 Clear 28 1012 70 10000 4.6 120 02:29 08.10.2019
6610 Clear 28 1012 70 10000 3.6 110 01:43 08.10.2019
6611 Clear 28 1012 70 10000 3.6 110 01:19 08.10.2019
6612 Clear 28 1012 66 10000 4.1 120 00:38 08.10.2019
6613 Clear 28 1012 66 10000 4.1 120 00:19 08.10.2019
6614 Clear 28 1012 66 10000 5.1 110 23:39 07.10.2019
6615 Clear 28 1012 66 10000 5.1 110 23:19 07.10.2019
6616 Clear 29 1012 66 10000 5.7 110 22:55 07.10.2019
6617 Clear 29 1012 66 10000 5.7 110 22:37 07.10.2019
6618 Clear 29 1012 66 10000 5.7 110 22:19 07.10.2019
6619 Clear 30 1012 62 10000 4.1 100 21:55 07.10.2019
6620 Clear 30 1012 62 10000 4.1 100 21:37 07.10.2019
6621 Clear 30 1012 62 10000 4.1 100 21:18 07.10.2019
6622 Clear 30 1012 55 10000 5.1 110 20:56 07.10.2019
6623 Clear 30 1012 55 10000 5.1 110 20:38 07.10.2019
6624 Clear 30 1012 55 10000 5.1 110 20:18 07.10.2019
6625 Clear 31 1012 55 10000 5.7 110 19:42 07.10.2019
6626 Clear 31 1012 55 10000 5.7 110 19:21 07.10.2019
6627 Clear 32 1012 52 10000 5.1 100 19:00 07.10.2019
6628 Clear 32 1012 52 10000 5.1 100 18:41 07.10.2019
6629 Clear 32 1012 52 10000 5.1 100 18:19 07.10.2019
6630 Clear 33 1011 44 10000 2.6 80 17:58 07.10.2019
6631 Clear 33 1011 44 10000 2.6 80 17:40 07.10.2019
6632 Clear 33 1011 44 10000 2.6 80 17:18 07.10.2019
6633 Clear 33 1011 41 10000 2.6 140 16:44 07.10.2019
6634 Clear 33 1011 41 10000 2.6 140 16:26 07.10.2019
6635 Clouds 33 1011 46 10000 2.1 210 15:57 07.10.2019
6636 Clouds 33 1011 46 10000 2.1 210 15:38 07.10.2019
6637 Clouds 33 1011 46 10000 2.1 210 15:20 07.10.2019
6638 Clouds 33 1010 52 10000 4.1 230 14:41 07.10.2019
6639 Clouds 33 1010 52 10000 4.1 230 14:23 07.10.2019
6640 Dust 32 1010 58 4500 6.2 230 13:45 07.10.2019
6641 Dust 32 1010 58 4500 6.2 230 13:21 07.10.2019
6642 Rain 35 1010 35 10000 5.7 80 12:58 07.10.2019
6643 Rain 35 1010 35 10000 5.7 80 12:58 07.10.2019
6644 Rain 35 1010 35 10000 5.7 80 12:39 07.10.2019
6645 Rain 35 1010 35 10000 5.7 80 12:20 07.10.2019
6646 Clouds 36 1010 39 10000 5.1 50 11:59 07.10.2019
6647 Clouds 36 1010 39 10000 5.1 50 11:40 07.10.2019
6648 Clouds 36 1010 39 10000 5.1 50 11:20 07.10.2019
6649 Clouds 35 1011 39 10000 4.6 120 10:43 07.10.2019
6650 Clouds 35 1011 39 10000 4.6 120 10:23 07.10.2019
6651 Clear 35 1012 47 10000 5.7 110 09:58 07.10.2019
6652 Clear 35 1012 47 10000 5.7 110 09:38 07.10.2019
6653 Clear 35 1012 47 10000 5.7 110 09:20 07.10.2019
6654 Clear 33 1012 52 10000 6.7 110 08:43 07.10.2019
6655 Clear 33 1012 52 10000 6.7 110 08:20 07.10.2019
6656 Clear 32 1012 59 10000 5.7 120 07:49 07.10.2019
6657 Clear 32 1012 59 10000 5.7 120 07:28 07.10.2019
6658 Clear 30 1011 66 10000 5.7 120 06:58 07.10.2019
6659 Clear 30 1011 66 10000 5.7 120 06:38 07.10.2019
6660 Clear 30 1011 66 10000 5.7 120 06:18 07.10.2019
6661 Clear 29 1011 62 10000 4.1 100 05:26 07.10.2019
6662 Clear 29 1010 62 10000 4.1 110 04:49 07.10.2019
6663 Clear 29 1008 62 10000 3.6 100 03:46 07.10.2019
6664 Clear 29 1008 62 10000 3.6 100 03:27 07.10.2019
6665 Clear 29 1008 62 10000 3.6 80 02:37 07.10.2019
6666 Clear 29 1008 62 10000 3.6 80 02:19 07.10.2019
6667 Clear 29 1007 62 10000 3.6 80 01:23 07.10.2019
6668 Clear 29 1007 62 10000 4.6 90 00:51 07.10.2019
6669 Clear 29 1007 62 10000 4.6 90 00:26 07.10.2019
6670 Clear 30 1007 55 10000 5.1 100 23:59 06.10.2019
6671 Clear 30 1007 55 10000 5.1 100 23:40 06.10.2019
6672 Clear 30 1007 55 10000 5.1 100 23:20 06.10.2019
6673 Clear 30 1007 52 10000 6.2 110 22:56 06.10.2019
6674 Clear 30 1007 52 10000 6.2 110 22:37 06.10.2019
6675 Clear 30 1007 52 10000 6.2 110 22:18 06.10.2019
6676 Clear 30 1007 55 10000 6.2 100 21:55 06.10.2019
6677 Clear 30 1007 55 10000 6.2 100 21:55 06.10.2019
6678 Clear 30 1007 55 10000 6.2 100 21:55 06.10.2019
6679 Clear 30 1007 55 10000 6.2 100 21:36 06.10.2019
6680 Clear 30 1007 55 10000 6.2 100 21:18 06.10.2019
6681 Clear 31 1007 59 10000 6.2 110 20:54 06.10.2019
6682 Clear 31 1007 59 10000 6.2 110 20:54 06.10.2019
6683 Clear 31 1007 59 10000 6.2 110 20:36 06.10.2019
6684 Clear 31 1007 59 10000 6.2 110 20:18 06.10.2019
6685 Dust 32 1007 62 10000 7.2 100 19:54 06.10.2019
6686 Dust 32 1007 62 10000 7.2 100 19:36 06.10.2019
6687 Dust 32 1007 59 10000 6.7 100 19:18 06.10.2019
6688 Dust 32 1007 59 10000 6.7 100 18:54 06.10.2019
6689 Dust 32 1007 59 10000 6.7 100 18:54 06.10.2019
6690 Dust 32 1007 59 10000 6.7 100 18:36 06.10.2019
6691 Dust 32 1007 59 10000 6.7 100 18:18 06.10.2019
6692 Dust